GFSSW_sfc_wetblb_000.txt.gz
Wetbulb
58.11 57.87 58.00 57.97 58.47 58.75 58.90 59.26 59.41 59.43 59.32 59.61 59.40 60.27 59.66 59.93 59.74 58.15 55.32 61.18 63.30 73.82 72.33 62.11 63.20 63.05 63.72 60.58 64.53 63.99 54.86 53.03 54.76 55.51 56.69 58.75 60.78 65.76 67.52 67.05 67.32 68.27 67.75 69.83 71.52
57.45 57.45 57.59 57.57 57.87 58.28 58.57 58.69 58.91 58.85 58.78 58.97 59.12 60.08 60.35 60.49 57.00 55.98 64.63 70.92 72.30 74.47 61.44 58.50 55.40 57.31 55.62 58.31 60.17 60.27 55.10 56.01 59.88 60.13 59.33 60.20 61.48 63.05 64.36 64.57 64.91 66.57 69.37 71.46 72.00
56.96 56.93 57.06 57.15 57.49 57.76 58.07 58.22 58.28 58.21 58.24 58.74 58.90 60.10 60.65 59.32 56.27 56.06 72.64 70.68 74.15 72.67 60.15 58.32 56.69 55.94 53.70 55.75 57.00 59.53 56.94 60.73 60.86 62.54 63.25 62.11 63.46 65.04 63.45 62.00 64.79 64.34 66.65 70.18 70.46
56.44 56.34 56.43 56.76 57.06 57.34 57.55 57.64 57.61 57.61 57.73 58.33 59.11 60.78 60.55 56.69 43.47 58.93 73.79 74.58 74.80 64.89 59.93 57.05 56.09 54.25 52.87 52.90 56.83 57.92 61.19 61.88 61.16 64.07 62.03 61.99 62.16 60.47 63.58 63.99 67.55 67.63 68.89 69.55 69.26
55.99 56.35 56.33 56.53 56.62 56.93 57.32 57.47 57.16 56.98 57.42 58.16 59.41 60.61 55.75 51.67 52.42 61.08 74.87 74.49 66.96 59.81 57.29 55.10 55.13 55.70 53.03 53.63 56.39 58.62 60.79 62.30 63.07 61.53 61.52 62.65 60.43 61.87 63.94 66.69 67.81 67.96 68.41 68.05 68.83
56.18 56.43 56.59 56.63 56.70 57.12 57.20 57.06 56.87 56.70 57.20 58.04 59.76 59.85 52.41 45.40 55.95 60.44 64.17 62.79 59.47 56.34 54.61 55.17 55.81 57.30 54.55 53.01 53.62 61.05 61.74 61.88 62.05 61.01 61.47 59.78 60.47 60.81 65.17 67.28 66.54 66.73 66.27 67.20 67.57
55.89 56.23 56.35 56.37 56.32 56.35 56.77 56.42 55.94 56.29 56.93 57.64 59.77 59.16 54.51 49.55 57.21 60.04 58.35 56.17 56.02 55.79 52.95 56.14 57.28 54.82 54.44 52.54 56.44 61.25 58.40 59.24 60.81 61.36 61.71 64.19 60.35 60.12 65.14 66.73 65.63 66.02 66.36 66.87 67.32
55.50 55.86 56.06 56.14 56.14 56.16 55.89 55.45 55.54 56.87 57.68 57.72 59.86 56.64 49.60 59.39 59.99 58.19 56.73 55.78 56.00 54.49 55.17 55.83 57.23 54.88 52.56 54.88 54.71 54.84 54.34 50.79 58.01 61.25 62.27 60.79 55.15 61.44 65.69 64.94 63.99 65.50 66.24 66.78 66.92
55.41 55.37 55.53 55.69 55.57 55.31 54.56 54.72 55.90 58.98 57.92 59.87 54.97 54.55 52.41 65.66 59.65 59.38 58.53 55.62 53.49 53.30 53.67 57.78 54.89 52.05 53.33 51.04 47.03 49.72 47.77 51.37 53.94 59.33 60.40 59.12 56.45 61.86 63.80 63.34 63.09 64.48 65.36 66.15 66.03
54.92 54.72 54.92 54.97 54.81 54.21 53.75 54.25 55.68 58.32 59.24 60.56 60.49 51.79 55.23 57.96 60.07 59.70 58.23 57.63 52.67 51.51 52.50 51.73 50.05 50.14 49.26 46.99 42.28 46.31 48.81 52.97 52.42 55.95 57.12 58.10 57.31 61.71 63.16 62.94 62.92 63.70 64.44 65.17 65.42
54.57 54.32 54.32 54.44 54.17 53.42 51.57 48.45 48.35 50.69 57.01 54.11 54.67 55.00 57.22 59.24 61.87 57.05 58.30 56.69 52.56 49.47 45.74 49.00 46.54 45.37 49.65 50.15 50.64 50.90 51.90 52.49 55.02 56.10 58.31 57.70 58.12 60.70 62.91 63.28 63.22 63.59 64.03 64.79 65.31
54.12 54.10 54.28 54.11 53.48 52.97 50.73 45.15 47.96 52.23 48.21 56.39 58.57 58.66 60.14 60.00 58.04 58.49 57.17 53.53 48.78 45.27 47.53 46.39 45.42 51.17 54.17 53.75 51.55 49.86 50.43 51.87 54.92 56.36 54.50 57.55 57.81 60.79 62.41 63.26 63.92 64.05 64.65 65.39 66.07
53.93 54.09 53.97 53.63 52.83 50.81 49.52 51.57 55.16 51.11 46.43 51.72 55.06 55.06 55.74 57.36 56.39 56.26 54.39 53.23 47.81 46.10 47.25 44.33 48.64 54.83 54.49 52.82 51.18 47.88 50.86 51.82 52.75 56.07 56.14 57.31 54.13 56.54 61.71 63.34 63.87 64.93 66.02 66.14 66.39
54.01 54.21 53.68 52.09 46.79 47.99 47.72 50.15 52.91 51.82 41.92 47.27 49.69 53.79 55.70 56.88 52.86 58.79 56.39 53.86 48.17 46.48 47.57 46.63 51.33 52.73 53.06 51.95 50.99 44.13 51.58 55.40 55.21 53.98 47.88 54.83 46.13 52.09 58.08 58.48 60.05 62.45 63.82 65.12 65.75
53.97 53.80 52.81 51.76 46.26 46.72 50.00 51.73 51.97 51.11 35.49 52.06 52.59 58.09 55.19 52.67 52.70 52.37 56.25 51.24 48.22 47.59 46.75 46.20 49.25 49.68 50.05 52.12 51.61 48.99 51.37 50.43 55.58 52.90 49.12 50.77 47.10 52.71 53.83 52.29 55.11 60.71 63.48 64.90 65.75
53.62 53.17 52.46 48.63 47.50 48.76 51.65 50.31 48.81 42.46 36.76 50.57 52.20 50.72 50.57 51.69 52.62 53.08 52.60 51.77 52.00 48.53 47.52 48.38 53.17 51.71 51.77 53.87 52.54 53.58 50.01 47.33 47.13 45.02 41.34 48.85 47.06 46.25 51.54 55.29 56.93 58.99 63.71 64.69 65.50
52.31 51.33 50.82 50.73 42.83 47.38 47.11 46.81 40.64 36.35 49.33 48.51 46.35 49.47 48.61 48.91 50.78 50.49 48.97 47.09 45.99 41.51 42.40 47.17 49.36 51.88 53.38 48.21 50.58 48.98 42.99 38.31 37.83 37.52 37.72 43.11 47.99 50.17 55.83 58.60 57.91 58.47 62.93 64.60 65.59
50.80 50.22 49.65 50.41 49.19 48.93 45.23 41.67 35.44 45.16 45.05 49.36 49.36 49.42 46.46 48.52 48.94 50.85 46.90 45.35 46.90 44.95 41.88 42.05 42.16 49.53 51.39 48.94 47.06 45.97 44.27 39.11 35.58 37.49 40.11 45.04 41.78 47.67 57.52 60.45 59.93 61.26 63.72 64.94 64.56
50.42 46.44 47.35 49.26 50.94 46.57 43.16 35.16 38.49 43.33 48.95 48.34 47.94 45.01 45.43 47.52 48.11 49.34 46.50 46.55 48.40 46.48 43.69 40.29 42.53 51.01 51.59 52.17 49.85 46.66 43.27 47.18 42.43 41.73 40.29 42.46 47.21 53.83 56.46 58.13 58.87 59.18 60.75 62.27 64.03
46.85 43.65 45.85 51.27 52.15 45.71 39.93 37.08 40.96 48.10 49.36 48.81 42.56 45.33 43.14 44.69 45.67 46.65 46.53 48.63 48.52 49.33 47.18 44.07 40.70 47.23 51.71 50.96 50.73 49.39 49.54 43.15 40.62 36.68 34.99 41.16 43.54 45.63 52.83 55.47 57.75 58.05 57.98 59.84 63.53
42.28 41.85 49.06 53.03 50.60 42.65 34.84 37.31 43.71 47.53 48.04 46.77 45.16 44.82 45.94 45.35 47.08 45.96 47.47 49.57 50.92 50.29 47.60 46.73 43.00 45.83 47.64 45.97 46.32 47.62 45.21 44.03 43.62 41.20 37.71 36.66 41.14 50.13 55.17 57.03 57.35 58.69 60.28 58.71 61.76
40.56 36.50 50.06 53.03 43.40 41.19 37.54 41.33 45.89 44.67 47.51 46.70 48.31 47.73 46.61 47.94 46.56 47.71 47.23 49.09 52.66 51.88 46.56 46.18 42.46 42.67 45.18 49.90 50.60 49.63 47.13 44.78 41.06 39.48 39.65 40.25 42.54 54.20 55.41 56.28 59.32 59.87 60.96 59.86 60.88
38.03 39.05 48.14 48.40 38.80 39.27 43.59 46.76 47.18 45.59 44.65 45.71 46.94 49.04 49.71 47.73 45.71 49.79 50.31 54.38 52.50 51.70 48.83 48.53 41.47 41.00 41.94 44.69 46.80 47.64 47.56 46.68 43.42 41.85 40.22 40.05 43.18 53.70 54.13 54.13 55.40 55.15 56.30 58.27 60.38
39.50 37.27 43.11 44.39 41.83 41.04 40.29 43.46 45.46 51.28 49.08 49.78 48.73 49.89 48.75 47.57 49.90 48.16 48.88 53.24 53.99 52.65 58.95 54.50 42.04 42.66 41.81 42.75 46.21 45.03 47.87 48.19 45.17 40.98 40.59 42.61 45.40 49.71 53.24 54.19 54.93 55.97 57.55 58.80 60.40
41.55 40.40 40.08 36.93 39.30 38.68 38.71 44.18 46.05 46.62 51.02 49.90 47.52 50.88 49.73 44.75 47.62 49.51 53.11 53.51 54.78 56.73 55.56 48.33 42.17 44.11 45.50 49.09 49.68 49.43 48.85 48.42 45.19 45.71 44.49 45.10 46.99 49.90 52.91 54.75 55.83 57.34 58.61 58.92 58.98
41.28 39.82 41.52 37.62 38.35 39.86 40.09 41.40 43.70 45.94 48.35 46.94 48.32 51.65 50.65 46.99 51.25 49.35 50.71 47.90 48.54 52.28 48.93 45.83 43.16 45.34 46.18 48.75 49.37 47.75 50.30 50.82 50.73 49.59 48.36 47.63 48.22 53.36 55.50 57.18 55.88 57.65 57.99 57.80 59.38
43.28 45.06 41.03 38.36 37.38 37.65 38.77 42.24 43.21 45.41 50.55 52.54 51.26 50.66 49.82 51.38 53.12 52.47 52.69 51.68 52.22 48.71 48.33 45.65 44.34 42.48 41.22 47.12 48.50 45.89 48.36 49.13 50.07 52.30 50.00 45.22 49.01 52.90 53.31 55.29 54.88 55.10 55.83 56.20 57.72

GFSSW_sfc_wetblb_003.txt.gz
Wetbulb
57.54 57.47 57.55 57.61 57.87 58.37 58.60 58.92 59.03 59.14 58.96 59.16 59.41 59.20 60.06 60.50 59.70 58.26 54.40 60.54 61.50 72.76 71.14 66.56 67.83 64.67 63.03 59.86 64.04 63.06 54.03 51.15 53.19 54.19 55.57 61.86 61.54 67.04 68.73 65.87 66.44 67.67 66.67 68.22 71.57
57.11 57.11 57.08 57.18 57.42 57.68 58.04 58.27 58.55 58.53 58.50 58.61 58.86 59.14 60.23 60.74 56.63 55.38 63.69 70.84 72.42 73.47 60.42 57.78 55.11 56.32 54.28 56.80 59.80 58.33 52.41 54.02 58.58 58.68 58.65 60.44 63.19 64.51 64.61 64.11 64.75 65.99 68.40 70.04 71.19
56.64 56.63 56.58 56.85 57.08 57.37 57.52 57.84 58.03 57.90 57.97 58.30 58.53 59.18 60.60 59.44 54.11 53.34 70.42 71.11 72.51 72.34 59.87 58.06 55.33 54.28 52.12 53.88 55.58 57.81 55.62 59.47 59.75 60.93 60.49 60.50 62.13 63.68 63.52 61.29 64.25 64.71 66.57 68.57 69.46
56.16 56.15 56.26 56.50 56.72 57.02 57.21 57.45 57.46 57.39 57.50 57.87 58.55 59.19 60.60 56.19 43.90 55.12 73.42 74.46 72.74 68.12 58.25 55.64 53.61 51.95 51.61 52.40 54.53 52.24 59.75 60.20 59.64 62.87 60.80 60.37 62.26 62.72 63.41 63.27 67.14 68.35 68.83 68.92 68.82
55.76 55.80 55.99 56.16 56.37 56.49 56.83 56.97 56.82 56.77 57.10 57.61 58.37 59.65 54.61 48.51 50.59 60.22 73.44 73.62 69.16 60.31 56.21 53.75 53.63 54.48 52.59 53.32 53.84 53.65 58.58 60.44 61.63 60.45 61.55 61.54 61.28 62.55 62.95 66.19 68.08 69.24 69.53 68.70 69.20
55.91 56.14 56.18 56.34 56.09 56.32 56.76 56.90 56.61 56.28 56.97 57.69 58.15 59.76 51.27 44.75 54.34 58.95 63.28 66.36 61.82 57.53 54.97 54.25 53.07 56.32 54.36 52.39 50.91 58.61 59.80 60.07 59.15 58.95 60.25 61.17 62.51 63.06 64.32 66.85 66.65 68.41 68.24 68.77 69.36
55.54 55.87 55.93 55.93 56.11 55.88 55.98 56.16 55.60 55.90 56.99 58.10 57.70 59.00 53.31 50.70 56.18 56.10 57.21 57.25 54.44 56.91 52.41 54.33 54.66 53.28 53.26 52.37 55.47 60.51 56.04 58.20 58.64 59.02 59.00 62.15 58.32 60.73 64.92 66.11 65.58 66.71 67.39 68.40 68.96
55.63 55.57 55.70 55.57 55.59 55.90 55.69 55.24 55.31 56.65 58.24 57.97 58.75 56.14 48.66 57.11 59.36 59.24 55.41 54.01 54.51 53.48 53.68 53.63 56.44 53.71 53.12 54.34 56.30 56.33 53.64 52.87 57.22 60.13 61.06 59.53 53.79 62.44 64.91 64.13 63.63 64.90 66.05 66.93 67.73
55.11 55.18 55.16 55.29 55.23 55.04 54.34 54.49 55.64 59.36 58.43 58.53 54.29 52.80 51.05 62.49 60.21 61.11 56.57 54.33 53.13 52.53 53.76 56.95 52.45 50.91 50.76 49.17 46.63 49.60 50.65 49.85 54.09 59.57 59.50 57.76 54.43 62.41 64.74 63.40 62.76 63.93 64.82 65.75 65.71
54.76 54.48 54.51 54.51 54.55 53.96 53.70 54.38 54.50 57.06 58.43 59.65 59.71 51.48 53.31 54.13 59.35 58.21 56.69 55.91 52.46 50.61 50.93 49.77 48.50 46.79 46.88 45.86 42.13 50.18 47.19 52.21 52.99 58.24 57.14 56.10 55.44 61.49 63.48 62.94 62.69 63.42 64.24 64.74 65.38
54.74 54.39 54.26 54.38 54.04 53.31 51.40 46.74 47.30 47.95 54.54 50.76 50.76 53.78 55.63 58.35 60.00 57.28 56.73 54.11 50.85 47.91 44.93 46.96 44.90 43.62 46.14 49.48 49.58 50.64 49.01 52.27 55.65 56.54 56.44 55.35 56.12 59.49 62.22 62.01 61.84 62.51 63.27 63.95 64.95
54.57 54.24 54.18 54.10 53.41 52.72 49.55 44.95 46.34 49.25 43.58 51.78 53.17 54.58 58.01 58.01 54.96 56.61 56.88 51.99 47.62 43.82 45.18 44.05 43.04 47.37 50.61 51.52 50.15 48.50 46.10 48.81 52.54 56.88 56.48 54.65 55.26 59.14 60.58 60.95 61.87 62.04 62.53 63.49 64.48
54.30 54.24 53.92 53.49 52.64 49.59 45.74 46.68 50.71 47.35 42.80 48.98 52.40 53.03 54.21 57.04 54.07 54.56 54.67 51.66 46.93 43.79 44.12 41.66 45.21 51.09 52.13 50.87 50.21 46.42 45.97 47.29 50.47 55.00 56.92 56.31 53.05 55.99 60.04 61.28 62.40 63.06 63.72 64.28 64.03
54.22 54.12 53.71 51.88 44.72 46.09 46.37 47.63 48.50 48.04 39.89 45.16 48.39 51.71 53.57 55.06 51.81 57.87 55.71 52.36 47.39 45.87 45.30 44.49 48.58 50.53 50.71 50.07 50.14 42.83 49.80 51.11 52.25 51.88 47.51 55.39 45.98 51.86 57.20 58.95 61.15 62.55 63.35 64.13 64.85
53.94 53.75 52.37 51.62 46.08 45.13 47.36 47.94 47.65 48.65 33.38 49.14 50.61 55.50 51.93 51.62 51.66 53.41 55.19 51.18 48.45 45.16 45.02 43.86 47.11 47.09 48.39 50.76 51.19 49.33 50.72 49.25 51.30 50.52 48.65 49.58 46.54 49.85 55.90 54.65 58.55 61.46 62.98 64.74 65.74
53.53 52.94 51.69 48.67 47.25 47.90 49.44 47.38 46.71 40.69 34.48 47.37 51.88 49.31 48.19 49.58 51.05 50.96 51.87 51.46 51.45 46.16 45.16 46.27 49.90 49.24 49.13 51.39 52.13 52.66 48.28 45.41 44.76 44.94 42.09 49.25 46.66 45.54 52.53 56.28 58.70 60.54 62.58 65.00 65.32
51.96 51.33 50.32 50.07 42.93 45.36 45.40 45.35 38.83 34.53 46.41 45.65 45.04 47.16 45.75 46.22 49.32 48.70 47.41 46.39 45.16 40.18 39.46 45.45 46.88 48.59 51.53 47.67 49.26 47.41 42.17 36.94 37.84 39.43 40.01 45.64 45.87 48.18 54.67 59.52 60.23 60.08 61.13 64.32 65.58
50.57 50.04 49.28 49.86 48.96 48.48 43.53 40.10 33.80 42.50 42.33 46.29 47.29 46.97 44.52 47.06 47.48 48.12 44.78 45.46 45.85 43.29 41.24 39.35 40.18 46.97 49.37 48.49 46.11 44.56 43.15 37.93 33.41 34.58 40.32 43.55 43.90 50.55 56.12 59.81 61.47 61.72 61.67 64.02 64.74
50.08 44.35 44.92 47.38 49.77 45.18 42.17 33.55 37.20 41.61 47.40 46.28 45.40 42.49 42.57 45.58 45.63 46.44 44.72 45.38 47.18 45.18 41.19 38.02 40.23 48.00 50.00 50.10 49.49 45.33 41.01 44.61 39.00 37.90 37.50 39.65 43.93 50.34 54.91 55.75 59.40 58.82 59.57 61.87 64.16
46.05 41.95 43.55 50.12 50.00 43.25 38.54 35.52 38.60 46.35 47.63 45.72 40.43 43.14 40.01 42.30 43.01 43.16 43.26 47.44 46.78 47.04 46.15 43.31 38.81 45.31 49.63 49.69 49.02 48.25 47.32 40.78 38.38 34.90 33.95 38.87 41.06 43.43 50.46 52.74 56.26 57.36 57.63 60.93 63.91
40.42 37.80 43.82 49.76 45.82 40.31 33.32 35.66 40.76 45.30 45.45 43.29 42.63 42.41 42.57 42.25 43.47 41.41 43.71 47.73 49.81 49.21 47.90 43.29 40.99 42.48 46.15 44.67 45.05 45.25 42.35 41.00 41.38 38.73 36.29 35.63 39.65 47.66 51.02 54.09 55.02 57.22 59.02 60.53 62.23
38.14 31.95 45.60 48.35 40.60 36.68 34.24 38.71 44.45 42.76 44.93 43.62 44.20 43.68 42.39 44.28 43.04 42.68 43.41 46.46 51.40 50.81 44.30 44.49 41.35 40.96 42.46 46.54 48.20 46.59 45.73 44.83 42.35 37.67 36.61 38.51 40.72 50.43 52.92 55.54 56.90 57.53 58.39 58.38 60.99
39.16 35.78 45.71 44.91 35.68 36.76 40.71 44.31 46.17 45.35 45.65 43.21 42.40 45.12 47.97 45.59 41.43 44.24 46.25 51.02 53.14 50.54 47.37 44.26 38.79 36.50 39.01 41.55 44.30 44.41 45.61 42.69 41.35 40.08 38.82 39.41 41.50 51.55 53.21 54.57 57.41 57.37 57.74 57.99 59.46
39.48 34.31 40.32 41.04 38.70 37.11 37.01 39.25 42.16 50.19 48.50 49.41 46.19 48.40 47.59 45.01 46.93 45.39 47.45 52.16 53.81 50.24 58.32 52.18 38.41 42.91 40.55 41.33 44.46 43.68 46.23 45.73 43.83 39.79 39.01 40.86 43.79 48.44 52.05 53.97 54.57 55.87 57.90 58.84 59.14
40.12 37.16 38.25 35.05 37.75 36.83 35.79 39.65 42.21 42.40 46.80 48.85 44.92 47.37 48.56 43.87 46.39 47.27 50.09 52.06 54.96 56.62 53.62 47.26 41.48 40.65 45.67 46.22 46.28 46.41 46.48 46.47 44.49 44.73 44.11 44.36 45.39 49.79 52.39 53.61 55.17 56.44 56.15 56.85 58.16
39.04 38.37 40.77 39.18 37.15 37.04 36.91 37.35 40.61 42.13 42.98 44.98 44.69 50.63 49.92 45.67 48.76 47.27 49.29 48.81 50.52 51.49 48.39 43.90 41.33 43.10 41.80 45.49 46.24 45.54 47.77 48.58 48.86 45.31 45.10 44.97 45.25 50.58 55.08 54.00 54.32 55.95 56.26 56.55 57.27
40.77 42.28 40.34 40.15 37.09 35.52 36.32 39.26 41.83 43.31 44.77 46.29 50.78 48.66 48.47 50.50 52.28 51.96 51.99 51.11 51.80 48.41 47.25 41.56 44.33 39.54 41.78 43.74 46.07 42.20 46.32 48.07 48.99 49.68 48.39 44.56 47.87 50.88 51.37 54.34 55.03 55.53 57.00 57.65 58.09

GFSSW_sfc_wetblb_006.txt.gz
Wetbulb
57.49 57.31 57.31 57.41 57.69 57.98 58.32 58.51 58.81 58.85 58.85 58.93 59.20 59.24 59.01 59.43 59.34 57.19 52.52 60.05 60.93 72.70 74.29 71.39 68.36 66.32 67.60 61.12 62.50 62.26 53.34 49.81 51.78 53.52 55.41 61.17 62.53 65.93 67.85 65.11 66.19 66.96 65.60 67.86 70.92
56.93 56.97 56.90 57.02 57.37 57.46 57.74 57.96 58.17 58.23 58.31 58.32 58.52 59.00 58.87 59.68 55.87 54.00 62.53 70.33 72.30 73.40 59.47 61.56 58.64 59.41 55.92 55.71 59.39 57.05 52.02 53.32 57.01 57.18 58.89 61.03 63.67 64.39 63.69 63.49 63.97 65.03 68.33 70.28 70.94
56.48 56.41 56.34 56.55 56.88 57.16 57.47 57.67 57.63 57.77 57.82 57.90 58.26 58.82 58.89 59.51 51.95 50.48 69.30 70.47 73.03 70.52 58.31 57.81 54.77 54.82 51.24 52.62 56.20 57.10 54.05 57.44 58.60 59.04 62.79 60.85 63.23 63.85 62.27 60.39 63.70 63.19 66.38 69.13 69.72
55.88 55.95 56.04 56.17 56.36 56.62 57.02 57.20 57.17 57.26 57.35 57.57 58.09 58.87 59.75 55.71 44.32 53.97 73.61 73.88 73.31 65.82 57.18 54.84 52.38 50.76 50.40 50.87 53.64 53.50 58.14 59.17 59.07 61.62 61.68 60.44 62.03 62.53 62.47 62.47 66.43 66.49 68.06 69.08 68.75
55.28 55.32 55.49 55.58 55.73 56.14 56.37 56.68 56.78 56.65 56.98 57.48 57.86 58.04 53.71 46.94 50.08 55.37 70.32 73.30 69.49 62.39 55.65 52.78 51.00 51.53 51.37 52.28 53.18 51.69 53.39 58.93 60.97 59.27 60.69 62.21 61.27 62.26 61.97 65.39 67.64 67.56 68.35 68.01 68.32
54.93 55.49 55.72 55.84 55.59 55.91 56.59 56.57 56.45 56.04 56.63 57.45 58.01 57.77 49.70 44.85 54.85 56.06 63.44 65.87 61.64 56.88 54.28 53.30 53.11 55.01 53.43 52.62 50.52 53.39 57.87 58.81 58.68 58.48 59.06 60.13 61.08 62.26 63.33 67.13 66.96 66.68 66.80 67.62 68.08
54.83 54.79 55.33 55.70 55.25 55.39 56.12 56.00 55.36 55.77 56.94 58.13 57.51 57.91 51.75 50.02 55.72 57.35 55.31 58.77 57.69 55.23 53.05 54.01 53.91 52.56 52.42 51.34 53.23 58.74 55.29 57.51 57.56 58.07 60.18 62.27 58.30 59.25 64.37 66.43 66.10 66.63 67.28 67.77 68.72
55.36 54.98 54.79 54.75 54.91 55.58 55.49 55.10 54.92 56.51 59.34 58.37 58.57 55.00 47.64 56.93 57.13 59.76 56.11 52.90 54.19 53.36 53.58 53.04 53.58 51.00 51.28 53.33 56.07 53.69 53.90 50.95 56.26 58.54 60.78 58.31 52.46 61.30 64.45 64.52 64.87 66.46 67.19 67.70 68.47
55.03 55.13 55.19 55.23 55.09 54.78 54.27 54.25 55.40 58.64 58.57 59.14 53.93 51.16 50.01 61.84 57.12 58.82 56.14 53.39 52.19 51.78 53.19 56.26 52.81 49.27 50.25 49.17 49.32 49.98 48.55 49.24 53.49 58.37 58.98 56.77 53.62 61.38 63.93 63.57 63.99 65.67 66.39 67.12 67.71
54.62 54.68 54.65 54.78 54.61 53.92 53.31 54.10 54.13 56.38 58.21 59.22 59.16 50.84 53.31 52.98 56.06 57.49 55.85 54.61 51.48 50.37 50.79 49.49 46.84 45.97 45.21 47.36 44.60 47.58 49.42 48.49 52.04 55.98 57.45 55.10 54.27 60.98 62.33 62.30 62.79 64.00 64.54 65.82 66.27
54.45 54.23 54.29 54.29 53.76 52.94 50.95 45.38 45.95 45.77 50.92 49.25 49.48 52.19 53.97 55.02 58.14 56.14 55.53 53.24 49.49 46.34 43.32 45.09 43.78 41.69 45.90 48.35 52.40 50.91 51.19 52.42 53.76 56.46 54.61 53.97 54.87 59.76 61.62 61.50 61.52 61.98 62.74 64.16 64.94
54.23 54.14 54.10 53.71 52.83 52.33 47.25 43.05 45.58 46.19 40.75 48.18 49.81 51.32 54.19 55.55 52.86 55.25 55.56 51.09 48.48 43.86 43.60 43.34 41.60 46.00 49.08 49.96 50.09 51.69 48.61 50.22 51.64 55.84 55.28 53.90 54.51 59.61 61.26 61.23 61.61 61.85 62.25 63.04 64.34
53.86 53.75 53.47 52.27 51.77 48.13 43.18 42.56 48.14 46.42 40.07 45.84 48.70 49.40 50.12 53.34 51.10 52.86 54.33 50.25 46.67 44.45 41.99 40.31 43.76 48.79 50.42 48.45 47.48 45.68 45.51 45.64 51.11 54.83 55.51 54.99 52.26 54.73 60.13 61.38 62.16 62.69 63.35 63.83 63.82
53.43 53.41 52.37 51.36 43.69 45.14 44.25 45.97 46.51 45.77 38.16 43.40 46.65 50.78 52.08 53.36 49.37 56.35 56.01 52.49 46.42 44.92 43.72 42.38 46.63 48.33 48.22 48.77 48.55 43.09 48.91 49.42 51.48 51.45 45.90 53.12 43.44 51.08 55.99 58.06 59.58 60.92 61.81 62.83 63.73
52.91 52.69 51.31 50.94 45.10 43.30 45.31 45.73 45.39 45.17 31.87 47.22 48.39 54.12 50.64 48.52 48.44 51.79 55.06 50.81 47.57 45.55 44.04 42.88 44.39 46.19 47.20 48.42 50.10 47.70 50.00 49.37 51.10 48.60 47.68 49.40 45.00 48.00 55.41 54.07 57.12 59.82 61.26 62.67 63.71
52.25 51.78 51.12 47.74 45.09 46.53 48.53 45.71 44.38 38.76 32.66 44.49 50.30 47.30 47.46 47.70 48.72 49.64 51.71 51.82 51.41 46.63 43.50 45.92 47.65 47.91 47.81 50.59 52.10 50.54 46.23 44.88 43.78 44.29 40.03 46.83 47.62 44.85 50.90 55.70 58.11 60.44 62.19 63.43 64.06
50.85 50.38 49.84 49.11 41.30 44.78 44.53 43.21 36.42 32.42 44.30 43.15 42.95 44.57 44.53 45.42 47.26 46.78 47.13 45.16 43.96 39.89 38.57 42.89 44.54 46.88 49.55 46.10 48.11 45.64 42.10 36.59 36.09 37.71 38.17 44.06 45.76 49.84 52.90 58.18 59.59 59.88 61.66 63.73 64.98
49.61 49.41 47.65 48.53 46.53 46.97 41.32 37.52 31.02 40.20 40.66 44.39 44.88 44.29 41.64 44.33 45.05 47.23 44.12 43.83 44.15 42.59 38.95 37.80 37.63 44.98 47.82 46.72 44.94 43.86 43.20 37.48 33.14 34.20 40.11 45.11 43.83 50.09 57.07 57.67 60.03 60.56 62.41 63.32 64.50
49.45 43.78 42.68 45.06 48.91 43.75 38.73 30.42 34.19 39.84 45.36 44.38 43.84 39.96 40.60 43.92 44.38 44.65 43.06 43.24 46.30 44.00 40.48 36.95 38.38 45.92 47.78 48.68 48.51 42.69 40.26 43.52 37.55 34.35 36.48 39.71 43.91 50.01 52.76 53.83 56.99 58.98 60.42 61.21 63.69
45.01 42.39 40.52 48.68 48.55 40.92 35.32 32.74 36.01 43.82 44.76 42.45 38.58 40.94 37.68 39.90 41.52 41.44 40.75 45.52 45.02 46.69 44.42 41.89 36.52 43.45 47.05 47.89 47.22 46.19 45.93 40.79 36.80 33.27 32.45 37.79 39.72 43.27 48.08 51.89 53.66 56.36 58.46 60.61 62.80
39.33 35.06 41.05 48.35 42.99 38.40 31.09 32.72 38.73 42.85 43.71 40.61 40.62 39.77 39.77 39.62 41.49 39.74 41.93 45.84 47.65 46.95 45.10 42.01 39.05 40.48 44.20 44.13 44.13 42.87 40.86 39.47 39.60 37.13 34.67 33.96 38.13 46.09 49.18 52.04 53.82 55.79 59.06 59.85 61.26
39.77 30.99 42.83 44.92 38.46 33.75 32.34 35.98 42.24 41.37 43.29 42.45 42.36 41.86 40.73 42.02 39.50 40.91 41.66 44.84 49.00 47.31 42.82 43.11 41.46 39.16 40.80 44.24 46.92 46.74 43.48 42.45 40.83 35.83 35.77 36.90 39.42 49.37 51.20 52.01 55.12 56.13 58.77 57.81 60.89
36.85 36.42 43.23 42.33 33.72 34.75 37.95 41.86 43.49 43.46 43.29 43.68 42.11 42.68 43.01 41.38 39.23 41.76 43.42 48.18 49.06 47.26 44.87 43.58 37.38 37.62 37.42 39.86 42.88 42.47 43.14 40.53 39.56 38.60 36.53 37.87 40.35 49.93 50.90 53.09 55.48 55.58 56.46 57.49 60.02
38.55 30.94 37.29 38.69 35.65 33.54 33.34 36.21 39.61 47.15 46.08 46.56 45.20 44.92 42.39 41.67 42.86 41.51 44.01 50.25 52.68 52.17 59.28 54.03 38.14 40.54 39.26 41.01 42.62 41.91 44.68 43.64 41.99 37.39 38.05 39.79 43.42 47.72 51.84 53.00 54.58 56.13 56.54 56.57 59.04
40.34 33.77 36.90 33.92 35.95 36.16 32.98 36.81 39.72 40.27 44.82 45.55 42.78 44.79 43.72 39.74 42.68 42.03 45.50 47.94 52.28 55.75 50.54 42.17 40.63 40.95 45.36 43.61 44.67 44.62 44.90 44.33 42.50 42.65 42.13 44.90 43.77 48.26 51.73 53.06 54.51 57.44 57.54 57.38 56.82
39.93 38.52 38.98 37.14 37.89 33.98 34.83 34.15 39.03 41.06 41.12 41.45 42.07 46.42 45.47 42.79 44.91 43.99 46.45 46.11 47.66 50.76 48.00 42.94 39.59 38.99 43.22 44.75 44.59 44.05 45.35 46.38 45.97 45.21 45.07 44.85 44.87 49.41 52.98 54.06 54.41 56.02 56.99 57.14 57.64
38.99 40.12 40.89 38.43 36.83 33.78 33.74 36.42 39.36 41.19 43.15 44.57 44.37 43.47 45.74 47.42 48.14 49.64 49.80 50.33 50.57 48.23 47.55 43.27 38.98 36.79 39.37 41.29 41.31 38.69 44.85 45.01 45.98 46.48 46.71 43.61 48.36 49.73 51.39 53.60 54.39 54.53 56.59 57.96 58.10

GFSSW_sfc_wetblb_009.txt.gz
Wetbulb
57.19 57.27 57.14 57.12 57.45 57.74 57.98 58.43 58.49 58.82 58.84 59.05 59.06 59.21 59.63 59.20 59.26 59.20 56.27 61.20 63.09 76.13 74.78 72.16 68.71 70.94 70.97 67.96 67.94 65.38 59.89 56.47 56.87 59.12 60.83 65.31 63.70 67.52 68.99 66.59 67.03 68.04 67.72 68.89 71.78
56.72 56.79 56.76 56.86 57.00 57.15 57.47 57.81 58.07 58.22 58.35 58.44 58.62 58.82 59.06 59.02 57.28 56.63 64.84 69.68 72.71 75.31 69.07 65.56 63.96 66.74 63.45 59.84 62.92 62.08 59.79 58.42 61.17 62.76 62.56 64.71 65.16 66.08 65.76 65.34 65.25 66.56 69.51 70.87 71.69
56.34 56.29 56.22 56.41 56.80 56.91 57.18 57.36 57.38 57.36 57.45 57.78 58.18 58.64 59.18 59.62 56.00 54.65 71.23 70.88 73.06 73.00 67.78 64.34 63.93 59.95 55.64 58.62 60.56 61.99 58.83 61.13 61.69 62.80 65.38 64.85 64.79 67.53 64.89 62.91 65.48 65.76 68.04 69.93 70.55
55.74 55.88 55.91 55.97 56.28 56.49 56.82 56.85 56.92 56.93 57.07 57.32 57.98 58.51 58.73 58.14 49.13 55.92 72.77 71.07 72.91 69.33 61.17 58.74 57.87 55.41 53.99 53.38 58.42 57.93 61.19 61.84 62.17 63.90 64.64 64.13 66.62 64.94 65.37 64.19 68.03 69.11 69.87 69.95 69.63
55.46 55.47 55.48 55.54 55.86 56.15 56.45 56.56 56.33 56.51 56.71 57.24 58.05 58.55 56.79 53.16 54.08 58.40 70.72 73.29 69.62 64.47 57.72 56.82 54.99 54.67 52.63 55.68 56.73 56.44 57.26 60.74 63.00 64.32 64.97 66.13 64.88 64.57 64.85 66.72 69.30 69.81 69.91 69.44 69.68
55.00 55.29 55.57 55.61 55.92 56.07 56.58 56.67 56.30 55.91 56.51 57.61 58.34 57.67 55.05 49.70 57.91 60.98 68.12 67.86 67.09 61.83 57.92 57.13 55.93 56.94 55.51 57.39 56.82 56.96 58.72 60.38 62.88 63.84 64.51 63.71 63.96 65.00 65.54 68.62 68.25 68.75 68.84 69.54 69.83
54.57 54.83 55.52 55.50 55.27 55.72 56.14 55.76 55.51 55.70 56.86 58.42 58.57 57.39 54.38 53.68 58.55 59.42 61.49 63.69 64.66 61.22 56.99 57.57 57.83 57.56 58.29 56.09 57.34 61.83 59.26 61.21 61.53 62.96 62.62 65.05 61.45 62.19 66.27 68.40 67.10 67.62 68.48 69.15 70.03
54.43 54.78 54.84 55.01 55.13 55.37 55.53 55.08 54.78 56.32 58.27 59.09 59.11 58.29 53.79 59.67 60.09 60.69 61.62 58.93 60.69 60.03 58.85 59.37 58.09 55.77 55.13 58.25 60.55 59.42 59.98 56.42 60.44 62.44 63.35 63.12 57.20 63.60 67.30 67.27 66.07 66.73 67.67 68.39 69.46
54.22 54.51 54.99 55.25 55.25 54.66 54.01 53.96 55.51 57.96 59.18 59.49 57.71 55.65 55.20 64.05 59.59 61.79 61.97 56.57 56.85 59.50 59.00 57.87 57.78 54.79 55.06 55.31 56.93 57.43 55.03 56.10 57.55 62.58 62.31 61.52 58.47 63.79 67.15 66.97 66.11 66.59 67.35 68.15 69.01
54.40 54.33 54.39 54.52 54.23 53.52 52.86 53.64 54.84 58.23 59.20 59.67 59.99 54.90 58.51 56.69 58.87 60.47 60.71 56.99 55.16 55.71 55.00 54.11 53.56 51.53 53.21 54.45 49.89 54.14 55.22 56.41 56.91 59.81 61.79 60.09 59.74 63.66 65.78 66.34 66.13 66.99 67.62 68.26 68.91
54.09 53.94 53.86 53.64 53.25 52.18 52.25 51.65 52.71 51.89 55.30 55.15 55.10 55.81 56.29 58.41 59.31 59.10 58.50 57.06 54.28 54.33 50.75 52.32 49.32 47.16 50.93 55.41 56.82 57.34 57.34 56.51 58.56 60.73 60.01 59.62 59.87 62.27 64.84 65.44 65.60 66.86 67.67 68.13 68.83
53.59 53.47 53.26 52.94 52.26 51.82 50.45 46.49 48.82 48.53 44.75 49.33 49.78 51.81 54.85 56.53 52.83 56.46 59.26 55.62 53.21 50.58 49.38 48.86 46.80 50.94 53.12 54.22 55.20 57.52 56.71 56.79 58.11 60.42 60.21 59.09 58.86 62.39 64.37 64.49 65.52 66.10 66.97 67.64 68.92
53.43 53.00 52.65 51.75 51.44 50.55 46.76 47.67 50.95 50.48 44.44 47.73 49.71 50.40 52.15 53.40 51.25 52.83 57.07 55.58 53.22 51.39 48.40 47.06 48.58 51.05 51.90 52.22 51.96 55.81 55.98 56.61 56.39 58.31 59.63 59.28 57.24 59.36 63.50 65.25 65.61 66.20 67.15 67.78 67.95
53.16 52.71 52.01 50.18 47.73 47.26 48.71 51.20 50.98 49.66 44.91 47.79 49.86 53.26 54.53 54.27 51.06 55.94 57.00 56.03 51.55 51.27 49.43 48.67 50.19 49.39 50.35 51.74 53.26 51.40 56.93 57.97 57.08 56.05 52.50 58.91 50.47 57.65 61.11 62.47 64.03 65.15 65.87 66.56 67.28
52.50 52.13 51.27 50.26 47.38 46.54 49.01 50.60 51.24 49.98 37.40 49.33 51.44 56.81 55.47 53.26 51.90 53.07 58.12 55.92 51.87 50.85 50.13 48.60 47.47 48.55 48.93 51.10 54.12 53.27 56.19 55.61 56.68 55.88 54.50 55.05 52.38 55.78 59.94 59.67 62.47 64.64 65.76 66.55 67.55
51.98 51.23 50.92 49.00 47.82 49.28 50.87 50.22 50.63 44.63 37.03 46.62 53.01 51.47 50.81 52.45 52.31 53.98 54.08 56.36 56.24 52.36 49.64 51.31 51.33 50.71 51.41 53.92 54.97 54.17 53.54 53.26 54.86 54.23 48.07 52.77 53.15 52.49 57.07 59.60 61.96 64.53 65.58 66.57 67.31
50.49 49.75 49.53 49.29 46.06 49.81 50.31 48.27 42.74 38.65 47.31 45.65 48.03 49.58 49.33 49.51 50.48 51.40 50.80 50.64 50.17 47.51 47.61 50.13 49.86 51.20 51.93 51.47 54.69 53.54 51.83 46.50 45.90 45.99 45.54 52.32 52.91 54.31 59.09 61.82 63.06 63.71 64.92 66.23 67.34
49.06 48.83 49.30 49.78 50.44 50.82 47.46 43.47 36.50 42.48 44.62 48.10 48.14 48.36 46.22 48.42 49.77 49.60 49.80 48.76 52.83 51.94 48.87 45.97 43.80 49.53 52.03 50.83 50.93 51.26 51.68 47.79 42.46 43.69 46.44 50.72 49.32 53.73 60.75 62.24 63.56 65.18 65.84 66.44 66.84
49.11 47.85 46.17 48.53 50.25 49.33 43.84 36.20 39.31 42.79 47.77 47.53 48.18 45.73 46.01 47.54 47.93 48.99 49.26 49.20 51.53 52.21 47.54 45.71 45.78 49.37 51.02 52.83 53.72 50.73 48.60 53.71 50.02 46.48 46.65 49.91 53.44 55.83 59.11 59.67 61.14 62.86 64.68 65.42 66.64
45.93 43.65 43.60 50.98 51.27 46.51 40.64 37.43 40.43 46.30 48.77 46.69 44.03 46.55 43.98 45.42 45.69 46.78 47.33 50.55 50.92 52.57 54.70 49.50 44.88 49.14 50.22 52.26 52.31 51.85 53.28 47.51 48.37 44.41 42.37 46.72 48.15 50.05 56.80 58.75 61.30 61.51 63.51 65.37 67.17
44.21 39.22 47.10 51.92 47.99 43.54 37.35 38.05 41.02 45.15 48.14 45.19 44.87 45.20 46.12 44.18 45.66 45.39 46.22 49.15 50.40 51.01 53.57 51.98 48.27 46.54 48.97 48.46 48.07 48.99 48.51 49.15 50.94 48.88 45.83 43.96 47.40 56.78 58.99 61.95 61.34 61.93 63.65 65.30 66.66
42.10 35.35 46.96 49.98 43.12 41.80 39.08 40.40 42.68 44.35 45.79 44.64 46.63 46.72 45.39 45.58 44.53 44.68 44.91 48.51 51.15 51.14 48.05 51.32 49.49 45.90 47.14 50.52 51.18 51.47 50.45 51.17 47.36 46.76 47.75 48.02 48.32 56.80 58.26 60.35 61.43 62.54 63.19 65.05 67.45
38.23 38.86 47.12 46.66 38.04 40.54 43.13 42.98 45.35 45.64 46.09 46.32 44.68 47.03 47.56 44.87 42.76 45.77 46.95 50.46 51.31 50.46 51.20 49.80 47.36 43.93 45.20 48.94 50.19 48.44 49.97 51.47 51.42 51.63 49.82 45.58 47.93 57.54 57.77 57.94 59.79 61.03 63.69 64.46 65.70
39.76 34.60 42.30 44.50 42.12 40.20 39.74 40.87 41.62 47.46 47.20 48.62 47.58 48.93 48.40 47.18 48.93 46.97 46.91 50.49 52.43 51.04 58.38 55.92 51.18 48.67 44.88 47.15 49.57 47.12 48.20 50.05 49.72 47.08 48.03 48.13 50.42 55.04 57.47 58.88 61.04 62.07 63.68 64.24 64.58
40.56 37.88 40.69 38.82 41.12 41.57 40.08 39.80 39.63 40.53 46.91 47.86 48.11 48.33 47.61 45.30 46.53 46.53 49.11 50.05 51.64 55.76 56.45 54.85 48.71 49.86 51.04 52.43 50.32 49.13 47.52 48.76 48.41 50.35 48.34 50.14 50.77 55.00 59.64 61.00 62.68 64.02 64.60 63.13 63.82
38.54 39.17 39.79 38.71 40.20 39.68 39.50 39.23 39.90 41.99 43.19 43.89 44.84 47.25 48.19 46.29 47.65 46.39 49.55 50.12 50.78 54.47 55.09 51.19 50.54 47.89 46.85 50.45 50.09 47.82 49.35 49.17 49.70 50.03 50.66 51.58 52.38 57.60 60.76 61.81 61.87 62.31 63.82 63.06 63.45
43.12 43.13 39.09 36.97 37.90 37.49 38.65 39.49 40.17 41.71 44.06 45.73 44.95 43.76 44.07 47.34 50.12 51.74 52.79 53.79 54.45 53.11 54.09 54.78 50.53 49.74 46.57 48.63 48.09 45.11 49.06 49.65 50.65 52.01 51.58 49.45 54.40 59.38 57.69 59.15 61.32 63.37 64.14 64.54 64.84

GFSSW_sfc_wetblb_012.txt.gz
Wetbulb
57.16 57.09 57.20 57.21 57.58 57.96 58.18 58.35 58.50 58.59 58.61 58.89 59.06 59.56 59.76 60.05 59.75 62.61 60.10 65.19 65.60 75.93 76.46 71.77 70.73 71.15 71.29 69.07 69.22 68.34 61.43 58.66 58.91 59.60 62.11 65.56 64.28 67.78 69.30 67.97 68.30 69.16 68.39 70.57 72.02
56.74 56.67 56.64 56.72 57.13 57.38 57.64 57.96 58.01 58.18 58.16 58.32 58.50 58.90 59.55 59.81 61.18 59.54 68.56 70.09 73.91 76.37 70.29 67.54 66.37 69.18 66.51 63.98 64.77 63.79 61.20 59.54 62.00 62.59 63.86 64.85 64.98 66.87 66.49 66.67 66.71 68.25 70.34 71.47 71.65
56.29 56.30 56.32 56.40 56.72 57.04 57.21 57.53 57.58 57.58 57.69 57.98 58.15 58.56 59.49 60.44 59.56 57.46 70.10 71.82 74.65 75.65 67.05 67.16 65.11 66.04 60.22 59.21 60.24 61.58 60.27 62.79 62.75 63.02 65.78 65.45 65.19 67.72 65.05 64.49 66.62 67.20 69.21 70.60 71.04
55.59 55.66 55.92 56.20 56.54 56.62 56.93 57.18 57.11 57.19 57.35 57.59 58.05 58.61 59.51 61.53 50.14 59.73 71.66 72.79 75.52 72.04 64.72 63.12 61.40 58.61 55.57 55.65 59.32 58.31 60.53 61.28 62.37 64.18 65.51 65.00 66.94 65.62 65.44 64.90 68.55 69.80 71.02 70.96 70.67
55.15 55.22 55.49 55.65 56.07 56.36 56.55 57.12 56.89 56.53 56.95 57.48 58.07 58.79 60.09 57.54 56.31 64.24 70.42 72.09 69.45 68.62 60.37 59.71 56.87 57.57 54.50 57.06 58.04 57.75 58.91 59.92 61.66 63.65 65.44 66.95 65.63 65.43 65.74 67.75 69.80 70.63 70.91 70.44 70.76
54.94 55.22 55.66 55.74 56.05 56.24 56.65 56.50 56.39 55.94 56.33 57.40 58.45 58.68 59.42 52.28 60.30 63.22 66.77 68.46 65.69 64.42 59.88 59.03 56.91 58.05 56.56 57.04 57.75 59.41 59.31 59.96 61.62 63.98 65.81 65.13 65.83 66.47 66.60 68.72 69.47 70.02 70.35 70.64 70.74
54.64 54.62 55.33 55.49 55.30 56.09 56.27 55.89 55.13 55.36 56.39 57.85 59.14 59.68 57.85 55.46 60.77 62.26 63.09 63.32 65.20 63.84 59.46 59.55 59.43 57.23 57.77 57.07 59.90 60.02 59.12 61.95 62.87 65.21 64.70 66.27 63.63 64.11 67.64 69.05 69.23 69.49 70.21 70.44 70.88
54.22 54.31 54.12 54.22 54.57 55.15 55.30 54.64 54.46 56.32 57.68 59.50 60.01 61.24 56.13 61.86 63.72 61.68 62.97 62.52 64.09 65.75 62.03 61.55 60.27 58.05 57.50 60.61 59.19 59.06 59.79 57.62 62.89 64.69 65.25 65.25 59.47 65.17 68.74 68.30 68.23 68.81 69.62 69.81 70.65
54.11 53.98 54.39 54.67 54.73 54.46 53.70 53.78 55.60 58.83 59.32 60.10 61.46 61.06 55.73 63.74 61.72 63.96 64.60 60.50 61.47 61.69 61.23 60.30 59.17 57.24 57.36 56.13 56.58 58.41 55.23 56.91 60.32 64.72 64.17 64.04 59.93 65.33 68.67 68.37 68.07 68.31 68.65 69.31 70.26
54.28 54.32 54.12 54.07 53.72 53.07 52.59 53.95 57.49 59.73 61.04 62.57 62.60 58.52 60.34 57.00 62.38 61.58 64.77 60.88 59.49 59.57 57.70 56.87 56.22 54.38 55.10 54.87 51.72 54.66 55.23 57.06 57.60 62.56 63.86 62.41 61.68 64.77 67.78 67.67 67.72 68.58 68.55 68.77 69.40
54.18 53.83 53.54 53.21 52.67 52.05 53.21 56.48 57.06 57.47 60.29 57.30 57.44 58.02 57.58 60.48 61.37 60.61 62.58 59.21 58.85 57.26 52.33 54.20 51.61 50.17 53.90 56.37 57.25 57.42 57.05 56.73 59.02 63.32 62.40 61.26 61.26 64.10 67.17 67.45 67.27 68.44 68.73 68.65 68.85
53.74 53.46 53.10 52.55 51.84 51.53 53.85 51.13 51.62 51.01 48.55 53.65 53.71 54.45 57.57 58.78 54.29 57.43 62.09 57.00 55.91 52.81 53.77 51.79 49.17 53.31 55.20 55.97 56.05 56.80 56.15 56.48 59.55 62.82 62.37 61.20 60.94 63.39 65.80 67.02 67.62 68.03 68.87 69.53 69.55
53.35 52.94 52.53 51.87 51.31 54.45 52.41 53.41 54.51 53.68 48.63 51.77 53.45 52.95 54.31 55.59 53.77 55.00 59.37 58.02 54.47 52.82 52.24 50.33 51.22 53.75 53.42 53.45 54.47 56.56 55.76 56.52 58.14 61.31 62.58 60.87 59.63 61.60 63.99 66.67 67.92 68.60 69.21 70.36 70.04
53.13 52.73 51.86 50.81 51.52 52.25 53.12 55.53 55.75 54.16 47.45 50.86 52.13 55.15 56.43 56.45 53.02 57.93 58.60 57.56 55.23 52.23 52.80 51.26 53.48 51.70 51.50 51.67 55.06 53.89 57.55 57.67 58.14 58.28 54.98 61.12 53.32 58.89 61.97 63.76 66.06 67.67 68.24 68.45 70.27
52.79 52.30 51.03 49.98 50.55 50.68 52.61 54.06 54.92 53.91 41.12 51.90 53.53 59.66 58.31 55.66 55.25 55.36 58.76 57.43 53.57 53.03 53.75 51.00 50.66 50.33 49.94 51.45 54.57 54.68 58.21 57.74 57.65 57.66 57.27 57.83 55.76 57.50 61.02 61.01 63.95 66.81 68.24 68.52 68.81
52.42 51.51 50.59 52.11 52.99 53.04 54.36 54.47 54.95 46.99 40.61 49.16 54.17 53.51 53.77 55.30 54.52 55.46 55.23 57.89 57.60 53.98 54.38 53.24 54.75 52.59 51.96 53.17 54.80 57.05 56.69 57.44 57.61 56.33 51.95 56.22 55.75 54.91 57.70 61.12 62.40 65.75 67.84 68.82 68.18
51.05 49.56 49.81 52.05 49.99 54.05 54.45 50.33 44.91 41.84 49.63 48.22 49.95 53.44 52.10 51.45 52.98 53.83 52.51 51.93 51.77 49.59 49.65 51.70 51.61 52.71 53.06 51.39 53.96 55.50 54.81 50.35 49.39 49.66 49.51 56.64 54.89 56.22 59.04 60.96 62.34 62.52 66.45 68.91 68.78
49.43 48.31 52.32 52.59 55.09 53.86 51.23 44.94 40.24 45.31 46.88 50.87 51.06 52.06 49.95 51.30 51.70 52.24 51.16 49.79 53.34 53.05 50.86 48.06 45.73 51.47 52.83 51.83 51.94 53.16 54.49 50.62 45.99 47.20 49.75 55.83 51.98 55.31 61.11 62.23 62.62 64.33 65.51 68.57 68.81
48.77 51.19 50.80 54.48 54.36 53.43 47.58 39.75 42.52 45.68 48.87 47.91 49.85 49.07 49.89 51.00 50.25 51.85 51.61 50.44 52.00 54.06 50.23 49.43 48.48 53.47 53.00 53.51 54.09 52.87 52.18 56.50 52.75 53.56 50.49 52.58 55.64 58.65 60.45 61.08 62.58 63.05 65.43 67.04 68.77
48.32 48.54 49.11 53.93 55.97 51.54 43.92 39.99 44.83 47.07 48.65 50.42 46.57 49.36 47.43 49.33 48.95 50.38 50.91 52.96 52.09 54.87 56.59 53.29 48.54 52.94 52.80 53.76 53.96 54.06 56.37 51.30 52.91 48.00 46.32 50.16 52.33 53.47 57.75 58.37 60.24 62.95 64.58 66.73 68.77
48.44 43.95 52.41 57.21 55.09 48.30 40.70 42.34 44.91 47.36 48.13 47.91 47.24 48.11 48.90 48.69 49.58 49.58 49.89 52.21 53.88 54.08 56.43 55.13 51.74 50.35 52.57 50.17 50.00 51.35 51.79 53.66 54.16 52.41 48.24 47.53 50.48 58.30 58.27 59.83 59.72 61.33 64.97 65.97 68.36
46.15 40.41 52.48 54.85 45.84 46.39 43.60 45.86 44.92 45.52 47.36 47.12 48.46 48.44 48.64 49.42 48.81 49.08 48.98 51.10 53.91 55.35 53.32 55.93 53.18 48.69 48.44 52.44 53.41 53.61 52.76 54.24 50.03 50.48 52.28 51.18 51.12 59.26 60.16 60.00 60.50 60.98 62.11 64.94 68.02
43.41 43.48 52.41 51.19 39.55 42.14 46.12 45.17 46.60 45.84 45.70 45.67 45.42 47.50 49.05 47.96 47.07 48.88 49.62 52.09 52.22 52.76 53.73 55.74 52.15 47.98 48.75 50.49 52.01 50.27 52.17 53.54 54.00 54.42 53.03 49.12 50.88 58.98 59.94 60.74 62.41 63.10 64.21 65.97 67.92
43.60 39.09 45.08 48.78 47.08 43.29 43.19 43.83 43.95 47.69 47.14 47.74 47.21 47.99 46.44 46.55 49.53 47.73 48.73 50.82 52.57 52.39 59.89 56.78 52.58 50.34 47.07 49.68 51.71 49.41 49.75 51.57 51.97 50.36 51.19 51.41 53.89 56.84 57.97 59.04 60.20 61.33 64.45 65.56 68.44
44.25 41.27 44.53 39.33 43.78 44.60 44.94 44.52 42.14 43.20 47.48 49.55 47.19 47.88 46.91 45.37 46.85 47.12 49.44 51.12 53.24 57.72 55.83 53.18 51.79 53.56 52.50 52.60 52.50 51.35 50.43 50.12 49.69 51.14 50.18 52.64 53.24 56.66 58.74 59.57 60.38 61.50 62.54 65.53 68.09
40.22 41.39 44.02 41.08 41.95 40.89 40.52 40.43 41.74 43.40 45.74 45.55 46.85 47.22 48.06 46.99 48.27 47.53 49.51 50.56 50.21 52.92 53.25 55.61 52.70 54.50 52.11 53.33 53.18 51.48 52.64 51.86 50.76 50.72 51.27 52.06 52.44 57.91 59.82 60.69 60.33 61.05 62.18 64.19 68.07
46.24 45.77 40.92 39.04 37.85 37.89 39.35 41.34 40.81 43.98 45.79 46.80 46.96 46.87 46.86 49.76 52.42 53.99 54.53 54.75 54.82 52.92 53.40 54.17 53.29 53.15 49.43 52.56 52.68 49.37 52.70 53.57 53.40 52.53 51.60 49.79 54.01 57.20 57.85 58.70 60.38 61.06 63.42 65.24 67.89

GFSSW_sfc_wetblb_015.txt.gz
Wetbulb
57.20 57.30 57.31 57.42 57.76 57.91 58.19 58.60 58.77 58.96 58.99 59.47 59.31 59.59 59.85 60.20 59.94 63.13 62.15 67.74 68.75 76.36 77.18 71.47 71.33 69.32 70.01 68.11 68.85 68.64 60.04 58.58 58.44 60.52 59.99 63.28 62.59 65.95 68.79 67.25 67.50 68.52 69.99 71.76 73.86
56.75 56.70 56.93 57.05 57.18 57.59 57.76 58.10 58.21 58.17 58.44 58.69 58.87 59.00 59.80 60.12 61.96 59.96 70.24 74.30 75.60 75.92 70.09 66.93 65.41 66.32 66.14 65.85 66.63 64.78 56.69 59.54 62.27 63.67 62.30 63.17 62.76 64.53 65.02 65.60 66.50 67.61 71.18 72.37 73.08
56.19 56.40 56.47 56.75 56.92 57.33 57.58 57.82 57.90 57.82 57.81 57.97 58.44 58.96 59.54 60.54 60.35 59.01 71.53 74.17 75.89 75.32 66.13 66.64 65.60 65.81 63.46 64.49 62.94 62.50 60.01 62.79 62.66 63.30 65.04 63.89 63.28 65.18 64.33 63.16 66.31 66.77 68.95 70.85 71.69
55.89 55.89 55.88 56.13 56.56 56.85 57.18 57.51 57.82 57.26 57.31 57.60 58.04 58.84 60.03 62.12 52.32 64.02 72.24 72.44 75.62 71.36 66.71 64.55 63.33 62.33 61.85 60.06 61.49 59.20 62.11 61.45 62.27 64.26 64.01 63.55 65.41 63.15 63.39 64.93 67.80 69.56 70.52 70.67 71.08
55.40 55.43 55.36 55.49 55.74 56.15 56.55 57.04 56.79 56.75 56.69 57.18 58.01 58.78 60.98 58.32 57.57 67.55 73.16 73.16 71.08 67.31 64.89 62.13 61.14 60.87 59.96 59.06 60.05 59.29 61.18 61.18 61.67 63.52 63.98 65.62 64.23 63.57 63.06 65.98 68.61 70.17 70.34 70.26 70.85
54.88 55.16 55.58 55.60 55.45 55.85 56.25 56.35 56.22 55.53 56.30 57.24 58.05 58.60 59.85 53.57 61.60 66.10 64.05 67.34 66.56 65.48 62.32 61.84 61.11 61.31 60.12 59.24 59.07 61.10 60.60 60.69 61.76 62.80 64.18 63.70 64.10 64.93 64.57 67.29 68.17 69.67 69.69 70.22 70.57
54.81 55.05 55.43 55.35 54.95 55.20 55.49 55.45 54.76 55.26 56.55 58.07 58.79 60.31 58.21 57.36 61.49 62.34 65.44 64.53 65.25 64.13 61.97 61.31 61.96 58.94 59.32 57.92 60.71 60.92 58.71 61.48 61.25 62.67 62.98 64.65 62.03 62.55 65.71 68.03 67.77 68.77 69.44 69.64 70.37
54.33 54.82 54.95 54.89 54.58 54.73 54.62 54.40 54.26 56.16 58.85 59.24 59.98 61.76 56.88 62.91 64.42 62.10 62.33 61.59 63.73 64.63 63.34 62.44 61.24 59.48 58.76 60.81 59.88 58.31 59.35 57.29 60.93 62.30 63.82 64.10 59.12 63.60 66.99 66.84 66.87 67.80 69.04 69.21 70.13
54.44 54.44 54.44 54.70 54.39 54.06 53.29 53.39 54.91 59.10 60.13 60.50 62.68 62.05 57.14 64.64 61.03 62.08 62.10 60.40 62.09 62.66 63.91 62.31 60.82 57.27 57.82 55.49 55.65 58.04 54.64 56.58 58.41 62.61 63.76 63.00 57.27 64.41 67.13 66.36 65.88 67.47 68.13 68.97 69.74
54.26 54.24 54.18 53.81 53.46 52.85 52.36 53.39 58.03 59.59 61.60 64.21 64.08 60.02 60.41 59.13 61.96 63.04 64.21 62.76 59.96 60.55 59.33 58.72 57.19 54.74 54.94 54.98 51.08 54.95 55.54 57.17 58.73 60.74 63.30 61.38 61.18 64.77 66.82 66.19 65.45 66.68 67.52 68.38 69.00
54.16 53.95 53.64 53.25 52.71 51.79 53.63 59.25 58.64 59.62 62.08 59.28 59.69 58.18 59.03 61.12 63.71 60.95 63.15 60.99 59.77 58.72 53.87 55.77 52.23 50.65 53.75 56.52 57.28 57.84 57.52 55.94 59.44 61.35 61.33 61.15 61.45 63.56 66.66 66.72 65.88 66.51 66.90 67.61 68.40
54.05 53.76 53.44 52.61 52.00 51.33 54.62 54.45 54.34 53.34 49.64 55.18 55.97 56.99 59.69 61.02 57.38 59.58 63.05 56.63 56.07 53.89 55.25 53.07 50.45 54.05 56.22 57.04 56.67 56.90 56.75 56.92 59.48 60.27 61.30 60.88 60.86 63.91 66.24 66.33 67.14 67.14 67.17 67.57 68.32
53.74 53.52 52.83 51.86 51.02 55.96 53.95 55.80 56.65 56.17 50.17 52.83 55.90 55.42 56.37 57.56 55.06 56.64 59.87 58.70 54.50 53.67 53.51 51.37 52.45 54.78 54.85 55.61 55.56 56.34 55.95 56.85 57.20 61.35 62.24 60.66 58.71 61.26 64.14 66.95 67.63 67.82 68.82 68.84 68.41
53.60 53.31 52.29 50.73 51.73 53.81 54.30 56.95 56.47 55.95 47.85 51.33 53.21 55.19 56.63 57.09 53.70 58.20 59.66 58.72 56.10 52.89 53.90 53.09 54.93 53.04 52.96 53.33 55.65 54.01 57.82 57.70 57.54 56.78 55.55 60.04 53.45 60.14 61.73 63.19 65.88 67.56 68.10 68.77 68.84
53.54 52.79 51.53 49.90 51.56 52.31 54.03 55.89 55.83 55.23 41.69 54.07 54.65 60.16 58.72 55.65 57.74 57.01 59.88 57.77 54.80 54.33 54.25 52.35 52.66 52.45 51.46 52.98 55.92 54.81 58.49 57.89 57.71 57.76 58.10 56.83 54.58 57.59 61.31 60.77 62.92 66.12 68.04 68.91 69.19
53.02 52.00 51.11 52.59 54.62 56.02 56.50 55.71 54.66 46.96 42.35 51.45 55.53 54.49 55.09 56.28 56.51 57.44 56.69 58.46 58.29 55.34 55.42 54.12 56.65 54.43 53.82 54.63 56.06 57.07 56.73 57.71 57.46 56.37 52.03 56.99 55.05 56.68 58.21 60.95 62.76 64.71 67.31 69.18 69.83
51.66 50.37 50.29 52.81 50.80 56.29 55.26 52.13 44.78 42.34 52.09 50.65 51.93 54.24 53.90 53.40 54.08 54.84 53.59 53.03 51.69 49.88 51.03 53.23 53.33 55.36 54.96 52.36 54.75 55.19 53.86 50.27 50.02 49.89 49.62 57.23 55.51 58.13 61.39 62.40 63.06 63.11 65.28 68.16 70.29
50.18 48.62 52.91 54.86 57.03 56.51 52.87 46.29 40.64 47.81 49.08 52.98 53.02 53.87 51.66 53.68 53.70 54.00 53.07 51.32 53.96 53.90 52.00 49.89 47.94 53.41 54.63 52.87 51.61 52.68 53.26 50.11 46.65 48.29 50.62 56.19 53.09 56.41 62.90 63.36 63.30 63.82 64.13 66.32 69.11
49.42 53.57 53.31 55.23 56.81 55.12 49.49 40.53 43.39 47.74 51.65 51.01 52.13 50.53 51.34 52.80 52.79 53.11 53.07 52.11 53.40 54.34 51.28 51.02 50.38 55.32 54.86 54.67 53.45 51.98 50.77 55.68 52.67 54.33 51.60 53.70 56.47 59.97 62.15 62.44 62.70 62.79 63.14 63.91 68.20
49.88 51.50 52.16 55.97 57.06 53.24 45.74 41.51 46.51 49.74 51.38 51.21 48.52 51.14 49.73 51.42 50.96 51.76 52.53 54.51 53.12 54.91 56.63 54.19 50.68 54.53 54.48 55.09 54.29 52.40 54.96 50.89 53.95 49.21 48.45 51.42 53.44 54.34 59.04 60.25 61.64 62.00 62.29 63.87 67.27
50.25 47.03 54.68 57.63 56.89 50.14 42.41 44.10 46.57 49.28 50.09 48.78 48.65 49.62 50.78 50.87 52.29 51.43 51.36 53.91 55.19 54.73 55.64 54.53 53.44 52.82 55.03 52.46 51.14 50.88 50.67 53.48 53.96 53.37 49.30 48.76 52.51 59.69 60.76 61.69 61.14 62.05 62.72 63.63 66.02
49.18 44.26 54.30 56.55 46.46 47.73 44.62 47.34 47.44 48.57 50.72 48.81 49.23 50.29 50.82 51.43 50.84 51.53 51.04 53.19 55.98 55.90 52.89 55.43 53.61 50.89 51.99 55.40 55.50 53.82 51.87 52.44 51.50 51.72 52.92 52.96 52.58 60.11 60.93 61.42 61.63 62.12 62.93 64.43 65.86
45.93 47.57 53.71 51.50 40.52 42.58 46.21 46.83 48.66 47.98 48.75 48.21 47.31 48.53 50.81 50.26 49.51 51.45 52.22 54.99 54.89 55.00 54.68 55.63 52.26 49.31 50.84 52.72 54.27 52.06 52.65 52.92 53.13 54.84 54.40 50.64 52.31 60.41 61.54 61.64 62.48 62.19 62.96 64.43 65.79
45.63 42.08 47.55 48.83 48.28 44.04 43.12 44.19 45.12 49.57 48.29 49.11 48.33 49.16 47.66 47.86 50.92 50.32 51.39 53.62 54.83 54.08 60.78 59.00 54.21 51.75 49.09 51.32 52.96 50.62 50.90 52.17 52.15 50.33 51.97 52.37 54.62 58.25 59.76 60.38 61.31 62.28 63.71 64.13 64.88
44.95 43.19 45.95 41.33 44.15 43.54 43.78 45.10 42.44 42.70 48.51 49.68 47.87 47.50 46.94 45.22 47.33 48.02 50.53 52.42 53.53 57.19 55.04 54.71 51.69 53.73 53.62 54.12 53.97 51.91 50.41 50.74 50.48 52.34 51.19 53.18 54.13 57.71 60.06 60.93 61.68 62.35 62.99 63.27 63.71
42.15 42.56 45.53 43.36 44.85 42.38 41.82 42.16 39.97 41.92 43.71 43.02 44.43 47.37 48.19 46.28 47.21 46.57 49.42 51.62 51.62 53.53 53.39 54.88 51.44 53.74 51.82 53.55 53.01 51.54 52.99 52.13 51.60 51.39 51.85 52.78 53.19 58.77 60.62 63.15 62.07 61.98 62.55 62.61 63.34
48.46 47.65 44.28 40.58 41.75 40.55 39.80 40.46 40.90 43.64 44.09 46.17 44.66 44.16 46.47 48.14 50.68 52.19 54.07 53.35 53.03 53.55 53.49 53.67 52.97 51.48 49.18 53.40 53.19 49.64 52.57 53.24 53.90 54.16 53.11 50.45 54.04 57.70 58.35 60.72 61.61 62.58 62.86 63.04 63.42

GFSSW_sfc_wetblb_018.txt.gz
Wetbulb
57.01 57.21 57.23 57.37 57.59 57.97 58.23 58.47 58.70 58.79 59.05 59.09 59.18 59.51 59.91 59.88 59.65 62.27 61.15 66.33 67.66 75.78 75.62 70.53 69.91 69.74 69.23 65.94 67.77 67.05 59.93 58.18 57.87 58.60 58.37 62.75 61.16 66.29 68.33 66.12 67.36 69.02 68.39 70.79 72.47
56.68 56.85 56.70 56.55 56.85 57.12 57.53 57.97 58.10 58.08 58.12 58.54 58.70 59.14 59.78 60.05 59.60 58.54 65.38 74.37 75.61 75.31 63.63 63.59 64.63 66.73 63.61 64.07 65.38 62.48 57.99 58.19 62.08 63.07 60.72 62.31 62.10 63.11 63.72 64.10 65.24 68.03 70.44 71.41 71.95
56.19 56.36 56.25 56.25 56.22 56.39 56.73 57.10 57.35 57.58 57.61 57.88 58.16 58.79 59.44 59.88 58.02 58.80 73.72 75.36 75.89 73.28 62.06 62.93 64.28 64.43 61.08 64.07 64.21 62.69 56.98 61.58 63.13 64.06 63.92 62.51 62.18 63.33 63.32 61.97 65.06 66.55 68.77 70.23 70.68
55.90 56.04 55.99 56.11 56.03 55.82 56.10 56.42 56.84 56.66 57.06 57.30 57.74 58.50 59.81 60.15 51.12 61.93 73.17 75.10 75.77 68.05 62.55 61.21 61.61 60.69 60.11 60.77 63.50 60.33 62.87 63.00 63.31 64.60 64.54 62.31 63.32 61.88 63.81 63.60 67.49 69.79 70.69 70.52 69.82
55.14 55.63 55.86 56.06 55.66 55.67 56.11 56.43 56.45 56.14 56.17 56.92 57.81 58.56 60.01 56.82 57.33 63.92 73.85 73.38 68.64 64.99 61.73 61.30 60.19 60.66 58.51 61.49 61.83 58.99 59.91 63.09 61.78 61.66 62.99 64.71 62.65 61.95 62.75 66.15 68.10 69.41 69.88 69.83 70.08
54.41 55.01 55.60 55.86 55.75 55.94 56.03 55.83 55.62 55.68 55.90 57.06 57.96 58.34 58.27 51.21 61.10 65.64 64.60 66.70 63.40 63.08 61.39 62.09 60.68 62.09 60.24 60.68 59.92 60.04 60.31 60.84 61.20 61.46 62.31 63.11 63.11 62.92 63.14 66.13 66.75 68.15 68.34 69.43 69.93
54.87 55.18 55.31 55.53 55.04 55.27 55.52 55.18 55.14 54.81 56.02 57.86 59.40 58.97 56.06 54.47 63.01 64.91 62.93 62.81 63.55 63.70 60.46 61.74 62.55 60.61 60.95 58.89 61.54 59.85 57.71 59.71 60.56 61.18 61.39 64.38 60.68 61.14 64.33 65.49 66.04 67.00 67.86 68.74 69.82
55.18 55.18 55.28 55.18 55.10 55.00 54.67 54.25 54.48 55.40 57.09 60.57 59.96 59.70 53.68 60.12 62.90 61.58 61.94 62.92 64.12 64.32 62.55 63.13 61.84 59.76 59.37 60.24 58.55 56.54 57.25 54.69 59.84 60.82 62.23 62.13 58.17 62.27 65.07 64.01 64.36 66.51 67.16 68.13 69.12
54.85 54.87 54.91 54.91 54.64 54.13 53.21 53.40 54.48 56.79 60.15 60.84 60.55 60.69 55.59 65.72 61.04 62.44 62.34 59.02 60.43 61.47 63.14 62.82 61.11 56.75 57.70 54.57 53.38 55.43 52.55 54.29 56.95 61.19 61.70 60.61 58.97 63.93 65.24 64.40 64.12 65.65 66.57 67.16 69.00
54.39 54.41 54.29 54.24 53.84 53.09 52.40 53.24 57.76 58.78 61.14 63.19 62.98 59.51 61.90 58.55 61.55 61.58 62.10 60.46 58.28 59.28 58.18 58.93 57.33 54.20 53.68 52.91 48.30 51.65 53.26 55.18 56.62 59.98 60.90 60.26 58.77 61.33 63.36 64.22 64.19 64.76 66.05 67.18 67.36
54.29 54.20 54.02 53.77 52.99 52.15 51.72 57.01 57.96 57.39 60.20 59.10 59.09 56.53 58.55 62.12 62.96 61.38 62.34 59.21 59.84 57.87 53.56 57.12 52.62 50.42 52.94 54.05 55.20 55.03 55.73 55.02 58.26 60.96 59.22 60.79 57.91 58.94 63.21 64.53 63.77 64.65 65.23 66.43 67.72
54.16 54.02 53.79 53.29 52.38 51.57 53.41 55.37 55.28 54.20 48.98 54.00 55.34 59.03 62.05 61.59 58.35 60.14 62.23 57.62 56.15 52.91 55.32 53.35 50.32 53.68 55.00 55.58 54.58 55.01 54.50 55.52 58.91 61.20 60.72 60.21 60.33 61.91 64.15 64.55 64.64 64.61 64.73 65.32 66.45
53.85 53.65 53.33 52.67 51.57 54.47 54.32 53.57 58.57 56.27 48.94 51.32 53.90 53.52 57.03 60.74 57.16 57.79 59.95 58.38 54.68 52.83 53.57 50.94 52.24 54.25 53.41 53.93 53.52 54.19 54.14 55.13 55.68 59.58 60.61 59.14 57.41 60.38 63.58 64.99 65.81 65.95 66.54 66.24 66.40
53.59 53.50 52.94 51.56 52.40 53.04 53.05 58.00 56.21 55.91 45.48 49.62 53.24 54.16 55.47 56.35 53.25 58.64 60.12 58.53 55.83 51.85 53.17 53.22 54.63 52.97 51.85 52.07 54.35 52.01 56.66 56.29 56.10 56.66 53.45 59.40 51.90 59.69 61.51 63.47 64.53 65.43 66.49 67.06 67.19
53.40 53.19 52.05 50.79 49.56 51.38 55.47 56.71 56.07 54.15 39.34 54.10 54.33 59.74 57.19 53.77 55.17 55.08 58.69 57.14 54.16 53.69 53.18 51.73 52.74 51.82 50.75 51.48 54.78 54.26 57.33 56.41 56.11 55.25 56.91 57.70 54.30 58.56 61.89 60.99 63.68 64.91 66.20 67.20 69.12
53.05 52.51 51.79 51.88 53.27 54.85 57.12 56.21 54.43 44.83 39.99 51.75 55.15 53.78 52.97 53.70 53.89 58.08 55.43 57.27 57.15 54.70 54.84 53.52 56.35 54.52 53.08 53.97 54.32 56.58 55.53 55.76 55.88 54.84 50.63 55.58 54.83 55.66 59.00 59.63 61.01 64.75 66.45 67.74 68.66
52.08 50.84 50.55 52.16 49.59 55.60 55.88 52.36 43.28 40.64 52.81 50.86 52.44 54.37 53.53 52.21 52.21 55.21 52.81 51.42 50.67 48.75 49.90 53.06 53.02 54.99 55.22 52.19 53.82 53.27 51.60 48.78 48.24 49.26 48.74 56.03 55.21 56.83 61.23 62.71 62.76 61.93 65.54 68.05 69.43
50.42 49.32 52.15 54.24 56.41 56.49 54.03 45.83 39.10 47.23 47.58 53.74 53.68 53.85 51.55 53.85 52.88 53.42 53.26 50.86 53.28 52.41 50.36 48.58 47.42 52.67 55.26 52.63 51.22 51.38 51.14 49.38 44.75 46.76 49.28 55.46 51.90 56.90 63.37 63.91 63.67 65.12 66.08 67.29 68.85
49.68 53.41 53.40 55.13 56.55 55.84 48.93 40.19 42.75 46.96 51.47 51.35 52.38 50.57 51.31 52.83 53.10 52.68 52.31 51.78 52.80 53.07 50.00 49.36 49.24 55.49 54.84 55.26 53.49 51.36 48.91 53.34 50.02 52.03 50.15 52.67 55.24 58.33 61.46 63.13 62.68 62.99 64.52 64.51 67.92
48.89 50.11 53.03 57.13 56.90 53.65 45.27 40.49 45.99 48.94 50.30 50.79 47.41 50.78 49.09 51.45 51.24 51.85 51.96 54.00 53.02 54.24 55.44 52.94 49.53 54.18 55.05 55.42 54.87 52.22 54.16 47.78 49.39 45.51 45.85 50.68 53.02 54.24 59.23 61.38 63.12 62.13 63.15 64.16 65.28
49.04 47.74 53.32 56.61 55.65 49.77 41.75 43.56 46.61 49.69 49.92 47.22 45.88 46.20 48.68 50.68 51.91 51.44 51.42 54.03 55.40 54.74 55.39 53.13 52.57 52.06 54.89 52.71 51.24 50.79 49.66 50.40 50.72 50.29 47.73 47.79 51.76 60.65 61.51 63.46 63.42 63.56 63.95 64.11 65.13
48.12 42.11 54.65 56.32 46.02 46.91 43.50 46.39 47.32 48.74 50.97 49.31 49.45 48.26 47.18 48.13 49.54 51.16 51.37 53.20 56.25 55.98 52.41 54.18 52.01 50.17 51.32 55.59 55.72 53.71 51.22 50.70 47.13 48.76 50.37 50.65 52.50 60.43 61.99 62.17 64.03 63.73 64.51 65.04 65.88
44.22 45.27 52.55 51.71 40.43 42.21 45.14 45.16 46.40 46.70 48.27 48.59 48.05 49.17 49.63 47.49 47.09 49.78 51.92 55.75 56.23 55.16 53.96 55.68 51.11 48.55 48.97 52.81 55.34 52.34 52.50 52.64 51.24 51.48 50.19 48.51 51.16 60.04 62.60 61.25 63.61 63.95 64.24 66.04 67.92
43.86 39.59 46.02 48.47 47.56 43.91 42.81 43.47 43.33 47.69 47.48 48.46 48.68 49.88 48.58 47.34 49.51 48.46 49.52 52.95 55.52 55.66 60.50 58.83 52.44 50.68 47.91 50.74 53.24 51.49 52.14 52.77 51.18 47.74 49.40 51.06 53.89 57.50 60.68 61.51 61.81 63.69 64.26 66.13 69.49
43.66 41.03 44.68 39.16 42.34 43.10 41.92 42.59 41.29 42.18 47.46 48.71 46.75 47.23 45.87 44.17 46.25 46.24 48.75 50.40 53.69 58.89 56.85 54.69 51.18 52.80 52.16 52.81 53.78 53.12 51.55 51.85 51.01 52.07 49.68 51.73 53.70 58.04 59.70 62.72 62.98 65.05 64.34 65.77 67.91
39.91 40.21 44.52 42.10 42.95 41.79 40.19 39.69 38.99 41.92 43.36 40.84 42.66 44.72 45.75 43.54 45.02 41.09 46.08 49.03 51.27 54.16 53.60 54.13 51.33 52.72 51.13 53.20 52.87 52.02 53.24 52.64 51.78 51.65 52.14 52.58 52.40 57.72 61.10 62.71 64.79 61.05 63.02 65.13 66.46
46.56 48.70 43.30 40.48 40.25 39.01 39.54 39.56 39.64 41.56 42.68 45.40 43.03 42.13 42.09 43.05 46.32 47.34 48.63 50.08 51.34 52.09 54.03 53.25 51.33 51.50 48.08 52.19 52.29 49.35 52.85 53.33 52.20 52.93 51.93 49.92 54.80 59.07 58.38 59.69 62.64 64.73 64.12 65.03 65.46

GFSSW_sfc_wetblb_021.txt.gz
Wetbulb
57.02 57.11 57.17 57.00 57.05 57.10 57.31 57.73 57.94 58.20 58.39 58.58 58.71 59.38 59.64 59.89 59.38 59.33 57.29 62.04 66.13 74.53 74.66 69.90 68.87 67.83 68.69 66.75 66.99 66.23 57.25 55.01 56.62 57.59 56.73 61.88 62.40 66.59 68.61 66.55 67.79 68.76 68.15 69.75 71.59
56.60 56.78 56.76 56.67 56.56 56.55 56.76 56.80 57.08 57.16 57.48 57.87 58.17 58.46 59.43 59.70 56.77 54.26 62.64 70.56 72.04 74.61 63.64 59.88 61.57 65.43 62.15 62.71 64.53 60.58 57.03 57.34 61.50 61.52 59.31 62.42 63.95 64.25 64.90 64.79 65.05 67.06 69.92 71.46 71.62
55.81 55.72 55.69 55.96 56.08 56.27 56.50 56.82 56.73 56.73 56.73 57.16 57.68 58.30 59.13 58.85 54.84 54.73 74.30 69.73 71.40 73.38 63.31 59.71 58.99 59.88 59.58 61.11 61.36 61.11 55.83 61.36 62.22 63.14 62.93 60.03 61.07 63.05 62.08 62.22 65.05 65.38 67.59 70.05 70.43
55.46 55.14 55.31 55.51 55.89 56.00 56.26 56.30 56.58 56.23 56.29 56.65 57.28 58.28 59.18 56.96 45.49 59.51 74.01 74.93 75.66 70.67 61.91 58.18 55.78 54.00 54.68 55.88 60.05 57.75 60.96 60.94 61.61 64.12 60.76 59.49 60.39 61.55 62.32 64.43 68.35 68.09 68.21 70.17 69.10
55.13 55.46 55.43 55.25 55.42 55.87 56.11 56.54 56.62 56.41 55.90 56.45 57.27 58.20 56.27 52.64 53.65 62.00 73.61 74.66 69.93 64.47 59.70 57.13 54.27 54.67 53.79 56.83 58.44 58.23 60.10 61.73 62.27 62.91 61.73 62.61 61.62 62.20 62.97 67.83 69.30 69.03 68.51 68.53 68.89
55.33 55.58 55.69 55.79 55.99 56.24 56.30 55.90 55.86 55.73 55.54 56.59 57.75 58.35 54.48 46.19 56.19 58.67 66.77 67.20 64.56 61.55 58.50 57.76 56.73 57.80 56.80 57.02 56.40 59.56 59.53 58.29 60.51 61.50 61.87 60.66 60.84 61.70 64.33 68.64 68.29 68.42 67.50 67.86 67.38
55.55 55.61 55.49 55.65 55.60 55.50 55.83 55.46 55.45 54.80 55.58 56.77 58.52 57.88 53.71 49.91 57.57 62.49 62.27 62.68 62.22 60.75 57.42 59.17 59.60 57.24 56.79 55.83 59.09 58.14 55.46 56.82 57.27 57.03 59.98 62.91 59.33 59.58 64.51 67.21 66.71 67.13 67.61 68.11 68.11
55.44 55.47 55.32 55.46 55.63 55.42 54.86 54.55 54.71 55.02 56.08 57.67 60.33 56.63 50.23 57.27 57.87 56.40 56.73 57.64 61.09 59.56 60.37 59.49 59.35 56.90 55.06 57.09 56.71 53.85 51.85 47.83 55.13 58.04 59.86 59.72 53.35 61.47 62.83 65.01 64.93 66.06 67.03 67.71 67.89
54.98 54.88 54.80 54.80 54.78 54.39 53.58 53.64 55.27 57.09 57.61 60.54 56.61 54.80 52.50 64.09 56.91 57.18 58.00 56.75 59.14 59.56 60.53 62.01 57.90 54.06 53.47 50.60 48.14 49.01 45.99 48.46 51.89 57.86 58.78 58.49 55.12 60.66 61.75 63.55 63.16 64.77 65.54 66.58 66.92
54.74 54.45 54.24 54.20 53.89 53.29 52.69 53.23 55.57 57.85 59.34 61.25 60.70 53.71 58.75 56.72 58.53 59.27 59.59 59.09 56.57 56.23 55.67 56.16 53.17 50.03 49.57 46.79 42.92 44.76 46.20 49.23 50.42 56.18 58.77 57.19 56.51 60.51 61.56 60.35 62.88 63.78 64.74 65.32 66.02
54.41 54.16 53.95 53.77 53.27 52.42 50.29 48.70 51.28 50.68 56.38 55.45 54.69 55.75 55.28 59.07 61.25 59.05 59.47 57.43 55.25 52.63 48.99 52.09 48.11 46.93 48.02 49.12 50.54 50.65 49.59 49.71 53.08 58.36 57.96 57.58 57.29 58.98 59.59 59.56 59.61 62.83 63.47 64.43 65.51
54.35 53.79 53.76 53.39 52.61 51.69 50.13 49.56 50.80 51.10 45.60 51.19 52.68 55.41 58.89 60.68 57.39 58.47 59.53 52.95 51.79 48.06 51.31 48.77 46.97 50.98 52.81 52.01 50.48 50.38 49.15 49.41 53.35 58.60 58.23 57.87 56.92 59.00 58.77 59.29 60.45 62.24 63.20 64.15 65.15
54.20 53.70 53.14 52.65 51.60 51.91 48.50 49.29 53.68 52.08 43.86 47.13 50.10 50.05 51.06 54.30 54.84 56.31 57.01 54.41 51.17 49.84 50.69 47.27 49.81 54.27 52.25 50.85 50.17 49.43 48.32 49.45 50.61 56.87 58.60 58.01 54.69 55.72 58.09 60.61 62.04 63.03 63.88 65.00 64.75
54.13 53.52 52.67 51.76 50.18 48.08 48.96 55.06 55.01 52.63 39.10 44.98 48.17 50.48 51.62 52.17 51.89 59.56 59.57 55.85 53.46 49.84 50.85 49.34 52.84 52.16 50.54 49.11 50.06 46.78 52.45 52.63 52.25 51.89 49.39 58.06 49.15 54.46 56.74 59.59 61.44 61.87 62.24 63.48 64.87
53.78 53.17 52.17 51.38 46.68 46.58 52.40 54.29 54.32 50.19 32.77 51.39 51.10 55.44 51.80 48.97 52.64 55.47 59.87 56.02 51.93 51.42 49.40 48.07 50.64 50.01 48.85 48.85 50.25 49.11 53.45 52.54 52.57 50.54 52.68 53.44 49.31 53.64 58.37 57.74 59.80 61.24 62.64 62.98 64.07
53.43 52.48 51.66 49.28 48.64 50.43 52.92 52.78 50.67 38.82 34.40 48.14 52.49 49.87 48.26 49.13 50.55 52.84 55.23 55.23 54.68 52.53 52.21 49.95 53.22 52.12 51.26 52.20 51.34 52.04 51.14 51.29 51.40 49.93 45.62 50.87 51.23 49.82 54.91 58.26 59.96 62.21 63.49 63.77 63.90
52.43 50.88 49.51 50.34 45.33 52.46 51.64 49.39 37.16 34.75 49.48 48.86 48.64 50.69 48.86 47.51 48.47 49.09 49.39 48.48 46.42 44.44 45.12 50.17 50.38 51.86 53.43 49.16 50.06 49.25 43.52 42.44 41.68 42.77 41.48 50.03 49.94 51.90 57.97 59.62 62.32 62.79 63.41 64.99 65.43
50.95 49.32 50.32 52.45 52.80 50.84 49.49 41.65 33.17 44.26 43.72 49.75 49.64 50.51 48.27 49.75 48.83 49.16 48.21 46.32 49.09 47.81 44.39 43.53 43.35 50.81 52.66 50.09 46.63 46.71 45.41 41.97 36.18 39.76 42.75 48.41 47.17 52.39 59.85 61.21 63.94 64.32 63.40 65.10 65.56
49.98 48.63 48.57 51.26 54.07 52.42 45.44 35.84 37.95 43.06 47.37 45.77 46.01 45.39 47.53 50.64 50.32 48.58 47.34 48.05 48.90 48.97 44.09 43.72 44.54 52.94 53.50 53.23 51.13 46.20 43.97 46.93 40.19 43.03 41.41 45.73 48.37 53.35 59.64 59.81 61.35 61.17 62.49 63.37 63.36
46.47 46.30 47.83 53.89 55.57 50.27 42.13 37.10 41.76 46.76 46.55 44.87 39.80 44.17 41.63 43.27 43.61 48.69 47.59 50.21 49.87 50.97 50.74 46.93 42.68 50.70 53.07 53.28 52.11 48.77 48.37 41.86 44.13 37.12 38.15 44.09 45.35 48.07 51.93 57.66 59.20 59.55 60.68 62.06 63.16
46.19 42.72 49.35 52.91 53.24 46.81 37.53 39.47 43.43 47.38 47.75 44.84 43.33 42.74 43.26 43.05 44.35 43.73 44.87 51.48 53.06 52.39 52.01 49.68 46.87 47.11 50.81 49.11 47.50 47.39 45.88 44.47 43.07 43.72 39.60 39.19 44.22 50.74 54.19 59.12 59.08 60.10 61.27 60.36 63.96
44.41 37.25 49.88 51.38 40.36 43.83 39.85 42.85 44.79 45.03 47.70 46.32 46.73 45.16 43.72 44.69 42.91 43.35 44.05 46.92 53.57 53.82 49.64 50.71 46.88 43.66 46.30 51.45 53.01 50.61 47.08 44.60 41.84 37.50 41.19 41.84 43.57 53.57 53.91 59.24 61.05 60.78 60.92 60.46 61.43
39.82 40.90 48.86 48.27 35.03 38.04 42.26 43.07 44.58 43.27 43.36 43.39 43.08 44.91 46.62 44.26 41.40 44.63 45.98 50.17 51.00 49.79 50.89 51.32 47.13 41.29 43.48 47.32 50.39 48.67 49.36 47.51 46.53 42.53 40.45 38.89 43.79 52.75 53.60 58.15 59.81 60.30 61.60 61.52 61.55
41.55 35.14 41.91 44.90 44.27 40.28 38.77 38.58 38.55 44.86 43.68 44.88 43.82 44.83 43.70 43.31 45.67 43.28 44.82 49.51 50.84 49.92 59.38 55.81 48.79 45.46 42.12 44.62 47.22 47.22 49.06 49.36 46.53 42.70 42.70 43.42 44.18 48.33 53.78 56.45 57.24 59.81 60.42 61.67 62.87
43.00 37.39 40.45 34.55 38.01 38.05 39.41 38.25 37.05 37.15 42.30 42.51 41.37 41.22 39.80 37.26 40.20 41.37 44.09 43.99 47.12 51.35 51.67 47.37 46.25 47.80 48.14 49.26 49.92 49.16 49.98 49.47 46.69 46.33 43.40 44.58 45.09 48.04 50.95 57.02 57.82 59.83 59.96 60.27 61.58
39.21 37.86 40.21 37.44 38.61 37.67 37.94 37.08 36.91 38.18 39.41 38.34 37.24 40.80 40.27 38.63 39.97 36.77 39.35 39.91 40.18 45.36 43.23 45.04 44.95 47.83 46.79 49.43 49.15 47.70 50.44 51.19 49.59 49.19 48.53 48.52 47.64 50.16 52.65 59.13 59.46 59.16 59.81 57.82 59.98
45.13 46.22 41.08 36.85 35.78 35.27 35.73 37.21 37.61 39.59 40.92 41.88 40.47 39.18 38.03 40.81 43.70 43.35 43.75 43.60 43.08 42.27 42.10 42.42 41.82 43.60 41.16 47.70 47.59 44.75 48.04 49.86 50.77 51.23 49.96 46.23 49.37 51.24 51.78 54.79 58.47 60.03 59.07 58.42 59.93

GFSSW_sfc_wetblb_024.txt.gz
Wetbulb
56.42 56.46 56.37 56.44 56.59 56.82 57.08 57.35 57.59 57.61 57.74 57.65 58.00 58.28 59.05 59.47 59.01 58.14 54.40 59.39 62.57 75.94 76.18 72.62 71.12 70.79 71.99 66.42 67.24 65.40 54.91 54.69 54.69 56.51 59.70 64.51 63.51 67.15 68.59 65.88 66.60 68.40 66.45 67.85 69.93
56.14 56.10 56.01 56.09 56.24 56.63 56.75 56.88 56.97 57.08 57.21 57.29 57.53 57.94 58.61 59.35 55.90 53.91 60.74 69.20 71.28 74.54 63.37 68.33 65.52 66.75 65.96 64.83 64.98 59.26 53.43 56.46 59.91 60.23 60.93 63.61 64.28 64.99 64.99 64.83 65.66 66.10 68.55 69.32 69.69
55.99 55.74 55.50 55.83 55.96 56.18 56.47 56.41 56.57 56.56 56.54 56.74 57.09 57.69 58.46 58.55 52.83 52.13 72.73 69.60 71.56 73.14 63.81 60.85 62.61 63.73 59.18 62.34 63.04 61.00 55.59 59.84 61.70 62.60 63.40 63.53 64.34 66.15 64.30 62.48 65.09 64.62 66.66 68.34 68.62
55.61 55.42 55.31 55.37 55.72 56.08 56.14 56.33 56.18 56.22 56.31 56.36 56.91 57.70 58.76 56.02 41.68 56.30 74.14 74.35 71.37 68.13 62.46 60.06 55.18 50.98 51.20 55.22 62.69 57.49 61.84 61.45 62.01 63.52 61.42 61.88 65.22 63.98 64.55 64.37 67.66 68.53 68.86 68.56 68.03
55.22 55.14 55.34 55.36 55.41 55.72 55.96 55.99 56.26 55.68 55.80 56.07 56.92 57.98 54.14 49.85 51.15 55.83 73.14 73.84 70.09 65.48 60.53 57.19 52.93 50.91 49.93 52.33 54.56 56.78 58.18 62.03 63.34 62.45 60.44 61.07 60.87 64.14 64.40 67.05 68.73 69.38 69.21 68.21 68.32
55.89 55.90 55.80 55.74 55.81 56.14 56.30 56.14 55.85 55.60 55.49 56.00 56.76 57.86 51.28 41.27 51.98 56.51 58.29 65.19 63.36 60.73 58.46 56.40 54.40 53.74 52.42 53.61 53.07 56.34 56.71 57.69 60.07 61.13 61.23 59.71 60.22 62.67 64.95 67.92 67.75 68.42 68.12 68.36 68.49
55.59 55.61 55.41 55.35 55.72 55.89 55.72 55.32 55.38 55.08 55.56 56.35 57.06 57.02 52.43 46.10 53.94 55.49 57.44 61.41 62.37 60.60 56.12 57.56 57.27 53.96 53.64 52.98 56.52 56.33 52.93 54.91 54.89 57.34 59.79 60.69 58.58 61.80 66.03 66.76 65.88 67.29 67.96 68.57 68.82
55.32 55.49 55.43 55.24 55.39 55.16 54.80 54.43 54.78 55.22 56.42 57.10 57.93 55.77 47.64 56.33 56.12 54.31 53.93 55.66 58.45 59.27 59.21 58.29 57.78 54.97 52.81 55.04 53.48 50.67 48.80 46.16 52.47 60.14 60.72 57.85 52.57 63.60 66.09 65.48 64.23 66.08 67.72 67.87 68.04
55.06 55.16 54.99 54.91 54.68 54.14 53.69 53.85 54.91 57.05 57.53 58.83 54.89 51.83 48.21 62.42 56.53 55.77 54.39 54.56 54.61 57.66 57.49 60.88 55.45 52.24 51.80 48.44 45.22 46.04 43.79 45.86 48.80 58.59 60.11 56.96 53.06 60.17 66.12 65.04 64.12 64.94 65.75 66.50 66.58
54.95 54.66 54.72 54.35 53.77 53.23 52.69 53.16 53.95 56.42 58.54 60.37 59.52 50.55 53.57 54.42 59.34 55.83 54.10 55.40 54.45 55.36 55.54 55.25 51.20 48.07 45.88 43.69 40.46 42.99 43.50 45.12 46.74 52.29 57.95 55.32 55.18 59.25 64.92 64.67 64.27 64.76 65.33 65.64 66.00
54.80 54.44 54.36 53.83 53.21 52.22 50.48 45.90 45.88 45.76 52.73 50.82 51.54 53.01 54.63 56.93 60.35 56.46 56.01 55.08 54.13 51.64 47.37 49.06 46.63 45.82 46.26 46.92 47.97 47.86 46.32 45.80 48.97 52.79 55.77 55.64 55.66 57.22 63.30 63.55 63.19 63.79 64.64 65.11 65.75
54.47 54.28 53.93 53.37 52.63 51.78 48.73 46.19 48.18 47.30 41.26 48.87 52.05 53.29 56.05 56.76 54.74 58.06 57.44 51.96 50.18 46.75 46.90 45.31 44.16 48.09 50.59 49.51 48.09 47.43 46.37 46.48 48.90 51.82 55.31 55.24 56.20 57.43 60.32 61.63 63.03 63.30 63.78 64.58 65.71
54.16 54.14 53.52 52.78 51.61 48.33 44.03 45.49 50.96 49.90 39.65 44.56 48.42 48.46 48.77 53.29 51.76 53.74 54.82 52.09 49.42 45.77 45.91 43.95 46.62 51.33 50.71 49.48 47.26 46.49 45.26 46.12 46.49 50.41 57.52 55.27 52.44 54.95 58.26 57.90 61.16 63.68 64.35 64.88 65.10
54.07 53.99 53.09 51.67 45.41 45.80 46.23 49.99 51.02 49.97 35.53 41.28 44.16 47.14 48.61 49.97 47.02 54.99 57.20 53.42 49.09 47.20 46.80 45.91 50.48 49.80 49.09 48.83 48.30 41.83 49.29 49.29 48.78 46.64 45.34 54.84 44.28 52.87 56.41 54.93 58.13 61.01 62.55 63.68 64.63
53.91 53.48 52.37 51.34 44.23 44.22 48.53 49.53 50.65 44.18 32.01 49.17 47.54 51.76 48.50 47.10 49.08 51.20 56.32 53.03 49.10 48.05 47.08 45.88 48.63 48.52 48.06 49.11 50.29 46.56 50.06 49.35 49.47 46.39 43.39 48.00 46.01 49.64 56.05 55.04 55.83 58.74 62.03 63.44 64.61
53.73 52.84 52.04 46.86 44.33 46.96 49.26 48.23 44.59 36.62 31.34 44.63 49.44 46.08 44.90 45.41 47.61 52.20 53.63 54.80 53.57 50.35 48.98 48.76 51.79 50.57 49.87 51.42 51.52 51.38 47.00 46.80 46.49 45.90 40.10 45.76 48.89 47.08 51.82 55.51 56.92 59.95 61.28 63.17 64.17
52.59 51.38 50.08 49.17 42.05 46.67 47.96 44.50 33.96 30.65 45.08 45.70 42.99 44.89 43.87 43.58 45.88 46.31 51.32 50.03 47.18 41.42 44.88 48.02 48.83 49.00 51.78 47.02 49.01 47.22 40.48 37.47 37.14 38.40 38.95 45.39 46.42 50.25 55.11 58.71 59.37 60.44 61.68 62.45 64.38
50.77 49.73 48.59 48.44 47.12 47.59 44.58 37.22 28.80 39.93 40.61 45.40 44.15 45.25 43.42 44.14 44.28 45.79 43.94 48.09 49.97 43.60 41.32 42.66 41.46 48.33 50.29 47.71 46.57 43.68 43.09 38.69 32.50 33.97 38.03 44.34 42.47 49.82 56.64 60.52 61.89 62.91 63.03 62.97 63.02
49.94 44.76 44.40 44.84 48.77 46.48 39.17 30.87 32.35 38.29 42.88 41.76 42.55 39.81 40.82 44.28 43.55 43.39 43.87 43.97 49.48 47.67 41.67 38.89 42.40 49.67 51.95 51.15 49.23 44.57 40.30 44.41 37.54 37.11 36.83 41.00 44.85 50.04 55.14 57.13 60.53 61.89 62.38 62.55 63.02
45.14 41.14 41.96 48.79 48.82 43.98 35.11 33.09 35.92 43.16 44.40 43.51 36.64 40.20 36.74 40.16 40.58 41.12 39.97 45.76 46.25 48.65 48.97 44.79 38.29 46.14 50.10 51.00 51.90 46.42 46.39 39.98 35.60 34.94 34.74 37.59 40.99 44.99 48.64 53.46 56.61 59.84 61.84 62.98 63.75
41.75 36.70 43.39 47.94 45.34 39.11 31.91 33.39 40.24 44.95 45.21 40.96 38.72 37.93 39.40 39.54 40.77 39.83 41.22 45.39 48.11 48.06 49.22 47.16 42.80 43.11 46.40 45.83 46.22 46.33 43.90 39.09 40.66 39.93 37.13 33.28 40.83 46.75 49.27 51.77 54.86 60.53 62.76 63.35 64.14
38.37 32.01 43.77 47.33 32.99 33.60 35.14 37.33 42.55 42.42 44.98 42.84 42.77 41.09 39.24 40.44 38.87 39.94 40.84 44.18 49.42 48.25 43.46 46.23 43.76 40.98 43.46 48.00 50.77 49.58 46.05 42.33 40.44 35.69 38.99 41.57 41.94 50.20 50.59 52.01 56.35 58.86 61.78 63.61 64.37
35.73 34.95 43.21 40.95 28.28 29.76 35.40 38.73 40.53 40.30 40.18 40.62 39.70 40.89 41.38 38.25 35.99 40.87 43.00 48.75 46.32 46.24 43.33 46.42 40.84 38.57 38.49 42.48 45.32 44.81 47.54 47.04 39.02 38.25 40.09 37.09 39.40 48.61 48.46 50.76 57.99 57.97 59.61 59.61 60.48
36.16 30.74 34.04 36.39 36.63 34.28 33.30 35.86 35.55 41.86 41.23 41.04 39.86 41.51 39.32 37.19 38.73 37.71 40.21 44.46 45.50 45.93 51.41 45.79 41.95 41.49 40.48 42.63 43.96 42.29 46.60 46.76 45.06 42.30 41.12 41.89 41.21 44.49 46.91 49.73 52.72 53.57 58.98 60.08 60.70
37.84 32.08 34.37 29.44 32.60 35.26 35.78 35.91 34.47 34.28 39.85 39.93 36.84 39.07 36.97 33.57 36.64 37.28 40.59 40.75 43.65 47.41 43.67 40.22 33.92 39.25 43.06 46.03 47.38 46.53 46.52 47.24 44.77 45.79 42.88 45.07 41.26 44.08 46.27 47.20 50.47 53.41 56.97 59.13 59.20
37.61 36.72 35.84 35.89 34.24 32.65 34.77 34.36 34.56 35.89 36.69 35.82 35.54 37.84 36.95 33.14 35.76 34.68 38.04 35.90 36.68 40.99 39.05 39.11 34.59 38.51 41.22 47.14 47.32 45.88 47.80 48.44 47.78 47.50 46.16 43.72 42.41 46.94 49.28 49.03 52.18 54.85 58.62 57.39 59.96
44.41 44.48 40.12 35.46 32.11 29.20 30.05 32.49 33.65 36.85 39.25 40.54 39.31 37.30 35.56 37.13 40.40 40.24 40.70 40.64 39.43 37.58 37.25 36.11 35.13 35.45 34.29 44.01 45.80 43.07 46.97 47.29 47.76 48.49 47.42 43.50 45.89 48.30 48.60 51.36 53.31 55.21 56.97 56.50 56.33

GFSSW_sfc_wetblb_027.txt.gz
Wetbulb
56.54 56.41 56.16 56.13 56.54 56.73 56.98 57.15 57.28 57.37 57.27 57.31 57.49 57.78 58.14 58.73 58.39 57.12 50.53 56.94 59.86 76.91 77.21 74.11 71.25 71.16 70.60 67.57 66.84 64.35 52.60 51.88 54.23 55.74 58.32 63.89 62.67 65.68 67.50 64.29 65.30 66.81 65.26 66.87 69.71
56.19 56.04 55.84 55.86 56.12 56.32 56.66 56.80 56.93 57.00 56.96 57.02 57.04 57.52 58.00 58.76 54.90 52.81 59.90 68.25 70.79 76.12 72.43 70.15 67.52 69.99 66.50 64.87 64.61 58.91 52.08 53.41 58.64 58.61 60.20 63.75 63.76 64.26 63.87 62.86 64.24 64.82 67.20 68.81 69.57
55.84 55.65 55.61 55.82 55.91 56.08 56.30 56.49 56.55 56.59 56.63 56.63 56.84 57.22 57.89 58.06 51.07 48.85 71.42 68.67 72.78 75.49 70.08 70.76 68.48 67.79 63.71 62.60 63.02 59.27 55.43 58.89 60.38 63.19 63.78 63.63 63.81 65.38 63.08 60.55 63.82 62.57 65.11 67.28 67.80
55.59 55.34 55.49 55.60 55.73 55.73 55.94 56.06 55.95 56.00 56.26 56.25 56.45 57.02 58.21 55.28 40.89 53.09 74.70 73.24 72.69 70.62 62.66 63.62 59.51 59.99 55.97 57.32 62.80 57.51 60.79 61.60 62.16 62.95 62.48 62.97 64.71 63.45 63.74 63.29 66.71 65.95 66.83 67.06 66.68
55.15 54.99 55.21 55.21 55.16 55.17 55.37 55.40 55.29 55.33 55.62 55.93 56.27 57.07 53.10 48.06 47.31 52.64 72.63 71.28 69.57 62.81 58.90 56.41 52.93 56.24 48.75 50.09 58.73 59.60 60.39 60.88 62.80 63.23 62.14 65.19 63.48 63.64 63.79 66.37 67.56 67.40 66.97 66.26 66.60
55.67 55.85 55.81 55.81 55.91 55.71 55.81 55.73 55.56 54.88 55.37 55.98 56.32 56.70 48.72 39.21 50.39 55.69 57.07 64.92 64.15 61.49 57.58 55.96 53.91 52.42 50.34 50.35 51.03 53.77 57.33 56.87 57.56 58.34 62.35 62.73 63.24 63.33 64.90 67.23 66.80 66.66 65.88 66.48 66.75
55.85 55.68 55.57 55.80 55.95 55.99 55.61 55.11 55.17 55.00 55.56 56.51 56.70 55.34 51.17 44.59 51.63 53.25 56.19 58.08 62.11 60.64 55.85 56.89 55.95 52.98 50.90 49.33 53.40 54.27 51.69 53.65 54.03 55.21 57.95 63.40 59.59 60.84 65.05 66.43 65.85 66.01 66.25 66.77 67.17
55.78 55.70 55.65 55.67 55.61 55.24 54.65 54.20 54.36 55.40 57.00 57.33 57.59 54.15 44.73 54.44 54.69 52.77 52.01 50.47 60.00 58.11 56.22 57.23 56.42 52.02 50.81 53.26 52.24 48.56 47.59 45.23 51.98 56.61 57.73 59.48 53.09 61.99 65.13 64.94 64.74 65.94 66.44 66.76 67.28
55.48 55.34 55.14 55.11 54.95 54.19 53.51 53.63 54.77 57.38 58.06 58.31 54.27 50.16 45.06 59.82 55.65 55.09 52.72 51.42 54.79 56.44 57.29 60.52 54.37 50.67 50.33 47.74 43.92 44.20 42.88 45.04 48.02 56.60 57.69 55.49 51.95 62.28 65.19 64.38 64.01 65.33 66.08 66.52 66.86
55.13 54.78 54.56 54.62 54.21 53.39 52.72 53.37 53.71 56.14 58.98 58.67 58.13 48.29 51.43 51.15 58.21 55.52 52.62 54.17 53.41 52.97 53.43 53.64 50.15 45.85 43.99 42.78 39.75 41.59 42.05 44.08 45.25 50.26 55.64 53.02 53.33 61.89 63.72 63.80 63.96 64.93 65.74 66.33 66.57
55.09 54.41 54.21 54.11 53.41 52.08 50.28 46.43 44.60 43.45 50.15 49.09 50.13 50.59 52.32 55.31 58.86 54.53 52.93 52.17 51.85 50.75 46.32 49.19 46.56 42.16 45.54 45.43 46.52 46.10 44.84 44.94 47.46 52.30 53.95 53.87 53.40 60.66 62.76 62.67 62.44 64.12 64.98 65.79 66.39
54.55 54.35 54.00 53.51 52.50 52.02 46.70 42.95 45.32 43.93 39.15 47.32 47.23 48.71 53.01 53.72 50.62 52.75 53.97 48.94 48.53 44.82 47.05 44.07 44.51 48.09 49.44 48.06 47.17 46.20 44.49 44.71 47.12 51.74 53.00 52.25 53.51 57.62 62.22 62.44 62.79 63.10 63.98 65.04 66.34
54.23 53.88 53.45 52.84 51.82 46.96 44.03 44.10 48.26 44.44 36.93 43.03 46.53 46.30 47.15 50.93 48.91 50.04 52.25 50.11 47.51 45.13 44.49 44.63 44.78 49.28 49.18 47.23 45.51 43.57 43.31 45.04 44.99 48.36 52.57 52.50 50.25 53.50 61.31 63.07 63.82 64.35 64.83 65.13 65.20
54.04 53.67 52.97 51.61 44.44 44.79 44.50 47.44 47.43 46.84 34.16 40.68 42.52 45.43 47.27 50.29 46.69 53.38 56.38 51.89 47.83 46.20 45.16 43.26 47.52 47.86 46.59 46.41 46.68 40.35 46.50 47.35 46.47 44.18 40.27 51.71 43.40 50.26 57.21 59.96 61.68 62.61 63.81 64.44 65.19
53.73 52.91 51.61 51.31 43.61 42.71 45.75 47.56 48.63 41.34 31.10 48.29 44.69 49.44 46.31 46.10 46.73 49.20 55.60 51.64 47.11 46.57 44.92 42.99 45.25 45.79 45.43 47.19 47.65 46.12 48.60 47.23 46.70 43.20 40.26 44.62 44.14 47.06 55.01 55.20 57.29 60.69 62.83 64.04 65.33
52.68 51.96 51.34 46.25 43.15 45.27 47.04 46.62 41.71 35.48 30.19 43.71 46.70 43.66 42.92 43.85 45.59 49.61 51.06 52.26 51.12 46.85 46.05 47.42 49.42 48.17 47.04 49.42 49.48 50.04 46.55 44.19 43.55 41.13 36.64 43.94 43.05 43.99 50.81 54.15 56.53 57.88 61.72 63.56 64.38
51.54 50.29 49.52 48.73 40.89 44.57 46.41 42.14 32.89 29.25 43.25 42.62 40.89 43.07 41.96 41.56 43.54 46.16 47.59 46.91 44.93 41.39 41.65 44.66 46.35 47.85 49.77 46.12 47.31 46.18 40.03 35.56 33.31 34.59 36.79 42.43 41.32 45.99 51.06 57.38 58.65 58.38 59.23 62.84 64.06
50.14 49.25 47.40 47.36 44.98 45.74 41.77 35.38 26.40 38.24 37.44 43.04 42.48 42.50 40.84 43.01 42.26 43.58 46.80 45.63 48.53 43.64 42.75 40.36 39.01 46.42 47.77 46.56 44.57 42.82 41.88 33.45 29.54 30.81 37.21 41.28 39.10 44.83 54.00 57.03 59.91 60.92 61.08 61.49 63.34
49.48 44.72 41.67 43.82 46.97 44.23 37.05 28.64 30.69 35.22 41.77 40.68 41.22 38.35 38.41 41.43 41.58 41.88 39.60 46.07 48.82 45.55 41.50 39.86 41.15 47.91 50.56 48.51 48.81 42.67 40.30 43.92 35.16 34.51 33.92 38.14 42.65 47.62 52.54 54.50 56.65 58.29 59.82 60.60 61.98
43.92 39.95 39.69 46.56 46.08 41.03 33.98 30.94 33.41 41.41 42.59 41.18 35.11 37.98 33.96 37.46 38.36 38.44 38.73 42.99 43.53 49.02 44.36 41.96 37.18 44.14 48.74 49.67 47.76 46.25 44.07 38.91 32.68 32.89 32.69 35.04 38.22 40.71 47.03 51.09 53.33 57.24 58.35 60.50 61.96
38.87 35.14 41.21 44.56 41.56 36.85 29.86 30.98 37.58 42.75 43.43 39.38 36.73 35.75 36.34 36.46 38.45 36.53 38.63 43.72 45.87 45.57 45.59 40.20 38.87 41.23 45.19 43.41 45.06 43.35 41.43 37.61 38.58 35.72 35.22 32.04 38.32 44.97 47.70 50.40 52.06 55.24 59.52 61.15 61.70
35.81 30.16 41.76 43.05 31.44 30.04 29.82 34.38 41.06 40.68 42.74 40.38 40.31 38.67 37.13 38.57 36.44 36.55 37.80 41.72 46.45 45.98 40.72 42.64 35.52 39.69 42.88 45.58 48.91 47.60 45.79 40.35 36.58 35.54 36.70 39.88 39.07 46.39 48.96 50.99 51.58 53.13 57.75 60.70 62.97
33.71 32.27 41.79 38.92 28.72 29.60 34.55 37.11 40.02 38.37 37.90 38.40 37.82 38.97 40.33 36.84 33.88 39.00 40.72 45.50 45.87 43.34 42.04 42.81 35.66 32.90 35.70 39.03 41.88 42.40 45.27 45.86 43.04 37.78 40.56 36.58 37.91 46.15 48.50 49.68 53.31 53.46 56.80 58.16 61.39
36.69 30.57 33.26 34.83 34.79 33.34 31.19 33.66 34.51 40.60 39.37 39.49 38.17 40.12 37.69 35.78 37.66 36.47 38.81 43.85 44.50 44.40 49.37 42.19 34.25 34.46 34.34 36.73 40.93 39.87 43.79 45.62 43.64 40.13 41.65 41.58 40.26 42.61 45.79 46.66 49.05 52.23 54.98 57.24 59.18
39.97 32.53 31.61 28.85 30.98 32.16 32.97 33.48 33.96 33.58 38.67 38.56 35.24 36.62 35.41 30.54 34.81 34.83 38.65 39.33 41.62 45.05 41.38 37.74 31.93 34.85 38.16 41.46 43.03 43.37 42.95 45.03 42.43 44.69 42.11 43.91 40.61 43.74 45.56 46.58 47.79 49.61 50.71 54.39 56.26
37.77 36.43 38.38 34.59 36.03 31.35 31.50 32.36 33.37 33.72 34.85 35.16 34.79 35.77 34.95 31.43 32.88 31.90 34.71 34.03 35.22 39.06 36.77 36.25 33.55 35.16 36.22 42.56 43.66 42.97 44.88 45.59 45.79 46.04 44.43 44.81 41.10 45.60 48.66 47.90 46.76 48.60 49.70 53.08 56.24
43.75 43.00 39.36 36.02 34.43 32.06 30.71 30.74 31.87 35.20 37.64 38.92 36.55 34.72 34.00 35.57 37.99 38.05 38.33 37.42 37.36 35.28 33.84 34.06 33.83 32.78 30.42 38.89 40.00 38.62 44.07 45.25 45.93 46.83 46.23 42.70 45.03 46.25 45.97 46.64 47.48 48.59 49.60 52.63 54.13

GFSSW_sfc_wetblb_030.txt.gz
Wetbulb
56.35 56.37 56.24 56.25 56.53 56.74 56.97 57.08 57.18 57.37 57.57 57.54 57.52 57.55 57.84 58.39 57.91 56.29 48.29 54.70 57.71 72.95 76.38 73.31 71.54 69.45 70.31 67.29 66.32 63.22 52.05 50.28 53.17 55.65 57.29 63.02 61.81 65.21 66.37 63.35 64.62 65.52 64.45 66.10 69.06
56.05 56.07 56.01 55.92 56.07 56.32 56.49 56.71 56.71 56.84 56.90 57.13 57.08 57.36 57.56 58.05 54.34 51.18 58.84 66.90 70.16 76.52 72.71 69.42 66.90 68.00 65.46 65.74 64.31 58.58 51.65 53.33 57.65 58.49 59.16 63.25 63.06 63.32 62.68 62.04 63.38 64.05 66.28 68.02 68.99
55.94 55.77 55.75 55.71 55.77 56.01 55.92 56.13 56.09 56.25 56.35 56.47 56.68 57.06 57.44 57.54 49.23 47.40 69.05 67.38 73.63 76.49 72.13 70.56 69.25 67.73 64.22 63.62 62.96 59.18 55.52 57.91 59.69 62.08 62.44 62.56 62.95 64.47 62.01 59.48 62.91 62.16 64.24 67.01 67.30
55.79 55.49 55.44 55.65 55.70 55.70 55.95 55.99 55.82 55.73 55.81 56.13 56.57 56.81 57.38 54.24 40.44 58.14 73.88 70.45 74.56 73.25 70.13 68.26 66.88 63.95 60.40 59.11 63.03 57.03 60.06 61.08 61.52 61.08 62.95 62.35 63.98 62.72 62.15 61.71 65.69 65.66 66.18 67.07 66.19
55.74 55.60 55.43 55.44 55.34 55.64 55.71 55.62 55.64 55.35 55.52 56.00 56.26 56.72 52.07 46.20 45.69 65.78 73.25 69.87 72.80 66.71 66.23 64.64 64.35 61.96 52.05 55.51 60.57 59.14 60.02 61.83 62.79 60.91 60.54 63.98 63.00 63.06 63.01 65.33 66.38 66.32 66.88 66.34 66.39
56.19 56.28 56.22 56.05 55.76 55.97 56.02 55.96 55.73 54.89 55.39 55.95 56.40 56.28 47.00 37.16 48.70 53.90 65.63 67.47 70.12 62.79 61.40 57.89 58.90 59.40 51.02 51.47 54.74 55.65 59.34 59.74 59.21 56.26 59.08 60.62 62.70 63.08 64.31 66.17 64.86 65.46 65.43 66.20 66.30
55.89 56.17 56.07 55.91 55.77 56.09 55.85 55.38 54.77 54.65 55.54 56.74 56.77 54.23 49.49 42.02 50.86 51.43 63.96 61.73 63.80 60.44 54.91 55.66 55.17 56.66 51.37 48.56 51.39 51.97 49.69 51.83 53.12 53.09 55.35 61.53 59.10 60.42 64.65 65.75 63.94 64.25 65.16 65.82 66.24
55.72 55.48 55.56 55.52 55.40 55.38 54.58 54.15 54.39 55.64 57.37 57.92 57.70 52.75 42.43 51.64 53.42 51.56 52.05 55.93 60.90 59.10 54.82 56.55 54.90 51.06 48.90 51.25 50.35 47.11 46.36 43.51 49.83 52.83 53.90 60.66 54.00 61.84 64.55 64.22 63.45 64.16 64.76 65.27 65.82
55.24 55.26 55.24 55.12 54.86 54.20 53.13 53.89 55.05 58.82 58.75 58.54 52.41 48.16 43.11 57.94 53.78 52.35 50.83 49.57 54.81 56.36 56.35 58.94 53.85 48.98 48.56 45.54 42.55 42.62 40.95 43.37 47.30 52.70 55.78 57.38 51.67 60.62 64.16 63.97 63.10 63.97 64.41 64.91 65.33
54.85 54.65 54.59 54.53 53.91 52.96 52.46 53.52 53.90 57.97 57.14 57.05 56.38 46.00 50.07 49.89 55.34 54.88 50.85 53.74 52.54 53.35 53.59 52.74 48.18 45.14 42.34 41.85 37.61 40.20 40.59 41.87 44.72 49.63 54.20 52.58 52.23 58.76 62.83 63.48 63.33 63.83 64.51 64.84 65.31
54.50 54.19 54.09 53.72 52.94 51.90 50.29 44.94 43.10 42.03 44.23 49.16 48.83 48.64 51.49 53.46 55.96 52.01 51.64 51.17 51.94 49.30 44.74 48.10 44.28 42.27 43.77 43.78 44.87 44.94 43.84 43.79 46.22 50.00 53.01 52.67 52.15 58.77 61.81 62.65 63.00 63.43 64.24 64.73 65.35
53.91 53.66 53.39 52.88 52.04 51.84 45.17 43.07 42.77 42.13 37.32 45.52 45.27 47.12 52.91 51.14 48.96 51.45 52.29 47.64 47.45 44.12 46.04 42.82 43.37 47.31 48.22 46.37 46.02 45.06 43.25 43.13 45.87 49.03 50.52 49.69 51.78 58.47 61.40 62.02 63.18 63.55 63.94 64.81 65.66
53.80 53.43 52.75 51.99 51.51 45.53 42.50 42.84 45.70 42.52 35.36 41.85 45.10 45.30 46.21 48.64 46.70 48.21 49.88 48.16 45.75 43.74 45.44 44.32 44.32 49.60 48.64 45.51 44.63 41.87 43.30 43.68 43.78 46.63 49.12 50.07 48.04 52.09 60.36 61.57 63.17 64.65 65.07 65.65 65.69
53.66 53.29 52.23 51.11 43.37 43.51 41.70 44.85 45.15 44.76 32.24 39.39 41.25 44.64 47.58 47.32 44.11 51.94 51.95 50.06 46.65 45.88 43.33 42.77 47.64 48.71 46.04 45.98 45.30 38.42 45.54 46.59 45.57 42.36 39.33 48.58 40.10 48.30 54.69 59.03 60.97 61.60 63.53 64.96 65.73
53.58 52.75 51.34 50.61 42.42 40.62 42.80 45.58 46.05 38.97 29.68 46.64 41.80 47.82 46.55 44.84 45.47 47.60 53.91 49.65 45.14 44.74 44.29 42.93 43.78 45.06 45.08 46.01 46.49 44.71 47.48 45.66 45.16 41.79 39.12 42.33 41.41 45.05 51.85 55.48 58.98 61.36 62.68 63.79 65.20
52.95 52.24 51.09 45.84 41.93 43.71 45.22 44.74 39.59 34.71 29.11 42.50 44.39 41.84 41.90 42.74 43.75 47.80 49.18 51.16 49.54 45.85 44.23 44.93 47.10 47.72 45.73 47.44 48.05 48.49 45.09 42.05 40.63 39.09 35.42 40.84 42.07 39.58 48.98 54.03 58.73 61.85 63.18 64.20 65.01
51.60 50.59 48.87 47.75 40.14 44.11 44.35 39.48 31.73 28.04 41.74 40.29 39.35 41.69 40.74 40.34 41.83 44.42 45.06 46.04 43.43 38.56 39.54 43.31 45.14 45.65 47.02 43.97 45.42 45.02 40.21 33.69 32.60 33.60 35.58 40.23 39.87 44.87 49.42 56.35 58.87 60.37 62.22 63.81 65.25
50.05 49.30 45.79 46.40 45.09 43.69 39.99 34.38 24.74 36.28 35.13 41.67 41.36 40.87 38.63 40.67 40.95 42.31 42.91 43.61 45.67 42.65 40.81 39.05 36.77 45.15 46.60 44.47 42.48 41.24 39.60 33.17 29.27 30.05 35.52 39.26 37.61 42.26 50.01 55.73 59.15 60.80 61.95 62.51 63.85
49.62 42.01 40.75 42.72 45.94 42.36 36.04 25.98 28.38 32.71 40.15 38.87 39.37 36.22 36.47 39.57 39.44 39.93 38.51 43.27 46.20 43.25 39.80 37.56 39.25 46.77 47.48 47.08 47.34 40.36 40.17 41.75 34.32 32.96 32.17 36.08 40.33 46.49 49.92 50.75 56.02 58.08 59.61 60.12 61.05
43.09 39.46 38.07 44.82 42.99 39.62 33.38 29.12 31.49 39.77 40.68 39.27 32.74 36.25 32.60 35.42 36.54 36.05 37.43 41.59 42.05 45.45 42.77 40.25 36.79 43.85 47.36 47.63 47.20 43.75 43.55 37.80 32.33 30.60 28.76 33.85 35.86 40.74 46.01 49.60 51.79 54.90 57.48 59.57 60.85
37.55 33.62 39.81 44.13 40.97 35.69 26.40 29.02 35.14 40.83 41.65 37.11 35.03 34.44 34.30 34.76 36.25 34.96 36.64 41.48 43.52 43.89 44.44 38.84 37.63 38.42 44.60 43.53 44.21 40.99 39.42 36.45 39.02 34.47 32.33 29.82 36.68 42.92 46.83 49.52 51.25 53.44 57.64 59.18 59.88
33.95 29.00 40.31 41.08 30.63 29.44 28.29 32.84 38.38 38.06 39.81 38.37 38.64 37.05 35.85 37.01 35.13 35.70 37.10 39.83 45.05 44.11 39.92 40.86 33.01 36.87 39.00 43.21 47.82 48.04 43.91 38.31 36.87 34.12 32.61 33.62 38.35 45.94 46.87 50.09 51.43 52.63 54.75 58.69 60.13
32.55 32.58 40.33 38.57 26.25 26.94 32.44 34.69 37.59 37.00 36.55 36.34 35.67 38.86 38.88 35.41 32.04 37.71 39.07 44.29 44.08 42.89 40.76 41.10 33.66 31.00 34.69 40.45 41.60 40.77 44.31 40.90 43.09 36.29 38.02 35.52 38.42 48.78 47.43 48.31 50.25 50.68 52.21 55.03 58.76
33.90 29.23 32.68 35.75 32.03 28.74 29.00 29.96 32.81 40.11 38.65 38.18 36.53 38.27 36.02 34.50 36.20 34.57 37.45 42.63 43.08 44.39 48.02 41.74 32.92 32.18 31.65 34.62 39.12 37.60 41.70 43.24 42.97 40.10 40.69 40.08 40.61 43.10 45.83 47.04 48.65 50.72 53.09 55.76 57.40
34.55 31.13 35.97 27.15 29.36 33.83 28.75 30.84 32.50 31.20 37.10 38.75 37.05 35.03 33.51 29.05 32.51 32.72 36.72 37.34 40.42 43.51 39.68 36.97 32.24 33.64 35.87 39.52 40.72 40.75 41.05 42.36 40.58 43.41 40.92 43.61 43.49 45.15 45.93 46.46 48.98 50.36 52.81 53.36 55.89
32.75 36.05 37.86 34.59 35.33 34.05 32.05 27.80 30.70 32.18 33.09 33.55 35.43 34.87 34.43 29.72 31.25 29.57 32.61 32.73 33.19 37.55 34.65 34.89 32.13 33.34 34.24 40.22 40.77 39.05 41.97 43.38 43.51 42.82 42.07 44.30 42.77 45.56 48.51 47.80 48.38 49.37 50.28 50.75 52.14
43.50 43.41 38.35 35.69 31.92 32.38 29.70 31.06 31.39 33.19 35.38 38.49 36.58 34.49 33.04 35.25 36.75 36.47 36.19 35.89 36.29 33.31 32.73 31.94 32.65 31.43 29.49 36.98 37.81 35.66 40.98 42.74 43.03 44.17 43.88 40.89 44.69 47.29 46.29 47.08 48.24 49.47 49.94 50.10 51.09

GFSSW_sfc_wetblb_033.txt.gz
Wetbulb
56.45 56.47 56.38 56.26 56.38 56.56 56.64 56.93 56.97 56.93 57.19 57.33 57.43 57.44 57.69 58.09 57.95 56.93 51.18 56.43 58.40 72.33 74.30 71.83 71.18 70.89 72.14 68.99 68.52 65.47 59.02 57.47 57.19 58.56 60.42 66.27 64.22 66.55 67.94 65.13 65.53 67.03 66.29 67.98 70.23
56.60 56.38 56.19 56.23 56.36 56.47 56.57 56.72 56.69 56.84 56.84 56.78 56.83 57.12 57.37 57.95 54.91 52.39 60.34 65.64 68.29 75.68 70.91 68.56 66.44 68.93 66.97 67.13 67.53 61.92 59.62 58.75 61.21 62.64 61.11 65.52 65.46 65.28 64.60 63.94 64.15 65.56 67.91 68.91 69.96
56.42 56.27 56.20 56.18 56.27 56.33 56.37 56.61 56.61 56.58 56.58 56.70 56.61 56.91 57.22 57.32 51.29 50.46 68.03 66.82 72.18 75.42 70.73 70.29 69.44 67.75 64.71 66.55 66.07 64.10 60.21 62.65 61.72 63.84 64.96 65.48 65.37 66.95 64.53 62.13 64.89 64.58 66.04 67.76 68.60
56.22 56.04 56.03 56.16 56.06 56.11 56.11 56.15 56.25 56.29 56.35 56.27 56.61 56.74 57.02 55.43 44.90 56.57 74.15 68.80 74.73 72.26 70.91 68.86 67.59 63.94 62.58 62.00 66.62 60.64 63.75 64.05 63.77 64.68 65.34 64.99 66.95 64.67 65.47 64.00 66.89 67.87 67.84 67.99 67.60
55.82 55.74 55.78 55.68 55.81 55.86 56.09 56.25 56.52 56.06 55.95 56.14 56.37 56.30 54.59 50.17 47.53 63.98 72.95 69.01 73.39 70.51 68.08 67.00 65.04 64.44 61.13 63.03 64.10 63.17 63.10 63.25 64.68 64.31 63.35 66.64 65.30 65.46 65.49 67.12 68.58 68.66 67.97 67.59 67.83
55.77 55.80 56.01 55.95 56.01 56.11 56.22 56.05 55.80 55.14 55.69 56.14 56.25 55.66 50.67 41.47 51.30 55.96 65.86 65.85 69.88 68.34 66.97 67.23 66.04 66.74 62.55 59.90 61.37 60.93 62.68 61.20 58.88 60.19 61.35 61.96 63.36 65.80 66.75 68.21 67.72 67.37 67.08 67.77 67.86
55.39 55.63 55.54 55.52 55.54 55.68 55.62 55.20 54.70 54.74 55.71 56.28 56.49 54.52 50.55 46.48 53.98 62.33 65.87 65.93 69.74 67.00 64.65 66.13 67.74 64.15 61.13 53.96 58.80 56.07 52.55 54.94 55.41 56.97 57.18 60.29 58.97 62.41 67.11 67.74 66.44 66.38 66.82 67.53 68.22
54.65 54.84 55.00 54.75 55.08 54.99 54.34 53.91 55.45 57.99 57.61 56.93 57.57 54.19 46.88 53.29 55.06 54.42 63.97 62.35 69.65 66.19 64.57 64.91 62.44 64.60 55.16 55.18 53.51 52.11 52.41 50.27 54.46 55.79 56.92 59.27 53.81 62.00 67.47 66.63 65.64 65.98 66.37 67.13 68.04
54.86 54.80 54.74 54.61 54.24 53.75 52.88 53.41 57.06 59.41 59.65 58.30 53.91 52.35 46.40 58.78 52.44 53.21 56.85 58.93 65.91 64.16 60.61 61.64 59.56 56.29 53.85 51.35 48.89 49.51 47.50 49.57 51.76 56.32 57.79 58.92 55.39 60.47 67.17 66.69 65.63 65.78 66.27 66.77 67.83
54.46 54.44 54.40 54.08 53.42 52.50 52.40 52.59 56.26 58.05 57.32 57.54 55.64 48.84 50.46 50.09 55.28 53.36 55.12 59.83 58.42 59.24 56.86 55.59 54.51 51.81 51.39 49.29 43.64 45.52 46.56 48.91 49.91 54.43 57.82 57.29 57.47 60.82 65.85 66.22 65.83 65.82 66.21 66.59 67.13
54.48 54.17 53.95 53.17 52.48 51.61 50.96 50.90 48.31 47.76 47.17 52.76 52.43 49.79 53.25 55.33 58.77 53.80 52.94 55.74 55.41 54.25 48.97 52.86 48.80 46.56 48.95 49.73 49.48 48.34 48.19 49.30 51.27 54.02 56.37 56.62 57.59 59.82 64.76 65.76 65.65 66.10 66.20 66.56 67.16
54.01 53.93 53.58 53.02 51.82 51.56 49.57 46.32 44.00 44.62 40.44 47.75 46.35 48.61 53.27 54.80 50.95 52.99 53.37 49.62 50.00 47.04 50.23 49.30 46.10 50.27 51.11 50.39 49.14 48.24 47.24 48.49 51.06 52.92 53.03 54.28 56.25 59.65 63.71 64.89 65.95 66.15 66.49 66.98 67.70
53.62 53.47 52.92 52.39 51.40 48.42 46.31 45.57 48.99 48.38 40.91 45.15 47.27 47.73 49.53 51.15 49.28 51.42 51.87 50.77 49.08 47.51 47.48 46.56 48.48 51.22 50.03 49.17 47.99 48.35 46.52 47.57 48.55 51.36 53.17 53.81 52.53 55.94 62.07 64.86 66.13 67.38 67.92 67.88 68.04
53.39 53.06 52.28 51.12 47.39 46.30 45.08 47.84 48.94 47.79 39.32 44.27 44.60 47.66 48.82 51.08 47.90 53.95 54.33 51.83 49.48 47.09 48.44 48.10 51.23 49.61 48.80 47.99 49.52 45.65 49.74 48.79 48.51 48.47 46.43 53.71 47.14 54.15 58.19 62.05 64.05 65.61 66.85 67.78 68.39
53.04 52.24 51.13 50.28 46.20 45.01 47.27 49.02 49.38 45.49 34.90 46.84 44.55 51.03 50.13 49.44 49.46 49.84 54.42 52.81 48.81 48.50 49.13 47.22 48.55 48.48 47.77 48.47 50.96 47.90 50.82 49.05 48.93 48.73 48.87 49.17 48.05 52.48 57.14 58.79 61.99 64.68 66.37 67.56 68.79
52.24 51.49 50.98 47.64 47.17 48.23 48.88 48.09 46.10 38.76 33.51 44.62 45.70 44.71 45.73 47.66 47.46 50.04 50.98 54.24 53.47 49.89 50.00 49.51 51.20 51.24 50.99 51.78 51.85 52.54 49.91 50.06 49.45 48.64 42.95 48.17 47.54 49.64 52.84 56.71 61.02 64.44 66.00 67.32 68.61
51.00 50.03 48.84 48.82 44.19 49.12 47.83 45.48 37.99 34.04 44.67 41.85 42.80 45.30 44.89 44.60 45.40 47.78 47.70 47.92 47.34 44.53 45.02 48.24 47.92 50.90 52.36 49.49 51.78 51.04 48.20 42.90 41.45 41.43 41.28 50.22 47.30 49.99 55.23 58.15 59.14 62.80 65.53 67.07 68.08
49.62 48.89 47.32 47.99 49.52 47.74 46.90 40.05 32.08 38.21 38.83 44.13 43.64 44.27 42.50 44.06 44.79 45.26 46.27 45.60 50.42 48.92 46.55 43.66 41.75 48.35 50.95 50.20 47.74 48.76 48.05 42.74 38.12 39.90 42.81 48.50 45.11 49.87 55.73 57.56 60.62 62.21 65.04 67.42 67.97
49.23 46.59 46.24 47.99 48.31 47.12 43.02 32.10 34.18 37.19 39.27 38.92 41.85 40.61 40.94 42.43 42.54 43.43 45.26 46.50 49.41 49.96 45.96 44.47 44.30 49.87 50.25 51.13 51.38 47.92 46.11 49.96 44.45 43.64 42.59 45.90 49.35 52.55 55.12 56.12 58.74 61.17 62.79 65.03 67.07
45.66 42.37 43.93 47.56 47.14 46.52 38.91 32.60 35.77 40.37 40.89 41.25 36.11 39.53 37.13 39.51 41.13 41.75 43.36 44.34 46.38 48.37 49.04 48.27 44.18 49.46 49.88 51.44 51.46 49.34 51.01 43.70 45.67 39.05 38.36 43.56 44.84 47.47 53.29 54.48 56.66 58.73 60.72 63.39 65.46
43.30 39.78 45.61 47.38 46.68 42.15 33.07 33.28 35.81 41.38 41.95 39.28 38.06 37.34 38.76 38.27 40.34 40.04 40.93 43.73 44.83 46.21 49.05 47.64 46.40 45.54 49.76 47.86 47.27 46.51 46.56 47.87 47.53 45.49 41.08 40.06 44.01 52.74 54.65 57.88 58.05 58.68 60.81 62.20 64.14
41.04 35.76 46.00 46.08 37.07 37.13 33.35 34.67 38.42 39.30 42.29 39.93 40.92 40.25 39.33 40.10 39.27 40.06 39.87 42.67 45.46 47.48 44.32 46.21 45.53 44.90 46.13 51.07 52.14 50.20 48.63 48.35 43.91 43.18 44.90 44.78 44.66 53.22 55.02 56.38 58.31 58.97 60.52 62.51 64.70
38.88 37.15 45.79 45.52 30.94 32.39 35.53 35.02 37.60 38.24 38.74 38.67 37.55 40.60 41.55 39.71 37.09 40.24 41.91 45.15 45.78 46.67 44.21 46.14 43.54 42.61 44.32 47.82 49.11 48.24 49.88 49.66 49.49 48.94 45.02 41.92 44.59 54.08 53.80 54.29 57.15 57.96 59.56 61.22 62.77
40.45 34.24 39.42 40.30 38.79 33.29 31.20 32.83 33.29 39.67 38.53 39.44 38.70 39.81 38.82 38.38 40.87 38.18 39.46 43.01 44.41 45.62 47.74 46.75 43.13 43.52 42.67 45.23 45.55 44.39 47.13 49.38 48.60 45.65 45.72 45.71 47.60 51.52 53.30 53.99 56.33 57.95 59.56 60.61 62.01
41.50 35.97 37.78 32.02 34.64 34.90 34.93 33.32 32.68 32.81 37.04 39.41 36.11 36.12 34.33 34.03 36.36 36.43 38.60 40.28 42.73 44.86 44.33 44.63 39.84 41.52 42.50 43.04 43.49 43.90 44.32 45.66 46.08 48.36 46.55 47.89 48.55 51.20 53.38 54.94 56.80 58.56 59.76 60.36 60.91
39.43 37.99 39.13 34.50 37.00 35.17 34.37 32.60 32.17 33.83 33.93 33.36 34.46 36.61 35.74 34.44 35.60 33.86 36.26 38.17 37.93 42.37 41.51 43.07 39.13 40.41 39.20 42.22 43.30 42.46 44.79 45.39 45.85 46.43 46.92 48.25 48.48 54.30 55.20 57.10 57.65 58.38 59.81 60.47 59.51
46.08 45.24 39.22 35.27 34.34 33.65 33.88 33.77 33.64 35.55 36.65 37.99 35.86 34.75 33.68 36.36 38.88 40.20 40.99 40.72 40.21 38.30 38.21 39.10 39.10 38.05 35.38 41.16 41.55 39.51 43.86 45.50 46.58 48.17 48.06 45.09 49.80 53.30 53.32 54.65 56.07 56.95 59.48 60.65 60.61

GFSSW_sfc_wetblb_039.txt.gz
Wetbulb
57.13 56.96 56.85 56.93 57.04 57.13 57.32 57.41 57.68 57.70 57.89 58.02 58.08 58.12 58.09 58.50 58.23 59.94 55.59 61.66 63.55 71.26 70.84 68.43 71.15 72.73 73.12 70.95 71.97 72.27 63.90 58.90 59.41 57.72 62.79 66.45 65.00 67.95 69.89 68.26 69.19 69.83 70.26 71.30 72.35
56.51 56.47 56.45 56.32 56.47 56.52 56.81 56.81 57.00 57.17 57.38 57.63 57.63 57.90 58.03 58.16 58.42 56.15 64.34 70.83 69.88 72.73 69.03 66.11 66.44 69.94 68.74 68.57 69.48 67.13 61.45 58.49 63.06 63.83 62.56 65.98 64.84 65.98 66.34 66.78 67.11 69.29 71.48 72.05 72.19
55.96 56.02 55.87 55.90 56.09 56.16 56.30 56.39 56.45 56.46 56.61 56.83 57.28 57.67 57.75 58.64 57.02 56.48 72.53 69.81 70.64 74.21 63.96 67.53 68.33 68.91 66.34 67.06 66.92 66.44 61.51 62.09 63.86 65.54 65.48 65.00 65.20 66.49 65.14 64.54 67.32 68.06 69.56 70.76 71.60
55.87 55.84 55.69 55.74 55.85 55.94 56.06 56.06 56.09 55.99 56.15 56.36 56.92 57.29 57.53 59.20 50.27 64.04 71.70 70.10 70.14 66.41 61.85 65.71 66.02 65.72 64.45 63.35 66.15 63.26 65.57 65.68 64.82 65.68 66.16 64.59 66.39 65.12 65.43 65.55 69.64 70.46 71.23 70.95 70.95
55.48 55.72 56.25 56.25 56.14 56.23 56.48 56.49 55.85 55.47 55.64 56.23 56.70 57.13 57.31 55.48 54.16 65.70 71.32 70.24 63.12 61.54 60.46 63.22 63.38 64.70 62.83 63.59 64.83 63.87 64.29 66.34 66.39 65.87 65.42 66.81 65.27 65.87 66.06 67.39 69.91 71.06 71.06 70.61 70.99
55.68 56.00 55.85 56.02 56.13 56.44 56.20 55.83 55.59 55.01 55.61 57.46 57.65 56.97 56.27 52.05 59.77 61.26 62.04 64.19 60.47 62.89 60.47 62.51 62.80 65.22 64.14 63.35 63.38 65.08 65.19 65.68 65.32 65.21 64.78 63.74 64.12 65.50 67.89 69.01 69.79 70.04 70.42 70.83 71.23
55.40 55.64 55.56 55.69 55.77 55.91 55.49 55.18 54.76 55.95 58.05 59.51 58.96 57.55 56.90 56.28 59.29 58.10 59.00 64.12 63.17 63.69 60.29 62.98 63.83 64.53 65.29 62.28 65.32 65.12 61.88 64.55 64.90 64.32 61.76 63.76 61.25 63.16 68.25 69.46 69.24 69.46 70.18 70.89 71.44
55.27 55.35 55.31 55.40 55.33 54.95 54.60 54.41 54.98 58.96 59.06 59.34 58.43 57.98 55.92 62.59 63.73 58.99 60.34 63.33 65.04 66.05 63.90 64.61 65.04 65.00 64.48 65.75 62.06 61.89 62.01 57.96 61.54 62.49 62.22 61.47 57.53 62.40 66.87 69.23 68.72 69.13 69.56 70.00 70.91
55.06 54.90 54.95 54.72 54.49 54.04 53.26 53.91 56.02 59.22 57.85 58.32 58.68 58.35 56.60 60.88 57.18 60.36 60.70 61.08 64.02 65.90 66.38 64.95 65.05 63.00 63.24 59.93 57.75 57.68 55.65 57.61 58.25 62.06 61.18 59.97 58.25 61.87 65.76 68.01 68.68 69.51 69.74 69.56 70.14
54.49 54.44 54.12 54.06 53.43 52.91 52.83 53.98 58.02 57.78 60.39 61.67 61.48 55.68 58.00 55.98 58.73 57.85 60.24 63.01 63.39 63.81 62.65 61.74 61.60 59.20 59.96 58.48 51.57 53.24 55.25 57.23 56.57 59.86 60.24 58.86 58.98 62.19 64.53 66.69 67.65 69.42 69.94 69.83 69.55
54.38 54.09 53.78 53.31 52.85 52.19 53.88 56.89 54.80 56.97 59.50 57.12 57.70 56.69 57.97 59.80 58.84 55.65 61.96 61.08 63.22 62.07 57.49 59.69 56.65 54.95 56.27 59.54 58.53 56.60 56.70 55.98 59.20 59.83 59.29 58.93 59.39 61.01 63.53 65.85 66.81 68.87 69.62 69.87 70.18
54.27 53.90 53.37 52.93 52.31 52.25 56.02 51.58 50.59 51.10 45.89 51.59 51.76 52.48 58.47 59.83 55.77 54.54 61.85 56.82 60.16 56.68 58.18 56.86 54.07 57.19 57.07 57.18 57.91 57.50 55.93 56.54 58.51 59.98 59.26 58.91 58.45 60.80 62.79 65.47 67.00 68.18 69.15 69.88 70.49
54.13 53.76 52.89 52.11 51.94 55.26 53.32 51.45 55.00 54.70 46.42 48.77 52.21 51.62 54.41 58.98 56.35 56.23 56.24 56.49 58.34 56.32 54.63 52.47 54.43 56.55 54.05 54.71 55.66 55.71 54.99 55.36 55.73 58.55 59.18 57.91 56.83 59.39 61.95 64.91 67.41 68.62 69.60 70.21 70.65
53.90 53.51 52.48 51.03 51.98 53.88 51.58 53.65 55.27 55.00 43.26 47.28 50.50 52.54 54.07 56.45 54.49 59.68 55.63 56.09 58.32 56.15 54.54 53.04 54.95 53.34 52.60 51.88 53.61 51.32 55.86 55.79 54.99 55.32 52.89 57.84 50.89 57.28 59.61 61.75 64.71 67.36 68.69 69.30 70.56
53.55 52.73 51.25 49.46 53.73 51.82 52.01 54.03 54.93 53.08 36.98 50.62 50.89 56.66 55.51 52.76 56.18 56.01 58.14 55.35 53.54 53.80 55.88 52.55 52.07 51.94 51.20 51.71 53.56 51.85 55.08 54.76 54.68 53.83 54.38 54.92 53.30 55.97 59.54 58.50 61.75 64.48 67.37 68.96 70.34
52.93 51.94 51.07 53.20 54.30 52.78 54.18 53.91 53.44 42.35 36.61 48.34 50.63 50.04 50.74 52.77 53.95 57.10 55.56 55.65 56.99 54.04 55.32 54.41 55.98 54.54 53.66 54.14 54.31 54.81 53.10 53.48 53.78 52.76 48.58 52.87 52.84 53.88 56.34 59.26 61.26 63.50 64.79 67.78 69.64
51.49 50.03 51.06 53.71 49.80 53.75 54.38 51.05 40.64 36.09 48.15 46.46 47.01 50.50 50.62 50.58 51.40 54.40 52.86 49.89 50.06 47.83 49.13 52.32 53.27 54.72 55.11 52.80 54.28 53.07 50.81 45.88 45.11 46.18 46.09 53.79 52.13 54.60 58.84 60.14 61.70 62.27 64.53 66.35 69.52
49.93 49.12 54.17 53.76 54.22 53.93 52.42 45.08 34.75 40.68 43.24 47.04 46.18 47.05 45.82 50.34 51.16 52.40 52.02 50.78 51.42 51.86 50.08 48.19 46.70 52.57 54.62 53.05 51.85 51.61 50.69 46.25 42.50 43.76 46.39 52.61 50.09 53.73 59.55 61.44 62.45 63.76 64.82 66.37 67.79
49.32 55.31 53.62 52.90 53.87 53.44 47.90 38.23 38.58 41.32 43.00 41.98 43.90 45.72 47.07 50.04 50.21 51.45 50.90 50.97 52.73 52.06 48.57 49.37 49.16 54.78 54.60 54.85 54.39 52.22 49.67 52.57 49.33 50.62 47.91 49.53 52.71 56.09 59.05 59.73 61.15 62.30 63.78 64.64 66.82
52.07 52.55 53.67 53.34 54.27 51.43 44.35 38.34 40.16 42.70 42.81 42.60 38.23 43.96 41.69 46.17 47.89 49.27 50.03 52.62 52.68 53.56 55.04 53.50 50.47 54.25 54.00 55.28 54.78 53.94 54.94 48.25 49.57 45.57 45.21 48.73 50.90 51.04 55.80 57.99 60.20 61.17 62.36 63.88 66.04
52.49 47.96 52.12 53.76 53.65 47.42 39.64 39.33 41.27 43.66 43.40 40.91 39.73 39.86 41.81 41.03 43.82 47.83 49.67 50.89 52.31 53.41 55.69 54.30 53.49 53.17 55.07 51.79 51.13 51.43 51.62 51.81 51.40 49.90 46.67 46.53 49.38 56.91 57.70 59.07 58.99 61.19 62.63 63.45 64.64
50.98 44.59 52.95 53.40 44.18 47.76 40.57 41.16 41.24 42.38 43.68 42.44 42.92 42.16 41.02 42.07 41.37 44.00 46.40 49.56 50.26 51.94 51.08 54.75 53.06 50.03 52.24 54.57 55.47 54.32 52.43 53.13 48.17 49.00 50.01 50.15 51.02 57.53 58.18 59.10 60.37 60.77 62.69 63.89 65.59
47.98 47.92 53.56 51.20 39.41 40.50 42.89 41.28 41.83 41.36 41.17 40.16 39.50 41.85 43.44 41.12 38.74 43.10 45.72 49.97 49.92 51.20 51.25 54.32 51.14 48.17 50.74 52.87 54.29 52.43 53.21 53.91 53.48 52.81 50.63 47.63 50.08 58.03 58.28 58.32 60.93 61.12 62.80 64.55 65.79
47.95 42.41 47.14 47.93 46.58 41.85 39.80 38.99 38.77 42.48 41.25 41.93 41.03 42.14 40.87 40.75 42.85 41.89 42.89 47.66 48.98 49.47 50.49 52.19 51.47 50.54 48.93 51.66 52.96 50.71 52.31 53.24 53.01 50.26 50.79 51.04 52.64 55.54 56.94 58.66 59.75 61.44 62.59 63.69 64.69
47.58 42.48 44.61 39.99 41.98 41.68 41.75 40.14 37.90 37.32 41.30 42.38 39.43 39.27 38.05 36.60 39.49 37.12 41.51 46.14 48.91 49.48 51.41 51.59 48.71 51.81 52.86 53.77 53.61 52.71 51.58 52.13 51.68 52.96 50.44 52.74 53.16 56.07 57.50 58.62 59.51 61.04 62.12 62.65 64.02
42.10 40.70 43.02 41.88 42.35 39.81 39.65 38.75 37.80 38.76 39.45 37.90 38.24 38.55 39.11 37.44 37.90 35.47 38.91 41.76 43.64 48.16 48.12 51.13 46.97 51.14 50.72 53.15 51.84 50.38 53.00 52.70 52.67 52.76 53.18 53.61 54.05 58.49 59.74 60.12 59.56 60.03 60.60 60.83 61.62
47.49 46.28 43.08 39.32 40.10 37.43 38.83 38.73 38.06 40.02 41.40 41.98 40.71 40.01 38.30 39.84 43.48 44.81 45.33 46.17 45.33 44.59 45.02 46.32 47.45 48.69 46.56 51.45 50.54 47.27 51.39 52.99 53.57 54.43 54.01 51.76 55.68 58.91 58.63 59.08 59.50 60.08 60.76 61.22 61.86

GFSSW_sfc_wetblb_042.txt.gz
Wetbulb
56.74 56.70 56.68 56.63 56.72 56.96 56.98 57.27 57.40 57.46 57.72 57.88 58.05 58.24 58.68 59.07 58.55 58.81 53.96 59.35 62.35 70.61 69.77 66.08 64.33 69.49 71.85 70.53 70.20 69.98 61.69 59.49 59.20 58.73 59.15 65.46 65.15 67.71 69.33 69.07 69.45 70.40 69.03 70.20 71.41
56.40 56.24 56.26 56.19 56.28 56.49 56.61 56.91 56.95 56.99 57.18 57.13 57.41 57.81 58.17 58.49 56.98 55.71 62.86 70.21 72.33 70.92 58.48 62.00 61.63 68.06 67.66 67.97 68.15 65.74 58.07 57.94 63.24 62.38 61.93 63.99 64.32 65.96 65.87 66.05 67.57 68.24 70.45 70.86 71.06
55.90 55.67 55.71 55.86 56.00 56.26 56.53 56.53 56.57 56.58 56.66 56.74 56.91 57.44 57.89 58.32 55.69 55.82 72.26 68.23 71.55 69.59 59.86 63.15 64.09 66.81 65.55 66.79 66.35 65.35 59.69 61.00 62.87 64.08 66.09 63.97 63.92 66.47 64.90 63.73 67.42 66.78 68.44 70.03 69.99
55.50 55.49 55.56 55.65 55.87 55.85 56.07 56.25 56.16 56.24 56.35 56.35 56.74 57.02 57.56 57.52 50.23 61.53 72.77 72.18 71.21 61.36 59.56 61.30 62.67 62.24 63.37 62.48 65.87 62.34 62.10 63.89 64.13 66.08 65.02 62.61 65.14 63.61 64.54 65.27 70.14 70.00 70.06 70.08 69.29
55.30 55.84 55.99 56.04 55.81 55.96 56.36 56.52 55.94 55.67 56.01 56.13 56.45 57.13 56.33 53.88 53.83 62.58 72.22 71.22 63.55 58.28 59.08 58.78 61.22 62.16 61.75 63.66 64.41 62.70 62.44 64.66 65.10 65.95 65.00 64.09 64.23 62.16 64.04 67.84 70.68 70.66 70.14 69.56 69.72
55.78 55.88 55.82 55.90 56.07 56.32 56.30 55.88 55.85 55.53 56.75 57.89 57.48 57.50 54.44 51.41 62.27 62.33 63.81 64.96 59.92 57.59 59.18 58.65 61.29 63.54 63.49 63.61 62.79 64.08 64.27 64.91 66.15 64.60 66.22 64.77 64.44 64.56 65.27 67.68 68.98 69.42 69.26 69.76 69.93
55.81 55.75 55.63 55.74 55.88 56.01 55.76 55.34 54.94 55.57 58.33 60.44 59.33 57.48 54.21 54.96 62.80 60.71 61.58 63.18 61.90 59.17 56.61 59.65 61.12 62.34 63.50 62.40 64.85 63.71 60.84 63.50 63.60 63.80 62.93 63.72 62.65 63.35 64.46 67.48 67.19 68.27 69.07 69.42 69.94
55.76 55.66 55.44 55.48 55.53 55.36 54.87 54.77 54.56 56.38 60.45 59.45 60.78 57.31 52.98 63.78 63.15 62.06 58.18 59.39 61.99 60.88 59.62 61.64 60.64 61.35 61.81 64.40 63.13 60.53 60.69 57.39 62.30 63.82 63.32 61.49 57.08 64.95 66.33 67.26 66.82 67.65 68.48 69.28 69.62
55.31 55.35 55.15 54.99 54.62 54.35 53.74 54.11 55.03 57.95 58.91 58.55 57.69 56.39 55.68 65.10 60.98 62.34 60.62 55.74 61.96 62.05 62.26 62.48 60.36 58.53 59.77 59.11 57.98 59.32 55.16 57.59 59.37 63.59 62.37 60.14 57.40 61.91 67.49 66.73 66.82 67.33 67.83 68.42 69.79
55.14 54.92 54.67 54.45 54.03 53.39 53.04 53.99 58.30 58.61 59.15 60.30 60.87 55.78 58.37 57.66 60.82 61.59 62.12 58.94 59.74 60.64 60.38 59.66 58.52 55.29 56.45 57.00 52.32 55.03 54.81 57.51 57.47 60.18 60.67 59.03 58.29 62.03 63.71 66.11 67.01 68.02 68.11 68.44 68.56
54.88 54.48 54.12 53.85 53.25 52.62 53.39 55.22 50.56 55.57 52.78 52.89 56.55 55.62 58.45 61.75 61.43 58.74 60.29 57.85 59.68 59.07 55.64 58.89 54.56 52.86 54.73 57.73 58.69 58.13 56.20 54.88 58.73 61.47 58.75 58.27 58.48 61.06 63.00 63.32 66.83 66.34 68.50 68.32 68.95
54.63 54.23 53.80 53.33 52.64 52.31 53.08 50.33 49.57 50.77 45.31 50.71 51.19 51.65 55.46 59.48 56.18 56.91 59.28 54.48 56.35 54.13 57.68 56.02 53.04 56.36 57.65 57.87 57.58 57.37 55.38 54.29 57.70 60.24 59.58 58.45 57.65 59.92 62.47 63.60 66.95 67.30 68.72 68.73 68.86
54.32 53.87 53.08 52.50 52.10 55.14 53.41 50.76 53.50 53.32 45.53 46.64 49.96 50.00 50.88 54.10 53.97 56.77 55.92 55.99 55.44 54.82 55.79 53.83 55.10 57.64 56.52 56.08 54.91 56.28 55.12 54.61 55.17 58.59 59.47 58.48 56.25 58.76 61.49 62.56 65.16 68.02 68.98 69.51 69.66
53.89 53.49 52.44 51.38 52.19 54.38 50.92 52.96 53.69 53.78 41.01 45.17 49.11 51.31 51.73 52.22 51.90 60.30 56.78 57.87 55.61 53.70 56.58 55.28 57.69 55.57 55.23 54.80 54.85 52.74 58.16 56.96 56.04 55.40 52.49 58.00 50.55 58.02 58.96 60.56 63.96 65.94 66.74 68.99 70.12
53.43 52.89 51.84 50.65 51.75 51.98 51.27 53.33 53.63 52.32 33.54 50.32 51.04 56.98 54.52 49.61 54.24 55.46 60.37 57.13 53.31 54.82 56.51 54.61 54.75 54.23 53.77 54.32 55.38 52.59 56.09 56.69 56.29 54.23 54.07 54.29 52.10 55.64 58.93 58.32 62.14 64.87 66.26 68.35 70.40
52.69 51.98 51.28 53.80 54.49 54.03 53.32 53.09 52.14 40.82 33.47 47.33 51.09 49.94 50.84 50.78 50.65 54.71 57.03 57.56 57.03 54.49 57.15 56.48 58.04 55.44 53.90 55.30 54.66 55.07 54.48 54.45 54.29 53.07 48.76 52.38 52.81 53.93 56.18 58.68 60.40 63.98 67.02 68.17 69.69
51.52 50.12 50.51 54.38 50.85 53.47 53.03 50.27 40.07 35.09 45.13 43.03 43.60 46.22 46.35 47.98 50.22 50.21 53.01 52.72 48.85 46.56 51.63 54.77 55.18 55.39 55.18 52.22 53.95 52.76 50.25 45.91 45.05 46.11 45.56 52.81 51.35 54.69 58.57 60.85 61.34 63.71 64.89 68.31 69.67
50.07 48.92 54.93 55.69 54.70 53.26 50.97 44.34 34.93 40.09 41.02 44.69 43.20 43.53 43.36 48.24 49.51 50.71 49.94 50.56 51.02 50.26 50.12 48.57 47.53 54.13 54.49 52.46 51.16 50.95 49.82 45.94 41.59 43.48 45.65 52.05 48.97 53.07 59.32 61.07 62.15 64.17 64.82 66.46 68.20
49.52 55.30 55.51 55.45 53.96 52.91 46.98 38.88 38.48 39.82 42.02 40.23 40.77 39.33 41.01 45.21 46.50 48.42 50.05 50.57 52.25 50.70 49.18 49.17 48.63 55.30 55.40 54.83 54.21 50.84 48.39 52.01 47.79 49.09 46.42 48.84 51.74 55.40 59.12 59.56 60.83 61.26 64.05 65.05 67.15
50.63 52.40 53.45 55.25 54.09 51.58 44.44 38.80 41.40 43.52 42.74 41.34 36.10 39.18 35.92 39.12 40.56 43.12 45.91 51.99 52.32 52.51 53.73 51.97 48.45 53.21 54.41 55.40 54.22 52.92 53.87 47.30 48.62 43.47 43.53 47.03 50.51 50.81 55.23 58.33 60.13 61.27 62.07 64.80 66.56
52.45 49.72 53.42 55.39 53.72 47.77 40.65 40.91 42.27 44.37 43.18 40.12 38.49 37.42 38.14 37.72 39.28 40.36 44.34 47.59 51.04 53.19 54.67 52.18 51.35 51.07 54.04 52.01 50.73 50.85 50.67 50.59 50.12 48.63 44.98 44.90 48.75 57.76 57.88 58.91 60.13 61.20 62.77 64.07 66.51
50.13 45.78 54.82 54.16 44.29 44.68 40.90 42.83 42.47 43.15 44.26 42.12 41.89 40.33 38.60 39.36 38.32 38.89 40.72 45.94 52.13 50.78 49.37 54.12 50.63 47.94 50.40 55.08 55.24 53.62 51.35 52.28 48.15 47.89 49.58 49.85 49.40 57.70 59.32 60.20 61.00 61.27 63.09 64.35 66.64
47.07 49.03 54.75 52.46 39.57 40.10 43.20 42.50 42.82 42.07 42.26 40.72 40.06 40.75 41.43 37.99 35.97 40.12 41.28 46.86 48.82 48.90 47.77 50.29 49.91 46.24 48.34 53.07 54.45 52.22 52.48 52.66 52.98 51.63 50.07 47.42 49.06 58.39 59.57 60.69 61.72 61.69 63.27 64.78 66.88
47.78 42.27 47.33 47.08 46.30 41.93 40.32 39.59 39.30 43.09 42.27 41.08 40.45 42.61 40.07 37.66 40.14 37.23 38.34 44.54 47.68 48.97 54.23 51.81 49.28 48.87 47.07 50.70 53.95 51.26 51.50 52.71 51.49 49.53 49.85 50.22 52.27 55.45 57.03 57.89 61.61 62.68 64.36 65.34 67.74
47.37 42.62 44.13 38.32 40.87 41.51 41.93 40.65 38.83 38.67 41.82 41.18 40.02 37.92 38.69 34.86 36.18 35.86 39.82 42.01 45.47 50.52 50.86 51.31 47.69 50.84 51.97 53.35 54.11 51.93 51.08 51.84 51.29 53.03 50.25 51.88 52.75 55.85 58.75 59.50 61.39 62.90 64.95 65.60 67.39
42.85 40.88 41.97 40.51 42.96 40.68 40.49 38.54 38.76 40.03 40.14 38.63 38.48 38.19 39.52 37.00 37.52 35.84 38.79 39.11 39.85 45.49 45.50 49.72 46.40 50.38 49.73 52.68 53.02 51.83 52.27 52.22 52.39 52.11 52.95 53.47 53.46 58.36 60.52 62.01 61.78 63.19 63.56 64.20 65.81
48.65 46.48 41.51 38.44 39.71 38.27 38.65 38.98 39.12 41.17 41.98 42.36 40.35 39.96 38.89 40.14 42.67 43.06 43.51 43.36 43.34 42.48 43.20 45.46 46.01 46.36 45.09 51.04 51.60 48.99 52.54 52.72 53.05 54.04 53.40 52.05 56.44 59.27 59.36 60.03 61.08 61.69 62.60 62.43 61.92

GFSSW_sfc_wetblb_045.txt.gz
Wetbulb
56.46 56.14 56.25 56.22 56.39 56.73 56.96 57.19 57.42 57.42 57.70 57.80 57.90 57.94 58.33 58.93 58.47 56.26 51.92 55.96 58.95 66.73 71.70 65.29 61.64 62.24 69.38 68.51 69.95 69.54 59.62 56.88 58.15 57.99 59.51 63.07 64.60 68.37 69.52 66.74 67.59 68.14 67.19 68.16 67.13
56.16 55.95 55.89 56.03 56.20 56.35 56.58 56.70 56.87 57.00 57.17 57.30 57.30 57.53 57.72 58.50 54.47 52.50 60.68 66.64 67.77 68.79 60.13 55.74 58.93 59.03 60.92 66.06 67.05 62.78 57.77 58.59 62.06 62.50 60.89 62.86 63.82 66.67 66.04 65.39 65.29 66.21 68.67 68.74 68.69
55.80 55.67 55.96 55.85 56.09 56.26 56.32 56.43 56.45 56.61 56.75 56.98 57.04 57.13 57.55 57.17 52.94 53.93 68.87 67.33 68.90 70.95 59.46 56.24 58.87 58.71 60.13 64.52 64.44 63.73 58.96 61.71 62.21 63.51 64.98 62.42 63.03 65.27 64.92 63.28 65.27 64.69 66.53 68.03 69.20
55.58 55.73 56.11 55.79 56.00 55.96 56.06 56.48 56.39 56.40 56.31 56.50 56.80 56.96 57.32 54.75 45.84 58.26 72.41 70.77 69.12 65.22 57.47 54.94 55.47 55.64 58.16 60.14 64.52 60.44 64.44 63.07 63.67 64.42 64.22 63.04 63.12 62.98 66.13 65.94 68.42 68.39 68.19 68.03 68.22
55.89 56.39 56.63 56.54 56.32 56.61 56.75 56.81 56.48 56.02 56.21 56.92 57.78 56.51 54.59 49.61 50.37 60.91 72.15 73.01 65.20 60.82 55.11 53.11 53.21 55.94 55.23 60.61 62.62 60.78 62.52 63.94 64.55 63.64 64.07 64.51 62.19 63.50 66.06 68.65 69.10 68.87 68.32 67.62 67.59
56.34 56.28 56.30 56.20 56.18 56.44 56.62 56.24 56.20 55.75 56.27 58.13 58.71 57.31 51.33 45.21 59.70 60.33 64.56 65.31 62.39 57.28 54.20 53.90 55.02 58.51 57.54 59.00 60.36 62.57 63.31 63.16 62.89 62.71 63.82 60.78 62.40 62.60 66.87 68.75 68.02 67.83 67.16 67.80 67.60
56.16 56.19 56.05 55.95 55.99 56.32 56.05 55.61 55.25 55.35 56.08 58.84 60.07 56.74 51.03 47.84 59.98 60.71 62.58 60.20 58.81 56.51 52.68 55.09 57.51 55.93 59.17 57.94 62.98 62.50 60.07 62.48 62.78 63.45 63.31 63.85 60.06 60.97 67.01 67.89 66.83 67.07 67.12 67.60 67.79
55.88 55.85 55.77 55.67 55.57 55.59 55.19 54.66 55.19 55.89 56.54 60.25 59.81 56.43 48.40 58.60 58.17 57.38 59.23 60.66 58.82 57.36 55.50 56.38 58.24 54.55 54.55 60.05 60.01 58.31 59.19 54.79 61.24 62.30 63.49 62.97 55.36 62.49 66.55 66.40 65.44 66.46 67.25 67.33 67.67
55.55 55.37 55.23 55.19 54.78 54.41 53.74 53.99 57.02 57.03 58.34 58.47 56.45 53.38 49.20 63.45 57.74 59.85 59.53 58.53 58.71 57.41 56.98 57.78 55.86 52.83 52.91 52.93 52.24 54.21 51.29 53.30 57.13 61.74 61.84 61.12 57.05 62.30 64.33 65.55 65.11 65.97 66.68 67.04 67.24
55.14 54.75 54.61 54.49 54.10 53.33 53.08 54.43 57.50 56.80 58.56 59.16 58.47 50.14 54.16 55.38 59.13 60.37 60.21 57.86 55.31 56.50 54.94 53.78 52.44 49.96 49.31 49.32 45.11 49.09 50.66 53.67 54.74 59.58 60.63 56.81 55.15 61.28 63.45 64.00 64.54 65.68 66.10 66.36 67.18
54.87 54.54 54.10 53.69 53.27 52.41 50.63 48.29 45.71 47.26 49.53 42.90 45.25 50.09 47.81 58.49 57.86 59.27 59.77 57.81 53.76 55.17 49.95 53.25 48.61 46.47 47.89 50.64 52.40 55.08 54.22 53.67 56.25 60.53 57.84 56.70 55.46 61.19 62.28 64.36 63.93 64.45 65.52 65.87 66.33
54.30 54.07 53.54 53.27 52.43 52.21 51.05 46.60 45.68 46.68 41.05 47.08 47.46 48.00 50.23 51.80 49.42 54.29 59.88 53.87 51.09 49.22 52.23 50.81 47.48 51.55 53.36 52.76 51.89 53.98 53.20 53.93 55.91 58.04 57.55 55.50 54.89 58.06 62.22 63.33 63.69 64.52 63.33 65.86 66.51
53.85 53.62 53.12 52.41 51.94 52.49 50.08 47.40 50.43 49.16 40.68 43.95 46.41 46.47 47.48 48.71 47.39 49.85 54.59 54.40 49.95 48.87 50.23 49.03 51.48 55.50 53.96 51.82 50.68 51.79 51.86 52.84 52.74 55.31 56.59 55.92 53.73 55.96 61.91 63.26 62.23 64.24 65.22 66.84 66.63
53.73 53.44 52.46 51.09 49.60 49.43 49.67 51.88 50.58 49.78 35.54 42.14 44.82 49.05 49.69 48.62 45.72 53.52 55.55 53.67 51.49 48.25 50.76 50.95 55.09 54.19 52.99 51.47 52.24 48.55 54.93 55.59 54.92 52.68 47.60 55.45 45.47 51.88 56.87 60.32 62.00 64.31 65.64 65.83 66.58
53.31 52.89 51.75 50.77 47.11 47.77 51.48 51.91 50.63 47.89 27.42 47.64 46.23 52.86 48.74 45.20 47.22 49.94 54.98 53.07 48.96 49.25 51.16 49.57 52.74 52.54 51.27 52.24 54.06 51.46 55.14 54.55 54.55 52.18 50.86 52.68 49.04 52.00 54.64 55.10 60.87 63.53 64.27 64.71 67.37
52.66 51.98 51.44 50.50 50.23 52.18 52.76 50.74 48.26 35.06 30.48 41.69 44.80 43.09 42.58 44.52 47.85 51.42 50.36 54.34 53.04 49.73 52.61 51.79 57.52 54.97 53.82 55.07 55.27 56.18 53.13 51.46 53.15 51.41 45.46 48.56 50.66 50.73 52.69 54.61 61.24 63.60 64.57 66.12 68.18
51.52 50.33 49.84 51.85 47.60 53.09 52.52 46.86 34.87 30.37 43.00 39.42 38.52 40.66 39.96 40.94 43.16 44.40 45.14 47.68 46.72 42.96 45.40 50.11 51.48 55.99 56.07 52.16 54.31 53.08 47.75 41.27 40.47 42.06 42.09 46.96 45.81 47.93 55.02 57.02 58.97 62.42 64.60 65.44 67.47
50.17 49.55 52.27 54.28 54.17 53.82 48.25 40.17 30.52 39.16 37.86 41.38 39.98 39.90 37.25 40.01 40.80 41.77 40.77 41.97 50.01 48.27 44.48 43.85 43.52 52.15 55.93 51.93 49.35 50.37 48.31 41.50 36.22 38.15 41.67 46.07 42.62 47.91 54.44 56.73 60.00 64.01 65.56 66.79 66.48
49.94 51.93 52.71 54.69 55.55 51.51 43.43 33.48 35.22 37.45 39.98 38.01 38.08 34.93 35.69 38.27 39.33 39.31 38.50 39.84 46.85 50.78 44.01 42.87 43.63 55.20 55.87 54.04 51.61 48.01 45.03 46.80 39.02 41.65 38.37 41.70 45.35 50.43 53.76 54.60 55.36 58.35 64.93 65.10 65.63
47.89 49.76 51.46 54.68 53.05 48.69 40.28 36.38 39.28 42.35 41.45 39.85 33.39 36.20 32.81 35.96 36.14 36.56 37.03 42.59 42.05 46.79 44.79 46.76 40.84 51.88 54.62 56.13 52.87 48.79 49.21 42.30 42.87 34.62 35.38 41.49 43.41 45.57 49.12 51.38 54.12 55.05 60.68 64.06 66.61
48.25 46.59 51.94 54.38 52.14 45.53 36.59 39.09 41.21 43.72 43.06 39.24 36.46 34.86 34.83 35.28 36.96 35.59 37.15 41.40 45.39 43.76 45.33 44.26 44.10 44.43 50.35 50.27 49.24 46.87 45.57 45.89 42.69 40.88 36.20 36.69 42.54 50.01 51.23 52.96 53.51 55.60 57.10 62.11 65.69
46.48 40.89 53.50 52.95 42.68 43.02 38.29 40.83 42.15 41.19 43.30 41.42 40.45 38.38 35.97 36.45 35.21 35.03 34.89 39.18 45.24 43.29 38.57 44.19 42.25 41.40 43.99 50.91 54.05 50.88 47.37 46.04 42.28 38.38 40.80 39.44 43.13 53.45 53.39 55.04 55.37 56.40 57.35 61.19 65.22
42.81 45.10 52.62 49.77 36.15 37.55 40.60 40.62 41.99 40.42 39.93 39.84 38.20 39.46 39.04 36.36 33.11 36.62 38.16 44.15 44.65 41.92 40.06 43.61 39.23 38.29 42.02 46.06 49.86 49.16 48.85 48.32 45.13 43.81 40.13 39.84 42.43 54.05 54.56 55.10 56.17 57.20 57.82 59.26 63.89
44.63 39.18 43.70 45.37 43.50 38.55 37.12 37.81 37.87 43.29 41.52 41.32 38.73 40.08 37.92 35.39 36.96 35.04 35.60 41.58 43.69 42.46 48.03 47.32 40.70 38.95 39.26 43.22 46.54 46.61 49.03 48.59 46.58 43.09 42.48 44.96 43.67 51.20 53.38 54.15 55.71 56.90 59.08 58.98 63.26
44.88 40.35 41.42 35.06 36.22 37.79 39.17 38.26 36.74 36.15 41.73 41.97 38.07 38.16 36.22 31.71 34.50 34.53 37.25 38.28 41.10 44.17 43.07 41.16 36.49 42.83 46.29 48.78 49.67 49.62 49.01 49.04 46.47 46.33 44.94 45.85 46.78 50.48 52.52 55.31 56.85 58.09 59.37 61.12 61.07
42.00 41.01 41.06 38.32 38.87 37.21 38.32 36.56 36.53 37.45 38.24 37.04 36.53 37.95 36.45 33.39 35.10 32.14 36.20 35.91 36.21 40.11 38.22 39.67 36.92 42.43 43.89 49.41 49.99 49.48 51.08 50.27 49.41 48.88 48.16 48.32 47.11 53.86 55.67 57.54 57.74 57.99 58.98 59.24 60.94
48.45 46.85 41.70 38.33 36.70 36.04 36.85 37.48 37.67 39.21 40.28 41.13 40.22 37.46 35.64 38.31 40.66 40.79 41.47 40.66 39.53 38.65 36.15 36.31 38.26 37.63 37.71 47.18 48.82 44.42 49.80 50.12 49.84 50.96 49.63 46.44 49.22 54.43 54.23 56.78 56.25 56.67 57.63 57.20 57.67

GFSSW_sfc_wetblb_048.txt.gz
Wetbulb
56.22 55.97 56.05 56.12 56.48 56.57 56.72 57.06 57.12 57.37 57.52 57.58 57.75 57.97 57.86 58.23 58.35 55.49 51.05 55.89 56.58 65.21 73.79 69.77 67.05 64.20 68.75 66.90 68.83 64.64 58.44 55.08 57.52 57.45 58.74 63.82 63.77 66.79 68.50 65.69 66.84 67.37 64.99 65.61 66.94
56.05 56.11 56.23 56.14 56.31 56.42 56.46 56.63 56.75 56.90 57.11 57.21 57.18 57.50 57.49 57.78 53.89 51.36 57.73 63.60 66.45 66.74 64.12 62.30 59.35 58.77 60.38 64.65 66.33 64.37 57.24 57.01 62.26 62.36 60.82 63.18 64.46 65.39 65.00 64.78 64.11 64.92 66.83 66.06 66.32
56.02 56.03 55.99 56.10 56.27 56.21 56.39 56.47 56.64 56.80 56.78 56.88 56.94 57.24 57.32 56.80 51.52 53.75 65.82 66.06 68.17 68.74 60.03 57.99 59.99 56.30 53.74 59.21 64.09 63.85 57.67 62.32 62.60 64.01 64.53 61.76 65.27 66.99 64.19 62.03 63.94 63.21 63.14 63.80 63.60
55.89 55.97 56.28 56.09 56.07 56.07 56.28 56.44 56.43 56.40 56.60 56.68 57.29 57.51 56.80 54.13 46.01 55.99 71.65 68.81 68.69 64.24 57.56 54.55 51.79 52.28 52.32 55.75 62.29 58.83 63.11 63.32 63.21 64.05 63.82 62.22 63.14 65.25 65.58 64.50 67.13 66.35 64.39 62.82 62.77
55.91 56.41 56.55 56.48 56.44 56.47 56.59 56.60 56.32 56.12 56.27 56.50 57.81 56.82 53.83 47.96 48.25 58.30 70.39 70.86 64.72 62.20 55.64 53.06 49.86 49.88 51.13 56.31 59.58 60.21 62.04 64.54 65.12 63.54 63.82 63.28 62.67 64.66 65.63 67.21 67.90 66.87 65.21 64.35 66.12
56.32 56.30 56.13 56.17 56.27 56.52 56.58 56.18 55.95 55.89 56.10 56.43 58.73 57.06 49.99 43.44 56.20 58.09 63.09 64.89 60.39 58.65 54.38 52.43 50.87 52.05 53.39 54.36 57.65 61.60 62.23 62.79 64.63 62.29 62.79 61.80 62.17 63.44 65.75 67.66 66.19 66.06 66.24 67.00 66.87
56.00 55.92 55.70 55.78 56.11 56.27 55.90 55.30 55.55 56.47 57.45 56.21 59.35 56.12 50.43 47.22 55.74 56.71 56.77 61.04 60.29 58.11 53.06 53.77 53.40 53.51 54.35 53.89 58.01 58.16 57.08 61.08 62.21 62.63 62.35 64.01 59.10 63.09 66.39 67.12 65.45 65.30 66.09 66.96 67.15
55.77 55.85 55.77 55.46 55.54 55.48 54.95 54.59 55.32 58.16 56.91 56.59 60.52 55.63 47.10 57.00 57.13 55.77 55.66 56.44 59.89 58.46 53.88 54.85 53.72 51.89 50.52 53.14 52.29 54.54 54.96 53.75 61.15 61.89 63.85 61.89 54.26 64.27 66.27 65.37 64.54 64.89 65.57 66.20 66.72
55.26 55.24 55.22 55.10 54.54 54.21 53.81 54.00 56.03 58.23 57.99 59.27 55.04 52.76 47.14 60.30 56.11 56.89 56.99 57.46 55.49 54.13 53.80 56.05 52.17 49.73 50.10 46.47 44.00 49.17 46.73 51.55 57.19 62.38 62.70 59.78 55.19 64.25 66.09 64.78 63.73 64.24 65.04 65.94 65.99
54.85 54.62 54.60 54.32 53.98 53.17 53.01 54.18 55.65 57.82 58.34 58.71 58.02 49.21 50.97 52.23 52.97 54.12 57.31 58.07 54.67 53.12 52.11 50.63 47.19 44.02 45.88 42.29 39.61 43.81 47.20 50.10 52.22 59.21 61.50 58.84 56.73 63.11 65.02 64.53 63.92 64.36 64.93 65.63 65.49
54.54 54.23 54.21 53.78 53.26 52.40 50.44 45.62 42.96 39.85 46.82 40.26 42.20 49.66 48.50 49.37 51.41 52.74 56.23 56.70 55.38 51.32 45.47 47.95 43.57 41.79 44.67 46.43 47.12 49.61 49.78 50.26 54.10 58.76 59.29 57.94 58.05 59.87 64.15 63.95 63.82 64.09 64.55 64.87 65.41
54.21 53.96 53.65 53.30 52.40 52.24 48.02 42.77 41.64 43.58 37.24 45.03 45.39 44.78 46.73 47.58 44.38 47.96 53.70 51.61 49.95 47.58 48.34 45.45 43.22 47.13 50.09 48.57 47.48 48.25 47.41 49.82 54.41 57.26 56.98 57.67 56.91 59.97 63.27 63.32 64.01 64.34 64.63 65.31 66.03
54.02 53.49 53.01 52.30 51.92 47.86 45.04 46.06 48.28 42.21 34.80 41.68 44.54 43.87 44.41 45.00 43.89 44.89 48.43 51.05 48.91 45.68 47.83 45.43 48.31 51.81 50.46 49.00 47.19 47.06 46.30 47.59 50.83 54.59 55.98 55.86 54.00 57.62 61.29 63.80 64.68 65.35 66.04 66.45 65.88
53.63 53.06 52.38 51.55 45.42 45.08 45.85 48.42 50.08 43.91 30.90 39.11 43.16 46.12 45.85 46.13 42.83 50.66 49.84 50.05 50.15 46.47 46.17 47.50 51.47 50.86 49.70 48.40 48.81 43.73 50.52 50.51 51.55 50.32 45.77 54.74 46.82 52.98 58.28 60.08 62.62 63.65 64.63 65.33 66.24
53.24 52.41 51.27 50.96 43.60 44.29 48.16 48.15 49.86 41.86 25.69 44.48 41.75 47.49 44.71 41.60 43.99 47.27 51.04 49.21 46.61 47.08 45.83 45.28 48.81 49.06 48.27 49.35 51.49 47.59 51.34 50.45 51.33 48.63 45.62 50.27 47.49 51.80 57.69 57.87 59.31 61.31 61.81 63.05 66.31
52.61 51.44 51.29 47.40 44.85 47.46 49.12 49.36 42.11 32.70 27.48 39.36 41.41 40.34 39.67 41.06 42.08 45.75 46.00 48.37 50.47 47.56 48.01 47.65 52.34 51.55 51.28 53.40 53.53 53.42 50.90 50.23 48.60 46.07 42.82 47.71 48.32 48.41 54.82 58.07 59.41 61.08 61.96 63.29 65.87
51.04 50.02 50.02 50.33 43.19 47.42 48.15 41.04 30.86 26.43 39.67 36.07 35.24 37.59 36.88 37.89 39.46 41.49 40.94 39.65 37.52 36.94 40.98 46.22 47.15 51.76 54.18 50.40 52.59 51.41 45.27 40.49 37.14 38.72 38.90 46.89 43.95 49.08 57.56 60.98 60.72 61.10 62.57 64.41 66.27
49.98 49.43 49.68 50.82 48.37 48.71 42.87 35.27 24.79 36.11 33.78 38.12 37.40 36.04 34.75 38.46 38.27 39.10 38.34 35.99 43.11 40.78 36.30 39.57 38.52 47.43 52.30 50.62 49.28 48.57 46.33 38.46 33.87 34.89 39.35 44.21 42.01 48.25 53.51 57.39 63.56 63.73 64.73 66.14 64.26
49.79 45.66 46.29 49.53 51.36 46.93 38.21 27.84 28.80 34.62 38.11 36.71 35.37 31.85 32.52 36.29 36.64 37.38 36.49 37.77 41.40 41.75 34.22 32.74 40.38 50.46 52.06 53.25 52.58 47.69 45.11 46.74 38.00 36.20 37.13 40.69 43.75 49.25 51.53 51.65 61.81 63.32 65.18 64.76 64.90
45.24 42.22 44.90 50.76 49.38 42.12 34.57 31.88 33.85 40.92 39.80 37.78 30.53 32.87 28.59 31.91 33.59 35.25 35.28 40.42 38.89 43.38 42.80 37.97 32.48 46.33 50.99 52.18 52.96 49.53 49.21 40.61 36.94 34.79 30.76 37.29 39.53 44.37 47.39 48.98 51.09 62.05 63.74 65.13 65.44
40.56 38.73 46.51 51.89 46.06 38.40 28.95 30.83 37.93 41.54 41.66 36.85 33.47 31.43 31.30 29.96 32.34 32.15 34.96 38.39 42.16 41.84 42.56 38.76 34.96 40.35 46.25 44.79 47.83 44.91 45.98 43.79 43.34 37.26 36.67 32.62 40.39 46.08 47.81 49.57 50.01 56.26 63.93 64.69 65.57
39.33 34.61 46.66 49.31 36.92 34.99 31.96 36.88 40.93 40.06 41.73 39.02 38.64 36.94 32.99 32.87 31.17 32.26 34.49 37.44 43.10 43.06 37.17 40.25 37.47 33.67 40.45 47.66 48.49 52.44 43.73 43.47 40.73 35.63 36.16 36.43 41.18 50.00 50.31 51.24 51.58 52.85 63.02 65.11 66.16
38.09 37.45 45.88 43.45 29.56 30.90 34.95 38.13 40.60 39.39 39.70 38.34 36.63 37.09 35.30 31.05 29.12 34.87 36.54 41.76 43.39 41.47 38.75 40.12 37.63 31.25 36.51 39.52 44.27 42.89 48.68 43.89 41.21 39.47 36.89 39.07 41.76 48.77 49.74 51.15 53.28 53.67 54.73 64.20 65.66
38.54 33.07 37.24 38.11 35.66 31.39 32.92 34.93 36.03 42.19 39.95 39.77 37.65 36.14 34.24 30.83 33.05 32.21 34.86 40.31 41.95 40.85 44.04 43.47 37.85 33.97 30.63 35.79 40.96 41.17 45.59 45.72 44.37 40.00 39.57 40.88 42.34 46.59 49.62 50.45 54.14 52.62 54.65 59.18 64.98
37.86 33.40 35.70 31.13 33.28 34.72 35.03 35.21 35.62 34.99 39.80 40.46 36.53 35.93 33.28 28.64 30.04 31.34 35.05 37.45 39.55 41.77 40.52 38.96 32.80 33.71 35.98 39.11 41.73 42.55 46.56 46.91 43.38 43.69 41.84 43.49 43.37 46.51 47.82 51.27 52.61 53.49 55.31 60.24 64.49
36.16 35.73 35.93 33.86 36.60 35.14 35.71 35.21 35.76 37.02 37.34 35.60 35.11 36.81 36.40 30.03 31.78 29.68 33.34 34.87 34.80 37.57 36.74 37.98 31.36 32.76 31.95 41.83 44.19 43.95 49.04 48.80 46.70 46.58 44.96 44.44 44.30 48.35 51.82 54.58 55.26 56.70 57.88 59.94 63.45
41.45 41.68 40.62 38.21 36.14 35.30 34.10 35.68 36.12 38.47 39.97 40.64 38.44 36.73 34.55 35.70 37.86 37.56 38.95 39.29 38.64 36.77 34.99 34.64 31.42 29.34 30.40 42.47 45.54 41.86 43.93 48.00 47.34 46.98 46.17 43.70 46.09 51.28 52.99 55.76 56.93 53.43 55.93 57.58 59.95

GFSSW_sfc_wetblb_051.txt.gz
Wetbulb
56.33 56.43 56.38 56.36 56.62 56.68 56.85 57.02 57.17 57.31 57.41 57.58 57.49 57.42 57.41 57.23 57.54 54.98 49.55 54.64 56.26 63.94 69.58 62.42 68.35 65.85 68.24 67.04 69.09 64.28 57.19 54.20 55.94 57.18 58.77 63.50 63.25 66.97 67.66 64.72 65.92 65.59 64.24 65.41 67.44
56.38 56.19 56.21 56.23 56.40 56.52 56.47 56.74 56.95 57.03 57.11 57.30 57.27 57.33 57.04 56.93 53.11 50.40 56.89 62.97 64.00 67.13 68.04 65.92 62.04 63.11 62.99 64.16 65.54 62.76 55.92 56.59 61.13 62.17 60.03 63.37 63.78 65.00 64.05 63.86 62.49 63.24 65.29 66.52 67.22
56.12 56.10 56.05 56.14 56.34 56.36 56.49 56.59 56.71 56.82 57.00 56.97 56.90 57.06 57.09 56.26 50.09 51.82 65.15 63.69 67.13 69.96 66.25 63.68 61.71 57.35 53.78 60.28 63.48 62.91 57.37 61.93 62.03 63.50 63.91 62.63 63.02 66.40 63.74 61.01 62.88 61.15 62.59 64.93 65.29
55.83 55.77 55.80 55.84 56.06 56.23 56.39 56.47 56.47 56.40 56.49 56.59 56.74 57.75 56.70 53.51 43.83 55.93 71.86 66.29 68.70 64.11 57.32 55.69 55.29 51.42 50.65 53.09 60.13 58.88 62.96 63.37 62.54 64.43 63.41 61.33 63.30 64.24 64.57 64.42 65.69 64.50 64.51 64.62 64.22
55.48 55.80 56.20 55.94 56.00 55.89 56.16 56.21 56.02 55.88 56.02 56.30 56.51 56.93 52.20 44.94 45.84 55.53 70.97 65.98 64.33 58.23 54.96 52.35 50.33 50.67 49.69 53.25 57.30 59.30 61.32 63.61 65.27 63.82 63.01 63.47 61.89 64.46 64.35 66.48 65.64 64.64 64.73 64.05 63.36
56.01 56.20 56.20 56.17 56.30 56.55 56.52 56.06 56.22 55.79 56.69 56.47 56.66 56.71 49.12 40.16 52.58 57.09 61.74 62.05 60.82 56.45 52.96 51.13 50.28 51.41 50.91 51.76 56.95 59.80 60.70 61.43 62.81 63.41 62.61 61.03 62.68 64.72 65.19 66.25 63.93 63.16 63.11 63.00 62.39
55.91 55.95 56.02 55.88 56.26 56.29 56.05 55.60 55.50 56.55 59.01 57.14 58.03 55.57 49.40 46.49 55.52 55.69 54.75 57.75 59.74 55.55 51.69 52.98 51.66 51.53 50.72 51.43 55.92 56.52 54.37 56.76 58.44 61.71 61.30 63.96 57.96 60.91 65.47 65.37 62.84 61.54 61.80 61.69 64.62
55.85 55.77 55.77 55.74 55.89 55.52 55.03 54.64 55.44 57.96 56.91 57.50 59.92 55.46 46.98 56.02 56.41 56.82 54.33 53.45 59.23 57.68 52.82 53.27 52.21 49.94 49.40 52.29 50.50 51.61 50.79 47.40 55.50 61.15 62.39 60.23 53.26 63.38 65.31 63.62 62.37 62.22 61.73 61.90 64.25
55.20 55.14 55.08 54.92 55.00 54.41 53.85 54.33 56.29 57.96 59.52 59.63 54.28 50.68 46.66 59.38 54.56 54.51 55.31 54.08 56.78 55.53 53.85 56.02 50.00 45.96 48.64 45.65 42.07 44.08 43.18 48.37 52.24 61.20 61.49 59.36 54.85 63.50 65.02 63.36 62.30 63.21 63.91 64.33 64.65
54.73 54.54 54.40 54.13 53.82 53.38 53.12 54.73 55.75 58.60 58.16 58.24 56.99 45.81 47.83 46.71 48.42 49.06 52.06 56.83 53.36 53.21 51.11 48.96 45.35 41.73 41.44 40.76 39.99 39.78 44.30 46.73 48.75 57.78 59.79 57.03 55.68 62.82 64.19 63.37 62.58 63.28 64.15 64.72 64.83
54.52 53.95 53.76 53.43 52.95 52.52 50.53 42.91 40.92 38.77 41.34 37.93 40.41 44.99 45.34 47.64 49.65 48.26 49.42 54.68 52.50 48.51 42.75 45.42 40.22 39.64 42.38 45.55 45.37 46.94 48.35 48.86 52.15 56.28 58.45 57.25 57.05 61.84 63.15 63.12 62.93 62.80 63.27 63.89 64.90
53.99 53.62 53.20 52.66 52.36 52.30 46.84 42.12 42.87 44.14 36.15 43.65 43.96 43.06 45.10 45.06 43.09 46.47 49.50 50.20 49.41 44.11 45.39 42.19 39.91 44.55 46.19 46.38 45.70 44.90 42.99 45.10 50.79 54.65 57.62 57.47 56.83 61.52 62.74 62.49 63.16 62.98 63.10 64.14 64.93
53.70 53.39 52.60 52.01 51.82 47.12 43.20 42.52 46.04 40.56 33.57 39.77 43.04 43.35 43.45 42.57 42.48 44.41 45.61 47.71 47.03 45.63 45.03 41.93 44.16 47.68 47.01 45.37 44.29 43.80 42.64 44.06 46.61 52.57 55.98 54.28 54.93 57.48 62.38 63.55 64.23 64.30 64.68 64.86 65.04
53.31 52.85 51.82 51.45 45.13 43.79 44.04 45.26 46.09 43.40 30.04 37.65 39.66 43.39 43.29 44.14 41.22 48.69 48.84 46.20 46.57 45.30 46.54 44.83 48.78 47.45 45.38 45.17 45.76 39.45 47.04 47.71 47.86 46.99 45.95 52.74 43.30 54.73 59.10 60.47 62.18 63.17 63.88 64.60 65.39
53.22 52.37 51.23 50.95 42.15 42.56 45.95 46.14 45.20 40.93 24.47 41.23 39.67 45.96 42.15 38.90 41.21 44.35 48.95 46.43 42.84 43.19 43.57 43.71 46.50 46.23 45.06 46.28 48.30 45.09 48.09 47.30 47.41 44.50 44.92 48.73 43.57 49.54 58.02 57.90 60.16 62.20 63.78 64.90 65.96
52.55 51.41 51.25 46.83 43.54 45.23 47.15 44.70 41.14 32.10 25.67 36.56 39.86 38.59 38.26 39.73 41.07 43.78 44.95 48.72 47.74 44.94 45.13 44.78 49.07 49.11 48.39 50.47 50.22 50.60 47.36 45.93 44.99 43.27 41.04 45.54 44.67 43.88 53.78 56.26 60.12 62.69 64.05 65.04 65.89
51.25 50.21 49.48 49.67 42.72 46.64 45.54 39.61 30.59 25.34 37.95 34.87 33.78 35.82 35.15 36.68 38.53 40.00 40.98 39.91 37.82 36.27 35.82 42.54 45.58 48.41 50.12 47.20 49.55 48.71 42.67 35.85 35.02 35.64 38.35 44.42 43.22 47.90 55.37 58.66 60.17 61.67 63.67 64.98 65.54
50.04 49.26 47.74 50.39 48.83 46.97 41.07 34.83 25.21 35.05 31.91 36.38 35.77 33.85 32.73 36.60 36.10 38.20 35.86 35.53 40.77 38.65 35.25 32.88 36.21 45.28 49.06 48.02 45.67 45.62 43.79 35.67 30.95 32.36 39.85 43.27 39.17 45.85 56.60 60.17 61.67 63.25 64.26 64.72 64.06
49.43 43.12 44.35 47.11 49.08 44.35 37.89 26.85 27.52 32.27 36.97 34.69 34.67 29.95 30.44 34.96 34.70 35.21 34.68 33.91 39.83 39.49 33.83 33.67 34.11 42.63 45.61 49.59 50.27 45.65 43.47 46.18 37.71 33.94 36.22 40.93 41.62 48.53 54.37 57.81 60.26 61.82 63.12 63.23 63.93
43.58 39.74 41.60 50.23 46.03 40.30 33.56 30.70 31.23 38.95 38.99 35.81 29.10 31.17 27.05 30.09 31.04 30.55 31.57 38.51 38.94 41.41 40.46 37.22 31.61 39.43 43.76 48.14 50.04 48.87 48.38 40.25 37.38 32.50 30.07 35.25 39.06 45.55 46.79 49.85 58.20 60.53 61.71 62.80 63.86
39.45 37.67 44.82 49.04 43.37 37.30 28.71 28.92 36.76 40.88 41.31 35.72 31.77 29.88 30.00 29.16 30.45 29.39 32.03 38.12 40.13 40.07 41.65 38.43 35.89 35.88 41.67 41.91 43.62 43.68 45.54 43.82 43.39 38.64 38.07 30.97 38.23 44.55 48.58 50.15 54.62 58.49 61.47 62.80 63.96
37.02 33.95 45.20 44.00 34.29 32.25 30.35 34.89 39.96 38.42 40.62 37.28 36.31 33.90 31.33 31.49 29.87 30.48 32.74 35.85 42.16 41.65 36.81 40.13 37.20 33.69 35.92 44.40 44.96 42.18 44.37 41.46 42.45 37.31 34.70 40.14 42.45 47.00 48.57 49.24 54.94 59.55 61.74 63.60 64.93
37.49 35.18 43.93 41.76 29.08 29.60 34.28 36.90 39.11 37.92 37.80 37.35 36.25 36.46 34.73 29.57 27.23 33.21 35.44 41.58 42.21 40.29 37.65 40.37 36.14 29.32 34.03 37.83 42.50 39.68 43.11 46.93 42.32 38.47 37.58 40.26 41.80 47.34 46.98 48.19 50.03 52.33 56.89 62.26 64.92
37.84 31.90 35.80 35.93 34.43 30.10 31.58 33.42 35.52 41.47 39.35 38.60 37.46 37.01 33.06 29.80 31.71 30.64 34.45 39.99 41.14 39.96 44.81 42.30 36.94 32.81 29.13 32.79 36.63 34.17 37.50 39.11 39.67 41.16 37.08 40.61 43.34 44.77 46.80 46.95 48.34 49.88 52.90 59.60 63.81
35.64 31.85 33.61 29.46 31.35 31.86 32.91 33.30 34.62 34.95 39.69 39.64 36.43 37.11 34.20 28.29 28.85 29.48 33.88 35.77 39.47 41.42 40.72 38.87 31.73 34.27 34.19 35.35 36.20 35.36 35.78 38.14 38.20 41.88 41.29 43.40 40.17 43.13 46.18 47.04 49.35 53.62 53.16 54.16 58.13
35.50 35.07 35.71 32.85 34.33 34.84 33.77 32.77 34.11 36.39 36.50 35.38 35.08 36.97 35.95 30.60 30.16 27.68 30.53 30.38 32.37 36.57 36.39 37.98 31.18 31.90 31.38 36.11 35.76 34.60 37.92 40.30 41.29 44.66 42.19 41.17 42.31 45.03 51.50 55.62 57.04 56.43 53.15 52.81 58.58
40.08 40.85 40.46 38.78 36.99 35.73 35.59 36.44 36.26 38.19 38.59 40.25 38.37 36.06 34.34 35.54 37.05 35.26 34.63 34.32 34.82 33.24 33.76 34.68 32.40 30.82 26.35 34.93 38.31 35.77 41.22 43.21 44.33 43.41 43.73 40.90 43.67 51.70 54.19 55.67 55.84 57.22 56.98 55.70 61.03

GFSSW_sfc_wetblb_054.txt.gz
Wetbulb
56.37 56.39 56.45 56.42 56.63 56.93 56.93 57.10 57.35 57.59 57.61 57.67 57.64 57.46 57.15 56.65 56.42 54.48 48.79 53.80 55.72 62.74 66.60 71.39 68.40 66.84 67.98 66.16 68.63 64.44 55.07 52.70 55.87 56.91 59.31 63.49 62.34 66.68 67.07 63.21 64.76 65.00 63.89 65.55 67.95
56.36 56.25 56.29 56.54 56.59 56.72 56.74 56.97 57.20 57.35 57.62 57.47 57.31 57.28 57.21 56.26 52.64 49.93 56.39 61.57 63.64 67.36 61.08 66.53 62.03 64.08 62.45 64.22 66.41 62.35 54.38 54.79 60.36 61.51 60.61 64.11 64.66 64.21 63.47 62.69 61.65 62.71 65.26 66.82 67.61
56.37 56.22 56.19 56.36 56.67 56.82 56.76 56.73 57.05 57.15 57.19 57.25 57.12 57.09 57.70 55.21 48.38 49.64 66.55 63.46 64.93 67.12 62.22 63.03 63.02 63.05 59.61 62.13 63.69 63.07 56.82 61.16 61.56 63.72 63.24 62.71 63.19 65.54 63.07 60.64 61.70 61.08 63.16 65.16 66.55
56.12 56.06 55.95 56.11 56.47 56.49 56.62 56.66 56.59 56.58 56.68 56.52 56.65 56.83 56.38 52.50 41.25 56.06 70.07 65.46 66.07 63.63 64.87 60.33 59.91 52.87 52.68 53.93 62.00 58.81 62.32 62.99 62.12 63.90 62.19 61.79 64.50 63.56 64.15 63.61 64.94 64.14 64.84 65.09 64.99
55.52 55.79 55.98 55.92 56.05 56.35 56.81 56.58 56.35 56.15 56.44 56.61 56.42 57.04 50.98 42.55 44.40 55.01 67.33 64.94 62.87 61.44 59.52 54.16 55.78 50.41 51.68 53.87 57.31 59.86 60.79 62.66 64.80 64.16 61.71 62.95 62.89 64.28 63.73 64.76 65.18 64.71 64.95 64.56 64.46
55.75 56.00 56.02 56.10 56.28 56.60 56.61 56.50 55.72 56.16 57.69 57.55 56.54 56.72 47.04 38.22 50.34 56.36 61.91 60.83 61.69 57.51 54.68 52.03 54.90 52.54 50.86 52.47 55.22 58.36 60.86 60.65 61.58 60.85 61.99 59.75 61.25 63.84 63.51 64.02 63.42 63.28 63.62 64.42 64.50
55.57 55.71 55.64 55.70 56.01 55.69 55.95 55.64 55.32 56.48 58.16 57.94 58.11 55.03 48.16 45.62 55.44 56.27 58.48 58.37 57.34 54.90 51.66 51.20 52.12 52.01 50.20 49.67 54.54 55.64 52.21 55.50 56.56 58.70 60.39 61.75 57.52 60.99 63.26 63.16 61.73 62.37 63.27 64.22 64.47
55.32 55.33 55.37 55.43 55.27 55.05 54.94 54.40 55.21 57.02 57.24 58.46 59.11 52.53 45.68 55.36 55.61 56.26 53.66 53.57 58.52 56.16 51.66 51.77 51.14 48.59 47.69 51.13 48.89 49.32 49.46 47.21 54.36 58.06 60.93 60.24 52.72 62.38 63.36 61.23 60.46 61.63 62.74 63.51 63.21
54.99 54.97 54.90 54.74 54.42 54.03 53.77 54.14 55.84 58.61 58.72 59.39 54.56 47.52 43.90 58.38 52.50 50.71 51.89 51.76 55.92 55.61 55.24 55.75 48.71 44.64 47.06 44.20 42.01 42.46 43.36 47.43 51.82 57.88 59.78 58.12 54.12 62.49 63.54 60.60 59.82 60.85 61.67 62.15 61.98
54.58 54.36 54.19 53.95 53.56 53.25 53.18 54.33 59.32 58.46 57.98 58.21 56.17 43.44 45.97 44.52 47.24 48.32 49.13 55.95 54.66 53.90 51.93 47.56 43.81 40.07 39.44 40.09 37.46 39.62 41.10 45.85 48.74 54.39 58.25 56.09 55.58 61.61 62.58 60.95 59.46 59.91 60.53 60.55 61.31
54.39 54.02 53.74 53.22 52.74 52.52 49.69 42.27 40.09 38.53 41.18 36.66 39.86 40.91 43.75 46.30 47.83 46.39 47.94 53.23 51.03 48.65 42.34 43.54 38.92 38.59 41.28 44.41 44.60 45.06 45.74 46.86 50.45 54.45 56.42 55.66 56.25 61.11 62.01 61.52 60.80 60.19 59.76 60.01 60.57
54.04 53.67 53.38 52.65 52.43 52.46 44.38 41.51 42.33 43.28 35.91 41.44 42.29 41.94 43.71 43.46 42.31 46.75 48.20 49.45 47.23 42.10 43.44 39.91 37.99 42.66 43.68 43.12 44.09 43.89 41.43 43.49 48.97 53.27 56.00 54.87 55.43 61.16 61.78 61.28 61.70 61.69 62.09 62.42 63.32
53.81 53.32 52.57 52.11 51.87 46.15 42.76 42.11 45.24 39.52 33.36 38.71 41.38 41.89 42.42 40.75 41.54 43.61 45.94 45.79 46.39 43.28 41.97 38.49 41.54 45.84 44.19 42.55 41.30 41.88 40.09 41.35 45.19 49.56 53.61 53.65 52.29 57.30 61.80 62.69 63.05 63.28 63.90 64.30 64.38
53.54 52.92 51.82 51.22 44.81 42.78 41.98 43.85 45.66 42.03 29.66 36.21 38.15 41.96 42.52 41.72 39.38 46.59 46.86 44.53 44.06 44.23 44.66 42.64 46.43 44.70 43.07 42.05 42.66 36.74 45.77 46.68 44.96 44.33 41.18 52.12 41.64 50.93 59.15 60.00 61.51 62.37 63.21 63.50 64.32
53.11 52.38 51.16 50.48 41.90 41.67 45.23 44.53 42.03 39.20 22.95 39.38 38.67 44.33 41.94 38.57 39.91 42.25 48.13 46.00 40.99 41.95 43.22 42.38 44.23 44.04 41.60 42.76 44.85 41.36 45.88 44.84 44.97 42.89 40.81 44.64 42.96 45.70 56.66 57.65 59.67 61.87 63.01 63.73 64.73
52.51 51.52 51.20 46.59 42.81 45.16 45.64 44.17 39.61 30.67 24.21 35.24 38.60 37.32 37.39 38.50 40.37 42.26 46.05 47.79 47.34 43.75 42.90 42.72 47.13 46.66 46.61 47.45 46.58 47.95 44.66 43.41 42.41 40.42 37.24 42.51 44.62 43.19 51.62 56.57 59.75 62.32 63.50 64.26 64.84
51.38 50.35 49.08 48.89 43.46 47.01 44.59 38.89 29.75 24.51 36.66 33.56 32.45 34.39 33.35 35.20 37.24 38.27 40.42 38.27 35.66 33.63 34.47 41.02 42.89 45.88 47.47 43.62 46.32 46.11 40.46 32.54 31.51 33.27 36.29 43.14 41.73 45.38 50.74 57.97 60.57 61.63 63.32 64.75 65.53
50.18 48.92 46.22 49.54 47.65 45.18 39.85 34.46 23.52 33.82 30.29 34.41 34.14 32.35 31.26 34.55 34.37 36.44 35.39 33.53 39.36 37.37 33.81 32.40 34.55 42.86 46.32 44.31 42.24 43.65 40.93 32.84 27.77 30.57 37.80 41.44 38.37 44.76 53.11 56.99 62.11 62.93 64.23 65.09 65.65
49.08 41.63 42.51 45.17 47.89 41.82 37.70 26.35 26.17 29.81 35.30 33.25 33.19 28.55 28.92 33.56 33.06 33.27 31.87 33.31 38.08 37.76 32.18 31.36 33.61 42.71 44.48 45.81 45.26 42.16 40.08 43.64 35.76 34.04 33.84 41.74 41.90 49.10 51.74 54.06 57.51 59.89 61.81 63.54 65.06
41.34 37.93 40.83 47.79 42.80 39.63 34.04 29.83 30.62 37.52 37.93 34.77 28.14 30.02 26.10 28.59 29.24 28.62 30.01 37.42 37.48 39.93 38.30 35.38 30.20 38.67 42.86 45.52 46.07 43.36 46.72 38.61 36.12 31.32 27.93 35.44 38.05 44.08 48.10 51.09 54.94 57.28 59.34 62.34 64.92
38.05 37.04 43.61 46.23 42.37 36.81 28.12 28.31 34.91 39.60 40.11 33.72 30.41 28.78 29.13 28.21 29.15 28.09 30.41 36.86 38.81 39.25 39.82 33.84 33.51 34.97 39.99 39.65 40.44 41.16 41.46 40.98 41.86 37.94 33.88 31.61 38.50 45.66 49.57 52.60 53.59 56.85 59.99 62.01 63.86
35.58 32.66 45.42 42.45 33.09 30.07 28.13 32.23 38.81 36.68 39.43 36.56 34.80 32.88 30.75 30.92 28.93 29.21 31.00 34.45 42.28 39.97 34.97 37.11 36.46 31.43 33.95 41.73 43.57 41.06 38.58 40.04 39.85 36.21 37.42 35.96 40.04 48.14 50.21 51.48 53.80 54.53 59.75 62.37 63.84
36.26 34.97 42.89 40.47 28.08 27.15 31.51 34.68 37.05 36.42 35.73 35.64 34.56 34.65 32.90 29.97 27.16 32.21 34.09 41.05 41.67 39.20 35.74 36.32 35.45 26.23 31.66 34.52 39.99 38.01 37.38 35.49 34.90 37.81 38.95 38.69 39.42 49.17 47.94 48.24 50.29 51.98 55.94 59.57 62.70
36.16 31.27 35.04 34.94 32.48 28.31 31.30 31.13 33.02 40.31 37.47 37.95 35.86 36.37 33.34 30.59 31.86 29.27 32.85 39.08 40.53 39.01 44.20 40.80 31.49 30.92 27.43 31.03 34.75 33.49 36.68 37.38 34.09 30.36 38.33 41.76 43.44 45.62 49.24 47.45 48.39 49.63 51.15 53.99 61.46
35.30 31.29 32.75 28.87 31.19 35.23 33.45 32.30 32.53 33.26 38.42 38.20 35.25 36.60 34.44 30.20 30.59 29.59 32.32 34.42 39.21 41.73 39.69 34.73 28.57 30.35 33.12 35.27 35.63 34.66 35.07 36.14 34.13 35.65 33.51 41.16 42.15 45.11 47.47 49.11 47.88 50.77 53.17 53.23 54.11
35.04 34.20 34.45 31.86 36.29 35.81 35.42 32.33 33.98 35.41 36.07 34.78 34.50 36.91 36.91 33.93 33.40 30.35 32.33 30.24 32.61 36.08 34.68 34.08 28.67 33.32 30.73 34.57 34.94 34.02 37.66 38.51 38.88 38.80 38.44 39.85 40.33 47.03 54.63 55.73 55.51 56.38 57.76 57.98 54.53
40.92 43.35 40.86 38.65 37.75 35.94 35.86 36.75 36.55 37.99 38.54 39.31 39.07 37.16 35.20 35.97 37.34 37.16 36.81 33.35 32.26 32.83 32.22 32.84 31.39 31.63 26.13 33.11 33.33 32.56 37.54 41.37 40.77 40.29 41.70 39.03 43.03 48.34 53.19 53.59 53.21 54.48 56.85 58.23 59.74

GFSSW_sfc_wetblb_057.txt.gz
Wetbulb
56.99 56.99 56.88 57.07 57.15 57.45 57.60 57.60 57.75 57.80 58.11 58.20 57.89 57.81 56.92 56.99 56.17 55.00 49.54 55.92 56.67 64.62 69.34 72.54 70.53 69.40 69.56 67.46 69.26 64.85 59.61 57.15 57.79 58.16 60.74 64.79 63.78 67.32 67.95 64.81 65.57 66.60 66.31 67.54 69.33
56.92 56.61 56.63 56.64 56.94 57.22 57.38 57.45 57.58 57.60 57.62 57.78 57.57 57.30 56.72 56.77 53.33 50.96 57.13 60.51 62.79 67.59 69.90 67.55 64.25 66.83 64.50 65.57 67.08 63.18 59.94 59.00 61.54 63.11 62.35 64.35 65.52 65.92 64.87 64.03 63.52 64.68 67.27 68.48 69.29
56.35 56.21 56.18 56.43 56.61 56.79 57.01 57.27 57.33 57.41 57.45 57.34 57.15 56.46 56.78 56.07 49.55 51.29 65.04 67.62 64.48 65.44 68.32 68.12 65.55 64.43 61.72 65.35 65.29 64.00 60.59 62.51 63.21 64.53 66.45 65.63 65.35 66.94 64.79 62.76 64.59 63.61 64.73 66.82 68.06
56.09 56.00 55.89 56.15 56.22 56.36 56.67 56.87 56.94 56.83 57.16 57.16 56.92 56.50 56.41 54.33 45.18 54.26 67.00 69.25 65.54 65.43 67.30 62.50 62.57 59.72 58.13 59.21 64.74 61.43 64.50 64.92 64.95 65.63 64.47 63.61 66.29 65.36 65.84 65.69 67.88 67.00 67.08 67.07 67.14
55.65 56.09 56.07 56.19 55.85 55.98 56.28 56.37 56.28 56.36 56.91 57.50 57.06 56.43 54.53 48.41 47.67 57.27 66.23 65.48 64.11 65.44 62.35 58.87 58.38 58.16 54.35 58.22 61.23 61.99 63.35 64.52 66.01 65.83 65.47 65.35 64.53 65.38 65.66 67.86 68.04 67.69 66.83 66.35 66.87
55.62 55.97 56.01 56.10 56.20 56.18 56.10 55.51 55.59 55.91 57.57 58.77 56.84 56.91 52.10 44.43 53.90 58.30 62.00 62.54 63.33 64.28 60.22 61.07 59.03 59.71 56.77 58.08 58.60 62.11 62.99 63.84 64.31 64.42 64.67 63.58 63.29 65.93 65.34 67.56 66.44 66.16 65.90 66.52 66.91
55.63 55.83 55.61 55.75 55.82 55.34 55.18 55.10 55.18 56.18 58.04 58.43 58.18 55.86 50.55 48.60 57.59 58.99 60.89 61.19 63.12 62.27 59.42 59.99 61.01 58.46 55.64 54.23 58.86 59.57 57.36 58.85 61.13 62.21 62.88 64.31 61.03 62.27 65.78 66.57 65.19 65.39 65.75 66.01 67.12
55.55 55.60 55.34 55.45 55.31 54.87 54.77 54.50 55.26 56.89 58.00 58.53 59.32 55.95 49.72 57.27 59.32 58.54 58.27 60.13 62.53 60.98 57.63 56.96 57.34 57.79 53.52 55.20 52.76 52.35 55.05 54.64 60.36 61.12 61.92 62.83 57.45 63.81 65.96 65.21 64.16 64.78 65.16 65.23 66.31
55.22 55.04 55.01 54.85 54.63 54.46 53.88 54.95 57.87 58.78 59.34 59.40 56.76 53.43 45.96 58.88 50.82 51.82 55.09 54.21 58.55 60.96 57.12 57.16 55.20 52.60 52.48 50.60 48.89 50.97 47.12 51.26 56.36 60.89 61.99 61.94 58.71 64.42 65.65 65.08 63.68 64.25 64.86 65.15 65.51
54.71 54.55 54.34 54.10 53.82 53.53 53.43 56.02 60.38 59.75 59.00 58.97 56.71 49.30 49.14 45.94 49.00 49.95 53.26 59.16 56.73 55.56 52.39 51.52 52.65 48.75 48.50 47.94 42.00 45.98 47.06 52.11 54.80 59.67 60.53 60.17 59.98 63.88 64.05 64.37 63.71 64.13 64.74 65.12 65.35
54.64 54.15 53.74 53.53 53.14 52.78 51.61 49.61 48.10 46.78 47.95 43.98 44.20 43.88 46.36 48.78 50.56 50.21 54.95 56.69 55.90 51.18 45.46 49.47 45.49 44.37 46.10 48.05 49.05 50.15 49.41 49.34 56.50 60.11 59.53 59.09 59.25 62.97 64.26 63.66 63.23 63.55 64.18 64.89 65.16
54.31 53.84 53.49 52.95 52.71 52.68 50.20 48.21 47.53 47.86 42.87 45.13 44.62 44.64 46.63 47.19 45.22 48.46 53.34 52.72 52.20 47.72 47.63 45.29 42.72 47.28 47.74 46.99 47.28 48.03 47.56 50.17 53.96 56.67 58.88 58.73 58.30 62.40 64.09 63.72 63.84 63.45 63.95 64.50 65.33
53.80 53.45 52.93 52.32 52.47 50.69 48.46 48.44 50.31 48.39 41.75 43.61 45.34 45.14 45.19 46.62 44.93 45.38 49.51 48.12 50.56 47.51 46.76 44.40 45.79 48.16 46.15 45.09 44.76 46.20 46.22 47.96 50.17 54.45 56.68 57.61 56.27 58.96 63.84 64.95 65.43 64.78 65.03 65.27 64.97
53.70 53.35 52.48 51.13 49.62 47.68 47.36 49.14 50.74 48.08 39.60 40.30 42.40 44.29 46.47 45.23 43.31 48.36 52.35 47.55 46.64 48.26 47.84 47.56 49.90 46.56 45.66 44.60 45.58 42.64 47.74 48.82 48.90 48.25 49.08 56.77 50.06 56.83 61.25 62.50 64.04 64.87 64.86 64.67 64.86
53.59 52.91 51.52 50.45 48.75 48.53 49.63 50.55 47.46 45.56 31.05 40.89 42.46 47.58 46.13 43.57 44.32 45.26 52.52 50.05 44.55 45.25 47.96 46.96 47.27 46.46 44.97 45.52 47.05 44.56 47.59 46.14 47.83 47.85 48.08 49.84 50.69 55.48 60.03 60.61 62.65 64.78 65.80 66.51 67.01
53.14 52.02 51.29 50.01 49.05 50.84 50.43 49.16 46.89 38.01 29.63 37.68 42.34 40.16 41.53 42.84 42.99 45.52 48.09 50.18 49.58 46.58 47.54 46.69 51.76 50.75 49.18 48.99 48.13 48.81 47.57 46.92 46.28 45.88 42.09 48.58 48.82 51.44 55.67 59.86 63.09 65.37 66.51 67.08 67.68
51.81 50.64 49.49 51.01 47.69 51.99 49.58 46.78 37.46 32.21 39.66 36.07 37.93 39.10 39.39 38.97 40.08 42.39 43.00 42.32 41.49 40.07 40.87 44.22 46.16 49.43 51.68 48.28 49.33 47.71 45.02 40.15 38.53 38.22 39.55 50.32 47.82 50.41 56.93 60.78 63.35 64.73 66.11 67.56 68.29
50.33 48.08 48.97 51.35 51.24 49.60 47.34 43.15 31.69 36.08 35.53 39.40 38.87 38.13 36.51 38.25 38.64 40.03 39.96 39.16 42.17 41.74 41.73 39.64 38.30 45.99 49.76 48.85 46.98 46.55 45.98 40.73 35.40 36.95 39.27 48.06 44.91 50.07 56.65 58.61 62.54 65.39 67.09 68.12 68.28
48.76 47.22 49.54 50.61 49.89 48.40 47.00 36.62 34.95 36.12 38.66 37.36 38.08 35.04 34.96 37.40 37.89 37.84 37.94 38.71 40.64 40.89 36.46 38.51 38.98 45.70 47.02 48.10 49.76 46.97 43.79 48.36 43.08 44.14 41.74 43.60 48.60 53.93 56.90 57.97 59.41 60.68 65.50 66.85 68.02
45.57 44.69 48.30 50.61 47.94 47.62 43.81 35.42 37.21 40.96 40.96 39.16 33.96 36.30 33.41 35.00 35.55 36.27 36.01 40.94 39.90 41.61 43.35 39.22 34.13 43.29 45.04 47.87 49.25 48.69 50.60 43.27 44.03 36.62 36.60 42.36 44.41 46.82 53.80 55.82 58.53 59.42 63.34 66.19 68.23
44.75 45.47 49.21 49.13 49.20 44.96 37.85 36.22 38.20 42.18 42.42 38.27 36.22 35.41 35.54 34.63 35.63 34.96 35.48 39.45 41.23 40.50 43.40 41.58 36.86 38.09 42.90 44.30 45.53 45.94 45.45 47.16 47.31 44.68 39.25 38.50 43.30 53.32 54.43 57.98 58.73 59.96 61.96 64.46 66.98
43.04 41.15 49.47 47.66 41.25 38.20 36.63 36.48 38.95 40.07 42.67 40.54 39.94 38.30 36.19 35.82 34.71 34.82 34.81 38.06 42.99 42.49 37.57 41.62 37.68 33.07 37.41 45.56 46.58 45.26 45.48 47.52 42.81 42.18 45.30 44.21 43.86 54.56 57.02 58.42 59.73 60.48 62.51 64.39 66.69
40.34 40.10 48.54 48.30 35.97 35.28 36.95 36.71 38.63 39.18 39.67 38.86 37.36 38.85 38.61 35.70 32.98 36.08 37.26 42.47 43.52 41.63 39.24 41.86 35.73 30.94 34.48 40.71 44.38 42.86 43.07 45.01 46.77 46.91 44.69 41.48 43.70 54.78 56.25 55.99 58.84 59.79 61.02 64.47 66.82
42.48 38.26 41.81 41.98 40.27 37.20 33.75 34.98 35.49 41.27 39.95 40.47 38.95 39.57 37.23 35.62 37.36 34.78 35.94 40.23 42.63 41.89 43.93 43.45 37.07 33.89 31.59 33.93 38.01 37.02 39.98 41.33 42.10 42.88 44.30 46.22 48.17 51.72 53.78 55.38 57.43 58.09 58.83 60.68 64.32
41.99 37.96 38.75 36.06 37.98 37.51 37.37 35.57 34.08 34.55 40.24 40.64 37.86 37.48 36.25 33.41 34.45 34.13 36.42 37.37 40.79 42.41 42.38 40.63 32.56 34.52 35.38 36.23 36.67 36.45 37.21 39.72 39.04 43.53 42.48 47.03 48.50 52.71 55.43 56.50 58.00 59.56 58.79 59.81 60.13
41.42 41.01 40.97 39.30 38.29 36.97 37.09 34.94 34.99 36.51 37.10 35.60 35.37 37.61 38.19 34.92 35.97 33.51 36.11 36.49 36.77 40.79 39.86 40.66 33.21 34.79 32.51 36.28 37.51 35.12 38.29 39.51 40.78 42.11 42.84 44.87 46.11 52.41 56.61 59.43 58.96 59.97 61.11 62.16 63.50
45.13 45.62 42.14 38.14 37.29 36.56 36.91 37.19 37.24 39.49 39.03 39.93 38.59 37.11 35.11 37.88 41.08 41.86 42.05 41.07 40.02 37.48 37.76 36.94 33.91 32.34 29.06 37.06 37.14 34.00 38.60 40.58 43.14 44.69 44.92 43.97 49.69 53.25 55.06 57.10 56.61 57.07 58.29 59.44 61.69

GFSSW_sfc_wetblb_060.txt.gz
Wetbulb
57.43 57.37 57.05 57.26 57.47 57.72 57.87 58.10 58.34 58.47 58.42 58.58 58.45 58.11 57.22 56.69 56.60 57.38 52.81 57.76 59.14 65.44 68.90 72.04 71.78 70.68 70.59 68.68 70.52 69.31 62.58 60.56 60.32 60.96 63.85 67.45 65.77 69.37 70.46 68.09 68.45 69.44 69.00 70.70 71.29
57.14 56.80 56.77 56.77 56.90 57.19 57.55 57.78 58.03 58.14 58.35 58.14 58.07 57.66 56.73 56.83 56.89 54.54 59.32 59.12 62.08 66.22 70.48 69.30 67.40 68.02 66.04 67.23 68.05 65.69 62.83 62.08 64.56 65.60 64.02 66.68 67.80 68.14 67.46 67.10 66.69 67.65 70.14 70.94 70.67
56.75 56.46 56.39 56.60 56.69 56.91 57.22 57.39 57.51 57.78 57.84 57.80 57.52 56.46 56.59 58.00 54.18 55.67 62.18 66.41 64.34 67.62 68.74 69.62 68.26 66.65 63.18 66.29 66.97 66.07 62.69 64.83 65.31 67.10 68.36 65.92 67.60 69.50 67.49 65.69 67.68 67.24 68.34 69.45 69.55
56.26 56.12 56.30 56.36 56.51 56.60 56.94 57.00 57.10 57.23 57.27 57.67 57.45 56.71 56.91 58.04 48.74 57.37 66.65 68.19 70.03 66.12 66.57 65.47 64.74 62.18 60.84 61.22 65.81 62.45 65.67 66.63 66.51 67.22 67.36 66.70 69.04 67.46 68.10 68.28 70.47 70.25 70.03 69.51 69.72
56.40 56.66 56.76 56.65 56.12 56.33 56.66 56.54 56.50 56.52 56.81 57.79 57.92 57.11 57.51 53.77 50.15 60.06 67.28 67.56 66.56 63.93 64.59 63.38 61.37 60.47 56.66 59.52 60.81 62.35 64.69 66.56 67.61 67.22 66.97 67.29 66.43 67.13 67.78 70.19 71.03 70.46 69.80 69.34 69.78
56.39 56.43 56.31 56.21 56.50 56.28 56.22 55.99 55.69 55.96 57.09 59.06 58.25 57.97 56.23 48.81 57.05 60.74 64.28 64.23 61.56 61.10 64.02 62.27 60.08 60.42 57.17 57.15 58.01 61.34 62.04 64.33 66.56 67.23 67.09 65.71 65.78 67.50 68.25 70.41 69.80 69.28 68.92 69.52 69.62
56.12 56.06 55.92 55.88 55.69 55.84 55.72 55.35 55.87 56.27 58.37 58.95 58.46 58.75 55.18 52.47 59.65 60.02 63.59 62.98 64.52 62.52 61.40 61.82 61.24 59.25 56.96 56.08 60.30 59.82 59.09 61.19 63.41 66.34 65.57 66.83 63.74 64.20 69.23 69.81 68.61 68.58 68.95 69.20 69.63
55.91 55.77 55.67 55.63 55.09 55.13 54.81 55.23 56.61 57.41 58.56 58.89 59.44 59.79 52.66 57.56 60.48 57.48 60.43 62.45 65.87 64.30 62.34 63.47 61.01 59.91 56.43 56.90 54.22 53.97 55.92 54.59 62.10 65.06 65.57 65.00 60.16 65.85 69.38 68.86 67.78 68.21 68.31 68.46 69.22
55.39 55.33 55.21 55.21 54.94 54.58 54.15 55.58 58.98 59.16 59.57 59.67 59.98 56.85 49.04 58.33 52.51 54.26 56.66 59.62 62.45 60.79 61.41 61.24 59.10 57.58 57.57 52.07 49.76 51.64 49.84 52.49 60.78 65.06 64.63 63.92 61.43 66.83 69.11 68.68 67.82 67.95 68.14 68.07 68.78
55.04 54.81 54.65 54.65 54.25 53.88 53.29 54.83 60.23 59.68 60.31 60.63 58.98 53.38 51.28 49.09 52.47 53.01 57.22 61.01 59.45 59.11 54.81 55.24 54.82 52.53 52.44 50.56 46.10 48.50 49.38 52.99 57.89 62.61 63.93 62.80 62.74 66.39 67.95 68.17 67.87 67.97 68.01 68.16 68.52
54.83 54.44 54.48 54.13 53.37 53.17 55.46 55.40 55.17 51.07 52.34 47.90 48.29 47.58 48.95 51.92 54.43 53.74 59.36 59.30 58.40 57.98 50.72 52.09 49.81 47.78 49.98 51.37 51.59 51.33 51.78 51.53 57.85 62.87 62.52 62.24 62.38 65.49 66.92 67.59 67.15 67.84 68.01 67.93 68.45
54.58 54.27 54.07 53.37 52.86 53.21 56.13 51.90 50.80 51.78 47.30 49.23 48.25 48.60 49.73 50.39 48.93 51.51 57.95 55.50 53.73 50.67 51.91 49.23 46.25 51.10 52.35 51.36 50.18 49.97 50.78 52.05 55.02 60.72 61.82 62.18 61.49 64.02 66.95 66.63 67.67 67.74 68.12 68.15 68.79
54.52 54.15 53.58 52.72 52.68 56.03 53.32 51.90 55.20 53.98 47.24 47.31 48.38 47.80 48.08 50.08 47.48 48.31 53.82 54.51 53.56 50.90 49.79 47.97 49.57 51.03 49.93 49.55 48.13 48.90 48.64 50.93 52.63 56.33 58.97 61.03 60.06 61.87 65.50 67.48 67.91 68.65 69.35 69.31 68.97
54.19 53.88 52.92 51.36 52.01 55.13 53.02 54.97 56.12 54.45 44.04 43.97 45.48 46.86 48.93 48.93 46.22 50.94 54.30 51.76 51.96 51.18 51.39 50.23 52.78 49.42 48.81 47.63 48.95 46.57 50.15 49.33 51.55 52.27 51.25 59.57 53.49 59.88 62.84 65.14 66.67 67.67 68.38 68.94 69.22
53.97 53.11 52.07 50.82 55.18 53.77 53.89 56.28 55.06 51.16 35.43 43.40 45.10 50.44 49.34 46.96 47.04 48.02 54.40 52.39 48.35 49.31 52.31 49.57 49.88 50.00 47.84 48.81 50.19 47.84 50.82 49.55 48.98 50.84 52.03 54.18 54.03 57.56 62.21 62.17 65.32 67.29 68.05 68.76 69.64
53.19 52.29 50.97 54.68 56.46 54.96 56.26 55.06 51.44 42.09 34.81 40.98 44.91 43.45 44.90 45.88 45.77 48.56 49.46 52.66 52.75 49.15 50.92 50.99 54.57 52.91 51.85 52.34 51.43 51.67 49.55 49.29 48.96 47.38 44.86 51.36 53.07 54.95 58.37 61.46 64.20 67.40 68.48 69.11 69.47
51.75 50.65 52.70 55.79 52.26 55.78 55.71 51.34 42.18 37.64 42.82 40.16 41.53 43.45 43.26 42.64 43.53 45.48 45.31 45.64 44.85 42.74 43.78 47.92 48.75 52.60 53.86 50.56 52.65 50.48 47.87 43.42 41.79 41.29 40.28 50.35 50.50 54.38 59.76 63.21 64.13 65.81 68.09 69.62 70.69
50.27 49.01 50.69 54.53 56.08 55.05 54.00 47.31 37.39 40.36 40.47 43.16 42.43 42.85 40.67 42.29 42.67 42.96 42.94 42.86 45.78 44.98 43.26 42.88 41.83 48.24 52.42 51.68 49.69 49.02 48.73 44.06 39.40 41.09 42.70 47.55 46.32 52.12 59.56 62.25 64.84 66.39 68.66 70.25 70.68
49.62 55.82 55.25 55.41 54.86 54.50 50.12 42.29 41.24 41.06 42.69 41.51 42.24 40.22 40.57 41.28 41.80 41.71 41.77 41.85 44.44 45.08 41.02 42.43 42.12 49.79 50.90 52.62 52.70 50.20 46.82 50.94 46.86 48.22 45.43 46.63 48.25 53.98 58.52 59.78 61.59 63.52 66.20 67.71 69.52
51.73 53.97 52.42 55.59 54.79 52.55 47.53 40.33 42.45 44.35 44.19 43.01 38.71 40.82 38.45 40.31 39.48 40.41 40.79 44.03 43.23 44.67 45.93 43.39 38.51 46.40 49.13 50.93 52.13 51.03 53.50 46.03 47.08 41.16 40.90 45.95 47.25 46.56 54.49 57.53 60.30 61.59 62.75 66.32 68.77
51.81 50.78 52.96 55.67 54.39 50.97 44.85 42.51 42.73 45.34 45.16 42.01 40.75 40.14 40.62 39.66 39.94 40.36 39.93 42.80 44.26 43.82 45.45 44.04 41.18 41.69 44.50 46.71 46.80 48.47 47.98 49.36 49.36 47.39 42.77 42.54 46.37 53.69 54.01 56.38 59.16 61.23 63.44 64.82 68.32
50.84 47.22 53.64 55.43 49.71 48.42 44.17 41.79 39.76 43.55 45.53 43.42 43.60 42.35 41.09 41.07 39.64 39.46 38.81 41.31 45.01 44.72 41.07 44.39 41.86 38.61 40.94 47.05 51.18 49.72 48.65 49.57 45.24 44.77 47.01 47.21 47.38 55.10 55.94 56.79 59.35 61.30 63.06 64.90 66.65
48.32 48.57 53.91 54.13 44.48 42.83 43.13 41.90 42.73 42.29 42.81 42.08 41.06 42.11 42.65 40.32 36.87 40.09 40.93 44.16 45.32 43.57 41.68 44.42 39.34 35.19 38.24 42.31 45.90 45.04 48.51 50.53 49.70 50.44 47.29 44.64 46.80 56.31 57.50 58.64 59.15 59.97 62.32 64.92 66.21
49.14 46.53 48.64 49.00 47.53 42.73 40.91 39.84 39.70 43.63 42.96 43.54 42.80 43.69 41.71 40.29 42.29 38.83 39.41 42.67 44.90 44.40 44.57 44.02 40.00 37.61 35.59 38.82 41.50 40.79 45.42 47.43 48.11 45.33 46.90 48.39 50.71 53.97 55.81 56.76 59.22 61.51 62.33 63.15 65.67
49.03 44.29 44.74 41.71 42.29 43.21 42.99 41.27 38.75 37.98 42.60 43.67 40.93 40.47 39.12 35.58 36.96 36.94 39.74 40.93 43.16 44.36 44.28 43.79 37.44 39.51 39.83 40.03 39.97 39.81 40.64 42.81 43.30 46.97 45.33 49.28 50.31 54.69 56.39 56.94 58.58 60.59 62.34 62.13 61.85
48.24 45.55 47.27 41.21 42.32 39.83 40.51 38.12 37.24 37.92 37.48 37.38 38.22 39.78 40.60 38.05 38.63 37.07 39.90 41.04 39.93 42.69 42.76 43.89 37.07 39.01 36.57 39.26 39.15 37.61 40.45 42.08 42.86 45.42 46.51 48.43 49.81 56.60 59.00 59.74 61.19 61.75 63.18 63.50 64.24
50.63 50.00 47.42 41.06 40.90 40.15 39.04 38.33 38.08 40.07 40.56 41.04 40.00 38.71 37.13 38.59 42.45 42.44 44.71 44.28 43.30 40.62 40.11 39.31 38.42 36.71 33.37 38.52 38.74 35.97 41.04 43.34 44.51 46.72 47.23 45.51 51.16 56.15 56.62 58.14 61.24 61.15 61.89 62.39 63.55

GFSSW_sfc_wetblb_063.txt.gz
Wetbulb
57.51 57.76 57.67 57.40 57.51 57.80 58.03 58.22 58.50 58.73 58.95 59.03 58.84 58.63 58.02 57.62 57.20 58.57 54.88 60.20 61.51 65.17 67.47 69.78 69.14 70.27 70.95 69.24 69.45 70.01 61.84 59.64 61.33 62.04 63.69 68.61 67.59 70.47 71.39 69.17 69.81 70.65 69.76 71.10 71.78
57.23 57.19 57.08 57.08 57.31 57.50 57.62 57.96 58.22 58.39 58.54 58.62 58.56 58.33 57.68 57.41 58.45 57.54 62.06 61.28 61.81 63.99 67.38 67.32 66.33 68.98 67.03 67.10 67.99 65.57 62.23 60.72 62.25 66.47 66.67 67.85 68.22 68.79 68.17 68.15 67.82 68.91 71.16 71.55 72.01
56.69 56.70 56.92 56.75 57.05 57.34 57.66 57.85 57.89 58.02 58.12 58.14 58.25 58.12 57.47 58.62 57.70 57.39 63.90 63.50 66.14 65.10 69.61 69.81 68.94 67.49 64.53 66.37 66.57 66.79 62.52 66.50 66.48 68.01 68.49 68.13 67.27 70.04 66.46 65.80 68.44 67.76 68.13 68.99 70.66
56.21 56.33 56.59 56.55 56.60 56.97 57.43 57.57 57.48 57.49 57.51 57.66 58.45 58.23 57.53 59.78 52.22 60.53 65.85 67.93 68.74 65.98 68.67 67.83 66.35 63.66 61.93 61.72 65.95 63.38 65.88 66.48 66.34 68.35 67.38 66.99 68.44 66.98 68.19 67.10 70.73 71.50 70.98 69.87 70.26
56.39 56.72 56.85 56.50 56.36 56.80 57.17 57.14 56.81 56.72 57.01 57.62 58.86 58.18 58.10 56.85 54.30 60.84 66.99 68.37 67.86 62.10 64.98 65.71 63.72 62.92 59.60 61.65 63.51 63.36 63.77 67.00 67.89 67.86 68.31 68.81 66.93 66.47 67.40 70.67 71.91 71.92 71.16 69.09 70.25
56.74 56.72 56.53 56.65 56.50 56.52 56.58 56.51 56.53 56.74 57.16 58.70 59.72 58.42 58.88 53.15 58.68 60.55 64.86 66.80 64.69 60.23 64.01 65.48 62.97 63.80 60.75 59.74 60.12 62.25 63.62 64.98 67.22 67.63 67.59 65.82 65.59 67.59 68.43 71.42 70.84 70.67 70.29 69.88 70.51
56.36 56.36 56.30 56.34 55.90 56.06 56.13 55.65 57.70 56.95 58.75 59.67 59.37 59.93 58.64 54.79 60.01 60.97 64.81 64.20 65.21 60.93 61.92 65.44 64.29 62.14 60.00 57.23 60.17 60.86 59.27 62.42 64.48 66.35 65.38 67.60 62.72 64.85 69.34 70.88 69.85 69.68 70.35 69.06 69.52
56.17 56.11 56.11 56.01 55.60 55.45 55.17 55.12 58.53 58.19 58.70 59.43 59.84 62.58 54.53 57.92 60.91 59.40 63.32 63.56 64.07 63.08 62.49 65.89 63.59 60.33 59.58 59.14 56.65 56.91 58.22 56.46 62.55 65.22 66.73 66.68 59.81 65.35 70.30 69.83 69.08 69.27 69.68 69.45 69.73
55.72 55.94 55.98 55.86 55.59 55.08 54.58 54.73 59.77 59.56 59.75 60.65 61.60 61.52 52.21 58.03 55.44 57.00 61.69 61.45 64.38 64.63 63.74 63.70 62.22 58.34 58.70 54.07 52.43 53.55 52.15 54.62 57.70 63.14 63.97 65.46 60.21 61.28 69.63 69.65 68.96 69.03 69.36 69.37 69.12
55.35 55.32 55.36 55.26 54.73 54.05 54.11 54.38 59.73 59.92 61.08 62.74 61.23 55.88 53.12 51.43 54.66 55.85 58.50 61.73 62.93 59.94 60.19 59.21 58.04 54.85 55.68 53.47 47.11 49.73 50.85 53.83 55.49 62.59 64.03 63.62 62.08 62.92 68.92 68.83 68.91 69.01 69.19 69.42 69.37
55.14 54.89 54.89 54.54 54.05 53.20 54.99 58.15 57.53 55.83 56.54 51.09 51.35 50.34 51.38 54.40 56.77 57.02 60.47 61.04 61.06 58.16 52.55 55.97 52.42 49.73 53.09 54.62 54.00 52.73 52.30 52.84 56.91 63.20 62.32 61.59 62.29 62.11 67.90 68.19 68.55 68.95 68.58 69.15 69.61
54.85 54.63 54.36 54.05 53.50 52.97 55.48 53.74 52.92 54.15 49.75 51.58 51.06 51.21 52.28 54.02 51.02 54.97 61.56 56.29 56.25 53.78 54.92 51.94 48.90 53.18 54.03 53.82 52.34 51.85 51.24 52.14 56.03 60.82 61.88 61.28 60.79 63.67 67.13 67.61 68.74 69.01 68.83 68.95 69.84
54.69 54.38 53.83 53.24 52.63 55.33 55.35 54.02 57.35 56.58 49.61 49.84 50.83 50.00 50.83 52.44 50.13 50.95 56.36 57.45 54.06 53.33 54.09 51.27 51.69 53.48 52.88 52.07 50.93 51.09 50.49 51.60 53.68 56.63 62.13 60.72 59.66 61.83 65.40 67.83 68.91 69.83 70.52 69.57 69.88
54.46 53.93 53.11 51.91 52.23 56.88 55.37 57.25 57.84 56.61 46.66 46.46 47.14 49.12 50.90 51.23 48.77 52.84 55.45 54.79 53.86 52.13 52.16 52.05 54.22 51.74 51.25 50.32 52.01 49.30 52.41 51.59 52.07 53.90 51.95 60.26 53.69 56.90 60.31 65.19 67.24 68.62 69.66 69.97 69.57
53.95 53.29 52.23 50.63 56.99 55.57 55.99 58.19 57.23 54.57 38.52 46.34 47.40 52.43 50.87 48.89 50.06 50.36 54.37 53.56 49.88 51.13 53.19 51.01 51.34 51.03 50.35 50.75 52.14 50.43 53.34 51.52 50.63 50.20 53.33 54.76 53.49 58.26 62.98 62.29 65.16 67.57 69.12 70.19 70.63
53.33 52.43 51.72 56.72 58.32 56.86 58.26 57.73 54.38 43.88 37.21 43.42 47.07 46.13 47.13 48.05 48.22 50.06 50.64 52.74 52.82 50.36 51.57 51.79 56.16 53.62 52.48 53.71 53.19 53.70 51.68 51.43 51.31 49.30 44.85 51.86 53.64 56.15 58.05 60.14 65.01 67.48 68.78 69.89 70.68
51.68 50.63 52.43 56.88 54.68 58.17 58.12 54.75 44.61 39.96 46.66 43.55 44.44 45.93 45.73 45.71 46.33 47.30 47.38 47.78 45.81 44.46 44.36 48.02 49.48 53.43 55.01 51.64 53.56 52.38 50.04 44.58 43.37 43.60 42.76 49.74 51.10 55.43 61.14 63.37 63.91 66.62 68.34 69.81 70.85
50.31 49.16 55.31 57.21 58.72 57.82 56.14 50.06 40.65 44.29 43.76 46.25 45.11 45.42 43.46 45.52 46.07 45.52 45.97 45.19 48.50 47.08 45.21 43.87 43.40 49.27 52.24 52.10 51.08 50.93 50.30 46.02 41.14 42.73 44.76 49.76 46.02 52.43 60.37 63.80 64.54 65.36 67.35 69.87 70.28
49.81 56.92 57.65 57.82 58.16 57.01 52.35 45.08 44.64 45.64 46.03 44.91 45.71 43.23 43.95 44.63 43.88 44.33 45.22 45.14 46.79 47.88 43.46 43.31 43.41 51.03 51.33 52.50 52.92 51.20 48.44 52.09 48.27 50.06 47.36 48.95 50.12 53.12 58.19 60.30 64.05 62.50 66.59 67.22 70.02
55.05 55.21 55.17 58.68 58.28 55.35 49.95 43.62 46.61 47.89 47.27 46.62 42.26 44.39 42.30 44.07 42.48 43.81 44.41 46.92 45.89 47.17 48.28 45.74 41.83 49.27 49.17 52.04 53.04 51.78 54.14 47.47 48.01 42.54 42.46 47.53 49.53 48.55 52.48 56.38 60.10 63.10 64.78 66.84 69.61
54.62 53.38 56.09 58.79 57.60 53.17 47.14 46.77 46.55 48.58 47.89 45.39 44.60 43.94 43.90 43.45 44.39 43.36 44.09 45.79 46.47 46.51 47.71 46.28 44.51 44.58 47.30 47.47 47.74 48.80 48.77 50.71 51.04 48.47 44.14 44.14 48.13 56.20 54.81 55.89 58.61 61.37 64.18 66.37 69.37
54.51 50.54 57.04 58.31 51.23 52.19 48.17 46.26 42.23 47.01 48.42 46.58 46.25 45.15 43.99 44.71 43.38 42.93 42.49 45.11 47.60 46.97 43.72 47.54 44.18 41.05 43.58 48.25 49.24 49.11 48.57 48.52 46.34 46.32 48.53 47.91 48.80 57.12 57.56 56.89 59.18 61.51 63.37 64.98 67.10
52.71 52.96 57.04 56.83 48.17 47.16 47.20 45.85 46.24 45.93 46.27 45.61 44.39 45.42 46.21 43.07 39.64 43.16 43.84 47.43 47.08 45.79 44.25 46.91 42.40 38.18 40.42 44.44 47.39 45.59 48.92 50.53 50.36 49.96 48.32 45.80 48.05 57.54 57.82 57.58 58.48 59.12 61.45 64.68 66.27
53.09 50.30 52.79 52.67 51.56 47.34 45.99 44.21 43.67 46.77 45.56 46.10 45.39 46.22 44.15 42.42 44.70 41.36 42.38 44.73 46.62 46.52 46.63 46.33 43.20 41.36 38.09 41.43 44.50 43.66 44.96 48.57 49.04 46.25 46.85 48.24 50.94 54.70 56.45 57.27 59.32 60.33 61.76 63.51 66.51
53.19 48.29 49.45 45.35 46.67 47.45 47.38 44.89 42.61 41.29 46.15 46.08 44.00 42.97 42.05 40.22 41.05 41.04 43.28 44.30 45.77 46.51 45.64 44.93 39.07 41.70 42.22 43.23 43.50 42.66 43.51 46.47 46.52 49.06 46.73 49.68 50.55 54.61 56.66 57.74 59.38 61.40 62.76 63.39 64.25
51.33 50.64 50.90 48.12 47.13 45.31 44.16 42.08 37.89 39.70 41.13 41.34 41.77 43.21 42.74 40.92 41.23 39.81 40.86 41.48 41.45 45.43 43.75 45.34 38.62 41.11 38.82 41.92 42.63 40.56 42.55 43.62 45.84 48.04 48.73 49.46 50.12 56.52 57.59 59.14 59.58 60.58 62.21 64.14 65.34
54.47 54.01 51.99 43.18 43.15 43.03 43.07 42.47 41.02 42.57 43.46 44.66 43.36 42.39 41.12 43.24 46.15 46.62 46.50 46.35 45.35 42.01 42.04 43.11 40.21 37.54 34.59 40.33 41.05 37.55 41.28 42.58 43.99 46.82 47.47 45.94 51.77 56.05 56.14 57.42 60.45 61.79 63.36 63.70 65.11

GFSSW_sfc_wetblb_066.txt.gz
Wetbulb
57.92 57.90 57.81 57.52 57.65 57.99 58.24 58.42 58.83 58.96 59.14 59.31 59.39 59.22 59.11 58.48 57.90 57.70 53.32 60.98 63.60 67.49 65.58 64.11 65.85 67.83 70.51 68.15 69.58 69.94 62.43 60.05 60.51 60.08 61.82 64.95 66.80 69.73 70.44 68.66 69.53 69.99 69.24 70.14 71.64
57.65 57.45 57.34 57.19 57.37 57.83 58.14 58.46 58.63 58.70 58.70 58.79 58.91 59.15 58.80 58.10 57.29 55.90 65.39 65.49 62.77 63.50 60.58 63.86 63.27 65.93 65.51 66.40 67.57 64.97 62.16 61.85 65.45 65.25 61.97 65.63 67.33 68.01 67.47 66.96 67.48 69.14 70.79 71.16 71.05
56.97 57.15 57.28 57.04 57.17 57.56 57.98 58.29 58.35 58.42 58.42 58.44 58.63 59.07 58.42 58.05 56.99 58.24 66.20 66.20 65.54 63.96 62.98 67.31 65.91 65.98 63.60 65.77 65.20 64.84 61.25 64.55 64.40 66.58 65.90 65.46 67.21 69.15 66.88 64.89 67.09 66.80 68.19 69.58 69.79
56.56 56.44 56.86 56.77 56.97 57.17 57.68 57.89 57.70 57.72 57.91 57.90 58.51 59.12 57.93 58.26 53.42 60.61 67.96 68.05 67.70 63.21 60.98 66.08 65.15 63.35 62.47 61.63 65.16 61.15 64.24 65.41 64.82 68.50 67.74 64.57 66.82 66.16 65.79 63.77 69.97 70.11 69.62 69.76 68.89
56.63 56.73 57.03 56.91 56.80 57.02 57.30 57.31 56.94 57.50 57.84 57.75 58.62 59.14 57.19 56.67 56.44 63.64 70.55 68.65 65.10 61.00 60.40 65.74 63.88 63.35 60.26 61.88 63.06 62.32 63.82 65.09 66.75 68.48 66.30 65.54 64.38 64.55 63.18 65.40 70.43 70.87 69.66 69.08 69.15
56.80 56.91 56.97 57.09 56.98 57.12 57.32 57.12 56.95 58.63 57.85 58.19 59.31 59.27 56.04 54.50 59.26 60.54 65.03 66.36 62.56 58.55 62.96 66.48 64.45 64.63 61.86 60.84 60.59 63.15 63.02 64.28 66.78 67.19 67.96 64.90 64.51 65.35 66.56 68.65 69.99 69.36 68.38 68.80 69.31
56.44 56.60 56.60 56.66 56.54 56.35 56.52 56.16 56.41 59.25 59.21 60.28 60.85 59.42 60.10 56.84 59.89 60.37 63.52 64.21 63.73 59.05 58.62 65.53 66.29 63.07 62.32 59.33 60.51 59.61 58.60 61.27 63.23 66.96 66.06 66.88 62.33 63.56 68.30 69.69 68.88 68.67 68.62 68.54 69.32
56.37 56.39 56.43 56.53 56.18 56.20 55.88 55.29 56.07 60.13 59.80 59.50 60.01 60.67 58.77 57.72 60.41 58.94 61.82 63.40 65.45 63.49 59.52 64.34 65.81 62.07 60.86 61.48 57.26 55.53 56.61 54.71 60.17 63.69 66.60 66.03 60.05 64.07 68.35 68.36 67.84 68.46 67.91 68.49 68.89
55.94 56.13 56.02 56.12 55.96 55.43 54.75 54.92 56.38 60.76 60.75 60.50 60.76 60.34 56.53 58.83 56.00 58.26 60.81 61.10 62.25 61.39 62.02 63.54 64.23 60.09 57.66 55.16 52.37 53.70 50.07 53.51 56.49 63.04 63.93 64.36 60.16 63.79 65.91 67.33 67.48 68.22 67.91 68.14 68.67
55.61 55.63 55.47 55.39 54.90 54.34 53.90 54.29 58.58 60.21 61.52 62.24 61.81 56.12 56.70 52.29 55.19 55.96 58.88 62.16 61.45 60.20 60.09 59.08 58.98 55.14 54.44 52.80 46.96 48.93 50.41 52.75 54.43 59.15 62.20 61.84 60.23 63.22 63.86 64.80 67.02 67.63 68.30 68.00 68.12
55.45 55.10 54.98 54.69 54.20 53.47 54.31 57.87 56.51 56.76 57.73 55.59 54.33 53.83 52.66 54.97 56.77 56.45 58.11 58.88 61.62 59.55 54.80 57.14 53.42 50.94 53.32 53.38 54.18 52.80 51.10 51.58 54.46 57.94 60.16 59.46 59.69 59.79 63.04 63.15 62.70 67.03 68.29 67.74 68.10
55.20 54.73 54.49 54.16 53.61 53.06 54.23 54.43 53.45 54.50 49.59 54.94 52.97 51.96 53.07 54.53 51.44 55.85 60.36 56.77 56.96 53.63 53.92 53.87 50.71 54.87 53.92 54.63 53.57 52.97 51.40 50.46 53.42 56.59 61.04 61.17 56.69 58.78 60.17 61.35 61.81 66.91 67.55 68.61 68.31
54.83 54.39 53.81 53.28 52.87 55.15 55.88 54.94 57.81 56.77 48.95 51.08 51.24 50.93 51.19 52.63 50.99 52.41 57.87 56.86 54.43 52.51 53.31 49.66 51.99 54.64 53.27 51.92 51.34 51.42 50.17 50.42 50.96 55.03 60.67 59.84 55.70 57.50 59.72 61.96 64.18 67.79 68.22 68.88 69.35
54.18 54.06 53.24 51.91 52.55 57.11 55.73 57.44 58.12 57.12 45.88 47.35 47.94 49.52 50.74 51.40 48.80 53.83 55.29 55.08 54.68 51.89 52.60 53.06 54.87 53.14 51.26 50.76 51.86 48.75 52.76 51.61 51.01 50.68 49.40 56.92 52.19 54.49 59.86 60.51 59.77 60.94 67.32 67.82 69.45
53.88 53.38 52.17 51.10 54.33 55.66 56.35 58.48 56.99 54.63 38.04 47.81 47.98 52.92 51.49 48.70 50.56 50.57 54.59 53.50 50.28 51.87 52.71 50.63 52.14 51.66 50.86 51.00 52.52 50.39 53.75 52.37 51.13 49.47 49.69 51.94 51.17 57.62 60.30 56.56 58.71 60.20 66.43 67.46 69.37
53.48 52.68 51.85 57.38 56.53 58.77 58.24 58.41 54.80 43.66 37.42 44.30 48.21 46.70 46.78 48.52 48.71 51.06 51.17 53.06 52.74 49.75 51.07 50.76 54.74 53.70 52.41 53.38 53.28 53.58 51.58 51.81 51.53 49.28 44.29 48.07 49.61 52.30 58.36 57.45 56.95 59.94 65.00 68.08 68.51
52.19 51.26 51.13 56.54 55.07 58.31 58.18 55.19 44.13 39.94 48.27 44.38 45.08 46.45 46.87 46.73 46.60 47.47 47.69 47.45 45.19 43.34 44.18 46.38 48.53 53.02 55.05 51.13 52.99 52.37 48.94 43.33 42.63 42.67 42.88 49.01 46.89 52.05 59.18 61.78 59.68 60.88 64.93 69.07 69.81
50.71 49.52 54.62 57.48 59.11 58.29 56.23 49.82 40.62 45.71 45.49 47.71 45.91 45.87 43.83 46.43 46.23 46.48 45.58 45.18 48.49 47.41 44.50 43.55 42.68 47.63 52.19 52.24 50.17 50.46 49.30 44.37 39.54 41.23 43.70 50.01 45.46 49.30 56.09 65.03 65.03 64.65 64.66 65.86 70.11
49.98 57.43 56.20 58.79 58.84 57.76 52.27 44.96 44.68 46.19 47.91 46.09 46.41 43.79 44.01 45.88 45.05 45.40 45.50 45.19 47.60 49.05 43.90 43.16 42.90 50.07 51.10 51.70 52.30 50.18 48.12 51.22 46.75 48.17 45.44 47.80 50.53 53.48 55.26 56.90 65.32 63.19 63.87 63.20 66.84
53.42 56.66 56.01 59.14 59.33 55.94 49.89 45.57 47.32 49.08 48.44 47.97 42.99 45.70 43.10 45.07 44.29 44.60 44.51 47.64 46.24 48.94 49.40 45.56 40.44 47.56 49.46 51.87 51.82 50.07 52.33 46.73 47.30 41.12 40.96 45.86 48.67 49.38 53.45 54.81 58.83 63.96 63.58 64.57 65.40
54.70 54.28 57.51 59.34 58.35 53.48 47.18 47.50 48.68 50.04 49.04 46.24 45.39 44.99 45.52 44.72 45.51 44.61 44.50 47.13 47.76 47.36 48.46 46.71 43.90 43.52 47.32 46.97 46.78 48.29 47.42 49.09 49.28 48.23 42.99 42.27 46.66 55.94 57.87 56.56 57.33 64.28 64.43 62.07 63.78
56.51 50.99 57.65 58.89 51.13 52.22 47.58 47.48 43.54 48.39 49.74 47.99 47.19 45.90 44.65 45.32 44.46 44.58 44.11 45.95 48.79 48.12 44.17 47.28 43.76 40.30 42.90 48.13 49.52 48.22 48.15 48.73 45.34 45.02 47.97 47.44 47.06 56.62 57.87 58.07 57.95 58.74 64.73 64.55 65.76
53.95 53.77 57.89 57.33 46.92 47.78 48.51 47.47 47.84 46.72 47.35 46.77 45.67 47.12 47.16 44.42 41.16 44.22 45.17 48.42 48.86 46.36 44.96 46.31 42.44 37.83 40.07 44.31 47.34 45.46 46.63 47.49 47.72 47.94 46.90 45.30 47.10 56.26 57.92 58.55 59.97 58.70 60.83 66.20 66.64
54.31 49.49 53.45 53.89 52.51 48.67 46.95 45.98 45.17 47.75 47.47 47.25 46.47 47.07 45.11 43.52 45.43 42.74 43.30 46.31 47.33 47.00 48.27 46.24 42.05 39.56 36.70 41.54 44.74 42.96 44.99 45.91 45.27 43.60 44.59 45.90 48.73 54.57 56.44 57.02 58.88 59.87 62.16 63.50 67.90
54.22 49.13 51.16 45.69 47.38 48.22 48.28 46.85 43.83 43.00 46.94 47.45 45.25 44.30 43.56 40.90 42.51 42.26 44.22 45.24 46.65 48.90 46.15 44.48 38.48 41.02 41.53 42.87 43.15 42.82 43.27 44.45 43.64 45.26 44.52 47.54 48.06 53.10 57.82 57.70 58.64 60.53 63.28 63.56 63.96
51.15 50.64 51.68 48.06 48.70 47.36 45.51 43.90 42.40 43.16 43.63 43.49 42.79 44.26 44.20 41.67 42.49 40.58 43.00 43.23 42.89 46.38 44.84 46.06 38.63 40.73 38.37 41.94 42.49 41.13 43.14 44.03 43.98 45.22 46.05 47.10 48.51 54.89 57.40 57.60 58.41 60.45 62.66 64.59 66.13
56.43 56.63 53.28 46.76 47.66 45.67 43.90 44.81 42.90 44.33 45.47 45.70 44.32 43.21 42.29 44.01 46.12 46.66 46.66 46.74 45.98 43.72 42.79 42.76 41.30 38.43 34.38 40.27 39.76 36.55 41.81 43.36 43.96 45.67 46.25 44.75 49.96 54.87 54.55 56.97 57.80 60.06 61.04 61.91 65.24

GFSSW_sfc_wetblb_069.txt.gz
Wetbulb
57.45 57.30 57.27 57.50 57.76 58.10 58.56 58.72 58.96 59.13 59.25 59.40 59.35 59.51 59.64 59.59 58.86 55.92 51.81 58.14 59.19 68.03 65.94 62.20 60.67 63.11 67.49 67.44 68.66 68.13 59.47 57.54 59.60 56.87 58.36 63.38 63.57 68.72 69.69 66.64 67.91 68.68 67.09 68.47 69.87
57.11 56.94 57.12 57.28 57.56 57.60 58.10 58.50 58.68 58.83 58.77 58.79 58.85 59.09 59.41 59.09 54.80 53.02 61.99 68.32 68.56 67.83 54.95 57.37 57.02 61.12 60.81 64.07 65.88 62.34 58.31 60.23 62.73 62.88 61.57 63.90 64.36 66.64 66.13 66.85 66.47 66.59 68.71 69.78 69.69
56.76 56.97 57.07 57.30 57.48 57.44 57.79 58.15 58.26 58.26 58.15 58.35 58.44 58.86 59.50 57.45 53.69 56.57 67.63 69.57 68.80 65.47 55.84 59.72 61.18 60.93 59.22 62.48 63.21 63.26 58.24 63.70 64.72 64.65 65.73 65.25 65.48 66.54 66.10 63.99 65.59 64.33 66.44 68.31 68.63
56.70 56.84 56.95 57.09 57.37 57.49 57.62 57.80 57.78 57.64 58.25 58.39 58.10 58.71 59.04 55.71 50.09 59.15 69.16 68.97 69.51 60.60 55.90 58.18 60.19 57.77 58.37 57.99 62.80 58.71 63.00 64.26 65.52 66.59 66.48 64.97 66.36 64.01 64.83 65.41 68.91 67.93 68.35 68.26 67.73
56.43 56.71 56.95 56.89 57.03 57.27 57.26 57.23 57.11 57.09 59.14 58.41 58.09 59.14 54.74 51.98 53.30 63.20 70.21 68.88 63.21 58.58 54.65 54.64 60.13 59.78 56.96 59.72 61.21 60.16 61.87 63.90 65.78 66.43 66.64 66.78 64.34 61.39 63.10 67.83 69.75 68.63 68.11 67.36 67.65
56.48 56.91 56.97 56.95 56.92 56.84 57.31 56.91 56.41 56.71 59.67 58.67 58.76 59.47 51.71 49.21 59.75 64.04 64.74 63.62 59.78 57.34 54.68 55.75 62.30 63.05 60.01 59.77 58.47 60.65 61.39 62.09 65.68 65.82 65.58 63.64 63.95 64.45 65.59 68.34 68.33 67.69 66.72 67.16 67.38
56.50 56.76 56.86 56.86 56.48 56.53 56.27 55.99 56.04 56.60 60.15 60.29 60.81 58.51 55.75 55.08 59.02 62.01 62.62 62.34 60.13 58.35 54.01 60.48 64.61 62.35 60.57 57.65 60.55 58.47 53.60 56.00 60.45 64.91 64.80 66.12 62.14 62.70 66.82 67.78 66.23 66.69 66.90 67.19 67.51
56.27 56.33 56.62 56.18 56.12 56.22 55.90 55.23 55.52 56.76 60.30 59.62 60.30 57.31 54.10 61.65 55.16 57.48 57.29 60.55 62.59 59.58 55.78 59.81 62.18 60.90 58.29 59.27 57.73 53.80 50.29 47.10 55.18 60.65 65.27 64.57 58.34 64.35 66.84 66.90 65.17 66.24 66.92 67.10 67.28
56.19 56.21 56.25 56.16 55.90 55.39 54.59 54.86 55.98 57.28 60.75 60.31 57.02 54.63 54.42 59.79 53.42 55.53 55.82 58.69 61.21 60.09 56.79 57.85 56.71 56.95 57.22 50.45 47.76 49.97 44.07 47.38 51.04 57.19 60.79 61.72 58.40 64.41 65.22 65.33 64.76 65.33 65.96 66.77 67.21
55.67 55.71 55.57 55.37 54.90 54.33 53.82 54.93 57.20 56.67 60.03 60.73 59.28 52.29 57.01 52.37 52.89 54.11 54.89 59.26 58.71 58.13 56.25 54.45 53.61 52.34 51.23 45.42 40.74 44.59 44.37 46.37 47.89 54.50 57.22 61.00 59.85 61.13 62.27 64.39 64.46 65.55 65.58 65.91 66.79
55.61 55.23 54.92 54.61 54.10 53.43 51.69 51.06 51.37 49.79 52.17 53.21 52.28 55.42 52.38 52.64 54.72 53.41 54.57 57.02 58.71 54.64 49.18 53.23 47.04 46.14 48.80 50.03 50.15 49.89 48.86 47.87 50.06 54.05 53.54 59.55 58.88 59.10 60.52 63.09 64.96 64.54 64.74 65.24 66.35
55.15 54.64 54.35 54.14 53.53 52.95 50.87 48.60 49.75 49.65 45.00 52.37 53.99 53.34 51.15 50.92 49.94 54.62 56.56 51.05 54.32 50.77 53.20 50.37 46.40 51.67 54.07 53.13 51.29 49.49 47.80 47.64 50.65 52.20 56.18 59.08 57.96 59.71 59.49 62.46 64.01 62.54 64.87 65.24 66.45
54.66 54.27 53.94 53.42 52.69 52.53 50.42 51.90 54.37 52.51 43.78 48.65 50.71 49.46 48.33 47.69 48.45 52.28 54.55 54.27 52.26 51.11 50.46 45.80 50.48 54.83 53.45 51.61 48.72 47.78 45.85 46.92 47.42 50.38 56.24 57.14 54.90 56.88 61.09 62.65 63.70 65.15 64.73 66.17 66.37
54.41 54.23 53.59 52.50 50.53 53.34 53.11 53.65 54.33 53.61 39.06 45.49 45.46 47.34 48.78 48.10 45.42 53.74 53.66 51.78 51.48 48.88 50.36 48.96 52.25 50.95 50.86 49.78 49.34 41.58 49.38 50.21 48.84 45.42 40.27 53.17 47.59 54.09 56.50 59.13 62.44 63.88 62.65 62.71 66.10
54.31 53.79 52.67 51.44 49.03 50.64 53.41 54.32 52.47 49.69 31.92 46.39 45.77 50.37 47.09 44.38 47.34 48.25 52.94 50.26 47.81 48.86 47.98 46.87 49.75 49.99 48.88 49.34 49.81 46.48 50.76 48.85 48.63 44.61 41.16 45.07 40.50 52.18 57.19 56.01 59.40 61.56 62.32 63.10 64.63
53.92 53.16 52.29 53.62 51.60 54.12 57.09 54.61 51.75 38.06 34.63 43.40 46.81 45.12 43.63 45.07 46.47 49.64 49.79 49.85 49.90 46.15 46.33 46.58 50.85 49.16 49.35 52.31 51.50 51.66 48.36 46.97 45.33 42.32 37.36 41.85 41.00 49.26 53.83 56.81 57.27 61.05 62.08 63.75 64.80
52.46 51.33 50.15 53.28 52.08 56.46 55.37 51.25 38.16 34.05 46.09 42.51 42.46 43.67 43.41 43.45 45.02 44.78 45.39 43.39 39.97 35.09 36.70 43.97 44.01 46.81 49.95 47.68 49.63 48.06 42.21 35.05 33.79 35.33 36.01 42.36 40.28 41.93 58.29 60.45 58.86 59.81 62.23 64.23 65.16
50.94 49.78 52.41 53.47 56.06 56.47 52.75 44.75 36.67 43.85 43.02 46.02 44.74 43.23 41.43 44.58 43.38 45.31 43.00 40.73 44.62 43.15 38.36 36.78 37.32 43.31 47.86 46.97 45.30 44.86 41.85 36.28 31.07 33.17 36.98 43.59 38.18 43.62 57.42 62.65 62.01 62.38 63.04 65.08 65.18
50.22 54.01 52.52 55.49 56.00 56.09 47.69 39.94 39.32 43.01 45.92 44.95 45.20 40.29 40.43 43.23 42.08 42.98 41.32 41.19 44.25 44.69 37.23 36.55 38.55 46.99 48.07 48.27 48.85 45.45 41.63 44.45 39.08 42.06 37.83 41.04 44.52 48.79 51.13 59.84 60.73 60.24 61.85 64.48 65.44
49.53 52.34 54.29 57.09 56.73 52.61 45.08 43.17 43.64 46.97 46.77 46.31 40.54 43.63 40.16 42.56 40.44 40.50 40.78 44.90 45.21 46.77 44.78 40.36 34.16 43.02 46.37 47.30 48.04 46.00 46.56 38.51 39.05 32.35 31.62 38.92 41.17 42.78 48.56 52.62 59.46 59.78 62.88 61.19 63.35
51.79 51.14 55.20 56.13 55.92 49.68 43.11 43.96 46.11 48.50 48.39 44.60 42.76 41.97 42.17 41.89 42.74 41.49 41.82 44.52 46.47 45.67 44.80 40.85 36.62 38.55 43.27 40.52 40.91 42.55 40.79 40.43 39.87 38.37 34.21 34.38 39.24 48.27 49.85 51.62 54.69 61.22 61.67 60.43 62.49
52.74 47.46 55.50 56.81 47.65 48.97 42.93 45.02 45.29 46.63 48.75 46.64 46.22 44.27 42.48 42.81 41.01 41.37 41.79 43.32 47.40 45.65 40.85 42.17 35.88 32.54 37.70 44.31 46.18 43.92 40.37 38.94 35.67 36.33 39.46 39.07 41.08 52.39 51.31 52.63 57.20 61.50 63.69 62.59 64.60
49.61 51.73 56.57 55.30 42.95 43.93 46.57 46.31 45.91 44.93 44.78 44.66 44.37 45.02 44.68 41.07 37.41 42.02 43.10 47.47 47.49 45.36 40.12 41.26 35.19 29.82 34.03 37.93 41.92 40.49 42.74 41.27 39.79 38.32 37.24 34.71 40.19 52.64 54.10 54.78 57.57 58.58 61.15 62.92 63.41
50.89 46.01 50.62 51.36 49.74 45.63 44.31 44.30 43.12 47.56 45.23 46.14 44.96 45.26 42.58 40.23 41.33 39.38 41.60 45.57 47.00 46.45 49.42 44.81 34.54 31.81 28.54 34.12 38.68 37.72 40.71 41.77 39.17 32.96 34.77 37.14 41.25 46.82 51.39 52.84 54.58 55.99 61.32 61.99 63.54
52.32 46.89 48.46 41.99 44.51 44.94 44.98 43.92 41.81 40.47 45.24 45.57 44.38 42.98 40.80 36.58 38.69 38.90 41.82 42.85 45.69 48.91 44.40 39.32 31.15 34.52 36.63 39.25 39.79 39.28 39.65 40.71 38.62 39.27 33.98 38.76 40.61 44.66 51.72 52.46 54.87 58.28 61.02 61.68 62.91
48.67 48.08 48.61 45.92 47.03 44.55 43.67 42.04 41.01 41.46 42.69 41.02 40.60 42.27 42.08 36.62 39.20 36.83 39.37 38.79 38.45 42.77 40.92 40.77 33.63 36.28 35.39 39.70 39.25 37.52 40.00 41.20 41.32 41.52 41.25 41.23 41.30 46.83 50.27 54.08 54.34 55.87 58.33 59.54 61.76
54.73 55.21 50.79 45.74 44.93 42.20 41.46 42.49 42.15 43.78 44.74 45.10 43.24 41.20 40.60 41.49 43.65 43.29 42.96 42.34 41.28 38.64 37.97 37.64 34.57 33.12 29.85 36.68 36.18 32.39 37.82 39.47 40.58 42.62 41.87 37.91 42.16 46.43 46.91 48.64 55.03 58.45 58.13 59.39 60.40

GFSSW_sfc_wetblb_072.txt.gz
Wetbulb
57.27 57.12 57.50 57.72 57.98 57.97 58.16 58.62 58.88 58.94 59.07 59.10 59.24 59.24 59.21 59.80 58.92 55.87 50.64 55.25 56.63 68.55 68.23 64.91 64.04 61.58 62.22 65.91 68.09 68.33 58.49 57.63 59.09 57.10 59.24 63.99 63.30 67.29 68.68 66.06 66.88 68.03 66.38 67.11 69.21
56.94 57.44 57.53 57.71 57.82 57.95 57.89 58.25 58.40 58.61 58.53 58.52 58.59 58.74 58.84 59.39 54.51 51.54 59.56 65.32 67.24 69.50 54.16 55.05 54.55 58.86 56.58 62.85 65.08 62.48 56.53 59.71 63.39 62.66 61.95 63.71 63.81 65.33 65.14 64.66 65.18 65.89 67.85 68.56 69.03
57.10 57.40 57.40 57.30 57.57 57.71 57.97 57.91 58.03 57.92 58.08 58.52 58.38 58.36 59.09 57.93 52.48 55.82 65.28 67.33 71.05 67.71 55.42 54.14 57.82 58.37 55.25 58.34 61.91 61.97 58.03 62.54 63.91 65.13 66.31 64.78 65.20 66.86 64.80 62.82 64.77 64.04 65.74 67.54 67.76
56.99 57.15 57.05 57.24 57.47 57.51 57.66 57.62 57.44 57.45 57.54 58.79 58.45 58.15 59.25 54.95 48.61 58.66 70.33 68.33 70.55 59.49 54.45 54.96 56.11 54.33 54.16 55.13 60.58 56.29 61.68 63.02 63.91 66.56 66.31 64.79 65.60 63.69 65.57 65.76 67.61 67.36 67.63 67.22 66.94
56.82 56.72 56.88 56.92 57.05 57.28 57.33 57.13 56.77 56.89 57.22 59.36 57.90 58.59 53.87 49.80 51.29 62.46 70.98 69.96 64.52 57.12 52.83 52.26 54.72 56.41 52.69 56.65 59.33 57.57 59.82 62.34 63.94 66.91 66.63 66.24 62.11 63.54 64.29 67.48 68.76 68.39 67.68 66.66 66.85
56.31 56.67 56.56 56.56 56.69 56.85 56.85 56.50 56.15 56.46 57.13 60.29 58.79 59.31 49.13 46.67 60.16 64.48 64.46 62.74 58.87 55.52 53.30 52.58 54.62 60.88 58.08 56.98 56.86 59.86 59.59 59.14 60.56 66.05 66.41 64.02 63.06 63.18 65.23 68.20 67.18 67.21 66.47 66.71 66.92
56.10 56.38 56.85 56.50 56.51 56.46 56.02 55.70 55.72 56.25 57.08 60.45 60.63 58.14 52.82 51.36 61.03 63.53 61.74 59.38 58.36 55.82 51.76 54.10 55.23 56.05 59.32 56.10 60.18 58.80 53.26 53.94 63.59 64.99 63.43 64.61 61.10 62.20 65.85 68.20 65.99 66.19 66.21 66.56 66.85
55.88 55.91 55.91 55.89 55.95 55.66 55.43 54.87 55.21 56.33 57.19 60.33 60.84 56.02 50.17 62.47 61.07 62.42 61.09 60.27 59.27 57.12 54.51 55.49 58.59 57.21 57.28 58.76 55.04 51.14 48.67 44.42 55.71 63.94 64.47 63.03 57.68 63.74 66.84 66.69 64.87 65.26 66.04 66.34 65.97
56.07 55.85 55.53 55.55 55.43 55.34 54.50 54.42 55.76 57.44 57.97 60.34 53.88 52.09 51.40 63.25 51.60 53.34 55.92 54.28 59.04 56.89 54.72 57.27 53.18 49.39 52.34 50.17 45.20 46.66 42.84 46.06 48.73 62.78 63.05 61.36 59.23 62.65 66.13 65.85 64.61 65.05 65.19 65.72 65.47
55.63 55.40 55.12 55.06 54.83 54.24 53.79 54.03 55.07 57.13 58.63 59.95 58.41 49.60 53.89 54.48 51.65 53.10 52.62 58.60 58.36 57.17 55.08 52.62 48.94 45.92 47.03 45.04 38.10 42.16 42.88 43.58 45.05 50.60 61.17 59.08 59.70 62.67 65.63 65.30 64.59 64.97 65.26 64.96 65.57
55.34 55.08 54.77 54.69 54.20 53.56 51.27 47.11 45.63 46.58 50.66 49.05 50.80 52.73 53.53 51.22 53.80 51.17 52.58 55.04 56.56 53.05 46.18 49.74 44.74 41.83 46.96 48.62 48.49 47.26 44.86 45.08 49.14 52.02 49.96 59.06 59.60 61.49 63.19 63.29 64.38 64.26 64.52 64.65 65.55
54.96 54.65 54.48 54.28 53.56 52.93 49.73 44.69 47.00 47.91 42.41 50.50 53.17 53.46 55.66 51.44 47.64 51.06 52.72 49.36 52.01 46.73 48.57 47.41 43.11 49.02 51.91 51.71 49.70 47.90 45.15 44.60 48.16 51.43 56.91 58.36 58.35 60.28 62.03 63.10 64.30 64.68 64.73 65.07 65.52
54.71 54.56 54.13 53.61 52.83 50.69 47.09 48.39 52.03 49.75 40.81 46.03 48.41 48.31 48.98 46.30 46.35 50.55 51.80 49.81 50.52 49.13 49.06 45.39 49.19 53.17 51.53 49.96 48.65 45.99 43.33 45.48 45.30 54.27 58.02 56.97 54.76 56.08 59.21 63.40 64.80 65.86 65.93 66.14 65.51
54.67 54.48 53.54 52.04 48.55 47.37 48.53 50.83 50.34 48.92 35.38 42.00 43.58 45.46 46.79 46.80 43.54 53.92 54.48 50.58 49.80 48.54 50.02 46.51 51.01 49.86 49.35 48.73 48.12 40.11 47.67 48.12 47.34 43.06 38.78 52.62 47.50 54.36 56.82 59.51 62.86 64.10 63.51 64.57 65.79
54.42 53.95 52.69 51.32 44.14 47.14 51.63 53.43 50.11 46.38 30.27 45.57 42.48 48.41 44.62 42.84 45.37 47.17 51.16 48.91 45.68 46.29 44.01 43.86 47.82 47.94 47.19 47.42 49.51 46.84 50.06 46.86 46.47 41.63 38.93 41.74 39.14 45.18 56.20 55.69 59.85 62.88 63.15 64.78 65.46
53.97 53.01 52.09 49.09 46.43 49.69 52.08 51.08 47.25 35.77 32.93 41.63 44.82 43.06 41.60 42.07 43.88 47.62 48.20 48.46 48.31 44.40 43.22 43.45 47.67 47.57 47.82 50.47 50.08 50.85 46.56 43.74 41.30 39.25 34.21 38.33 39.10 42.21 51.38 55.58 58.09 62.93 64.19 64.79 64.68
52.45 51.32 50.14 50.82 47.20 50.45 51.40 46.31 35.55 30.42 43.64 40.39 39.46 40.97 39.98 40.40 42.07 43.39 43.99 40.53 37.93 33.67 34.70 41.73 43.53 44.00 46.52 43.25 47.32 45.59 39.12 33.07 33.22 32.93 32.43 38.26 38.22 40.78 54.62 58.25 58.90 61.05 63.64 64.85 64.38
50.99 50.05 49.72 51.08 48.42 49.15 47.17 41.24 32.62 41.19 39.58 44.15 43.38 40.24 38.56 41.32 40.63 42.93 40.84 37.80 42.78 38.88 35.01 34.45 35.21 42.30 45.97 41.77 41.44 42.49 39.46 34.26 29.41 30.30 33.45 40.49 35.44 42.37 52.38 60.02 60.91 61.29 63.56 64.89 64.19
49.96 47.90 47.43 49.94 51.41 49.05 43.16 35.59 34.00 38.79 43.36 42.25 42.26 38.39 38.91 41.46 41.11 41.22 40.24 39.13 42.47 41.01 34.83 33.12 35.86 45.19 46.54 45.58 43.69 42.61 39.26 41.61 35.85 33.25 33.96 36.89 41.62 47.18 48.71 55.50 60.00 59.43 61.54 63.24 64.73
45.60 46.17 47.88 53.69 51.39 47.00 40.66 36.72 38.98 45.01 45.09 43.28 36.72 40.10 35.95 39.03 39.01 37.67 38.87 42.74 42.58 44.20 40.36 36.94 32.62 39.31 45.24 45.02 44.54 40.28 42.93 37.17 34.87 29.82 29.08 35.32 36.95 39.81 45.47 51.26 56.53 58.86 59.76 62.05 64.95
47.79 45.93 51.02 50.91 50.72 44.18 35.13 36.90 42.94 46.29 46.25 41.96 39.31 37.73 37.94 37.27 38.51 37.23 38.07 42.55 44.69 43.42 42.25 36.20 33.84 36.11 40.83 37.27 36.57 38.11 36.52 36.02 35.35 35.18 31.37 30.49 35.76 45.03 48.28 52.74 54.79 58.18 60.88 61.45 64.45
45.04 40.69 52.64 51.08 41.62 38.74 35.99 39.36 45.04 43.20 45.12 43.02 42.82 40.59 38.32 39.05 37.56 37.31 38.26 40.81 45.97 43.37 38.32 38.05 32.34 30.07 33.44 41.24 43.45 40.19 36.55 33.51 30.18 30.72 33.79 35.06 36.95 49.07 51.48 53.41 57.54 59.39 60.12 62.13 64.54
43.42 44.45 50.50 48.95 36.00 35.99 39.51 42.92 44.11 42.25 42.29 41.98 41.19 41.60 40.89 36.83 34.52 39.07 40.46 45.53 46.47 43.12 37.44 38.61 30.67 26.74 31.40 34.54 38.44 37.07 38.63 35.23 33.89 30.87 30.89 31.66 34.98 47.76 52.28 55.28 58.02 59.15 60.65 62.07 62.94
44.24 39.04 42.64 43.03 40.32 38.17 37.40 39.13 39.59 45.66 43.68 43.61 41.55 41.39 38.47 36.43 36.94 36.28 38.65 43.82 47.01 45.75 50.28 42.66 30.60 29.14 25.56 29.53 34.50 34.10 37.56 38.41 33.03 27.80 29.51 31.29 36.59 40.78 45.53 50.13 53.94 58.41 60.46 61.23 62.24
43.72 39.13 40.89 36.35 38.58 38.93 39.05 39.10 39.16 37.93 42.32 42.05 40.33 40.59 36.58 32.54 34.07 34.64 37.53 38.79 42.90 46.83 42.23 36.46 28.68 31.17 32.04 37.24 38.17 37.41 37.39 38.22 34.44 34.20 30.26 35.17 35.68 39.69 43.36 46.08 53.15 57.07 59.76 60.81 62.73
42.73 42.16 42.41 37.81 40.07 39.07 38.09 36.08 38.29 38.92 38.64 37.65 37.55 40.47 38.34 33.69 33.88 32.62 34.82 33.99 33.66 38.14 37.88 36.85 30.96 33.04 32.26 37.83 36.94 34.99 37.71 38.89 38.60 38.53 37.68 38.28 36.85 48.32 50.06 54.47 55.97 56.45 58.80 59.70 61.18
47.87 47.52 42.63 40.22 37.50 35.82 35.58 38.18 39.93 40.46 42.20 43.27 41.63 38.33 37.41 38.68 40.02 38.79 38.10 37.44 37.01 33.21 33.32 33.07 31.70 29.74 23.97 34.50 34.14 29.22 34.46 36.92 38.11 39.42 40.46 38.83 41.56 47.07 47.50 50.57 50.58 53.00 56.63 58.20 60.16

GFSSW_sfc_wetblb_078.txt.gz
Wetbulb
57.20 57.62 57.65 57.58 57.89 58.06 58.06 58.32 58.36 58.30 58.19 58.21 57.85 57.55 57.65 58.15 58.41 55.82 49.02 52.95 55.31 65.22 70.41 67.52 64.26 61.22 65.69 64.19 66.52 67.34 57.74 56.78 57.99 58.31 59.59 63.74 63.87 66.75 67.62 65.07 65.87 66.70 64.57 66.62 69.16
57.38 57.61 57.60 57.69 57.73 57.91 57.91 57.97 58.03 57.88 57.73 57.85 57.42 56.91 57.04 57.57 53.75 50.42 57.29 61.39 63.69 70.17 66.00 60.81 57.42 57.65 56.64 59.99 63.52 62.54 57.54 58.10 61.77 62.22 61.50 63.76 62.70 64.22 62.68 63.77 62.62 64.49 66.77 68.13 68.88
57.22 57.33 57.23 57.41 57.46 57.56 57.58 57.58 57.59 57.44 57.17 57.49 57.89 57.96 57.57 56.98 49.69 53.63 63.50 63.69 66.22 67.22 62.27 58.17 57.77 56.80 54.17 57.94 61.14 62.69 58.45 62.44 63.16 64.14 64.99 63.54 62.04 65.25 63.60 62.15 63.09 62.88 64.74 66.84 67.45
56.81 56.85 56.46 56.82 57.13 57.28 57.32 57.32 57.11 56.85 56.67 57.40 58.30 57.63 58.20 53.11 43.47 58.38 66.64 66.46 69.06 59.23 53.33 54.58 54.88 53.06 53.23 53.07 57.89 58.05 61.09 62.68 62.86 65.31 64.07 62.83 64.68 63.28 64.65 64.88 67.04 66.21 66.52 66.77 66.41
56.44 55.93 56.02 56.31 56.58 56.75 56.77 56.72 56.58 56.31 56.52 57.04 58.83 57.88 51.89 44.98 47.03 63.25 66.44 67.34 63.90 56.10 50.96 51.42 52.37 52.32 52.05 54.21 56.08 57.04 59.46 59.78 62.03 62.65 64.35 63.82 62.51 62.53 64.20 67.27 66.68 67.06 66.58 65.93 66.08
55.36 55.14 55.42 55.89 56.00 56.05 56.31 56.28 56.02 56.02 56.30 56.99 59.50 58.64 46.16 38.20 55.43 64.36 64.30 62.88 57.19 51.87 49.96 53.27 53.48 55.93 53.92 53.97 54.33 57.85 58.38 57.83 57.82 60.48 63.49 61.14 61.18 63.09 62.89 67.90 65.31 65.50 64.97 65.71 65.78
54.76 55.30 55.52 55.52 55.67 55.85 55.77 55.42 55.56 55.79 56.20 56.96 60.06 57.16 50.11 44.65 61.21 61.76 61.82 58.31 55.37 52.26 48.75 50.10 55.49 53.69 55.45 54.58 57.50 56.05 52.98 55.44 62.87 63.14 62.39 62.94 59.03 60.84 64.97 67.59 64.62 64.27 64.52 65.24 66.02
54.94 55.27 55.31 55.52 55.52 55.34 54.99 54.88 55.09 55.98 56.39 57.31 60.17 53.35 48.18 57.92 60.34 60.43 56.93 54.83 54.66 50.80 51.45 51.42 53.97 52.53 52.59 56.11 52.14 47.94 46.89 43.68 61.06 62.11 62.87 60.63 54.60 63.73 66.30 66.80 64.63 64.30 64.64 64.46 65.13
55.07 55.24 55.28 55.32 55.13 54.33 53.59 53.90 56.27 57.10 57.46 59.36 52.03 48.40 49.37 61.53 56.56 58.18 57.25 54.14 53.31 52.60 52.07 55.79 50.97 48.39 48.10 46.16 44.16 44.74 41.80 43.55 48.36 61.91 61.14 59.37 55.77 62.54 65.78 65.92 64.26 63.82 64.22 64.43 64.20
55.51 55.45 55.28 55.30 54.85 53.46 52.91 53.46 58.87 58.27 58.13 58.73 57.25 46.36 50.61 51.23 50.55 56.60 57.46 56.23 53.69 52.53 51.25 49.07 45.67 42.99 44.07 43.42 40.25 41.26 41.59 41.22 43.46 58.91 59.63 57.45 56.85 61.52 65.21 63.86 63.95 64.09 64.08 64.19 64.48
55.49 55.30 55.14 54.63 53.81 52.64 50.50 45.94 42.45 42.54 50.24 43.55 43.40 46.45 51.05 53.63 51.71 49.67 56.42 55.93 53.94 50.40 43.88 45.49 41.69 39.16 42.94 46.23 47.51 46.04 43.85 42.93 45.92 48.78 46.73 53.20 55.98 60.66 63.65 63.23 63.51 63.64 63.52 63.55 64.52
55.36 55.18 53.90 54.16 53.80 53.02 48.88 44.00 45.44 45.01 40.39 49.11 51.41 50.90 52.66 51.93 47.38 47.81 56.53 51.19 50.71 45.57 45.60 43.21 39.57 45.86 48.48 48.43 47.66 46.04 43.90 42.75 47.70 52.17 50.78 54.82 55.03 59.75 61.58 61.83 63.65 63.75 63.58 63.89 64.32
55.24 54.55 53.55 53.66 52.84 48.82 44.25 45.30 48.51 45.46 38.46 43.65 47.17 47.29 46.66 49.67 45.84 45.70 50.58 50.86 49.02 44.98 44.13 41.51 46.29 50.01 48.70 47.07 45.91 42.95 42.02 42.62 45.60 47.64 56.85 54.78 54.35 58.43 61.54 62.51 63.35 64.70 65.08 64.44 64.41
55.04 53.96 53.53 51.86 46.99 45.31 46.42 48.13 48.41 45.70 33.90 39.42 41.06 46.02 45.30 44.16 41.28 50.55 51.48 50.52 48.63 46.00 45.65 44.56 49.30 49.99 47.33 46.39 45.99 37.10 46.80 47.45 45.65 40.55 36.76 51.33 41.58 52.41 57.51 59.47 61.47 62.58 64.32 63.90 64.23
54.04 53.51 52.93 51.09 44.27 45.79 49.29 47.14 45.90 44.19 27.38 43.21 41.21 45.54 41.87 40.78 44.39 45.46 48.91 48.12 45.27 46.18 46.75 45.17 45.76 45.99 44.37 45.37 47.59 44.89 47.61 46.20 44.75 39.44 36.75 40.78 40.91 46.05 54.49 54.15 57.47 61.19 63.46 65.30 65.45
53.61 53.34 52.03 47.52 43.66 46.85 48.02 45.33 44.72 34.31 29.60 39.94 42.27 39.95 39.79 40.49 41.58 45.17 45.92 46.50 45.91 42.06 41.52 42.82 44.37 45.59 46.91 48.29 48.87 48.64 43.22 39.88 37.61 35.95 32.52 35.81 38.22 38.15 50.15 54.24 56.10 59.79 62.37 65.35 65.94
52.56 51.62 49.25 48.69 44.72 45.89 45.95 44.35 34.31 29.26 41.22 39.41 38.52 39.05 37.27 38.10 40.06 41.71 41.08 39.27 36.50 34.50 32.91 39.26 40.39 42.38 43.74 39.67 43.61 42.36 37.31 30.66 30.33 30.69 31.73 34.71 36.59 38.89 44.51 49.94 54.78 56.80 61.68 64.97 66.67
51.23 49.64 49.67 50.02 46.45 46.40 44.64 39.30 29.95 37.76 36.26 40.68 40.36 39.54 37.90 39.15 40.26 40.32 37.98 36.03 40.00 36.11 32.99 33.02 32.98 39.83 43.50 39.08 37.78 38.46 37.45 32.26 27.60 27.86 32.15 36.32 34.34 41.04 50.42 54.53 57.73 58.82 60.35 64.45 66.20
50.10 46.47 46.67 48.57 49.73 45.34 41.57 31.77 31.10 35.37 40.01 39.17 38.40 36.76 38.01 40.30 38.56 39.23 35.94 35.77 38.26 36.70 32.23 32.43 33.25 42.05 43.44 42.27 39.99 38.59 34.70 36.82 31.92 29.54 32.17 34.05 40.08 45.09 48.43 51.68 56.77 58.14 59.09 61.60 65.35
46.79 45.66 46.29 48.14 47.57 43.84 38.17 34.23 35.92 42.08 42.74 40.09 33.73 35.59 33.09 37.44 37.85 36.10 37.15 40.54 39.45 41.10 36.74 33.34 31.23 36.63 41.66 42.27 41.77 38.37 38.45 34.54 33.30 28.91 27.80 32.56 35.40 36.17 40.27 42.82 49.60 56.26 57.90 59.36 61.46
45.47 43.03 47.95 47.28 45.57 41.44 33.40 34.08 39.64 43.21 43.62 39.46 36.36 35.52 33.84 33.04 36.70 36.29 36.08 41.57 44.01 41.81 39.71 33.14 32.20 33.56 37.30 34.48 32.74 34.78 32.69 32.03 32.15 30.68 29.41 28.70 32.75 41.18 40.38 44.97 45.91 55.33 58.20 60.29 60.79
43.11 39.39 48.76 46.44 39.03 32.92 32.83 36.13 41.96 40.47 42.43 41.14 40.39 37.24 35.01 34.78 33.48 34.74 36.01 38.09 44.77 42.56 38.28 37.66 31.92 27.75 29.88 37.40 38.90 35.57 32.08 29.90 30.17 29.24 28.15 30.58 31.75 41.58 46.82 50.65 53.69 56.38 59.18 60.93 62.37
41.92 39.86 46.19 44.50 34.03 32.12 35.79 39.53 40.96 39.40 38.90 39.15 38.32 38.99 37.79 33.21 32.25 35.89 37.95 42.97 43.31 43.67 38.48 38.40 31.01 25.64 28.15 32.36 35.51 34.22 34.91 29.71 28.94 28.06 27.17 29.94 32.14 43.02 49.00 50.86 51.69 53.71 58.76 59.75 61.92
40.09 36.67 40.49 39.83 34.92 35.19 33.33 34.98 37.26 42.99 39.80 40.18 38.68 38.35 36.26 34.04 34.81 33.86 36.13 41.32 42.20 43.96 47.69 40.74 31.53 28.94 25.63 27.90 31.73 32.33 35.08 34.84 29.52 27.83 27.52 29.45 33.10 40.61 45.55 48.23 49.75 51.51 56.26 59.37 60.18
40.05 36.08 36.57 33.56 35.94 34.87 34.76 35.84 36.57 35.61 39.70 39.16 37.54 37.36 33.82 30.60 32.03 32.50 35.39 37.04 40.52 42.65 39.13 33.54 29.26 30.59 31.27 34.89 34.69 34.07 33.93 35.50 31.60 30.90 29.44 31.89 34.69 41.71 44.61 47.56 48.76 50.20 52.18 54.40 58.12
42.16 38.96 37.08 34.47 34.99 35.15 35.33 33.51 35.89 36.02 36.19 35.69 35.30 37.56 36.01 32.15 31.88 30.78 32.95 32.85 31.79 37.12 33.64 33.26 29.86 29.53 28.81 34.37 33.88 32.50 34.82 35.86 35.54 35.65 34.91 35.77 37.01 44.35 46.84 49.32 48.61 48.86 50.05 51.66 54.82
45.23 43.52 40.47 37.22 34.44 33.03 33.24 35.08 37.35 37.58 39.63 40.52 38.36 35.74 35.19 36.04 37.85 36.66 36.26 34.44 32.24 31.89 31.74 30.53 29.11 26.81 22.65 30.54 30.36 26.82 31.56 33.66 35.51 38.10 35.86 31.97 38.30 44.15 43.81 46.58 46.78 47.83 49.19 49.99 52.60

GFSSW_sfc_wetblb_081.txt.gz
Wetbulb
57.56 57.70 57.79 57.66 57.84 58.11 58.11 58.22 58.28 58.22 57.98 58.04 58.12 57.02 56.65 56.45 57.36 55.86 50.80 56.45 57.83 66.43 69.96 67.51 65.72 68.81 68.43 67.26 67.01 68.33 61.25 58.40 58.76 58.71 60.10 64.20 63.78 66.12 66.99 65.08 65.90 66.72 66.21 67.39 69.09
57.45 57.45 57.32 57.26 57.51 57.77 57.79 57.85 57.93 57.82 57.52 57.54 57.52 57.19 56.78 56.27 54.60 51.56 58.07 61.00 63.58 69.71 65.07 62.61 59.80 65.84 64.83 65.22 65.55 64.08 58.57 59.79 63.24 63.00 62.43 63.19 63.92 64.95 63.23 64.00 63.84 64.69 67.68 68.29 68.97
57.08 56.93 56.73 56.88 57.14 57.38 57.44 57.54 57.47 57.26 57.13 57.06 57.42 58.05 57.36 57.57 51.53 53.85 63.12 63.65 65.00 70.39 65.43 61.94 61.86 63.33 61.77 63.78 64.43 64.06 60.62 63.36 63.73 65.07 65.81 63.14 62.53 65.82 63.62 62.55 63.98 63.47 64.76 66.87 67.81
56.51 55.88 55.65 56.22 56.96 56.94 57.03 57.00 57.04 56.94 56.67 56.77 56.77 57.94 58.07 55.60 47.28 57.28 65.89 65.41 70.52 66.22 61.56 59.26 59.23 56.88 59.70 59.77 62.70 60.52 63.12 63.96 64.70 66.43 65.29 63.61 64.53 63.99 63.91 65.25 66.89 66.92 67.03 67.31 66.96
55.40 55.34 55.74 56.10 56.39 56.53 56.72 56.65 56.50 56.37 56.27 56.49 56.90 58.01 55.78 50.30 49.82 64.83 66.24 68.23 65.11 59.75 58.36 56.84 56.44 57.80 57.58 60.42 59.85 60.59 62.32 62.31 63.70 66.08 66.14 66.04 63.97 63.40 64.27 66.34 67.63 67.46 67.74 66.60 67.31
54.76 55.33 55.66 55.52 55.75 56.16 56.43 56.18 56.01 55.95 55.97 56.40 57.49 58.45 51.81 45.10 60.16 64.62 63.68 65.42 60.41 56.89 56.43 58.02 57.68 59.99 59.72 58.65 59.53 60.33 61.12 60.77 61.12 60.88 65.34 63.09 63.06 63.90 65.55 66.31 66.11 66.53 66.92 67.61 67.85
54.71 55.37 55.45 55.17 55.39 55.66 55.56 54.99 55.32 55.48 56.04 56.56 58.47 57.84 52.70 48.47 63.85 63.92 63.84 62.04 59.11 55.61 54.53 57.10 61.01 59.47 60.55 58.39 60.83 58.78 56.04 61.96 63.93 63.80 63.18 64.18 59.99 60.81 66.48 65.44 65.27 65.77 66.79 67.61 68.42
55.04 55.39 55.06 55.18 55.15 55.01 54.44 53.92 54.84 56.02 56.21 56.75 59.44 57.52 51.90 60.44 64.40 63.14 60.81 58.10 57.12 56.56 55.66 55.90 59.69 59.27 58.28 59.37 55.51 53.64 53.51 51.70 63.19 64.49 63.88 63.26 57.53 63.75 66.70 64.38 64.43 65.01 66.17 66.74 67.69
55.40 55.59 55.02 54.72 54.80 54.24 53.32 53.88 58.05 57.81 57.59 59.41 57.33 54.96 52.64 62.39 59.43 60.46 59.25 56.24 56.49 55.95 56.16 56.15 56.15 56.13 54.04 54.35 52.77 52.19 51.91 50.26 58.22 64.17 63.28 61.94 58.76 65.13 67.10 64.86 63.97 64.50 65.48 66.14 67.28
55.80 55.71 54.65 54.77 54.35 53.35 52.97 53.51 57.85 59.61 59.30 59.74 58.23 51.78 54.37 54.23 58.17 58.88 59.64 57.69 54.53 54.11 53.10 52.01 51.80 52.46 53.39 53.18 49.14 50.38 49.48 49.62 54.09 61.94 62.31 60.64 60.03 64.01 66.21 65.85 64.30 64.91 65.11 65.71 66.39
55.81 55.33 54.30 53.99 53.78 53.09 52.31 53.98 49.66 50.65 55.05 48.78 49.49 48.76 51.74 55.78 58.60 57.62 58.49 57.72 55.39 53.24 47.94 50.11 49.11 47.49 52.38 53.75 52.43 51.61 50.48 49.81 50.80 55.45 55.85 55.99 57.73 61.78 65.47 63.66 64.15 64.11 65.05 65.67 66.43
55.59 54.27 54.01 53.70 52.87 52.49 51.65 50.82 50.59 49.86 46.34 50.79 52.66 52.13 54.29 55.34 49.34 55.57 59.73 54.90 52.52 47.87 50.22 47.41 46.19 51.12 54.00 52.54 52.00 52.01 50.57 49.83 51.31 58.00 54.10 58.69 58.46 62.01 64.01 64.29 64.18 64.90 64.68 66.43 67.18
54.89 54.32 53.55 53.02 52.58 51.35 49.83 51.27 53.02 51.72 46.42 47.06 50.60 50.29 50.98 54.16 49.22 51.25 57.13 55.86 52.81 49.30 48.06 45.65 49.20 52.82 52.12 51.24 51.16 51.24 51.19 49.85 49.49 50.86 60.38 58.76 57.09 59.28 62.92 65.10 66.01 66.97 66.73 66.76 67.25
54.38 54.09 53.18 51.83 49.46 50.70 51.27 53.33 52.10 51.70 43.04 43.80 46.41 49.63 50.62 50.90 46.65 52.86 57.05 56.42 53.17 50.53 49.57 48.66 53.11 51.94 50.57 50.50 52.29 50.14 52.29 51.77 50.13 49.26 46.25 57.73 48.12 57.01 59.54 61.52 63.70 65.64 66.50 67.06 67.57
54.15 53.51 52.08 50.64 51.08 51.17 53.03 51.95 50.87 49.58 33.73 45.29 46.38 50.49 47.69 46.44 49.96 49.79 53.16 53.07 51.67 50.88 50.89 48.77 51.02 52.00 51.04 51.65 52.84 50.44 52.18 51.60 50.51 49.09 46.93 50.19 50.95 48.91 59.26 57.86 61.46 63.59 65.62 66.07 67.58
53.69 52.53 51.53 49.84 49.56 52.15 52.27 51.25 50.39 41.50 32.86 42.82 45.35 44.20 44.80 45.89 46.76 48.98 49.49 50.99 50.77 50.00 50.21 47.78 50.23 52.01 52.77 53.21 53.41 52.39 49.02 47.73 47.36 47.31 43.48 47.23 49.48 48.94 52.05 54.12 57.61 61.40 64.66 66.61 67.24
52.50 51.43 50.23 50.61 51.31 51.85 51.77 51.42 42.09 36.03 44.94 41.96 42.64 43.69 43.76 42.92 45.02 46.34 45.47 45.09 44.61 44.45 46.18 44.83 44.97 46.82 47.58 49.31 51.38 50.86 48.42 42.28 41.66 41.56 42.44 44.84 47.67 49.43 53.97 56.71 59.37 60.48 62.05 64.55 68.20
51.14 49.81 51.52 52.90 53.87 52.36 51.64 47.26 36.67 39.82 40.80 44.96 43.73 44.64 42.23 43.98 44.05 44.68 43.80 42.87 45.36 43.65 43.09 42.82 39.76 44.50 47.10 45.28 47.29 49.27 48.91 43.64 38.27 39.24 42.47 44.79 44.66 47.28 50.51 54.36 57.47 62.02 63.31 64.86 66.61
50.33 53.46 53.44 53.17 52.71 51.65 50.32 39.56 37.12 39.67 42.65 42.44 43.53 41.99 41.50 43.46 44.25 43.93 42.56 42.03 43.65 44.40 43.35 41.40 39.98 45.25 45.97 46.36 45.85 45.50 44.97 46.61 42.97 42.00 43.44 44.16 47.29 50.83 52.76 55.28 58.00 60.73 62.58 63.37 64.35
53.92 53.13 52.78 52.18 52.54 51.58 46.24 38.33 41.46 44.17 44.00 43.32 39.41 41.21 39.84 40.43 42.02 42.46 41.42 44.03 43.64 45.12 44.74 42.56 39.59 42.99 44.34 46.01 46.55 46.08 45.76 43.83 45.08 38.96 38.82 41.66 42.54 43.78 49.57 53.35 57.03 57.56 59.24 62.66 65.47
51.92 51.33 53.55 52.29 52.45 48.17 40.60 40.68 43.08 45.44 45.23 42.38 40.15 39.86 39.55 39.79 41.25 39.85 39.41 43.39 44.94 45.30 45.76 43.50 43.01 41.28 43.83 41.17 39.40 44.04 43.84 43.05 45.11 42.38 41.43 39.58 41.13 48.96 52.08 54.46 53.58 56.02 59.60 61.64 65.78
51.00 46.98 53.27 53.05 46.61 43.19 41.76 42.34 42.58 43.88 45.34 44.21 43.63 41.62 39.91 40.20 40.14 40.43 39.08 41.28 45.31 45.48 42.42 43.29 42.08 38.02 38.59 42.74 43.25 42.29 40.67 41.22 43.82 40.32 41.43 44.34 40.28 52.54 54.33 54.92 54.47 55.83 59.37 60.99 63.86
48.75 47.90 53.54 51.90 42.42 41.81 43.38 42.83 43.71 43.00 42.56 42.72 41.35 42.51 42.14 39.63 39.06 41.05 41.34 44.48 45.60 45.35 42.99 44.24 39.96 36.64 37.57 41.47 43.32 40.95 41.72 40.92 40.38 42.95 41.04 41.78 39.69 52.28 54.86 55.49 54.92 55.67 58.03 59.46 60.10
48.46 44.33 47.90 47.00 43.40 43.13 40.96 40.65 40.77 44.23 42.52 43.48 42.03 42.97 41.57 40.19 42.12 39.50 40.57 43.33 44.51 46.83 47.49 44.95 39.77 39.14 38.09 38.25 40.69 38.83 39.59 41.11 41.07 41.61 39.94 41.17 40.94 47.09 51.75 53.18 54.35 55.90 57.85 58.38 58.50
47.42 42.89 43.17 40.99 42.50 42.32 42.57 41.43 39.55 39.26 43.25 43.92 41.63 40.67 39.56 38.48 38.99 38.70 40.81 42.51 44.75 45.03 44.26 43.82 38.08 39.72 39.78 39.99 39.86 39.04 38.70 39.48 39.45 40.03 40.23 40.86 42.56 46.99 50.37 51.80 52.92 55.34 56.84 56.98 57.31
48.97 46.33 44.38 42.41 41.61 43.02 41.14 40.58 39.99 40.51 41.60 39.74 39.85 40.44 41.49 38.86 39.10 38.46 40.18 40.99 39.71 43.90 41.63 42.23 37.77 39.28 36.18 38.65 38.58 37.19 39.14 39.31 39.51 39.89 40.08 40.93 42.50 49.16 51.62 52.90 52.47 52.78 54.09 54.49 55.69
50.51 48.20 48.84 41.17 42.22 42.56 41.37 41.33 41.02 42.47 43.41 43.69 42.06 41.35 40.26 41.15 43.19 43.66 43.80 43.07 42.62 41.02 40.06 39.76 39.27 37.53 33.49 36.85 36.65 34.56 38.14 38.75 39.76 42.14 41.66 38.88 44.56 48.54 48.21 49.03 49.80 51.27 51.68 52.02 53.58

GFSSW_sfc_wetblb_084.txt.gz
Wetbulb
57.58 57.77 57.68 57.59 57.75 58.07 58.26 58.46 58.52 58.54 58.26 58.15 58.15 58.11 57.30 56.34 56.59 58.56 53.34 58.91 59.84 66.99 70.91 69.05 68.11 70.16 70.73 68.85 69.48 69.68 64.17 59.08 60.30 60.81 62.35 66.15 63.74 65.85 67.53 66.83 66.85 68.58 68.28 68.45 69.74
57.56 57.47 56.88 56.87 57.34 57.68 57.90 58.02 58.00 58.04 57.87 57.66 57.59 57.86 57.39 56.19 57.49 54.80 63.13 62.39 63.89 69.18 68.48 63.95 63.21 68.46 67.41 67.72 68.50 65.89 65.17 61.15 64.77 65.67 64.42 65.34 64.07 63.77 64.59 65.11 65.14 67.37 69.11 69.18 69.55
56.81 56.54 56.13 56.36 56.85 57.24 57.38 57.50 57.57 57.65 57.31 57.28 57.32 58.01 57.83 58.70 55.15 55.62 66.49 64.03 67.28 70.06 66.57 63.50 64.27 66.70 63.77 67.30 65.07 66.09 61.47 64.71 65.58 66.57 67.23 65.39 64.22 65.03 63.24 64.00 66.42 65.63 66.93 67.97 68.75
55.61 55.75 56.20 56.61 56.76 56.84 57.04 57.16 57.15 57.06 57.02 56.97 57.17 58.01 58.45 59.45 49.11 61.19 65.81 65.96 67.85 68.36 64.81 62.17 62.28 62.36 61.29 62.98 66.98 63.48 65.68 65.48 66.34 66.92 65.95 64.73 65.89 64.00 65.27 66.65 68.81 68.12 68.42 68.31 68.27
55.33 55.57 55.62 55.96 55.90 56.35 56.77 56.52 56.50 56.40 56.65 56.75 57.39 58.50 58.42 54.77 52.75 66.21 66.10 67.02 65.65 65.86 62.23 60.42 58.68 58.77 58.61 62.63 62.84 64.51 64.56 64.37 64.33 66.57 66.37 67.40 65.18 65.18 65.20 67.92 68.78 68.22 68.28 68.06 68.63
55.18 55.35 55.46 55.73 55.76 56.03 55.99 55.85 55.43 55.83 56.29 56.92 57.45 58.96 56.69 49.62 63.60 65.17 63.14 65.17 63.92 62.73 60.25 59.91 57.71 59.73 58.95 61.49 62.41 64.03 64.03 62.51 63.20 62.38 66.44 65.48 65.39 65.50 65.64 67.93 66.78 67.43 67.70 68.31 68.54
55.21 55.28 55.36 55.56 55.87 55.88 55.58 55.00 54.71 55.18 55.98 56.92 58.15 59.42 56.12 53.93 65.30 63.19 65.93 63.41 61.97 60.68 58.23 60.06 60.37 59.52 60.81 59.20 63.17 62.81 60.14 63.25 63.48 64.38 64.79 66.75 62.65 63.82 66.54 66.80 65.01 66.77 67.71 68.21 69.01
55.34 55.71 55.55 55.61 55.58 55.27 54.46 54.16 55.55 56.41 56.39 57.14 59.40 60.23 54.69 63.53 65.39 63.40 64.17 61.70 60.46 61.21 60.10 60.58 62.26 61.07 61.02 63.20 61.67 59.90 59.97 57.34 64.07 66.15 65.67 65.77 59.52 66.09 66.54 65.43 64.90 66.09 67.44 68.12 69.03
55.92 55.59 55.70 55.25 55.19 54.29 53.73 54.15 58.52 58.36 57.66 59.21 59.97 58.84 54.62 63.20 59.97 61.12 62.22 58.92 58.70 58.92 59.51 59.20 61.12 59.25 59.72 57.60 56.97 58.76 55.52 55.31 61.41 66.21 65.07 64.66 61.89 64.58 66.40 65.39 65.44 66.58 67.43 68.03 68.91
56.23 56.01 55.61 54.92 54.23 53.56 53.76 53.78 57.87 59.71 60.38 61.17 60.41 55.69 57.91 56.89 60.60 60.38 60.90 59.11 56.54 56.31 55.19 55.12 56.47 54.79 56.18 55.58 51.47 55.23 56.51 56.25 58.97 63.47 64.51 62.20 63.00 65.34 66.17 66.62 65.89 66.43 67.42 67.95 67.49
56.15 55.78 54.64 53.98 53.78 53.19 54.45 58.49 55.87 55.83 56.26 51.89 51.85 52.56 56.73 59.66 61.71 59.12 61.24 57.44 56.65 54.83 50.89 52.92 51.38 49.44 53.21 55.84 58.09 58.08 57.00 55.88 60.64 63.65 60.26 59.21 61.68 65.24 66.60 66.15 65.44 65.63 66.79 67.44 66.70
56.02 55.44 54.53 53.68 53.11 52.41 57.36 54.80 53.85 54.40 50.44 54.66 53.89 53.81 56.00 57.96 54.13 57.40 61.17 55.75 53.27 50.17 53.04 49.69 48.91 52.65 56.22 57.48 56.65 56.89 55.43 53.75 56.67 57.94 56.84 57.81 57.88 64.99 65.53 65.11 66.93 66.80 66.07 66.96 67.13
55.52 54.65 53.85 53.02 52.80 54.99 56.64 54.81 57.30 56.44 50.89 50.51 52.97 53.04 54.25 56.01 54.04 55.46 59.22 57.37 53.08 50.89 50.69 48.71 50.83 54.50 55.15 56.45 54.73 56.38 55.64 54.00 54.32 55.68 59.19 59.65 58.12 60.79 64.46 64.42 65.89 65.89 68.43 67.85 67.02
54.97 54.01 53.06 52.14 51.55 58.61 55.72 57.42 57.50 56.99 46.87 46.64 48.81 52.82 53.65 54.78 52.39 58.81 59.72 58.02 54.85 50.93 50.98 50.23 54.21 53.04 53.82 54.36 55.68 53.08 57.43 55.13 53.36 52.66 52.97 59.76 53.51 59.59 61.30 61.97 64.31 65.81 66.21 68.59 68.79
54.85 53.43 52.12 50.25 57.31 55.85 56.47 57.89 57.38 54.73 38.46 47.07 49.70 54.70 54.33 51.00 51.82 53.86 59.47 57.72 53.91 53.05 52.10 49.91 51.76 53.12 53.05 54.08 56.26 53.57 57.22 56.10 54.43 53.12 51.48 53.70 53.61 57.83 60.52 59.45 62.91 64.88 66.33 67.55 69.06
53.85 52.79 52.05 54.98 57.28 57.08 58.00 58.35 54.76 45.28 36.07 44.79 47.74 48.07 48.21 50.21 51.53 53.47 54.23 55.62 57.15 54.40 54.02 53.08 55.39 56.76 56.04 56.99 56.75 56.34 54.64 54.53 54.61 53.33 47.93 52.29 53.35 53.29 57.04 58.53 61.18 63.45 65.86 67.91 69.98
52.72 51.70 53.32 56.32 56.57 58.52 59.01 55.73 45.77 40.99 47.13 43.72 44.77 47.42 47.58 47.63 49.17 51.01 50.35 50.53 50.42 48.46 48.66 50.25 51.93 52.50 53.63 55.52 56.91 54.77 51.98 46.78 46.58 46.32 46.48 52.95 52.04 54.19 56.80 57.42 60.70 62.72 64.70 66.42 70.15
51.25 50.21 55.52 57.71 58.94 58.61 57.36 50.92 40.76 42.66 44.27 47.52 45.88 46.19 45.35 48.12 48.60 49.43 49.04 48.41 49.58 49.50 49.74 45.58 42.93 49.07 50.07 52.24 52.83 52.69 51.99 47.40 42.84 44.24 46.87 51.35 49.60 50.39 57.21 60.90 63.87 65.25 66.49 67.18 68.60
50.27 59.70 59.75 58.10 58.59 58.15 53.65 46.04 42.88 43.08 45.37 45.32 45.93 43.70 44.83 46.66 47.99 48.68 48.21 46.72 47.61 49.23 47.74 47.49 43.70 48.29 48.55 50.26 50.80 52.01 50.12 52.88 48.55 50.87 47.87 49.45 51.34 54.66 58.16 59.94 61.77 62.71 64.09 66.61 67.67
60.71 59.06 56.75 58.41 58.42 56.31 51.91 42.39 45.47 46.92 46.79 46.96 42.98 45.52 42.87 45.04 45.54 46.03 45.92 47.74 47.07 48.88 50.25 48.60 43.76 47.04 47.33 49.50 50.45 51.92 54.35 47.90 48.53 44.16 43.50 46.61 49.23 49.71 54.52 56.71 59.31 59.41 60.81 63.98 68.69
58.43 54.70 57.19 58.50 57.45 55.12 47.40 45.46 46.42 47.96 47.76 45.93 44.67 44.44 45.47 43.60 45.88 44.39 43.93 46.95 48.15 48.23 50.37 49.35 48.25 45.55 47.90 46.96 47.29 48.86 49.22 50.21 50.72 48.84 45.45 44.52 47.13 54.52 55.89 56.14 56.63 58.57 59.94 61.72 63.72
56.42 51.69 57.70 58.20 53.14 52.57 47.25 46.95 44.44 47.33 49.23 47.45 47.35 46.67 45.85 46.16 45.15 44.15 42.91 45.34 48.90 49.51 46.53 48.49 48.47 44.75 45.24 46.86 47.94 48.06 48.98 50.29 47.22 46.67 48.91 48.72 45.52 56.43 58.30 57.69 58.90 59.25 58.81 59.81 61.78
54.70 53.18 58.00 57.48 47.97 46.81 47.95 46.44 47.58 47.10 47.07 46.34 45.42 47.07 47.77 45.94 43.94 45.79 45.48 46.99 48.89 48.58 47.95 48.78 47.28 42.31 42.63 45.54 47.30 47.04 47.64 48.63 49.56 50.75 48.40 45.82 44.77 57.05 59.05 58.83 59.85 59.12 59.94 58.13 58.72
54.37 49.06 52.13 53.59 52.89 48.62 46.47 45.23 44.23 47.61 47.16 47.80 46.44 47.74 46.84 46.14 48.45 45.38 45.14 46.40 48.47 48.24 47.92 49.32 47.40 45.18 43.67 44.47 47.30 44.32 44.60 46.53 48.10 47.36 48.52 48.59 48.19 53.37 55.90 56.87 59.39 58.94 60.40 59.17 57.89
53.36 47.99 48.97 46.75 47.31 47.68 47.60 45.58 43.73 43.08 46.72 48.38 45.69 45.57 45.38 44.28 45.36 44.52 46.07 46.86 48.25 47.82 48.36 48.65 43.64 45.91 45.12 44.79 44.72 43.86 43.00 43.92 46.13 47.19 46.91 47.97 49.17 52.43 54.84 55.90 57.51 59.64 59.72 60.16 60.25
52.93 51.27 51.11 48.62 47.67 47.33 44.91 44.95 43.71 44.20 45.31 43.69 43.91 45.00 46.42 44.51 45.10 43.72 46.14 47.69 45.80 48.45 48.01 48.03 43.78 45.55 42.64 42.92 43.25 42.10 43.06 42.85 43.77 44.91 47.00 49.18 48.72 54.58 55.97 57.11 56.25 57.01 57.63 57.55 58.53
57.65 55.33 53.45 44.84 47.66 47.30 45.27 44.61 43.62 45.52 45.89 46.29 45.46 45.13 44.49 45.02 47.68 48.23 49.07 48.01 48.20 47.44 44.82 46.02 45.30 43.00 40.27 41.98 41.27 39.37 43.55 43.42 44.09 45.27 46.68 45.76 50.37 53.58 53.11 53.38 54.17 55.26 56.08 55.97 56.98

GFSSW_sfc_wetblb_087.txt.gz
Wetbulb
57.99 57.82 57.60 57.09 57.45 58.03 58.27 58.50 58.52 58.76 58.69 58.50 58.43 58.12 58.37 58.35 57.02 58.22 53.95 62.59 63.57 70.30 71.88 69.89 70.38 69.09 71.14 69.48 70.90 70.90 63.41 59.37 60.72 61.87 63.51 67.69 64.22 66.61 68.60 67.13 68.20 70.07 67.91 68.89 70.90
57.41 57.09 56.93 56.77 57.41 57.58 57.80 57.96 58.22 58.39 58.28 58.03 58.11 58.27 58.80 57.97 57.82 56.73 65.45 67.89 67.37 72.86 70.14 67.25 64.73 67.52 67.19 67.82 69.67 67.55 63.89 60.86 65.15 66.41 65.78 67.15 64.43 65.06 65.48 66.61 66.79 67.99 68.52 69.76 70.76
56.53 56.29 56.45 56.90 57.28 57.28 57.56 57.58 57.81 57.83 57.90 57.81 57.64 58.00 58.91 58.86 58.18 56.67 68.32 68.16 66.73 72.49 69.10 65.52 65.57 66.72 65.01 67.95 68.48 66.70 62.05 64.46 66.36 68.07 68.26 67.03 64.93 65.81 64.90 64.14 67.24 65.74 66.84 68.47 69.79
56.19 56.34 56.33 56.52 56.87 56.79 57.09 57.34 57.23 57.19 57.16 57.36 57.73 57.84 59.23 59.74 52.60 65.40 67.49 68.20 68.63 70.19 67.89 63.03 62.47 62.76 63.41 62.93 67.72 63.88 66.14 65.81 66.02 67.60 66.63 65.40 66.70 64.02 65.00 66.57 69.95 69.02 68.41 68.57 68.91
55.80 55.81 55.87 56.20 56.25 56.33 56.47 56.56 56.49 56.20 56.77 57.25 57.67 58.14 59.43 56.55 56.92 68.26 66.30 66.85 63.91 67.50 63.38 61.01 59.74 62.75 61.12 63.12 66.50 64.11 65.47 65.42 66.27 67.77 66.89 67.95 65.69 64.78 65.95 68.80 70.60 69.73 68.46 68.03 68.80
55.59 56.06 55.92 56.17 56.11 56.37 56.39 56.32 55.95 55.71 56.10 57.03 57.75 58.73 57.99 52.78 63.52 65.95 63.08 60.92 61.47 65.27 62.65 61.73 60.37 63.05 60.45 61.91 64.83 66.62 66.26 64.72 64.46 65.74 67.99 65.11 65.79 66.63 66.11 69.43 68.25 68.78 67.57 68.31 68.44
55.78 56.06 56.00 56.08 56.28 56.35 55.88 55.39 55.44 55.64 55.81 56.99 58.25 60.27 58.69 55.85 64.83 63.99 62.35 59.69 63.61 64.65 61.33 62.27 61.10 59.04 61.35 60.57 67.15 65.30 62.71 63.43 63.94 65.47 66.79 67.65 62.90 64.14 66.74 68.44 66.32 66.84 67.78 68.17 68.51
55.83 56.01 55.97 55.95 55.89 55.72 55.04 54.62 55.87 57.42 57.11 57.27 58.89 60.74 58.31 63.66 65.20 63.47 64.46 62.06 64.14 64.18 61.83 61.78 61.30 59.90 60.51 63.37 63.40 62.93 62.95 58.38 63.72 66.83 67.02 65.59 60.16 65.18 66.38 66.13 65.10 66.18 67.40 67.42 68.24
56.46 56.51 56.07 56.32 55.77 54.85 54.35 54.43 57.33 59.43 58.40 58.12 60.14 60.55 56.32 64.35 61.04 63.95 63.77 60.02 60.97 61.50 61.49 61.04 60.51 58.71 60.56 58.55 58.07 61.20 57.68 58.01 61.64 66.15 66.15 64.50 61.92 65.51 68.00 65.76 64.63 65.37 66.48 67.23 68.04
56.34 56.54 56.46 55.97 55.07 54.31 54.05 54.20 56.75 58.96 60.19 61.70 61.60 56.89 60.21 57.19 60.77 62.15 63.05 60.88 58.45 58.52 57.38 56.57 57.38 56.52 57.12 57.89 52.47 55.78 56.61 59.87 59.16 64.20 64.67 61.28 63.78 65.57 67.07 65.53 64.61 65.46 65.78 66.38 66.86
56.54 56.19 55.83 55.01 54.00 53.50 54.46 59.74 58.72 57.78 57.35 55.36 53.98 55.46 57.20 60.76 61.99 60.11 60.48 58.88 58.35 56.53 52.32 54.27 52.27 51.12 54.07 56.26 58.68 58.66 57.75 56.97 59.45 64.41 62.05 60.77 63.06 65.19 64.57 65.97 65.71 66.05 66.45 66.31 66.87
56.38 55.06 55.18 54.47 53.87 53.63 56.37 57.45 55.75 56.79 52.98 56.06 54.32 56.29 59.22 61.42 55.43 58.89 61.72 55.22 54.29 51.65 54.30 51.72 49.56 54.15 55.23 55.83 57.05 58.47 57.29 56.59 60.03 63.51 61.54 61.71 61.17 65.49 66.37 66.37 66.75 66.56 65.97 66.25 67.58
55.73 55.21 54.51 53.93 53.48 55.38 59.18 56.69 59.37 58.53 52.68 53.52 53.65 54.74 56.43 59.63 55.35 56.40 58.60 56.63 53.19 51.65 52.70 50.59 52.15 54.71 53.75 54.59 55.87 57.99 57.45 57.38 57.08 58.92 59.51 59.16 59.28 63.44 64.76 67.30 67.63 67.47 67.93 67.40 66.89
55.23 54.88 53.64 52.89 50.70 59.73 56.91 58.73 59.46 58.73 49.20 49.03 49.98 53.94 56.60 56.39 53.09 58.83 60.19 58.15 53.72 51.19 52.74 52.45 54.46 53.50 52.80 54.99 56.92 54.71 58.92 57.59 57.23 56.70 53.98 60.52 53.05 60.56 63.52 63.93 66.07 66.01 66.84 67.68 67.95
54.81 54.36 53.20 51.16 58.83 56.30 58.50 59.41 59.33 57.77 40.22 49.21 50.24 58.03 55.98 53.50 55.37 55.62 60.51 58.42 53.71 52.50 53.19 50.96 52.35 52.10 52.34 54.86 56.86 54.68 59.46 57.53 56.35 55.64 55.77 57.11 54.28 55.08 64.24 62.47 64.44 66.70 67.46 67.95 67.99
54.44 53.59 52.83 56.84 59.08 59.01 59.60 60.30 57.66 46.11 39.15 46.51 51.15 50.41 51.03 52.48 53.87 56.31 56.69 59.56 59.06 55.01 53.81 53.21 55.16 55.24 54.92 56.82 56.97 58.20 57.65 57.81 56.89 55.23 50.32 54.05 55.40 53.01 59.08 61.84 63.55 65.88 66.46 69.17 69.41
53.29 52.30 53.42 59.83 58.12 61.59 60.89 57.59 47.10 42.51 50.02 45.98 46.83 49.33 50.02 49.33 51.03 53.02 52.85 52.04 52.23 49.94 49.55 52.73 52.54 56.35 57.90 55.15 57.19 56.93 54.74 49.63 48.17 48.54 48.08 54.10 54.46 53.68 60.03 62.25 63.81 64.04 66.60 68.44 70.06
51.66 50.73 57.75 60.44 61.50 60.91 59.47 52.59 41.40 46.61 46.56 49.52 47.31 47.97 46.69 49.72 50.71 51.79 51.03 49.63 54.02 54.05 50.34 48.10 46.76 53.92 57.46 56.60 54.43 54.76 54.22 49.61 44.28 45.99 48.30 53.95 51.98 54.17 60.92 64.30 65.47 65.98 67.66 67.97 69.18
50.51 59.91 61.13 62.23 61.09 60.59 55.12 45.34 43.57 46.89 46.80 47.28 46.36 44.84 45.70 48.68 49.91 50.59 50.18 49.77 51.66 52.71 48.01 48.40 47.89 52.75 53.63 56.69 55.05 54.45 51.49 54.68 50.63 52.25 49.17 52.02 54.05 58.77 61.75 62.28 62.99 62.04 65.34 68.87 68.52
60.51 60.20 60.84 60.67 60.93 58.45 52.23 44.11 47.98 49.22 48.09 49.74 43.55 45.29 44.61 46.91 47.50 48.81 49.32 50.63 50.06 51.84 53.85 51.69 46.77 50.71 51.11 53.06 54.61 53.36 56.39 50.48 50.87 45.99 45.23 49.98 51.33 52.77 57.45 59.31 59.44 60.03 62.53 66.45 69.64
59.44 55.89 59.91 61.22 60.45 55.57 47.60 48.78 49.15 49.67 50.32 48.56 46.49 44.60 46.03 46.12 47.43 47.34 47.62 49.33 50.57 51.49 53.29 52.75 50.64 48.54 50.48 49.90 50.92 52.10 51.67 53.33 52.89 51.13 47.54 46.40 49.93 59.10 58.62 59.67 58.51 58.87 59.99 61.90 66.27
57.94 52.61 58.97 60.22 53.45 54.48 50.16 50.18 46.60 49.31 50.95 49.59 50.31 48.97 46.17 46.47 46.92 46.67 46.65 49.12 51.27 51.77 49.41 52.85 50.63 46.93 47.88 51.40 52.16 52.59 52.55 53.27 48.86 48.60 50.42 49.05 49.59 60.52 60.22 61.58 60.26 58.58 58.78 61.84 63.75
55.28 54.58 59.66 58.98 49.00 49.03 49.72 48.36 49.76 48.86 49.63 49.22 48.11 49.88 50.80 47.20 44.25 47.35 47.49 49.22 50.98 51.28 50.71 51.41 48.84 45.59 45.68 48.56 50.95 49.75 52.04 52.73 53.05 52.74 50.35 47.57 49.57 60.05 60.61 61.37 61.87 58.71 59.49 59.74 62.06
55.18 50.89 53.66 55.56 54.56 50.35 48.20 47.33 46.71 49.67 49.29 50.15 49.02 50.71 49.60 48.70 50.71 47.66 47.85 48.90 50.87 49.11 49.80 52.68 49.74 48.12 44.00 47.12 49.80 48.16 49.08 50.89 51.11 48.74 50.03 50.95 52.23 56.80 58.27 58.94 58.34 59.45 59.43 59.24 59.42
55.07 50.49 53.12 49.40 49.36 50.05 49.56 48.39 45.81 45.59 49.24 50.75 48.34 48.32 48.92 47.07 47.63 47.75 49.21 48.89 50.03 50.10 51.43 50.54 46.40 48.31 48.08 47.38 48.78 49.10 48.43 48.05 49.01 50.83 48.85 51.76 53.53 56.36 57.95 59.17 59.50 58.79 59.71 59.79 59.79
55.00 54.15 53.29 51.62 50.68 49.33 47.19 47.19 45.86 46.36 48.37 46.11 46.67 47.36 49.05 48.62 49.29 47.21 48.81 49.63 49.19 50.95 50.85 50.69 47.63 48.07 45.83 46.28 46.24 45.11 46.36 46.44 48.38 49.34 50.89 52.59 51.94 57.00 59.26 59.80 59.37 59.79 59.36 58.06 58.96
59.31 57.90 54.86 48.68 50.00 48.69 47.32 46.89 45.77 47.48 47.61 48.68 47.89 47.98 47.59 48.31 50.97 52.25 52.80 52.19 52.19 50.91 48.55 49.43 48.30 46.56 42.99 45.99 44.70 42.50 46.44 46.91 47.52 49.54 51.35 50.74 54.51 57.30 56.68 56.82 57.28 57.96 58.24 57.92 58.61

GFSSW_sfc_wetblb_090.txt.gz
Wetbulb
57.79 57.62 57.47 57.45 57.62 58.18 58.39 58.56 58.67 58.94 58.94 59.05 58.86 58.75 58.96 59.26 58.70 57.25 52.28 60.44 62.32 71.82 71.68 63.03 63.29 64.98 68.75 68.17 70.14 70.01 63.21 59.78 61.25 61.58 62.75 66.41 64.08 66.84 68.20 66.38 67.91 69.63 66.61 68.38 70.11
57.32 57.11 57.13 57.12 57.41 57.81 57.89 58.28 58.39 58.58 58.62 58.51 58.64 58.75 58.86 59.29 56.68 54.81 63.95 69.60 71.60 71.57 63.41 63.32 64.03 66.79 65.14 66.64 68.36 66.17 62.87 61.63 65.34 65.97 65.39 65.51 64.78 65.77 65.56 65.64 66.09 65.59 67.93 69.19 69.74
56.79 56.95 56.89 56.93 57.51 57.36 57.47 57.48 57.99 58.04 57.89 58.04 58.40 58.55 58.73 59.69 56.80 56.71 69.29 69.85 70.51 70.96 67.47 68.04 67.89 65.17 64.30 66.28 67.32 65.29 62.15 64.83 65.44 67.47 68.47 65.97 65.06 66.90 65.31 63.94 64.68 63.86 65.99 67.75 68.33
56.59 56.48 56.68 56.69 57.16 57.14 57.06 57.19 57.20 57.32 57.30 57.53 58.19 58.62 58.94 58.89 53.38 62.54 69.98 69.34 69.03 63.01 67.83 66.09 63.53 62.66 62.56 62.82 67.65 63.29 66.78 66.47 66.38 68.14 66.86 65.37 66.60 65.07 65.25 65.57 68.79 67.25 67.48 67.62 67.39
56.28 56.47 56.30 56.49 56.60 56.66 56.83 56.81 56.86 56.61 56.84 57.04 57.91 58.60 58.53 55.74 53.77 66.65 68.99 68.28 58.71 61.28 65.89 63.82 59.84 62.15 60.65 63.45 66.81 63.99 65.49 66.65 67.85 67.27 67.44 67.34 65.08 64.50 65.76 68.15 69.68 67.93 67.71 67.18 67.35
56.47 56.75 56.86 56.62 56.62 56.62 56.66 56.61 56.21 56.37 56.50 56.92 57.72 58.47 56.21 52.03 63.52 66.50 62.53 58.73 57.31 61.17 65.54 63.63 59.66 62.62 62.80 64.09 65.01 63.88 65.13 65.41 66.70 66.79 67.71 65.41 64.42 66.15 66.49 69.25 68.13 67.18 66.82 67.21 67.29
55.94 55.99 56.13 56.28 56.77 56.64 56.47 55.92 55.76 55.84 56.87 57.30 57.77 58.63 57.01 55.46 64.12 64.58 62.02 58.81 59.09 63.05 62.86 62.81 61.69 61.01 61.57 59.96 66.08 65.39 63.39 64.35 64.09 67.05 65.91 66.45 62.22 63.30 67.43 68.21 67.36 66.34 66.70 66.69 67.25
56.06 56.30 56.15 56.30 56.36 56.01 55.52 55.13 55.29 56.93 58.03 57.96 57.94 59.05 55.86 61.74 65.08 62.30 61.67 58.80 59.93 63.78 64.33 63.37 62.69 59.71 59.36 62.19 62.40 63.41 62.78 58.27 62.74 66.68 66.45 65.36 58.63 64.62 67.27 66.52 65.77 65.56 66.23 66.33 66.95
56.43 56.71 55.98 55.98 55.78 55.16 54.77 54.99 56.08 59.82 60.56 58.61 57.50 58.45 54.46 65.34 60.36 62.28 62.89 58.65 60.53 63.66 63.26 62.18 60.17 57.19 57.88 57.03 57.43 60.84 56.24 58.34 60.47 66.36 65.79 64.68 59.81 64.26 66.55 65.68 64.99 65.17 65.52 65.72 66.68
56.91 56.65 56.14 55.88 55.55 55.02 54.65 54.53 57.31 57.71 58.77 59.72 61.17 56.21 57.79 57.86 59.25 62.19 63.62 61.34 59.45 60.20 58.20 57.33 56.18 54.00 54.76 55.66 51.39 54.98 56.97 58.48 58.87 61.30 62.47 62.08 61.96 64.03 65.87 65.19 64.54 64.99 65.03 65.52 66.10
56.62 56.27 55.99 55.73 55.12 54.42 54.36 59.17 57.37 57.75 57.61 54.40 55.13 56.20 58.36 60.46 61.51 60.47 61.75 59.07 58.58 57.36 52.76 55.24 50.79 49.63 52.99 56.46 58.46 58.41 57.84 58.17 58.95 64.25 63.24 61.91 61.35 62.60 64.97 64.43 64.09 64.34 64.92 65.59 66.19
56.05 56.08 55.69 55.40 54.59 53.94 55.24 57.65 55.99 57.34 52.50 56.50 56.49 55.24 58.76 59.92 55.74 57.54 60.59 55.23 54.59 51.42 54.13 51.68 48.14 53.67 55.37 56.11 56.43 57.30 56.14 57.08 58.28 60.22 58.93 61.71 60.64 63.79 64.68 64.00 64.17 64.49 65.02 65.75 65.96
56.02 55.97 55.28 54.42 53.45 54.14 58.32 57.56 59.19 58.43 51.72 55.14 56.01 54.20 57.70 59.19 55.31 55.57 57.35 55.86 53.16 51.59 51.94 50.25 51.17 53.74 53.67 53.29 52.96 54.98 55.41 57.89 57.18 58.85 58.42 58.21 58.04 60.97 63.75 66.12 66.11 66.37 66.66 66.95 66.55
55.53 55.24 54.44 53.43 51.95 59.12 58.04 58.70 58.98 58.34 48.46 51.12 52.45 53.47 56.89 58.39 54.04 58.84 59.64 55.68 53.56 50.52 51.96 51.74 54.07 52.37 52.49 51.58 53.30 51.94 58.39 58.45 57.13 53.68 53.14 61.08 52.77 59.43 62.30 62.69 64.81 65.88 65.90 66.28 67.40
55.63 54.51 53.69 52.64 56.74 55.20 57.70 58.92 58.76 56.72 39.94 50.57 51.15 57.74 56.17 53.81 54.78 55.40 59.38 55.75 53.04 51.23 52.12 50.50 51.93 51.58 51.16 51.82 54.89 54.15 59.46 58.14 57.99 55.47 54.39 55.17 55.21 54.90 53.69 61.01 62.88 65.41 66.48 66.25 66.82
55.36 54.75 53.59 56.51 56.38 59.30 60.46 59.83 57.21 45.86 39.69 47.21 51.13 51.36 51.86 52.90 53.18 55.72 55.58 58.15 57.87 53.25 52.63 52.51 55.21 54.09 53.76 54.75 57.45 58.23 56.47 57.91 57.33 55.23 49.64 53.68 53.32 54.79 53.26 55.63 63.19 65.73 66.67 67.39 68.44
54.13 53.17 53.22 59.72 57.50 61.66 60.18 56.83 46.39 41.50 51.41 47.37 48.14 50.36 50.41 49.56 51.41 53.10 52.20 52.59 51.69 49.06 48.15 51.26 51.89 54.01 55.13 53.16 56.38 55.60 53.63 49.61 47.81 47.60 46.85 55.08 52.95 55.51 56.61 58.22 58.67 65.52 66.82 68.26 69.14
52.32 51.48 55.44 59.11 62.40 61.34 59.18 52.40 41.00 45.31 45.64 51.39 49.12 49.35 47.43 49.97 49.96 52.27 51.01 50.66 53.75 53.24 50.02 46.57 46.76 51.54 55.16 54.07 53.37 53.58 54.25 49.60 44.02 45.13 47.63 53.75 51.46 53.61 57.45 63.14 65.06 66.94 67.16 65.62 65.18
51.16 59.86 59.47 62.29 63.11 60.68 54.86 45.06 41.58 43.81 49.56 48.55 48.12 45.88 46.08 47.57 49.79 50.71 50.55 50.24 52.02 54.42 47.89 47.76 48.38 53.84 56.18 57.53 56.83 53.08 51.30 55.76 51.10 51.65 48.54 51.97 55.11 58.58 62.15 61.85 63.29 64.26 66.36 67.18 66.49
57.40 59.41 60.51 60.71 61.38 59.18 51.44 42.86 48.34 50.66 49.58 49.19 44.74 45.75 43.03 46.45 47.18 49.42 49.11 52.33 51.01 53.87 54.60 52.00 46.62 53.49 54.43 55.09 56.17 54.39 55.99 50.06 51.67 45.29 44.35 49.76 51.59 53.35 58.34 58.67 60.43 61.36 61.83 64.53 66.75
57.46 56.10 60.28 62.11 59.68 55.83 45.00 45.71 49.12 50.51 50.81 49.24 46.81 45.13 46.30 45.90 47.97 45.20 47.99 50.93 52.08 52.21 53.71 52.67 50.69 49.21 51.75 51.00 50.78 52.10 51.18 52.71 52.60 50.70 46.26 46.10 49.42 59.55 59.52 59.72 59.43 60.73 62.31 63.26 63.72
58.50 52.83 59.60 58.71 51.97 52.35 45.73 50.23 47.55 49.25 50.62 49.33 50.37 48.19 46.64 47.81 47.39 47.21 45.75 49.14 51.90 52.22 49.75 53.26 50.52 46.86 47.99 51.52 53.52 53.98 52.87 52.93 48.40 48.90 50.93 49.22 48.71 59.01 60.73 60.73 60.70 60.08 61.34 62.95 62.29
56.18 53.90 58.87 58.01 47.25 47.30 50.15 48.89 50.53 49.62 49.94 48.85 48.03 49.61 50.18 47.06 45.29 46.89 48.92 50.31 51.30 51.37 49.81 51.55 49.24 45.55 46.20 48.96 51.26 50.08 52.07 52.83 52.94 52.96 49.87 45.51 48.80 59.52 61.10 60.25 60.11 59.50 59.89 61.06 61.96
56.61 50.97 53.46 55.75 53.77 50.30 48.84 47.81 47.30 49.56 49.98 50.94 50.50 49.81 48.76 47.18 49.23 47.47 47.77 49.57 51.10 50.54 53.31 54.68 48.68 47.46 42.22 46.48 49.80 47.72 50.05 51.96 51.37 48.13 49.69 49.11 52.47 55.67 57.47 57.78 58.43 59.35 59.25 59.81 60.76
56.38 49.93 53.57 49.07 49.58 50.33 50.42 48.84 46.50 46.54 49.52 51.29 49.30 50.05 48.51 46.06 46.60 47.02 48.97 49.10 50.35 50.29 51.75 50.33 45.58 48.12 49.42 48.79 49.19 49.07 48.83 50.03 49.14 50.65 48.56 51.83 52.72 55.91 56.86 57.46 58.30 59.43 60.45 60.42 60.42
53.95 52.48 53.72 51.90 50.97 49.81 47.36 47.47 46.95 47.26 49.02 46.95 48.32 48.67 49.84 47.00 48.90 46.45 48.42 49.04 47.67 51.13 49.83 50.89 45.68 48.34 46.42 47.65 47.70 47.01 48.45 48.79 49.24 49.73 51.90 52.03 51.49 57.34 58.49 59.83 59.11 59.07 58.99 58.84 59.38
58.40 57.85 55.52 50.41 50.81 48.82 47.28 47.30 46.50 48.20 47.93 49.63 49.03 48.67 48.95 49.85 51.89 52.80 53.31 53.16 53.11 50.74 49.76 49.19 47.16 45.86 43.27 47.36 46.19 42.80 46.65 47.11 48.35 50.74 54.26 50.74 52.34 56.50 57.22 57.40 57.93 58.45 58.72 58.39 58.44

GFSSW_sfc_wetblb_093.txt.gz
Wetbulb
57.16 57.40 57.54 57.63 57.59 57.91 58.32 58.19 58.46 58.68 58.91 58.82 58.76 58.81 59.38 59.65 59.44 56.21 49.01 57.01 58.98 67.27 71.04 61.08 58.94 58.20 61.95 63.51 68.16 69.04 60.45 58.07 60.04 60.14 62.22 65.75 62.72 66.58 68.00 66.64 66.59 66.44 65.59 67.06 69.64
57.24 57.29 57.39 57.24 57.41 57.82 57.82 57.90 57.99 58.44 58.46 58.35 58.52 58.56 59.19 59.57 55.96 53.15 60.75 67.65 69.57 70.59 59.24 57.86 56.14 58.31 57.62 61.68 65.41 64.88 59.79 61.14 65.42 64.62 63.73 64.87 64.07 64.52 65.30 65.70 65.13 64.70 67.38 67.83 69.74
56.99 56.92 56.86 56.60 57.23 57.40 57.55 57.39 57.32 57.43 57.78 57.74 58.04 58.49 59.04 58.45 54.71 54.70 70.41 67.43 70.91 70.18 58.56 60.10 60.24 59.93 58.41 62.02 65.90 64.52 60.27 64.96 66.27 66.53 66.00 64.28 64.14 66.23 64.89 63.12 63.86 62.67 64.68 66.49 68.12
56.53 56.59 56.57 56.57 56.85 56.92 56.94 56.87 56.79 56.90 57.01 57.50 57.72 58.43 59.26 55.92 50.47 60.47 72.82 68.98 71.67 63.07 56.76 58.27 62.98 60.39 57.96 58.33 65.75 57.47 63.57 65.80 67.06 67.56 65.58 63.80 66.55 64.95 65.21 64.75 67.57 66.07 66.08 66.41 67.07
56.49 56.39 56.15 56.26 56.32 56.62 56.64 56.77 56.84 56.34 56.92 57.25 57.45 58.22 56.30 52.06 52.04 64.17 70.69 69.68 61.11 56.94 55.67 60.88 60.83 58.93 56.61 59.76 64.39 61.91 64.80 65.94 67.92 67.27 66.43 66.37 64.17 64.80 64.58 67.25 69.73 66.72 66.42 64.91 66.88
55.94 56.07 56.10 56.08 56.30 56.51 56.58 56.50 56.45 56.14 56.55 57.10 57.41 57.99 53.06 46.47 63.95 64.76 61.18 60.12 54.54 53.97 57.29 62.70 62.25 59.24 58.86 59.89 62.45 63.60 63.05 64.86 66.73 65.79 66.29 63.23 63.81 64.73 64.58 67.08 68.00 65.73 64.56 64.41 64.94
56.03 56.16 56.14 56.12 56.17 56.39 56.29 55.76 55.65 56.07 56.32 57.65 57.55 57.18 52.89 52.14 64.57 63.21 59.63 54.05 51.76 54.42 59.57 64.27 64.69 57.33 57.44 57.65 64.88 62.68 59.78 62.89 65.45 65.58 63.85 65.02 61.58 62.04 66.33 67.52 64.36 64.63 64.76 64.51 65.05
56.23 56.67 56.76 56.04 56.20 55.84 55.25 55.14 55.42 56.24 57.08 57.89 57.77 55.06 50.35 58.57 59.75 60.90 59.10 56.15 54.48 56.31 61.07 63.91 61.93 56.90 55.03 58.12 62.77 60.99 61.18 56.19 64.19 64.80 65.00 63.62 57.54 64.02 66.12 66.55 63.49 64.32 64.74 64.74 65.48
55.85 55.80 55.95 55.83 56.05 55.98 55.35 55.29 55.70 57.44 60.19 59.63 54.31 52.92 52.41 63.99 57.77 59.62 58.79 55.31 54.06 56.93 58.80 63.16 59.49 53.06 53.83 50.03 48.39 57.29 52.76 56.07 60.31 65.04 63.49 62.69 59.16 64.10 66.10 65.08 63.75 63.62 63.53 63.82 64.73
56.12 55.63 55.78 56.33 55.96 55.41 54.92 54.76 56.29 57.02 58.41 57.88 56.79 51.20 55.56 56.30 58.43 59.01 59.95 57.31 54.51 56.00 57.36 57.50 51.44 47.59 48.31 45.71 42.84 48.98 52.96 56.13 56.22 60.38 59.98 59.67 59.60 63.03 64.60 64.53 63.82 62.98 62.92 62.82 64.07
55.89 55.40 56.22 55.85 55.73 54.47 52.93 54.78 52.05 52.56 55.25 49.33 51.46 55.30 55.24 59.62 58.87 57.38 60.46 58.05 56.82 55.56 49.30 51.60 45.43 42.92 46.69 49.75 51.68 54.05 55.07 55.38 56.55 59.78 58.13 59.24 59.41 61.32 63.49 63.43 62.11 62.37 61.88 62.30 63.22
55.77 55.17 55.91 55.67 54.88 54.15 51.77 52.46 55.67 52.45 47.60 54.93 53.99 54.88 57.05 56.58 53.99 57.27 59.43 52.75 52.29 48.29 50.95 47.41 44.12 49.63 51.64 51.86 51.72 53.10 52.67 54.86 57.25 59.63 58.69 59.73 58.77 61.67 62.90 62.30 62.70 61.97 61.51 62.97 63.56
55.55 55.13 54.86 54.92 54.33 50.83 52.96 55.24 59.52 54.09 45.95 50.72 54.96 53.91 53.76 55.70 53.85 53.61 55.43 53.58 50.18 48.56 48.76 45.74 48.43 52.75 50.12 50.25 49.94 50.57 48.60 55.25 54.95 57.61 59.30 57.16 55.48 59.18 62.57 63.56 64.68 64.57 64.22 63.53 63.36
55.64 55.73 54.55 53.58 51.62 55.06 53.80 58.24 59.00 54.63 41.11 47.81 50.81 53.75 54.30 55.96 52.25 57.34 56.69 53.62 50.94 47.72 49.00 47.80 51.89 50.66 48.76 48.43 49.41 43.55 53.05 56.97 56.19 54.14 48.92 57.15 47.15 52.93 59.17 60.27 62.44 63.01 63.45 64.04 64.46
56.01 55.71 54.74 53.21 50.21 51.49 55.68 54.99 54.35 51.81 34.19 50.89 50.92 55.88 52.32 51.13 53.08 53.13 57.14 53.68 48.92 48.68 47.71 46.28 48.82 48.66 47.76 48.86 50.56 47.92 58.42 58.25 57.13 53.34 53.37 53.64 50.17 54.21 57.99 58.19 60.11 61.88 64.14 64.40 65.61
55.41 54.86 53.95 52.72 52.15 53.66 57.60 58.53 53.48 40.31 37.19 47.01 49.98 48.92 48.27 50.56 51.91 53.92 54.48 55.22 53.48 50.63 48.87 48.94 52.60 50.99 49.58 51.80 51.60 53.08 54.00 54.53 53.03 50.19 44.20 52.04 52.26 51.62 54.70 58.30 61.12 63.96 64.70 65.35 65.63
54.01 53.19 52.16 56.36 53.52 59.02 59.04 53.80 40.83 37.08 49.59 46.50 46.35 47.60 47.87 47.74 49.03 49.86 50.02 47.67 45.56 41.48 43.07 47.25 48.29 50.88 52.17 48.36 50.60 50.94 47.40 41.17 42.50 41.48 41.83 49.36 51.44 50.95 57.52 58.47 60.58 60.75 61.45 66.27 65.81
52.48 51.73 52.44 56.08 57.65 58.79 56.79 48.32 39.30 43.88 44.20 49.27 48.44 48.94 45.54 47.77 47.81 50.03 47.92 45.14 49.64 49.11 44.36 41.05 40.48 48.80 51.85 47.89 46.73 47.50 45.92 40.92 40.69 39.22 42.78 49.75 46.81 50.58 58.25 60.34 62.82 65.01 65.20 65.10 65.27
51.40 55.56 55.88 58.21 58.63 57.65 51.43 42.13 42.51 44.64 48.23 47.27 47.50 43.52 43.19 47.58 46.42 48.60 47.16 46.26 49.56 50.48 44.50 42.32 43.55 51.47 51.98 52.29 50.71 48.99 45.37 48.88 44.98 45.51 41.43 47.17 49.76 54.46 57.35 57.16 61.17 63.01 62.78 63.51 65.56
51.62 54.27 54.57 60.98 61.07 56.17 47.79 41.62 44.78 49.74 49.58 48.56 42.25 44.52 41.07 44.90 44.61 45.35 45.89 49.74 49.48 52.37 50.05 49.15 40.73 50.25 51.25 53.31 53.73 51.15 50.57 42.71 43.02 39.46 36.94 45.71 46.93 49.31 55.64 58.14 60.75 61.15 61.66 62.58 64.97
54.01 51.36 58.22 60.64 60.00 51.73 43.44 44.64 49.20 50.53 50.30 47.03 45.54 43.45 43.98 44.55 45.49 44.25 45.37 49.89 50.19 50.27 50.33 48.01 44.19 46.63 51.01 46.53 46.33 47.49 44.82 45.93 44.77 43.15 40.80 40.66 45.77 56.82 56.43 57.88 58.58 59.96 60.47 60.92 62.64
53.85 49.42 59.87 56.71 50.36 49.13 44.90 47.81 50.07 48.18 50.31 47.75 49.42 47.28 45.73 46.61 45.23 45.45 45.17 48.37 51.09 49.23 45.96 47.36 44.08 41.74 43.32 48.06 52.68 49.46 46.74 45.78 40.75 39.94 45.43 45.49 45.47 58.44 58.65 58.56 58.97 59.48 59.76 60.95 62.12
51.58 53.09 54.84 54.86 46.52 45.61 48.23 48.98 48.84 48.30 48.14 48.64 47.94 49.12 48.75 45.12 43.89 45.86 47.32 51.57 50.53 48.19 46.52 45.71 44.06 39.26 41.49 42.41 45.57 44.07 47.15 45.26 44.55 45.05 45.00 41.71 45.96 59.22 59.05 57.99 58.59 58.33 59.65 59.60 60.46
53.05 49.26 51.74 52.55 51.97 49.33 47.08 46.63 44.97 48.58 49.03 50.17 49.10 49.24 47.77 45.71 45.87 45.74 46.90 49.90 50.46 48.57 55.59 51.20 44.03 41.92 37.20 39.84 43.06 42.69 46.55 47.37 44.37 41.30 45.40 44.06 50.16 54.40 55.68 55.17 56.50 57.60 59.02 59.24 59.51
54.41 47.44 51.07 45.44 46.56 47.47 47.92 47.72 46.50 45.26 49.33 50.22 49.69 49.66 47.26 43.17 45.48 44.56 48.13 46.94 49.07 51.80 48.07 45.91 41.43 41.69 45.23 47.63 45.71 45.10 46.11 47.18 42.98 49.69 44.77 47.96 51.52 54.17 56.01 55.49 56.84 57.85 58.32 58.43 59.09
51.74 50.08 52.49 48.28 49.95 47.99 45.50 44.64 44.92 45.54 46.45 45.92 46.34 48.30 48.77 44.78 45.51 43.39 46.34 46.56 44.57 47.51 44.91 46.77 40.92 43.56 41.89 46.89 45.75 43.82 46.91 47.37 47.33 52.14 49.67 50.53 51.87 56.80 57.71 57.42 57.29 57.62 57.96 57.56 57.96
57.97 57.06 54.61 49.20 49.33 45.12 44.01 45.52 45.81 49.21 47.70 48.29 47.88 47.63 46.48 47.87 48.73 48.04 48.70 47.89 47.70 46.20 44.72 43.88 42.74 41.04 36.00 44.45 44.29 38.91 43.79 44.69 44.73 51.73 52.65 48.84 52.02 56.47 55.29 55.38 55.84 56.36 56.62 55.40 54.95

GFSSW_sfc_wetblb_096.txt.gz
Wetbulb
57.03 57.45 57.51 57.40 57.42 57.80 57.54 57.86 58.29 58.38 58.66 58.63 58.58 58.62 58.57 59.16 59.29 56.41 49.05 53.76 56.18 65.39 69.96 62.56 63.52 58.98 56.73 58.13 65.47 68.43 60.11 57.47 58.39 58.88 60.67 64.88 62.52 65.93 67.72 64.21 65.27 66.45 65.73 67.53 69.89
56.78 57.04 57.04 57.27 56.63 57.01 57.05 57.10 57.31 57.74 57.95 58.13 58.14 58.27 58.53 59.30 55.70 52.85 58.98 64.58 67.26 68.18 60.75 55.45 55.37 55.12 53.49 57.26 60.41 63.65 59.59 60.28 63.43 63.57 62.65 64.36 63.72 64.19 65.00 64.00 63.93 64.58 67.70 68.95 69.18
56.65 56.52 56.59 56.56 56.74 56.80 56.61 56.70 56.92 56.97 57.21 57.20 57.80 58.01 58.53 58.37 52.82 54.30 66.68 67.56 68.35 70.10 57.53 56.30 57.84 55.93 52.91 57.32 64.73 62.68 59.79 62.50 64.70 65.65 65.97 63.83 64.07 66.38 64.29 61.26 63.25 62.46 65.17 67.26 67.28
56.42 56.27 56.06 56.12 56.46 56.50 56.46 56.46 56.61 56.64 56.46 57.40 57.68 57.94 58.48 55.04 47.62 60.36 71.80 67.92 71.39 67.06 56.75 53.84 54.21 53.71 55.34 56.14 63.81 58.30 60.90 63.32 65.82 66.49 65.14 62.94 65.24 64.53 64.81 64.72 65.57 66.02 66.88 67.55 66.23
56.33 56.13 56.11 56.11 56.20 56.20 56.37 56.37 56.31 56.19 56.09 57.09 57.49 57.84 54.43 49.09 49.52 60.80 72.54 68.80 66.25 59.37 54.25 52.91 55.55 57.31 55.33 59.05 60.98 59.89 60.96 64.01 66.00 65.84 65.14 66.29 63.99 63.86 63.61 66.69 66.94 65.88 67.11 66.62 66.09
56.23 56.33 56.04 56.00 56.17 56.26 56.26 56.09 55.89 55.72 55.89 56.98 57.44 57.63 50.37 40.34 58.38 64.86 63.46 61.33 55.86 53.22 52.75 55.70 60.31 61.41 57.19 60.66 61.53 63.76 64.35 63.71 65.59 65.15 65.36 63.29 63.47 63.26 64.42 67.53 65.07 65.17 65.41 65.90 66.30
55.91 56.49 56.15 55.98 55.90 55.87 55.74 55.31 54.99 55.25 55.70 56.26 57.62 56.37 51.17 48.19 60.71 61.84 58.36 54.21 51.06 51.61 54.60 55.85 61.04 59.62 57.02 54.25 61.57 64.47 60.47 63.67 64.71 63.95 62.92 65.09 60.86 60.62 64.28 66.15 63.62 64.17 64.02 65.98 65.92
55.85 55.88 55.71 55.59 55.80 55.66 56.17 55.83 55.66 55.78 56.42 57.05 57.86 53.92 46.21 57.93 56.55 56.25 57.51 53.05 52.45 50.96 53.92 59.26 61.76 58.60 55.22 54.92 57.81 59.56 60.49 55.73 62.41 63.58 63.90 63.00 57.09 62.32 64.57 65.48 62.99 63.69 63.33 63.81 66.87
55.90 56.01 55.50 55.61 56.23 56.18 55.71 55.37 55.76 57.17 58.17 59.38 51.23 49.41 47.04 61.65 56.24 56.57 57.15 53.84 50.42 50.78 53.70 57.99 57.09 53.85 51.90 47.84 44.74 55.01 52.30 54.71 59.85 63.15 62.70 61.53 58.05 62.52 65.44 65.16 61.98 63.01 62.01 64.10 65.56
55.76 55.50 55.46 56.13 56.25 55.38 54.70 54.78 55.18 56.28 58.01 57.38 55.78 48.13 52.70 54.43 55.37 56.84 56.82 55.57 51.08 51.23 53.72 53.21 51.66 46.15 45.29 43.39 38.73 43.59 51.17 54.30 56.65 60.60 60.61 58.67 59.47 62.34 64.03 65.08 62.04 62.75 60.76 63.89 64.49
55.62 55.48 55.03 54.98 55.46 54.42 51.17 51.35 50.38 49.91 51.56 45.93 48.23 52.33 55.27 56.03 58.82 55.98 57.20 53.37 51.90 51.25 47.27 50.39 43.97 41.60 44.60 46.11 47.93 47.61 47.37 54.22 56.78 60.77 58.31 58.52 59.21 61.38 62.91 63.74 63.27 62.07 59.63 62.57 64.60
55.77 54.97 54.68 54.12 54.62 53.81 49.76 47.74 52.70 50.02 44.30 53.97 52.62 53.86 55.87 54.45 52.11 54.55 57.64 50.64 49.72 46.65 48.88 45.43 41.68 47.24 49.62 49.53 48.52 47.92 49.60 55.03 57.72 59.64 59.25 57.30 58.85 61.21 62.36 61.60 63.67 61.88 59.74 61.29 63.36
55.94 55.97 55.67 54.65 53.68 48.81 48.90 50.84 55.81 52.65 43.02 47.59 52.53 51.94 52.72 52.51 51.25 52.76 54.79 51.90 48.70 46.48 46.31 42.80 46.61 51.02 49.76 48.13 46.32 45.04 44.10 54.26 55.04 55.63 56.68 56.47 55.26 58.07 62.38 63.24 63.04 63.81 62.50 62.04 62.36
56.05 55.55 55.25 54.01 48.98 49.62 49.52 53.11 53.24 52.22 37.05 43.44 45.71 52.34 53.28 52.50 50.10 56.33 55.73 52.53 48.79 46.33 46.99 45.61 49.91 49.77 47.88 46.97 45.86 39.79 48.93 56.77 56.46 53.63 50.08 55.67 46.82 53.09 56.98 59.87 62.02 63.05 63.66 62.55 62.94
55.85 55.43 54.08 52.96 47.42 47.38 52.59 52.02 54.65 47.51 30.80 49.82 48.24 54.85 49.96 50.21 51.49 51.54 55.77 51.74 47.07 47.47 45.84 44.44 46.48 46.79 46.36 47.12 47.32 45.37 51.47 56.98 56.50 51.25 52.73 51.81 47.37 51.86 55.31 57.06 59.84 62.63 63.60 63.81 64.08
55.28 54.56 53.77 50.58 48.52 50.84 53.19 52.67 48.57 37.83 32.79 46.99 48.97 47.55 45.34 46.76 49.40 51.38 51.92 52.19 51.86 47.57 46.54 46.53 50.33 48.23 47.73 50.21 49.51 50.85 54.98 54.72 54.10 48.96 43.24 49.62 50.69 51.37 53.50 56.94 60.11 62.45 63.38 65.04 64.92
53.81 52.67 51.53 53.74 48.48 52.61 52.47 48.67 38.33 34.05 47.04 45.00 44.07 46.50 44.63 44.46 46.93 48.09 48.25 45.81 43.10 38.56 39.32 46.50 46.99 48.89 49.52 45.21 47.48 48.42 43.43 38.05 41.61 41.11 40.56 51.03 50.29 50.57 57.25 60.30 61.26 62.04 63.21 63.77 65.94
52.16 51.30 50.13 52.90 51.22 52.35 50.67 44.21 35.04 43.21 41.93 47.44 46.25 45.34 41.84 44.55 46.80 47.82 45.91 42.66 45.81 44.48 40.40 39.30 39.60 45.68 49.35 46.62 44.89 44.62 44.23 38.32 36.51 37.06 40.39 51.67 47.55 49.47 59.58 62.83 63.45 64.47 64.92 64.98 64.94
51.04 47.40 48.83 52.15 53.31 51.87 46.88 36.76 37.38 41.43 45.79 45.55 44.24 40.35 42.82 45.96 46.30 46.02 44.91 42.65 45.36 45.14 40.98 39.27 40.43 49.15 50.74 50.10 48.45 43.88 42.46 45.66 41.84 41.04 41.58 47.24 49.72 55.47 58.17 59.42 62.55 62.54 62.21 63.17 65.28
48.11 48.20 49.00 55.91 56.10 50.00 42.52 38.68 41.38 47.73 46.92 45.82 38.83 40.71 37.89 41.93 43.10 42.77 45.03 48.36 47.20 49.51 45.98 44.71 39.56 44.71 50.11 49.95 50.68 47.32 49.01 42.09 39.79 36.95 37.95 44.21 45.90 47.26 52.22 56.89 60.54 60.29 60.92 63.05 65.31
49.95 47.22 52.64 56.75 53.91 46.06 38.75 39.25 46.30 50.12 50.09 44.06 42.05 39.90 40.46 41.66 42.57 41.36 44.07 48.13 50.16 48.82 47.55 43.97 40.61 42.94 46.20 43.78 45.03 46.05 43.60 44.11 42.33 40.81 41.38 40.72 46.13 57.49 56.65 59.20 59.19 59.90 61.24 62.01 63.06
48.93 44.25 54.46 53.88 45.44 42.83 40.25 44.98 47.67 45.58 46.47 44.53 46.12 44.72 42.50 43.80 42.49 43.24 43.84 46.81 51.83 49.80 43.80 43.84 39.74 36.63 41.41 47.19 50.50 47.63 44.77 42.54 39.45 40.92 43.21 42.43 47.96 59.07 58.49 59.25 59.11 59.83 60.49 61.33 62.28
46.86 47.08 52.73 52.70 41.73 40.18 42.94 46.33 47.94 44.11 44.49 46.55 46.18 45.70 44.22 42.12 40.70 44.74 47.38 51.79 52.09 45.93 41.12 42.65 38.34 35.29 39.52 41.37 44.18 41.83 43.96 41.96 41.97 43.85 40.74 40.56 47.54 58.77 58.51 58.27 59.23 58.62 59.51 60.59 60.84
47.74 44.59 45.85 45.11 44.36 43.50 41.47 41.90 40.59 46.85 46.79 47.69 47.13 46.13 44.05 41.17 44.76 44.27 45.19 50.49 51.29 47.55 54.90 50.11 37.91 39.00 35.65 38.00 41.20 40.08 43.62 44.62 40.86 40.91 40.60 43.57 50.65 54.78 55.75 56.21 57.36 57.89 58.89 59.17 58.96
48.81 45.20 42.84 39.18 40.41 40.14 41.19 42.99 43.07 42.26 45.68 45.81 45.80 47.88 45.32 40.86 43.21 43.22 46.43 46.34 48.80 52.88 47.19 43.99 36.81 38.66 43.02 44.36 44.35 42.04 42.92 45.04 44.83 44.78 41.50 49.76 50.79 52.08 54.41 55.77 56.89 58.06 58.29 57.78 58.22
47.40 46.55 48.83 42.85 43.35 40.38 39.88 37.89 41.45 41.56 42.35 42.46 43.51 47.54 46.48 41.83 42.23 41.25 42.67 41.05 42.92 46.25 43.08 41.81 41.55 38.98 41.80 44.19 45.13 41.72 44.14 47.36 50.23 49.76 50.52 51.65 51.87 55.63 56.83 56.91 56.62 57.20 57.72 57.48 58.01
52.93 51.57 50.03 46.54 39.64 38.57 37.74 40.44 43.58 44.86 43.91 46.05 46.56 44.95 43.73 45.36 45.43 43.25 44.28 42.95 43.25 43.47 43.07 40.25 37.67 39.43 36.59 42.56 41.39 36.98 41.28 42.41 47.29 50.68 52.47 48.98 53.14 56.21 55.51 56.28 56.43 56.62 55.97 55.06 55.12

GFSSW_sfc_wetblb_099.txt.gz
Wetbulb
56.72 56.69 56.95 56.85 57.08 56.67 56.58 56.79 56.85 57.08 57.42 57.70 57.98 57.60 58.35 58.63 58.63 56.31 48.36 52.27 55.10 64.19 71.57 66.31 63.20 59.25 56.14 57.40 64.71 68.09 59.60 56.21 57.65 58.96 59.42 64.26 62.37 66.28 67.39 63.29 64.38 66.13 64.65 66.34 69.40
56.87 56.85 56.67 56.65 56.63 56.76 56.72 56.66 56.65 56.86 56.80 57.09 57.48 58.07 58.21 58.63 55.06 52.15 57.92 61.52 65.09 68.87 59.96 57.86 56.63 55.82 51.28 55.97 59.63 61.71 58.41 59.14 62.43 62.64 61.77 63.70 63.28 64.45 63.31 62.39 62.55 63.81 67.08 69.01 69.33
56.41 56.47 56.41 56.35 56.29 56.40 56.42 56.42 56.53 56.63 56.71 56.44 56.72 57.91 58.18 57.79 50.86 49.60 65.34 65.74 68.60 68.39 57.71 55.36 56.03 54.30 52.74 54.06 61.97 62.77 59.38 61.71 62.60 63.88 65.21 63.62 63.24 66.34 62.05 60.71 62.55 62.63 65.36 67.37 67.70
56.51 56.57 56.34 56.45 56.39 56.33 56.31 56.44 56.27 56.33 56.13 56.19 56.71 57.75 58.11 54.38 38.72 58.08 69.54 67.77 68.87 65.38 55.57 53.46 53.26 51.41 51.41 52.65 63.26 59.44 61.09 63.56 64.53 65.55 64.86 62.89 65.18 64.74 63.46 64.05 65.95 66.30 66.97 67.09 66.78
56.72 56.42 56.22 56.42 56.32 56.32 56.40 56.27 55.99 55.73 55.57 55.72 56.82 57.76 53.32 46.09 46.20 53.76 72.48 67.69 64.33 60.30 53.27 51.27 53.53 55.22 53.00 56.66 59.89 59.31 61.59 64.41 65.93 65.94 64.99 65.52 63.67 63.64 62.68 66.34 67.07 66.85 66.56 66.31 66.70
56.46 55.93 55.84 55.91 55.83 56.19 56.02 55.81 55.24 55.11 55.17 55.67 56.80 57.51 48.84 38.06 49.34 62.40 62.89 62.73 60.31 54.98 52.33 53.05 55.43 58.76 57.31 58.44 59.14 62.74 63.20 62.57 65.34 64.78 64.99 62.53 63.20 63.76 64.74 67.20 65.43 65.80 65.12 65.95 66.23
56.04 55.93 55.68 55.52 55.60 55.70 55.61 55.18 54.85 55.11 55.10 55.66 56.47 56.04 50.17 44.30 59.14 61.25 59.87 56.56 52.83 51.92 50.02 54.28 59.08 59.25 57.65 54.67 63.02 64.73 60.00 62.15 64.12 63.87 62.79 63.95 59.93 60.82 64.57 65.31 64.14 64.49 65.23 65.46 65.81
56.24 56.02 55.44 55.42 55.55 56.50 56.13 55.78 55.66 55.36 55.38 56.23 56.82 52.32 44.00 53.79 55.91 54.80 55.85 52.74 51.67 48.30 52.42 55.54 58.73 58.04 56.55 57.11 55.44 60.02 60.05 55.73 62.62 63.22 63.78 62.70 55.94 61.10 64.63 64.08 62.40 63.83 64.41 65.33 64.70
55.92 55.60 55.35 55.14 55.33 56.06 55.73 55.41 55.81 56.59 56.53 57.80 49.66 47.68 44.33 58.84 54.91 54.25 57.17 52.57 49.33 47.91 51.25 58.53 57.74 53.29 52.39 46.54 43.78 51.88 49.61 55.07 58.40 63.05 62.25 60.54 56.64 61.58 64.44 64.61 61.66 62.74 63.41 63.97 65.63
56.14 55.33 54.95 54.63 54.38 55.33 54.66 54.62 55.39 55.80 57.96 57.19 55.02 46.39 50.66 52.44 54.29 55.21 54.95 53.71 49.46 49.11 50.57 51.28 49.54 46.14 43.67 42.56 38.66 43.03 49.72 55.84 56.29 60.75 61.42 58.61 58.54 60.44 62.63 63.25 61.55 61.81 62.08 63.36 65.36
55.80 55.31 54.75 54.51 53.64 53.99 50.44 50.45 48.78 47.15 49.97 44.89 46.49 48.63 53.10 55.11 56.68 54.23 55.07 52.17 50.47 49.85 45.58 48.62 44.42 41.33 44.71 45.93 47.14 47.30 48.04 54.56 57.36 61.35 58.48 58.23 58.88 59.38 61.99 62.91 60.90 60.44 61.27 63.52 64.10
55.83 55.19 54.93 54.79 53.88 52.84 48.99 45.12 49.28 49.36 44.42 51.65 51.20 52.04 54.44 53.29 50.21 53.81 54.20 48.15 47.36 44.33 47.66 44.05 41.74 46.12 48.52 48.77 48.61 47.52 52.23 54.29 57.30 59.03 58.97 58.76 57.98 60.72 61.76 61.95 61.91 61.22 60.67 62.06 64.14
56.19 55.27 55.20 54.91 53.76 49.56 46.84 48.40 52.40 50.82 42.02 46.25 51.44 50.48 50.45 51.71 49.76 49.96 52.86 50.42 46.72 45.11 45.34 42.38 45.14 49.42 48.71 46.82 45.81 44.27 44.11 54.47 54.70 57.08 57.71 57.05 55.22 58.82 61.85 63.29 63.89 63.09 61.22 63.38 63.32
56.11 55.83 54.99 53.33 48.43 48.27 47.57 50.76 51.37 50.27 36.29 42.73 44.14 50.47 51.73 50.70 47.57 55.02 55.31 52.10 47.39 45.61 45.91 43.96 48.86 48.53 45.81 45.85 45.39 38.56 48.18 54.92 55.46 50.99 47.54 54.50 47.01 53.35 57.86 59.08 61.51 62.39 60.54 62.31 63.27
55.87 55.51 54.11 52.10 46.37 46.95 50.86 50.34 50.30 46.03 31.06 48.01 47.44 52.92 49.19 48.49 49.64 50.87 54.57 50.48 45.81 46.11 44.92 43.49 45.20 45.49 44.83 45.98 46.53 44.27 50.78 56.01 54.92 51.39 48.67 49.62 47.37 51.18 54.49 54.61 58.53 60.98 62.56 60.77 62.82
55.45 54.56 52.98 49.61 48.31 50.02 52.39 50.52 47.32 37.48 34.38 45.24 47.83 47.54 44.11 45.33 48.05 50.15 50.86 51.61 50.42 46.29 44.93 45.54 48.33 46.94 46.53 48.38 47.99 50.89 53.67 52.52 50.56 48.47 42.80 47.66 48.14 49.97 51.81 55.13 58.84 62.31 63.27 62.70 62.62
53.82 52.78 51.18 52.66 48.29 50.88 50.49 47.93 38.24 32.80 45.53 43.14 43.14 44.86 42.55 42.61 45.40 46.56 46.69 44.16 41.71 37.40 37.05 44.25 45.88 47.45 48.40 43.39 45.03 45.34 46.81 42.07 39.74 41.28 40.55 47.84 47.93 48.57 56.12 58.45 60.98 61.56 62.67 63.23 63.33
52.08 50.85 50.34 52.33 50.25 51.99 49.40 43.38 34.29 42.35 40.59 45.40 45.18 42.99 40.58 43.33 45.72 46.43 44.43 41.64 44.21 42.17 38.37 37.25 37.95 45.19 46.97 44.89 42.32 42.03 44.39 39.50 35.91 36.86 40.06 49.25 44.36 49.54 58.30 60.96 62.71 63.40 64.08 65.15 64.23
51.06 47.61 48.75 50.34 51.97 49.74 45.70 35.87 35.85 40.18 44.18 43.60 42.03 39.36 40.35 43.52 44.90 45.10 42.53 41.62 44.52 42.03 37.17 36.96 39.70 47.73 48.02 47.68 47.47 42.55 40.59 44.16 40.73 38.42 41.00 45.09 47.70 55.11 59.70 60.64 61.50 61.69 63.25 63.59 64.54
47.23 48.70 48.50 53.27 53.70 48.19 41.83 37.06 39.88 46.23 45.63 44.10 37.38 39.01 36.24 41.26 41.37 41.99 42.75 46.85 45.76 47.47 43.16 40.49 37.74 43.46 48.56 48.35 48.26 45.07 47.18 40.65 38.17 33.63 34.46 42.12 43.12 46.10 55.09 58.45 59.28 59.22 60.64 62.75 65.14
46.80 48.21 51.83 53.17 51.05 45.80 37.83 36.90 44.65 48.43 48.99 42.75 39.80 39.40 38.85 40.03 41.45 40.53 42.17 46.74 49.36 48.15 45.38 41.67 39.17 41.62 44.15 41.97 43.94 45.32 41.80 40.37 40.10 39.58 36.44 38.10 44.25 54.66 53.68 58.17 58.16 59.85 61.28 62.31 63.41
46.27 43.55 52.42 52.13 43.89 40.22 38.76 42.57 46.33 46.55 46.31 43.94 44.25 42.54 40.72 42.27 40.97 42.34 42.90 45.17 50.27 47.54 42.13 42.11 38.51 36.65 40.87 45.54 46.09 44.55 43.67 41.73 37.75 37.73 40.84 42.56 45.71 59.00 58.93 58.93 59.08 58.95 60.83 61.71 63.17
44.41 44.04 52.15 51.41 39.65 36.90 40.53 45.00 46.41 42.40 42.58 44.36 43.57 43.99 44.05 41.21 38.52 43.41 45.21 51.26 50.63 46.58 40.20 41.18 37.79 35.25 39.14 40.71 43.74 40.45 41.61 40.27 40.87 41.29 40.67 40.66 45.86 58.98 58.62 58.29 59.16 58.56 60.22 60.73 61.17
45.67 40.25 43.31 43.23 41.78 39.26 40.62 40.55 38.94 46.47 44.62 44.68 44.57 44.26 41.76 38.69 40.81 40.65 43.56 49.26 49.72 46.85 55.66 47.33 37.38 37.76 34.15 37.74 39.85 38.30 40.57 41.56 40.36 37.67 39.90 42.94 50.61 55.34 56.72 57.14 57.58 58.35 58.86 58.57 59.22
45.99 41.97 42.66 37.30 40.94 38.83 38.63 40.19 41.52 40.18 43.82 44.04 45.58 45.94 42.07 37.42 39.53 40.64 43.26 44.09 48.06 50.66 45.25 42.11 36.41 38.45 42.28 42.03 42.77 40.55 41.05 43.22 40.04 41.45 42.26 47.48 50.92 54.23 55.35 56.21 56.44 57.90 57.86 57.30 57.00
45.95 45.03 46.30 42.37 40.34 38.16 37.54 36.34 39.41 39.88 40.33 40.67 43.13 46.44 46.80 42.79 41.34 40.16 40.86 39.41 41.59 46.94 42.86 39.58 37.61 37.57 39.46 44.34 43.21 40.44 43.03 44.00 48.65 50.16 49.46 51.48 51.45 56.98 57.25 56.42 55.64 56.88 57.11 56.28 56.50
49.74 49.18 47.81 43.65 36.68 36.44 35.61 38.61 42.07 41.90 42.41 45.52 45.76 43.49 42.73 44.22 45.55 44.37 44.21 43.28 42.24 42.83 41.33 40.08 36.48 37.04 33.83 40.70 41.48 37.14 40.33 40.18 47.41 51.39 51.81 48.64 52.02 56.08 54.98 55.32 55.54 55.59 56.72 54.93 55.16

GFSSW_sfc_wetblb_102.txt.gz
Wetbulb
56.69 56.75 56.71 56.76 56.68 56.72 56.68 56.66 56.47 56.34 56.70 56.76 57.11 57.46 57.73 57.96 58.08 55.99 47.90 51.53 54.21 65.27 69.68 65.01 61.30 58.55 60.18 59.52 64.06 67.62 59.25 55.95 54.80 57.92 58.89 63.90 62.18 66.17 66.14 62.57 64.03 65.27 64.11 65.95 68.41
56.45 56.51 56.34 56.34 56.36 56.51 56.47 56.51 56.51 56.28 56.47 56.54 56.32 56.75 57.83 58.01 53.92 50.72 56.91 61.02 63.38 69.43 63.81 59.08 55.83 54.97 50.79 55.29 58.25 61.59 58.24 57.94 61.13 62.25 60.67 63.22 63.25 63.71 61.74 61.42 61.80 63.56 66.36 68.46 69.06
56.68 56.64 56.65 56.67 56.53 56.34 56.32 56.10 56.12 56.17 56.10 56.23 56.07 56.51 57.99 57.14 48.74 46.12 63.39 63.97 66.52 69.53 59.65 58.17 56.82 53.09 51.80 55.28 60.19 61.97 58.86 62.34 62.66 62.94 63.69 62.51 63.03 65.62 61.76 59.15 61.39 62.72 65.11 67.21 67.58
56.57 56.60 56.27 56.07 56.44 56.36 56.41 56.32 56.08 55.95 55.76 55.76 55.86 57.12 57.95 53.42 35.60 58.61 65.72 66.54 68.18 61.08 54.53 53.84 52.08 50.75 52.26 52.99 62.42 59.52 62.67 62.27 64.13 63.70 63.99 62.21 64.88 62.67 63.49 62.85 65.40 66.13 66.86 67.08 66.70
56.64 55.91 55.50 55.48 55.57 55.54 55.54 55.79 55.82 55.27 55.15 55.37 55.80 57.40 52.13 43.91 44.72 51.81 71.21 66.94 64.95 57.67 52.33 50.88 51.89 52.74 51.62 56.39 60.26 59.23 61.42 64.28 65.23 64.45 64.66 65.18 62.54 61.98 62.00 65.52 66.81 66.98 66.97 66.29 66.49
56.13 55.87 55.49 55.23 55.32 55.25 55.05 55.00 54.52 54.46 54.49 54.68 55.38 57.27 47.48 36.28 47.45 61.94 63.82 60.80 59.87 54.95 50.98 51.63 54.07 58.31 57.59 58.34 57.71 61.71 62.82 62.71 64.76 64.27 64.23 61.88 62.28 62.19 63.19 65.96 65.52 65.81 65.47 66.17 66.48
55.86 55.87 55.71 55.24 55.32 55.57 55.64 55.46 55.30 55.10 54.86 54.73 55.67 55.95 49.07 42.57 55.72 60.63 59.41 55.25 55.11 52.18 49.89 51.36 58.08 57.43 58.38 55.89 61.87 63.94 60.25 62.36 63.22 63.46 62.62 64.08 60.11 60.89 63.83 65.77 64.23 64.28 65.00 66.05 66.43
55.94 56.05 55.61 55.27 55.17 55.20 56.01 55.94 54.97 55.03 54.77 55.33 56.21 51.39 41.80 50.95 54.29 54.99 53.55 51.89 52.08 47.80 51.78 52.11 58.87 57.85 55.96 56.51 55.62 60.04 59.25 55.01 62.47 62.76 62.69 62.28 55.71 62.12 64.44 64.16 63.07 63.59 64.20 65.35 65.28
56.05 55.80 55.52 54.93 54.48 54.27 55.10 55.14 55.83 55.66 55.76 56.97 48.45 45.80 42.06 57.02 54.23 54.14 54.47 51.11 48.41 47.28 49.22 56.45 55.97 53.34 51.83 46.10 43.52 52.09 50.75 53.97 57.76 63.01 61.69 60.70 56.51 62.05 64.35 63.15 62.17 63.28 63.60 64.17 63.73
55.75 55.44 55.15 54.56 54.03 53.16 53.74 54.25 57.07 56.87 57.17 56.47 54.84 45.51 50.11 51.19 53.70 52.65 54.21 50.54 47.96 46.78 48.99 48.18 48.17 45.13 42.96 41.84 38.18 43.82 49.31 54.17 55.14 59.29 61.37 58.69 57.86 60.71 62.78 62.24 62.16 62.87 63.16 62.68 63.54
55.71 55.32 54.95 54.64 54.04 52.69 49.22 50.28 45.87 44.52 48.46 44.43 44.84 47.11 50.42 53.95 54.70 52.07 54.82 52.23 49.28 46.88 42.62 46.77 44.19 42.86 43.68 45.15 46.50 45.74 51.13 54.42 56.44 61.06 58.08 57.26 57.93 58.48 61.71 61.59 61.33 61.35 61.84 62.12 64.15
55.66 55.43 54.88 54.47 53.86 53.16 48.68 44.18 46.65 48.31 43.57 50.03 50.54 50.31 52.44 52.33 48.95 51.40 53.80 47.87 46.41 42.82 46.10 43.56 42.12 46.78 48.67 47.69 47.90 47.71 53.03 54.48 57.33 59.29 58.64 57.48 57.61 59.30 61.12 60.31 61.30 60.81 61.55 62.47 64.58
56.27 55.51 54.82 54.11 53.19 49.30 45.82 47.76 50.69 49.18 40.76 45.44 49.80 49.18 48.94 50.96 49.09 49.81 51.43 47.72 45.13 44.68 44.89 42.36 44.96 48.62 47.50 46.01 45.62 44.16 48.60 53.82 54.26 57.91 58.85 56.96 55.46 57.33 61.07 62.00 61.63 62.01 62.30 63.19 63.52
56.05 55.91 54.66 53.02 47.59 47.32 46.39 49.47 49.71 49.12 36.40 43.33 44.37 49.01 49.79 50.05 46.41 53.41 53.20 51.12 46.43 44.15 45.62 43.83 47.80 47.09 45.10 45.04 45.92 40.54 48.66 57.12 54.94 52.33 48.05 55.51 46.59 55.15 58.27 59.51 61.51 61.22 60.24 62.08 63.84
55.83 55.16 53.45 52.33 46.25 46.96 50.23 49.39 48.22 44.94 30.20 47.30 46.90 51.58 47.47 46.42 48.46 49.11 53.91 49.91 44.74 45.40 44.81 43.24 44.51 44.47 43.61 45.12 45.68 45.26 50.03 55.81 55.17 50.96 48.61 50.63 46.50 50.32 57.59 56.94 58.77 60.47 61.87 61.73 63.17
55.26 54.23 53.02 49.59 48.73 50.22 52.40 48.81 45.93 37.77 33.28 44.04 47.39 46.38 43.07 44.29 46.90 49.25 50.17 50.85 49.15 45.11 43.98 44.99 47.09 46.27 45.99 47.33 47.49 50.76 53.97 51.13 50.88 48.24 43.00 47.11 46.89 46.61 51.97 55.96 58.91 60.16 61.15 61.18 63.16
53.75 52.62 51.51 51.84 47.09 50.63 50.06 47.91 37.94 33.00 44.13 41.81 41.65 43.70 41.44 42.28 44.61 45.47 46.07 42.93 41.12 36.79 35.37 42.55 43.86 45.65 46.99 42.37 43.74 45.19 44.05 39.98 40.13 40.47 40.89 45.24 47.25 46.54 55.54 57.93 60.47 60.79 61.97 60.81 63.16
51.90 50.56 49.94 51.54 50.01 50.09 48.49 42.69 33.28 41.43 39.54 43.89 43.09 40.81 40.41 43.00 44.21 45.19 42.58 40.57 43.52 41.09 36.91 36.78 36.44 44.26 46.10 44.49 41.38 42.54 42.59 39.76 34.58 36.59 39.47 48.38 44.07 48.67 57.60 60.60 61.98 63.39 63.30 61.91 62.72
50.78 45.32 46.40 48.70 51.08 48.84 45.02 35.05 34.70 38.99 42.95 42.67 40.97 38.84 39.45 42.70 43.22 43.33 41.03 40.20 42.55 40.52 36.53 35.64 38.47 46.80 46.31 45.11 46.11 41.30 40.32 45.23 39.98 37.53 41.36 44.81 47.94 53.98 59.17 59.17 61.05 62.03 63.13 62.56 62.39
46.66 46.17 47.01 51.11 50.98 46.78 41.03 35.87 38.81 44.38 44.56 42.78 36.02 37.99 35.86 40.07 39.71 40.72 39.89 44.63 43.93 46.11 41.51 39.16 35.83 42.48 47.24 47.59 46.88 44.02 45.37 39.24 36.81 33.46 34.42 41.48 44.15 45.68 55.49 58.01 59.58 60.52 61.39 62.96 65.01
45.76 45.64 49.67 50.55 48.74 45.10 37.69 36.06 42.84 46.86 47.50 40.93 38.43 38.48 38.32 38.73 40.08 39.64 42.07 44.56 47.38 45.97 43.64 40.58 38.43 41.11 42.72 40.81 42.64 42.91 40.34 38.82 39.10 38.13 36.37 37.35 42.25 53.76 54.88 58.91 59.07 60.18 61.50 62.51 63.93
43.77 42.78 50.14 49.14 43.41 38.38 38.03 40.50 45.42 43.67 45.45 42.95 42.34 41.31 39.78 41.40 40.41 40.34 41.39 43.39 48.98 46.22 39.66 41.08 37.71 36.05 41.00 43.57 44.80 43.20 41.47 40.45 37.49 36.61 39.48 39.80 42.94 57.56 58.64 59.64 60.09 60.37 61.51 62.99 64.32
43.39 42.96 50.40 48.73 38.27 36.55 40.05 43.55 44.88 41.97 41.34 43.16 42.35 42.71 43.76 40.60 37.15 41.78 45.01 49.11 49.90 44.48 38.62 41.16 36.45 34.61 38.39 39.07 42.50 39.01 39.52 39.31 39.41 42.15 40.60 39.18 42.03 58.75 58.50 58.79 59.66 59.81 60.96 61.56 62.38
44.18 39.66 43.15 42.03 39.46 39.87 39.04 39.10 37.78 44.87 42.84 42.64 42.94 42.74 40.73 39.12 39.78 39.39 43.89 47.98 47.72 46.42 53.59 46.62 36.79 37.52 34.60 35.93 38.18 38.76 39.84 41.20 38.69 37.14 39.73 41.05 49.49 55.73 56.21 56.04 58.46 59.30 59.53 60.17 61.05
43.87 41.13 42.32 36.37 38.48 36.24 36.95 38.47 39.96 38.61 41.92 44.16 43.97 44.37 40.78 37.27 38.26 39.85 41.85 42.58 46.59 49.63 43.78 40.71 36.90 36.64 39.45 41.70 41.61 39.80 39.59 41.06 39.54 40.22 42.30 44.91 49.20 53.62 55.35 56.37 57.43 58.06 58.13 58.33 58.90
44.84 43.30 44.30 41.03 38.52 35.85 36.79 35.20 38.03 38.41 39.62 40.68 41.64 43.50 43.66 40.16 39.50 37.75 39.12 38.38 37.96 43.84 39.97 39.19 36.57 36.32 40.16 42.99 41.80 39.80 43.89 42.38 48.05 46.86 48.72 49.64 48.79 55.20 57.51 57.25 57.14 57.08 56.78 56.75 57.06
47.82 47.78 45.07 41.04 35.65 35.92 35.28 37.38 40.33 40.50 40.83 43.21 44.08 42.96 41.78 43.88 43.40 43.74 42.44 40.58 38.13 37.26 40.10 39.26 36.39 35.51 33.77 40.09 41.13 36.30 39.97 42.24 42.82 50.64 50.46 47.38 50.59 55.73 54.94 55.17 56.30 56.25 56.07 56.01 56.39

GFSSW_sfc_wetblb_105.txt.gz
Wetbulb
56.54 56.71 56.52 56.54 56.50 56.48 56.63 56.67 56.72 56.60 56.37 56.63 56.50 56.53 57.19 58.03 57.62 56.30 48.97 55.04 56.42 65.35 69.40 65.71 64.20 64.22 67.38 66.42 65.93 68.21 59.66 55.71 55.83 57.66 58.88 64.04 62.28 65.71 66.31 63.92 64.72 66.12 65.26 67.31 70.19
56.88 57.12 56.81 56.70 56.52 56.52 56.48 56.46 56.36 56.27 56.55 56.41 56.40 56.29 56.52 57.74 53.93 51.15 57.67 60.76 62.83 69.36 63.77 59.08 57.27 59.94 59.06 62.03 62.74 63.01 60.35 57.97 60.71 61.90 60.89 63.68 63.07 63.08 63.32 63.27 63.52 64.60 67.31 68.89 69.89
56.87 56.78 56.57 56.22 56.50 56.82 56.65 56.58 56.27 56.08 56.10 56.02 56.04 55.99 57.48 57.90 50.41 47.59 65.13 63.38 64.87 67.69 64.13 59.88 58.89 58.43 56.81 58.16 61.19 61.93 59.37 62.56 62.29 63.26 63.59 63.02 63.50 64.41 62.82 61.31 63.71 63.02 65.35 67.67 68.45
56.66 56.35 55.69 55.51 55.81 56.11 55.89 56.03 56.01 55.77 55.55 55.56 55.79 56.26 57.88 55.30 41.45 60.66 65.12 64.86 67.70 65.71 61.87 58.62 56.46 55.80 58.63 54.97 61.70 60.22 63.33 63.26 63.30 64.08 62.99 62.12 64.12 62.78 63.96 63.03 66.25 66.58 67.38 67.84 67.01
56.55 56.33 56.00 55.79 55.23 55.11 55.17 55.15 54.95 55.00 55.02 54.91 55.23 56.59 55.67 48.99 47.41 52.81 66.56 66.09 67.86 58.64 57.59 56.71 54.11 57.24 57.75 58.10 61.99 60.97 61.92 63.99 64.93 64.30 65.14 64.00 62.34 62.26 63.08 66.06 67.84 67.83 67.40 66.71 66.94
56.49 55.88 55.77 55.44 55.30 55.45 55.50 55.15 54.78 54.48 53.88 54.41 54.73 56.80 52.40 43.61 53.68 64.72 66.68 64.58 63.34 56.86 55.34 56.95 55.25 60.76 59.28 59.41 61.17 61.85 63.26 63.18 65.12 63.99 65.03 61.49 61.42 61.96 63.36 66.93 66.41 66.41 66.28 67.45 68.39
55.98 55.84 55.67 55.42 55.22 55.64 55.34 55.54 55.16 54.98 54.97 54.40 55.32 56.49 51.42 47.79 56.03 64.63 62.64 60.52 61.92 56.81 54.11 56.27 60.22 60.66 61.54 57.81 63.07 63.98 60.24 63.05 63.89 63.99 62.93 62.98 58.65 60.09 64.83 66.39 65.78 66.18 67.11 67.82 68.64
56.28 56.04 55.77 55.18 54.89 54.74 54.42 55.37 54.79 54.85 54.51 54.96 56.30 55.57 46.84 52.79 57.34 61.95 57.49 57.11 56.23 55.13 55.92 56.19 62.65 62.08 60.43 59.47 59.62 60.81 60.74 56.72 62.51 63.26 62.82 62.42 55.90 61.80 64.34 65.29 64.85 65.61 66.87 67.60 68.48
55.93 55.80 55.69 55.15 54.63 54.00 53.22 53.90 55.34 55.39 55.60 56.98 54.58 52.52 46.10 59.31 55.85 59.39 57.39 52.97 56.04 54.84 54.08 56.10 58.33 58.89 57.38 52.13 55.93 58.15 53.81 55.66 58.90 63.14 61.76 60.80 57.97 60.85 63.94 64.40 64.17 65.53 66.02 67.24 68.07
55.98 55.76 55.22 54.77 54.48 53.77 52.98 54.68 57.56 57.70 57.12 56.87 55.85 50.47 54.08 53.44 56.05 57.61 57.36 54.98 52.60 52.51 52.14 53.13 54.35 55.55 53.27 51.05 49.71 53.12 53.35 56.46 54.80 60.17 61.89 60.25 59.57 61.46 61.99 62.07 64.51 65.09 65.99 66.97 67.26
55.72 55.52 55.01 55.04 54.43 53.57 52.12 54.95 51.61 51.15 53.17 50.44 50.37 49.93 51.93 56.38 56.91 55.01 56.08 52.75 51.93 51.21 48.77 52.23 52.20 51.90 54.83 52.03 52.20 55.86 54.16 55.49 59.13 60.78 59.33 58.69 60.08 60.17 60.83 62.40 63.31 63.78 64.67 66.32 66.94
55.43 55.19 54.84 54.72 54.10 53.51 50.89 50.10 52.28 53.88 49.27 52.48 52.41 51.59 53.68 55.12 52.14 53.30 56.79 50.91 48.57 46.91 50.79 49.88 49.34 54.29 53.30 51.52 51.70 58.13 57.12 55.88 57.62 58.98 59.10 57.58 57.88 61.60 62.18 62.29 63.85 63.95 65.21 65.85 66.23
56.15 55.14 54.37 53.57 52.61 51.11 50.16 51.92 55.02 54.75 48.79 49.19 52.22 52.09 52.50 54.23 52.51 52.51 55.69 51.60 47.89 48.02 49.87 47.83 50.95 53.76 51.38 50.03 50.39 50.82 52.97 55.62 56.05 58.14 59.27 56.46 55.46 57.55 61.14 61.94 63.14 63.34 65.90 66.63 66.78
56.03 55.72 53.77 52.69 50.09 51.74 51.13 53.98 54.07 54.13 45.51 48.11 50.22 52.46 53.44 53.46 51.05 55.93 56.37 52.69 50.68 48.18 50.71 52.22 51.64 52.08 49.58 49.37 50.64 48.94 52.39 58.61 55.53 54.18 50.98 56.35 47.05 55.36 58.80 59.27 61.27 62.54 63.01 65.66 67.00
55.80 54.65 52.95 52.14 50.96 50.77 52.97 54.64 53.13 50.28 36.49 49.64 50.44 55.55 53.04 51.16 52.84 52.81 56.87 54.53 49.92 49.99 50.15 48.95 49.89 49.44 48.49 49.50 50.73 49.19 53.56 58.10 57.64 55.00 54.10 53.51 49.81 54.06 58.75 57.72 59.37 60.83 64.03 64.99 66.76
55.24 53.37 52.52 51.14 51.43 53.60 55.25 53.10 50.78 43.55 36.12 46.28 50.21 49.12 49.13 49.72 51.36 53.25 53.87 54.95 53.09 50.36 50.59 49.83 51.68 52.07 51.76 52.02 51.74 57.94 57.19 56.90 56.37 54.33 47.86 53.26 52.25 50.97 55.94 59.02 61.13 62.06 63.02 65.08 66.13
53.67 51.79 51.14 53.40 51.52 54.36 54.44 52.48 44.46 38.74 47.27 44.36 45.93 47.62 46.62 46.77 49.27 51.02 50.71 49.54 48.02 44.78 45.76 48.09 48.64 50.70 51.18 48.95 50.82 54.42 52.84 47.23 45.86 46.31 44.44 51.35 52.05 54.64 58.48 60.52 62.52 62.49 63.76 64.68 66.07
51.43 50.47 51.39 53.15 55.01 53.96 53.94 48.76 38.70 43.44 43.51 47.78 47.03 46.42 45.78 47.58 48.30 48.44 48.19 46.93 48.24 47.87 45.56 43.88 42.04 48.85 50.78 49.91 47.95 51.06 52.07 47.37 41.19 42.98 45.83 52.05 49.37 54.66 59.39 62.17 63.53 65.13 65.60 65.59 65.74
50.65 51.40 52.32 54.12 54.06 53.49 52.02 41.71 41.53 43.71 46.34 46.07 45.86 44.66 44.95 47.22 47.65 47.88 46.63 46.31 47.84 49.00 44.93 43.86 43.89 50.61 49.88 51.39 51.18 47.56 45.67 52.12 48.41 49.64 48.33 51.00 52.94 57.01 60.46 61.73 62.54 63.40 64.76 63.79 63.95
52.22 53.40 53.87 55.07 54.95 53.86 49.11 40.95 45.02 47.36 48.81 47.29 42.61 44.69 43.18 45.45 46.16 46.96 45.86 48.94 47.68 49.44 49.76 47.65 43.05 49.09 50.99 50.77 50.76 50.39 51.93 45.82 48.54 43.35 42.74 48.60 50.00 51.95 57.26 58.71 61.63 62.88 63.58 64.24 65.53
52.51 53.58 54.33 56.00 54.65 52.49 45.39 44.45 46.88 50.20 50.45 46.65 45.17 45.23 45.18 44.93 46.24 46.21 45.49 48.80 50.32 49.54 48.93 48.93 47.05 47.86 49.57 48.80 47.99 48.26 47.94 48.43 50.34 48.31 45.65 45.31 49.64 57.44 58.83 60.61 61.63 63.21 64.54 64.80 64.80
51.63 51.25 55.41 54.84 51.02 46.17 47.20 46.61 46.16 48.57 49.81 48.31 48.28 47.54 46.35 46.36 46.03 46.28 45.47 47.83 51.75 51.02 46.52 48.33 48.03 45.58 47.48 50.08 50.50 50.96 49.97 50.74 45.76 45.92 49.59 49.54 50.48 60.36 60.60 62.12 61.61 62.48 64.42 66.29 66.84
51.74 52.23 55.81 54.49 46.62 46.50 47.75 48.19 48.57 46.58 46.98 47.56 47.33 48.21 48.85 46.81 44.22 46.94 47.60 51.69 52.55 48.78 46.96 48.93 46.05 43.78 45.56 47.09 48.74 47.99 47.71 49.95 50.75 52.18 49.43 46.52 49.96 60.18 61.73 61.15 62.34 62.10 63.70 63.81 65.32
51.03 48.54 50.55 49.89 47.55 48.14 47.18 45.82 44.86 47.48 47.19 47.87 48.11 48.74 47.23 46.44 47.69 45.63 46.70 49.92 50.24 51.27 52.44 52.16 46.42 46.23 42.81 44.84 47.18 45.24 45.40 48.18 50.44 47.40 49.15 49.89 52.44 56.53 58.33 59.13 60.54 61.60 62.49 62.89 63.57
51.16 48.59 48.29 46.02 45.57 45.77 46.16 44.87 43.80 43.72 46.91 49.84 48.50 48.12 46.39 45.12 45.46 44.82 46.38 47.44 49.45 51.59 48.41 48.78 45.47 45.90 45.78 45.57 46.29 46.22 48.79 46.17 47.85 49.31 49.13 52.14 53.99 57.30 57.50 58.10 59.18 60.48 60.41 60.80 61.43
52.16 51.24 50.53 47.99 44.64 45.03 42.88 43.91 43.20 43.95 45.57 45.38 46.53 47.11 48.12 46.63 46.76 44.00 45.42 46.06 45.36 48.81 48.42 47.89 45.16 45.84 45.06 46.46 46.01 44.57 49.31 50.07 50.41 49.83 52.31 53.18 54.69 60.60 59.48 60.28 58.92 59.01 59.57 59.65 60.00
53.37 53.42 51.64 44.10 43.39 45.21 43.92 44.77 44.12 45.43 45.72 46.24 46.50 47.51 46.50 46.01 47.80 48.14 48.12 47.28 46.68 45.94 46.93 47.10 46.99 45.39 42.68 45.76 46.55 43.14 45.37 50.56 51.50 53.79 54.03 52.46 56.14 60.28 57.15 57.55 57.72 58.26 59.01 59.11 59.47

GFSSW_sfc_wetblb_108.txt.gz
Wetbulb
57.49 57.73 57.25 57.06 56.99 56.91 56.72 56.83 56.93 57.05 56.70 56.72 57.05 56.79 57.13 57.63 58.26 58.67 52.68 57.65 59.58 66.98 67.78 66.32 65.75 69.57 70.45 69.12 68.74 69.67 61.18 59.22 59.18 58.19 60.78 66.31 64.96 67.49 68.50 66.05 66.67 67.27 67.01 69.68 71.72
57.55 57.65 57.11 56.95 56.68 56.81 56.99 56.82 56.82 56.78 56.83 56.36 56.40 56.62 56.51 57.72 57.33 54.48 63.74 62.37 62.47 68.29 64.75 62.49 61.17 67.57 66.87 67.65 67.82 64.76 63.01 59.66 62.69 62.32 62.33 65.43 65.17 65.64 65.58 65.51 65.36 65.90 68.95 70.63 71.21
57.62 57.23 56.59 56.13 56.31 56.49 56.54 56.64 56.60 56.61 56.45 56.25 56.23 56.18 57.08 58.89 54.60 50.77 65.36 64.00 64.96 69.21 64.80 62.62 61.58 63.82 62.14 64.29 65.15 64.76 60.81 64.12 62.87 63.61 64.62 65.14 64.89 66.42 65.55 63.88 65.79 65.37 67.44 69.27 69.64
57.36 56.92 56.36 56.08 55.88 55.71 55.58 55.57 55.62 55.96 55.79 55.79 56.00 56.05 57.68 58.39 45.88 60.40 65.28 66.71 67.32 67.14 63.56 60.23 60.01 57.84 61.08 60.47 64.78 62.47 64.31 64.89 64.24 64.13 64.19 63.98 66.04 65.31 65.27 65.80 68.23 68.41 68.84 68.92 68.70
57.06 56.51 56.14 55.76 55.54 55.59 55.68 55.37 55.20 54.78 54.80 55.17 55.73 56.22 58.43 54.29 50.84 59.09 64.98 65.99 62.51 64.19 61.33 58.97 56.97 58.41 61.56 61.98 63.32 62.52 63.06 65.25 64.21 63.97 64.53 64.25 63.92 63.86 64.98 67.72 68.67 68.60 68.50 68.29 68.35
56.82 56.61 56.27 55.75 55.61 55.74 55.60 55.72 55.30 55.16 55.09 55.07 55.40 56.54 56.13 50.42 56.55 65.22 63.55 63.38 61.28 61.10 59.39 59.08 57.11 60.15 63.04 62.43 62.89 63.34 64.29 64.84 63.46 63.35 64.40 62.73 62.16 62.48 65.10 67.72 67.29 67.44 67.59 67.79 67.72
56.55 56.45 56.06 55.75 55.56 55.37 55.38 55.46 55.78 55.38 55.41 55.39 55.62 58.10 54.88 53.63 58.04 66.78 64.16 63.29 62.07 61.19 58.34 59.36 59.22 61.91 65.01 62.44 66.01 63.57 61.94 64.36 64.30 64.42 63.34 62.71 58.98 59.19 65.18 67.34 66.22 66.57 67.54 68.25 69.46
56.26 56.31 55.93 55.80 55.46 55.09 54.28 53.92 55.10 55.08 55.01 55.16 56.55 58.36 52.66 55.24 61.84 61.94 62.28 62.26 62.20 60.96 60.11 60.24 62.23 64.37 64.47 62.15 63.47 61.96 62.58 58.40 62.01 63.19 63.76 62.98 56.00 61.51 65.42 65.94 65.30 66.14 66.72 68.31 69.60
56.21 55.98 55.76 55.44 55.13 54.65 53.66 53.82 54.98 55.81 55.90 57.02 58.13 55.68 50.33 58.95 58.13 58.80 59.32 57.77 58.59 57.95 58.65 58.44 61.05 62.87 62.48 57.61 58.19 60.64 54.03 57.26 58.56 62.96 61.96 60.68 57.10 61.29 65.60 65.78 65.57 66.19 66.58 68.38 69.24
55.92 55.77 55.50 55.42 54.97 54.20 53.87 54.88 57.08 57.21 58.13 58.98 58.17 54.31 56.64 53.09 59.65 58.14 57.98 57.84 55.75 55.52 55.04 54.93 58.26 59.88 59.76 57.27 52.49 56.50 56.29 57.17 57.09 61.27 61.32 59.33 58.95 60.99 62.92 65.50 65.64 66.62 66.92 68.27 68.84
55.72 55.28 55.23 54.91 54.71 53.93 54.70 59.34 57.45 56.59 57.11 54.94 53.94 53.03 55.14 58.66 60.75 57.61 58.25 55.34 54.39 53.04 51.06 53.40 52.59 55.58 59.24 58.22 56.92 59.66 58.76 56.19 59.40 62.59 59.57 59.08 58.94 60.16 61.96 64.87 65.19 66.03 66.79 67.38 68.22
55.64 55.44 54.87 54.61 53.87 53.70 56.06 56.19 56.13 56.80 52.22 56.57 55.56 55.03 56.54 57.77 55.03 56.99 57.66 53.15 51.68 47.88 52.54 50.94 49.65 56.61 60.76 57.48 55.33 58.05 57.51 57.99 59.54 61.15 59.36 57.43 58.56 58.75 60.59 62.16 65.77 65.95 66.34 67.11 67.55
56.38 55.24 54.32 53.45 52.71 54.45 57.10 56.78 58.99 58.21 52.82 52.93 54.65 54.74 55.75 56.70 55.03 55.40 56.68 53.48 50.71 49.13 51.15 49.52 51.24 58.80 57.43 55.11 54.09 58.42 57.33 58.42 57.46 58.62 58.46 56.40 54.76 58.54 59.88 62.18 65.38 66.58 67.47 68.07 68.37
56.36 55.12 53.76 52.72 52.39 59.05 56.82 58.69 59.21 58.02 49.56 50.03 52.82 54.41 56.07 56.98 52.75 57.71 58.53 53.35 49.88 48.90 51.13 51.30 54.40 55.36 56.72 53.79 54.90 53.33 57.51 59.93 58.62 57.29 51.07 56.79 49.87 55.81 57.97 58.72 63.31 65.18 66.67 67.67 68.06
56.02 54.48 52.96 51.68 57.79 55.93 57.50 59.90 59.72 56.64 40.06 51.03 52.52 58.04 56.75 54.15 55.02 55.49 58.62 54.42 49.79 49.71 52.34 51.03 52.10 54.21 54.52 55.57 54.36 52.85 54.66 57.61 58.94 56.53 56.21 55.02 51.94 53.03 58.84 57.40 59.54 62.33 65.59 67.57 68.88
54.85 53.58 52.51 54.99 57.77 58.09 59.77 59.02 57.25 47.36 38.92 48.14 52.25 51.13 52.16 53.64 54.05 56.21 55.30 57.70 56.14 51.61 53.56 53.15 57.09 56.22 55.19 55.94 53.55 56.05 55.31 56.32 57.68 55.84 50.23 55.38 54.59 51.49 56.23 60.76 61.01 62.94 65.83 67.03 68.33
53.09 51.91 52.61 58.38 56.91 60.68 59.45 57.43 48.57 43.75 49.80 46.70 48.63 51.07 51.44 51.05 52.32 53.33 52.50 51.77 49.79 47.07 47.43 51.33 52.37 55.02 55.46 53.95 55.57 54.97 54.56 48.30 45.86 47.58 48.02 55.87 53.99 55.24 59.76 62.16 64.83 63.46 64.36 66.64 68.14
51.39 50.11 54.11 58.75 61.56 59.38 58.31 53.48 42.61 45.77 46.74 50.76 49.85 50.45 49.30 51.10 51.70 51.90 51.78 50.07 52.03 50.58 48.75 46.87 45.51 51.90 54.13 53.36 51.90 53.41 53.83 49.30 43.09 44.77 49.29 54.42 51.76 56.24 61.49 64.50 66.13 67.41 66.83 67.12 68.23
50.72 59.11 59.20 61.14 59.96 59.00 55.97 47.58 45.27 46.96 49.41 48.68 49.16 47.40 48.08 50.53 50.97 50.62 50.43 50.74 51.49 51.75 47.61 46.87 46.94 53.09 53.80 54.37 53.52 52.99 51.18 56.32 52.04 53.41 49.28 51.29 55.17 59.98 61.35 62.85 64.72 66.13 67.12 66.96 67.50
61.39 60.31 59.51 60.28 60.58 58.72 52.86 44.61 48.15 51.04 51.63 50.49 45.97 48.86 46.01 48.22 48.65 49.77 49.29 51.74 50.74 52.63 54.02 50.48 46.08 51.29 52.44 53.83 53.90 53.15 55.80 50.77 51.78 46.12 45.54 51.29 51.88 53.61 59.00 60.37 63.72 64.56 66.00 67.43 67.04
59.79 56.72 59.98 61.71 60.42 56.35 48.24 48.53 50.01 52.11 52.85 49.82 48.17 47.90 48.56 48.27 49.75 48.91 48.98 51.49 52.38 52.17 53.80 52.07 50.05 49.87 52.21 50.04 49.27 50.37 50.17 51.58 52.05 51.39 47.54 47.24 50.72 60.56 60.96 62.62 63.71 64.83 66.56 67.89 68.10
58.78 53.77 61.42 60.30 53.13 54.55 49.73 50.74 47.54 50.24 52.41 51.29 51.66 50.34 49.41 49.54 49.57 49.00 48.34 50.85 53.41 53.93 50.59 53.43 51.13 48.25 49.29 53.08 53.62 53.10 51.01 51.62 47.15 47.86 51.27 50.99 51.77 62.78 62.70 64.60 65.40 66.39 67.48 68.85 69.01
59.33 57.53 61.91 58.94 49.94 49.70 51.94 50.11 50.70 49.77 50.42 50.30 49.65 51.02 51.65 49.73 47.72 50.33 50.40 53.33 53.54 52.23 51.50 53.64 49.86 45.88 47.83 51.26 52.94 51.19 52.37 52.71 52.43 51.72 49.99 48.01 50.77 62.89 64.10 64.16 65.09 64.59 66.98 68.25 68.61
57.32 51.90 56.06 59.42 57.16 52.29 49.42 48.38 47.76 50.51 50.34 51.29 50.76 51.66 50.07 49.54 51.73 49.39 49.86 51.84 52.22 53.56 52.14 52.57 51.09 49.06 45.19 48.12 51.40 49.66 50.59 52.07 52.08 48.97 49.75 50.84 53.72 60.71 61.80 62.99 63.89 64.66 66.09 67.06 67.81
58.66 53.72 53.36 50.05 51.71 52.64 51.55 49.36 46.60 46.70 50.56 51.89 50.56 50.13 49.37 47.83 48.61 48.64 50.29 51.21 51.88 52.18 52.92 52.71 48.87 50.19 50.74 50.25 50.19 49.99 50.28 50.83 50.72 51.74 49.83 51.35 52.82 58.37 62.99 62.87 63.42 63.88 63.80 64.75 65.40
57.24 56.30 57.20 53.52 51.32 50.40 47.08 48.62 46.68 47.42 47.57 46.99 49.76 50.05 51.15 49.45 50.06 47.83 49.64 51.05 50.47 52.54 52.59 52.30 49.55 50.87 48.18 49.51 49.48 48.54 51.49 52.02 51.68 52.16 52.76 53.59 54.13 62.81 65.33 64.42 62.09 62.37 62.71 63.02 63.63
60.60 60.83 57.39 47.58 50.42 49.83 50.00 48.53 46.80 47.67 48.54 48.64 48.99 51.14 49.67 50.33 52.31 53.11 52.18 51.21 51.30 50.91 49.99 50.50 50.44 49.11 46.02 49.52 49.29 46.33 49.67 52.94 53.92 55.49 56.00 52.01 58.71 63.71 62.14 60.82 60.71 61.65 63.02 61.94 62.62

GFSSW_sfc_wetblb_111.txt.gz
Wetbulb
58.23 58.31 57.72 57.21 57.11 57.72 57.80 57.57 57.21 57.27 57.47 57.27 57.25 57.54 57.62 57.57 58.13 59.74 55.29 60.98 62.65 67.21 68.10 66.49 68.41 67.93 70.23 68.47 70.60 69.74 63.46 60.86 59.93 60.86 61.57 66.27 66.03 69.38 69.49 67.56 68.09 68.31 68.10 70.30 71.93
58.28 58.13 57.46 56.83 56.52 56.77 57.08 57.46 57.49 57.21 57.36 57.25 57.06 57.14 57.32 57.72 59.16 57.78 65.59 66.69 64.49 69.46 66.23 63.89 62.52 66.01 66.66 67.05 68.03 65.12 61.86 60.21 64.89 64.19 63.05 65.88 66.47 67.69 67.11 66.12 66.33 66.98 70.02 70.70 71.52
58.04 57.81 57.34 57.12 56.45 56.18 56.22 56.31 57.14 57.12 57.10 56.95 56.76 56.89 57.07 58.84 58.63 55.90 67.84 67.71 67.11 67.97 64.70 64.40 63.34 65.32 64.80 67.12 66.45 64.64 62.26 64.03 64.76 64.70 66.50 65.64 66.82 68.54 66.37 63.40 66.42 66.22 68.06 69.65 69.76
57.49 57.11 56.82 56.49 56.32 56.32 56.34 56.26 55.95 56.03 56.16 56.30 56.38 56.76 57.07 59.69 50.22 61.56 65.40 68.30 67.91 64.23 64.17 62.14 60.80 61.56 59.82 63.06 66.48 63.00 65.25 65.86 65.45 65.45 65.69 64.72 67.16 66.02 66.24 66.65 68.86 69.47 69.62 69.53 68.59
57.20 57.21 57.06 56.55 56.43 56.52 56.19 55.96 55.90 55.94 55.47 55.63 56.09 56.57 58.48 57.05 55.74 65.89 65.99 67.85 60.83 62.97 62.62 60.60 58.73 59.15 59.10 64.68 64.77 63.72 65.11 66.12 65.67 64.54 65.41 66.35 64.85 65.38 65.97 68.26 69.53 69.76 69.08 68.46 68.35
57.14 56.99 56.82 56.55 56.27 56.19 56.28 56.24 56.50 56.06 56.02 56.32 56.55 56.39 57.60 54.01 57.81 63.94 62.16 60.59 58.41 63.10 61.76 61.13 59.34 60.76 62.45 64.58 63.14 65.79 64.69 65.22 64.80 63.04 64.46 63.60 63.65 64.84 66.15 68.54 68.21 68.14 67.78 68.10 67.79
56.62 56.78 56.67 56.30 56.10 55.90 55.75 55.22 55.85 56.16 56.05 56.38 56.75 58.40 57.74 56.11 58.93 65.73 63.00 58.09 58.66 62.14 60.04 61.47 60.99 58.79 65.08 63.80 66.89 63.84 61.95 64.19 62.78 63.22 62.69 63.71 60.53 61.12 66.51 67.52 66.74 66.81 67.50 67.48 67.61
56.94 56.55 56.57 56.44 55.95 55.71 55.34 54.65 54.63 56.16 56.10 56.30 56.96 59.77 56.89 58.90 61.43 64.87 63.95 62.07 61.80 61.39 61.49 61.33 61.07 59.36 64.28 65.93 65.59 61.55 62.75 58.06 61.88 62.65 63.15 61.55 56.08 61.47 66.83 66.34 65.52 66.36 66.39 66.74 68.35
56.50 56.29 56.16 56.34 55.92 55.21 55.11 54.58 55.79 56.78 57.02 57.34 59.16 59.50 54.04 57.41 59.60 62.49 63.59 60.50 59.88 60.75 61.80 60.83 60.61 59.71 65.05 60.91 58.90 61.06 54.98 57.44 58.43 63.10 61.75 61.06 58.10 61.23 66.06 65.86 65.24 65.92 66.41 67.54 68.61
56.74 55.99 55.77 55.75 55.43 54.70 54.92 54.80 57.51 56.91 58.46 60.88 60.16 56.07 57.27 53.78 60.17 59.34 61.35 61.26 57.52 57.61 57.25 56.69 56.42 57.52 61.89 60.01 54.12 56.19 57.10 57.55 56.71 60.38 60.78 59.18 58.70 61.08 63.60 65.05 63.51 65.07 65.83 66.46 66.94
56.89 56.48 55.76 55.12 55.23 54.25 55.22 61.25 59.40 58.98 59.91 56.93 55.72 55.24 56.06 59.59 61.20 58.78 57.61 57.78 56.76 55.70 52.17 54.02 51.94 53.90 59.52 61.04 57.89 57.35 57.39 55.62 58.61 62.08 58.40 57.49 58.25 57.95 63.61 64.14 63.25 64.13 65.31 66.51 66.83
56.90 56.34 55.43 54.68 53.96 53.75 56.27 58.52 57.60 58.39 54.06 57.88 56.46 56.45 58.15 60.09 55.13 57.48 58.36 52.95 51.98 50.40 53.97 51.75 49.60 55.91 59.74 60.33 58.43 55.92 56.21 55.86 59.54 60.93 57.36 56.83 57.90 59.37 60.95 64.81 64.40 64.00 65.08 66.43 67.12
56.60 55.89 55.13 54.26 53.71 54.91 60.30 59.31 61.56 60.67 55.07 54.33 56.13 55.93 56.60 57.67 55.52 55.30 57.21 55.54 51.48 49.35 51.14 50.87 52.18 55.43 58.37 58.72 56.50 56.83 57.48 57.12 57.88 58.31 58.95 55.71 55.04 56.85 60.39 63.78 65.03 64.70 65.47 65.75 66.68
56.59 55.62 54.98 53.53 52.56 60.96 57.89 61.51 61.63 60.97 51.36 51.48 53.46 55.86 57.39 56.47 54.35 58.95 58.10 54.96 52.65 49.52 51.26 52.39 54.60 53.66 56.46 57.58 58.06 53.03 61.42 59.09 58.49 56.66 51.79 58.49 47.57 53.82 57.87 59.87 61.46 63.79 65.12 65.56 68.03
55.73 54.90 53.81 52.23 58.37 57.70 59.77 61.92 61.60 60.41 38.63 52.44 53.90 59.41 58.27 55.40 55.53 55.16 59.11 54.74 50.55 50.31 51.91 50.90 52.05 52.80 55.26 57.37 58.24 55.57 58.56 59.36 59.59 56.72 55.51 53.89 51.50 52.51 56.42 55.16 58.80 63.18 64.48 66.39 67.96
55.00 54.10 53.22 56.71 59.28 60.27 61.22 61.67 60.22 49.69 40.39 49.81 53.75 53.13 53.44 54.98 54.29 55.52 55.36 57.12 57.41 51.73 52.42 53.31 56.18 55.45 56.48 59.31 58.47 58.25 57.09 58.73 58.29 55.63 50.59 53.84 52.73 51.93 55.77 56.90 59.63 62.79 65.77 65.61 66.17
53.49 52.48 53.37 61.19 59.20 62.53 61.67 58.74 49.92 44.21 51.39 48.21 49.82 52.60 52.43 51.98 53.21 54.18 52.52 51.86 51.07 47.96 48.55 52.41 53.22 56.13 57.80 55.78 56.51 56.40 55.58 51.55 47.84 48.84 49.82 55.59 53.96 54.34 59.42 61.73 62.95 63.28 64.22 67.39 67.36
51.86 51.06 56.72 61.16 62.79 61.25 60.47 54.81 44.24 47.59 48.85 51.94 51.22 51.52 50.25 52.22 52.62 52.97 52.31 50.59 53.14 51.93 49.45 47.71 47.04 53.91 56.07 55.75 53.72 55.51 55.76 50.18 44.27 46.32 48.43 56.52 51.29 54.02 60.83 63.81 64.40 65.76 65.20 66.45 68.01
51.09 60.87 61.56 63.44 62.82 61.61 57.00 49.73 47.76 49.34 50.99 49.84 50.33 49.13 50.09 51.98 51.80 52.05 52.14 51.34 52.76 53.40 49.33 48.15 48.13 54.89 55.17 55.67 56.32 54.26 53.19 58.81 51.34 52.91 51.07 53.01 57.17 61.28 63.55 63.39 65.57 65.30 65.22 65.33 68.15
61.84 61.19 60.94 63.04 63.67 60.59 54.77 45.63 49.57 52.31 52.83 52.06 47.09 50.25 48.05 49.48 49.17 50.28 50.09 53.79 52.40 53.52 55.28 52.35 47.86 53.17 53.87 55.23 54.99 53.72 57.14 51.91 53.84 45.88 43.25 49.85 50.66 53.38 59.56 62.32 64.76 65.70 63.88 66.12 67.66
60.83 58.34 61.60 63.74 62.81 57.63 51.52 49.55 50.59 52.74 53.57 51.41 49.45 48.68 49.60 49.49 50.26 50.57 50.34 52.63 53.04 53.37 54.58 53.34 51.11 50.86 52.74 51.57 51.03 51.40 51.19 53.65 53.96 52.31 46.89 45.73 50.31 61.26 61.20 62.55 63.33 65.68 67.37 66.40 67.68
60.97 55.66 61.69 63.08 55.14 55.25 51.16 51.58 49.45 51.02 53.68 52.26 52.27 51.60 50.09 50.39 50.08 49.66 50.00 51.84 55.02 55.01 51.39 53.57 51.68 48.03 50.32 53.90 54.44 53.59 52.01 52.23 48.70 49.54 51.64 49.58 49.26 60.28 64.37 64.83 65.73 66.26 67.70 68.90 68.66
59.40 56.41 61.33 60.88 51.86 51.25 51.99 50.82 51.38 50.97 51.04 50.96 51.25 52.24 52.50 50.94 48.61 51.31 51.96 54.73 54.74 54.01 53.26 54.31 50.11 47.17 47.75 51.63 53.08 50.67 52.39 52.88 52.62 52.35 49.85 47.82 52.10 63.73 65.33 65.65 66.79 66.78 68.10 69.10 68.84
58.91 53.21 56.46 57.15 56.43 53.69 50.75 50.05 49.33 51.15 50.71 51.47 51.18 52.78 51.52 50.83 52.40 50.79 50.64 53.39 53.92 54.94 56.40 56.15 51.00 49.83 44.85 48.04 52.02 50.52 50.88 52.84 51.77 48.60 49.54 50.13 56.48 61.50 63.67 63.80 65.92 67.34 67.83 69.31 70.04
58.82 55.13 55.76 53.37 52.31 53.20 52.27 50.75 48.15 48.21 51.31 51.90 51.60 51.77 51.12 49.26 50.07 49.40 51.36 53.17 53.66 53.92 54.47 54.01 49.60 50.56 50.56 51.57 53.30 52.02 50.87 51.01 51.03 52.06 50.05 51.84 52.76 59.64 64.12 64.96 65.71 66.71 67.41 68.47 68.81
58.24 56.03 55.18 56.15 52.53 51.92 47.97 49.59 47.60 48.49 48.28 48.69 50.83 50.86 52.26 50.98 51.99 49.08 51.63 52.19 51.46 54.04 53.52 54.34 49.54 51.25 49.68 50.52 51.18 50.68 51.98 51.95 51.66 51.81 52.21 52.95 52.90 61.48 65.65 67.31 66.07 65.11 65.62 65.93 66.15
62.87 62.15 58.70 51.05 52.38 51.09 51.34 50.13 48.84 48.55 49.33 49.43 50.93 52.33 50.88 52.65 54.35 54.92 54.47 54.28 54.57 53.24 51.88 52.34 51.02 48.71 47.10 50.35 49.65 47.46 50.65 51.79 52.74 53.69 52.99 51.55 57.72 60.76 64.06 64.39 64.20 63.18 64.18 64.08 65.72

GFSSW_sfc_wetblb_114.txt.gz
Wetbulb
58.20 58.34 58.09 57.73 57.56 57.41 57.49 57.88 57.84 57.77 58.05 58.18 57.98 57.85 57.98 58.24 58.10 58.47 54.41 61.27 63.58 68.41 68.43 64.18 64.14 66.66 68.30 68.09 69.75 69.94 62.91 59.31 59.61 58.66 59.65 66.02 65.39 67.53 68.96 66.46 66.27 67.56 66.49 68.38 70.57
58.51 58.22 57.75 57.41 57.03 56.82 57.01 57.33 57.58 58.01 57.90 57.86 57.75 57.77 57.70 57.79 57.55 56.90 64.51 68.48 67.96 68.16 61.60 63.51 63.36 65.85 63.94 65.87 67.84 65.30 61.90 61.35 64.60 64.37 62.25 65.97 65.19 66.65 66.01 65.52 65.30 65.71 68.45 69.12 69.94
57.90 57.68 57.53 57.07 57.09 57.08 56.78 56.78 56.70 56.80 57.20 57.52 57.47 57.32 57.70 57.94 57.86 58.27 71.61 68.85 67.52 66.03 61.50 64.94 64.00 63.01 62.65 65.75 66.93 64.85 61.24 64.64 65.40 66.28 65.65 65.60 65.64 67.44 65.27 63.03 65.39 65.33 66.47 68.29 68.20
57.61 57.57 57.55 57.21 57.21 57.05 56.95 56.86 56.88 56.69 56.67 56.60 56.79 57.22 57.38 57.18 51.54 61.42 68.65 68.25 68.43 57.36 60.13 62.42 61.37 60.07 61.59 61.39 66.42 62.69 65.04 65.79 65.87 66.25 65.11 64.57 67.30 65.84 65.85 66.12 67.96 68.45 68.23 68.07 67.05
57.61 57.47 57.43 57.30 57.03 57.01 56.87 57.06 56.97 56.98 56.50 56.68 56.63 57.20 57.53 56.38 56.67 65.51 69.07 68.89 60.49 54.91 59.18 61.09 59.35 59.17 59.27 62.14 64.02 63.47 64.73 66.28 66.25 66.28 65.28 65.53 65.21 65.85 64.56 68.14 68.96 69.22 68.40 66.87 66.96
57.34 57.37 57.39 57.07 57.02 56.94 56.89 56.58 56.47 56.93 57.10 57.07 57.41 57.11 55.69 53.61 60.34 64.93 64.26 63.61 54.92 55.00 59.69 61.92 59.89 60.74 59.38 61.03 62.76 65.10 65.54 65.23 65.01 64.88 64.55 63.96 63.81 65.55 65.70 67.78 67.74 67.64 67.16 66.77 66.71
57.53 57.23 57.09 57.05 57.08 56.78 56.64 56.26 55.90 56.23 57.02 57.34 57.58 57.72 56.75 56.44 60.45 60.50 62.61 59.59 56.33 56.20 59.97 62.39 61.89 59.88 60.05 62.23 66.43 66.40 62.79 63.02 62.85 62.99 63.17 64.44 59.68 62.29 65.95 67.09 66.42 66.40 66.54 66.57 66.84
56.89 57.04 56.87 56.88 56.92 56.71 56.13 55.72 55.58 56.02 56.99 57.32 57.29 57.77 56.22 60.46 61.81 62.83 64.54 57.26 57.91 59.95 62.56 62.71 62.39 59.14 58.00 64.67 64.51 62.94 61.50 57.24 61.22 62.49 62.98 62.09 56.36 63.36 65.94 65.87 65.00 65.57 65.65 65.94 66.91
57.12 56.75 56.64 56.41 56.44 56.15 55.58 55.52 56.54 57.69 58.02 58.15 57.67 57.48 55.79 57.81 55.79 62.24 63.36 58.72 58.78 58.94 61.06 61.65 59.87 56.91 57.70 57.50 58.67 61.15 55.29 56.17 57.94 61.98 61.57 60.24 57.99 62.59 66.46 65.02 64.15 64.95 64.95 64.98 66.36
57.38 57.08 56.72 56.03 55.43 55.25 55.23 55.55 58.50 56.88 58.63 60.53 59.98 55.87 58.83 54.40 58.32 60.98 62.71 61.66 57.68 57.96 58.03 57.44 55.99 53.94 55.53 57.45 52.48 54.57 57.03 56.65 56.40 60.19 60.96 58.72 58.68 60.60 63.24 64.78 63.79 64.55 64.39 65.70 66.75
57.35 57.28 56.66 56.14 55.43 54.37 54.57 59.73 58.62 57.79 59.60 56.84 56.71 56.22 56.38 58.85 60.69 57.84 60.56 59.77 57.38 56.14 52.67 55.06 51.45 49.52 54.12 59.92 58.86 57.85 56.82 55.54 57.75 60.65 58.11 55.80 56.17 59.24 62.55 63.42 63.98 64.02 63.78 65.59 66.56
57.11 56.98 56.48 55.93 54.89 54.29 55.05 58.07 57.68 58.36 53.94 59.72 56.78 56.59 57.92 59.48 54.89 56.92 57.87 54.07 52.98 50.26 53.07 51.59 48.53 53.06 56.55 59.38 57.95 58.33 57.65 55.58 58.74 59.65 57.49 55.89 56.16 59.16 60.77 62.28 64.39 64.09 64.98 65.66 65.81
56.86 56.75 55.85 55.28 54.45 54.26 58.49 59.20 61.81 61.05 54.56 54.71 56.36 55.54 55.65 58.32 54.88 55.03 55.49 53.94 51.09 49.84 51.13 50.32 51.26 53.99 54.64 56.90 56.76 57.67 57.23 56.31 55.80 57.72 57.86 55.68 53.42 55.06 58.21 61.48 63.35 65.08 65.91 66.20 66.34
56.58 56.04 55.06 53.62 53.37 60.95 58.89 61.37 61.92 61.86 51.29 51.48 53.45 55.49 56.70 56.22 54.28 58.28 57.61 55.15 52.82 48.71 50.31 51.28 54.65 52.88 52.63 56.08 58.48 54.93 60.66 57.81 57.11 53.69 50.38 56.40 47.27 53.55 55.98 58.17 60.93 63.31 65.43 65.20 64.61
55.39 54.74 53.92 52.89 56.39 56.49 59.70 61.43 62.11 59.95 40.57 52.69 53.95 59.71 57.86 54.23 55.46 55.40 57.66 55.30 50.66 50.51 50.39 49.20 51.56 51.84 51.06 53.71 59.49 54.52 60.02 59.05 56.80 54.41 53.38 53.39 50.17 53.13 55.51 54.53 58.86 62.27 64.34 66.08 67.47
54.78 54.41 53.69 56.71 57.17 58.89 61.32 61.86 60.13 50.15 40.94 49.66 53.76 53.24 52.41 54.92 54.68 55.50 54.54 56.56 55.15 52.02 51.46 51.46 55.30 53.96 53.56 57.54 58.87 59.26 59.16 56.29 54.44 53.23 48.31 52.60 51.78 50.79 53.35 55.44 58.43 62.95 64.62 65.82 65.77
53.73 52.98 53.16 58.87 60.17 62.68 62.29 58.98 48.73 44.73 51.22 49.20 50.60 52.26 52.33 52.00 52.64 53.35 51.45 50.43 50.26 46.49 47.10 50.00 52.35 54.98 56.01 53.90 58.99 57.03 55.57 49.83 46.67 48.11 47.67 54.67 52.54 53.13 57.76 60.71 60.51 60.94 63.73 66.02 65.75
52.08 50.96 56.61 59.25 63.07 63.01 60.32 54.46 44.83 48.54 48.67 51.22 51.08 52.78 49.35 52.43 52.14 52.14 50.79 48.92 52.47 51.28 48.78 46.50 46.18 52.97 55.77 54.94 54.92 54.33 53.90 50.37 43.33 44.96 47.58 53.96 49.51 53.31 59.97 62.46 63.09 63.67 64.11 66.70 66.99
51.19 60.17 61.47 63.23 61.55 61.94 56.49 48.42 48.25 49.67 50.96 50.86 50.27 48.78 49.91 51.84 52.36 51.56 51.25 50.43 51.72 53.07 48.47 48.12 46.90 54.48 55.67 56.41 56.32 53.47 51.57 56.39 52.76 50.02 48.83 48.79 52.29 58.46 60.96 60.66 61.56 62.60 64.22 65.15 65.70
58.96 62.04 61.02 61.63 63.05 60.61 54.63 46.66 49.42 51.80 52.37 51.92 48.19 50.60 48.22 49.60 49.13 50.40 51.24 53.62 52.76 54.24 54.71 52.16 48.14 52.55 54.36 55.19 55.16 54.27 56.04 50.51 53.33 44.66 42.55 47.53 49.62 51.04 57.36 59.00 62.64 62.76 64.13 65.71 66.33
59.39 58.22 61.03 61.50 62.08 57.29 51.12 49.66 50.06 52.02 53.15 51.09 50.15 49.02 50.07 49.29 50.36 49.92 50.79 53.22 54.43 53.57 54.53 53.13 50.92 50.29 53.46 51.33 50.36 50.70 50.27 51.90 52.62 52.28 45.46 44.29 50.71 58.43 58.32 56.88 63.00 63.36 65.03 65.61 65.30
59.99 54.87 60.52 62.61 55.18 55.70 51.76 51.39 49.56 51.19 53.86 52.22 51.82 51.39 50.90 51.20 50.56 50.41 49.93 52.92 55.14 54.43 51.31 53.39 50.91 47.86 49.97 53.66 54.69 53.14 51.38 50.86 47.42 48.56 51.26 50.58 50.41 59.05 60.34 62.25 64.39 64.68 65.57 67.33 67.63
57.13 58.73 60.04 60.98 51.75 52.15 52.30 50.90 51.74 51.40 51.00 50.72 51.68 52.04 53.13 50.77 48.75 51.65 51.85 54.89 54.44 53.12 52.61 54.41 50.20 45.29 47.67 51.13 53.89 50.80 51.74 52.20 51.39 51.24 49.74 46.26 50.55 61.16 61.72 62.84 65.15 65.48 66.54 67.01 68.00
58.29 53.82 56.16 56.95 56.15 53.68 51.29 50.63 49.79 51.95 50.34 51.07 51.02 53.02 51.95 50.66 52.17 49.94 51.31 53.96 53.77 54.12 58.44 57.52 51.30 48.97 44.19 48.39 52.10 51.03 52.47 50.86 50.48 47.23 48.08 48.93 54.32 57.41 59.81 63.90 65.17 66.84 67.77 66.14 65.76
57.76 55.41 56.70 51.60 53.06 52.81 52.97 52.11 48.52 48.58 51.64 51.71 52.01 51.39 51.18 50.12 50.95 50.13 52.32 52.56 53.89 56.33 53.52 52.73 48.19 50.20 50.03 51.72 51.72 51.44 51.82 52.48 49.43 51.12 48.45 50.48 55.56 58.90 62.31 64.59 66.38 67.96 68.78 66.34 67.74
57.24 57.52 59.07 54.03 54.05 52.31 49.01 49.66 48.22 49.20 48.85 49.16 49.07 51.92 51.76 50.63 52.05 50.25 52.32 52.61 51.82 54.31 54.05 53.80 48.63 50.26 48.23 50.92 52.00 49.66 51.87 52.63 51.82 50.89 51.24 51.95 52.58 61.03 63.34 57.68 57.54 67.00 68.11 67.71 67.40
61.87 62.08 58.74 53.44 52.29 50.79 51.22 51.20 49.74 49.40 50.53 49.40 50.06 51.36 52.24 53.29 54.31 55.01 55.39 54.22 54.79 53.72 50.14 49.96 50.86 49.49 46.09 49.85 49.31 46.69 50.86 51.29 52.80 53.00 53.34 50.59 58.01 60.55 57.16 54.77 55.84 64.01 67.06 66.29 66.54

GFSSW_sfc_wetblb_117.txt.gz
Wetbulb
58.30 58.17 57.79 57.73 57.52 57.45 57.51 57.68 57.88 58.28 58.45 58.47 58.51 58.38 58.49 58.78 58.32 56.73 52.49 57.51 60.65 67.37 68.96 61.05 59.27 59.82 62.61 62.57 69.33 69.76 58.74 57.55 57.74 57.69 60.32 64.80 64.30 66.31 68.00 64.17 64.82 66.03 65.93 67.88 68.61
57.93 57.87 57.70 57.96 57.72 57.79 57.54 57.34 57.22 57.32 57.89 58.04 58.12 58.10 57.99 58.52 54.79 53.73 62.10 69.35 69.68 69.72 55.26 59.07 57.88 59.74 58.95 61.89 65.43 63.98 57.67 59.82 62.77 61.70 62.25 64.51 64.85 65.63 63.83 63.70 63.36 64.21 67.67 67.90 69.49
57.91 57.55 57.92 57.98 57.78 57.76 57.44 57.40 57.35 57.35 57.02 57.25 57.25 57.50 57.69 57.28 53.64 57.08 70.74 68.94 69.22 66.54 54.68 59.55 62.32 62.20 58.44 61.30 65.00 64.26 59.94 64.79 64.31 63.83 64.55 64.17 63.96 65.55 62.95 61.41 62.99 62.41 64.53 67.31 67.71
57.92 58.01 57.89 57.92 57.79 57.60 57.64 57.71 57.51 57.33 57.22 57.18 57.06 57.19 57.92 54.75 48.60 60.18 70.97 70.83 69.89 56.56 53.04 54.99 58.34 56.41 55.48 57.51 65.38 61.98 65.23 65.78 66.17 65.87 64.82 63.71 65.77 63.12 64.56 63.81 66.47 65.75 66.10 65.70 63.99
58.20 57.69 57.76 57.64 57.72 57.60 57.60 57.53 57.27 57.27 57.50 57.56 57.68 57.72 55.08 51.64 52.94 62.98 70.02 68.40 60.21 53.33 51.15 54.84 56.03 55.90 54.02 60.03 63.76 62.41 64.79 65.67 66.48 65.29 64.57 65.19 63.71 64.13 65.30 66.87 67.50 66.77 66.62 64.56 64.02
57.82 57.89 57.62 57.52 57.57 57.73 57.53 57.23 56.90 56.68 57.12 57.81 57.96 57.81 51.91 47.31 61.65 64.19 63.53 62.41 58.49 52.47 51.55 55.48 57.76 58.19 55.92 58.06 61.77 64.77 64.50 64.34 64.91 64.02 64.00 61.97 63.27 64.02 65.29 67.05 66.48 65.84 64.79 64.30 64.19
57.36 57.35 57.43 57.50 57.50 57.57 57.30 56.96 56.60 56.64 56.69 57.70 57.89 56.96 52.42 52.53 60.06 61.88 61.91 59.72 57.86 50.37 51.53 57.39 59.93 56.64 56.42 58.65 66.00 65.11 61.67 62.38 62.62 63.29 62.71 62.54 59.40 60.95 65.31 66.96 65.16 64.80 63.84 65.36 64.41
57.82 57.72 57.30 57.15 57.09 56.84 56.67 56.23 56.28 56.83 57.04 57.57 57.56 54.50 50.18 60.94 60.04 59.03 59.06 57.17 56.91 51.70 52.94 58.53 60.86 57.31 53.92 64.52 64.00 61.71 60.59 55.80 61.09 62.42 62.50 62.20 55.02 62.67 64.96 65.06 63.31 64.21 64.39 64.97 65.65
57.92 57.59 57.47 57.05 56.66 56.01 55.37 55.62 56.82 58.43 58.60 58.17 53.96 51.18 52.24 61.23 54.49 57.08 58.86 54.38 52.22 53.22 54.06 59.36 58.55 53.64 53.75 49.65 55.55 57.16 52.56 55.02 56.42 62.03 61.04 60.01 57.33 61.97 64.68 64.56 62.38 62.93 63.23 64.12 64.58
57.68 57.49 57.39 56.91 56.42 55.59 54.68 54.96 57.54 57.90 58.02 58.64 57.49 51.05 56.36 55.39 54.21 55.73 60.09 59.06 52.38 53.04 53.60 54.31 51.52 47.92 47.56 48.02 46.56 51.32 53.31 55.46 55.36 58.96 60.07 57.77 56.77 59.29 62.39 63.42 61.75 62.19 62.96 62.28 64.24
57.45 57.21 57.06 56.78 56.19 54.90 53.47 53.99 53.67 52.64 55.46 54.07 53.66 54.93 55.66 57.85 58.80 56.06 59.11 57.98 55.54 52.40 47.37 51.60 45.12 43.01 47.03 50.64 52.24 57.87 56.68 54.94 57.38 60.14 57.74 57.16 56.24 57.51 60.00 62.30 62.39 62.49 61.70 62.51 63.99
57.05 56.80 56.61 56.15 55.38 54.72 52.05 52.03 55.86 54.62 49.70 57.89 58.60 55.97 56.53 56.15 54.21 55.07 57.56 53.05 50.95 46.78 50.35 47.02 43.84 49.72 52.03 57.72 57.27 56.11 55.27 54.37 57.62 58.89 57.76 55.87 55.10 57.86 60.08 60.58 62.77 63.01 62.37 63.11 63.82
56.80 55.97 55.61 55.24 54.23 52.18 53.28 55.36 59.03 58.17 49.33 55.05 57.14 53.78 53.45 54.43 52.81 52.65 52.27 51.93 48.71 46.74 47.89 44.81 48.01 52.30 50.80 52.67 55.66 54.75 54.22 54.66 54.92 57.52 57.57 54.78 53.28 55.73 59.67 60.20 61.95 63.42 64.87 64.65 64.73
56.28 55.02 54.19 53.06 52.06 56.16 54.89 60.22 60.05 58.37 45.69 50.54 50.01 53.55 54.54 54.21 52.11 56.81 54.18 52.21 49.20 45.71 47.37 46.67 51.28 50.74 49.16 48.56 54.10 52.43 58.46 57.69 56.51 53.92 49.48 55.28 46.45 53.42 56.09 57.22 59.22 61.29 63.11 62.62 63.59
56.17 54.66 53.74 53.22 51.45 52.41 55.87 58.55 58.42 55.46 37.98 52.85 51.77 57.70 54.55 50.31 53.40 52.85 55.97 52.45 48.43 47.72 45.29 44.52 47.69 48.07 48.10 49.53 57.82 54.79 58.41 57.10 55.31 52.22 52.17 51.61 49.25 51.94 56.28 54.57 57.01 59.86 63.00 64.41 64.08
55.57 54.21 53.53 53.24 52.19 55.04 57.51 57.69 56.76 44.77 40.12 49.34 52.68 51.52 50.17 52.02 53.25 53.83 52.41 52.94 52.81 48.91 48.53 47.04 51.19 50.04 49.88 53.95 58.58 60.51 57.76 55.33 54.56 53.08 46.34 50.69 50.37 50.10 52.52 54.25 57.01 59.76 62.30 64.35 64.20
54.01 53.08 51.96 56.26 57.02 60.59 59.84 55.32 44.90 41.37 51.83 48.52 49.02 50.30 49.98 50.87 51.16 50.50 49.09 46.88 43.86 39.94 40.91 46.24 47.29 50.82 52.36 53.71 57.74 56.49 51.76 44.81 42.89 45.57 45.65 52.56 50.48 52.14 55.77 57.69 58.54 59.54 61.10 64.07 64.96
52.33 51.58 52.35 56.17 58.02 57.82 57.55 49.89 42.15 48.85 46.74 49.03 49.20 51.21 49.10 51.34 50.84 50.83 47.47 44.61 48.22 47.28 42.34 40.52 39.79 49.03 52.85 49.88 52.80 53.98 51.54 45.18 39.63 42.93 46.12 51.12 48.36 51.84 57.84 59.69 60.66 61.72 61.85 64.28 64.55
51.45 55.37 56.31 59.48 57.78 56.86 52.20 44.12 45.91 47.17 49.47 49.14 50.60 48.16 47.75 50.72 50.12 48.83 47.19 45.93 47.96 47.89 42.94 41.23 43.29 51.45 53.18 53.18 53.37 50.45 45.60 49.70 46.34 48.40 45.72 49.03 51.66 55.13 57.92 59.50 59.01 60.05 62.29 62.92 64.56
53.18 57.19 59.05 63.34 60.73 56.85 50.11 45.55 46.11 49.53 50.11 50.51 46.17 49.07 44.77 47.83 48.28 47.86 47.93 52.19 51.23 52.92 50.20 46.81 41.74 49.06 52.36 52.90 52.27 49.72 52.12 45.72 47.17 41.24 40.16 47.00 46.37 48.13 53.35 56.94 59.75 59.47 61.08 63.25 64.13
56.78 53.86 60.87 62.32 60.05 53.95 46.65 48.69 50.24 50.20 51.01 48.93 47.50 48.21 47.80 47.90 48.21 47.93 49.01 52.84 53.26 52.19 50.51 46.72 44.35 45.90 49.64 46.19 45.65 45.49 43.58 44.65 47.45 47.33 42.31 41.46 46.79 55.58 55.56 58.60 59.19 60.83 61.63 62.89 64.53
57.94 51.83 61.75 58.72 51.49 52.38 49.11 49.11 49.02 48.83 52.32 50.70 50.23 49.69 49.27 49.94 48.93 47.96 48.63 50.82 53.89 51.81 48.04 49.28 43.91 40.33 44.32 51.01 51.91 48.78 44.57 44.33 38.47 38.63 45.63 44.89 46.32 59.21 58.24 60.60 60.97 61.45 63.11 63.41 65.20
53.67 54.66 61.56 57.05 48.21 49.98 50.63 49.95 50.20 49.68 48.46 48.89 48.83 50.11 50.60 47.03 46.00 49.87 51.53 54.93 54.39 51.86 46.67 48.35 44.07 38.27 42.74 47.93 51.70 48.35 47.84 46.96 44.04 41.60 39.54 40.63 45.84 58.81 60.16 58.41 59.27 61.15 63.58 64.03 63.94
54.26 51.59 55.32 55.48 55.09 50.86 50.59 50.05 48.26 51.21 48.44 49.79 49.94 50.35 49.86 48.15 49.22 48.62 50.62 53.20 53.57 52.52 60.24 52.76 43.54 40.99 37.27 40.91 47.01 46.50 49.18 50.00 45.46 37.70 40.05 41.75 50.43 54.05 56.01 57.78 59.90 62.21 63.96 64.57 64.16
56.14 52.77 56.09 51.52 51.32 51.09 50.45 50.15 48.87 48.32 50.87 51.02 51.82 50.88 48.76 45.19 48.41 48.58 51.77 50.86 53.50 56.10 52.19 46.60 40.74 43.51 45.49 48.03 48.44 48.69 48.79 49.54 47.04 49.57 42.71 46.41 50.71 54.74 57.34 59.28 59.23 63.69 63.38 63.67 64.66
53.17 54.44 56.91 54.84 53.42 52.24 47.54 48.69 48.29 47.69 47.53 46.24 47.44 51.19 50.02 47.15 48.14 46.10 48.85 47.39 49.93 51.58 48.90 48.63 43.05 45.43 44.66 49.32 49.95 47.88 50.53 50.60 52.51 51.07 50.13 51.66 54.09 58.41 60.10 58.78 58.75 58.92 64.49 63.02 64.75
60.45 60.90 57.76 53.52 52.77 49.06 48.91 50.54 48.56 49.53 50.77 50.73 48.53 47.89 49.96 51.50 52.65 50.30 49.87 49.75 49.41 47.41 47.22 45.75 44.56 43.10 38.97 47.36 47.15 44.63 47.82 49.17 50.97 52.59 50.82 51.06 54.26 55.30 54.85 56.69 57.00 58.68 64.52 64.68 63.81

GFSSW_sfc_wetblb_120.txt.gz
Wetbulb
58.13 58.09 57.88 57.99 58.13 58.12 57.94 57.79 57.73 57.79 57.88 58.19 58.06 58.39 58.36 58.43 58.33 56.30 50.64 56.12 58.89 65.96 69.38 57.62 60.74 57.77 56.42 58.46 63.13 69.48 58.75 55.76 55.65 57.22 59.41 65.29 62.03 65.93 65.70 63.32 64.96 66.13 65.78 67.00 69.50
58.28 57.90 58.08 57.98 58.34 58.22 58.01 57.88 57.82 57.80 57.68 57.34 57.54 57.77 57.85 58.37 54.20 52.01 59.48 66.36 68.08 70.48 55.36 52.22 58.11 55.90 54.38 57.73 62.25 62.49 56.47 58.09 60.06 61.05 61.46 64.55 65.16 63.38 62.49 61.89 62.84 64.31 66.48 68.34 68.82
58.13 58.06 58.22 58.16 58.45 58.36 58.17 57.98 58.02 57.66 57.56 57.52 57.43 57.26 57.43 57.09 51.78 54.67 67.76 67.80 70.09 69.05 54.74 53.24 55.44 58.17 55.21 56.84 61.75 63.55 58.79 64.06 61.28 62.93 64.81 62.98 63.56 65.61 62.49 60.00 63.53 62.78 64.57 67.19 67.77
57.69 57.88 58.05 58.35 58.29 58.24 58.03 58.11 57.85 57.59 57.44 57.45 57.75 58.03 58.16 54.16 46.92 59.06 69.54 69.65 71.67 58.11 51.78 51.35 53.25 52.65 53.13 53.64 60.92 62.11 65.08 65.75 64.91 65.42 63.94 63.58 64.82 63.43 63.71 63.41 66.34 66.00 67.08 67.28 66.46
57.87 57.70 58.05 57.99 57.82 57.94 58.00 57.75 57.52 57.28 57.00 57.27 58.05 58.17 53.34 48.93 50.85 59.47 71.19 70.98 63.07 52.29 49.33 49.37 52.18 53.36 51.45 56.23 62.74 62.49 63.87 65.38 65.63 64.76 64.04 63.81 62.68 63.63 63.78 66.70 67.47 66.49 66.94 66.02 65.92
58.16 57.62 57.61 57.57 57.74 57.91 57.84 57.54 57.19 57.08 57.21 57.20 58.17 58.21 49.99 43.77 58.79 62.98 60.75 57.87 55.14 50.02 47.72 50.18 53.64 56.16 53.85 53.98 60.31 64.30 63.43 63.38 64.12 62.71 62.42 61.00 61.42 63.29 64.88 66.80 65.10 65.29 63.48 64.85 66.27
57.99 58.03 57.91 57.67 57.66 57.48 56.92 56.96 56.48 56.92 57.00 57.17 58.04 56.64 50.18 49.70 60.49 63.23 59.93 57.55 56.15 51.46 47.49 51.25 53.58 53.28 54.00 56.16 65.19 64.44 60.70 62.02 62.53 62.59 60.47 62.44 58.89 59.83 65.29 65.36 64.40 62.92 62.84 62.89 66.33
57.90 57.71 57.59 57.57 57.41 57.06 56.61 55.74 55.80 57.06 57.61 57.50 58.26 53.08 46.20 58.21 58.22 56.93 59.06 57.61 57.39 48.75 48.83 51.88 55.33 53.61 53.03 63.05 62.72 61.12 60.07 54.77 60.57 62.19 62.38 61.53 54.59 61.91 64.71 63.68 62.69 62.19 62.75 63.80 66.79
57.74 57.65 57.40 57.29 57.10 56.57 55.96 55.48 56.16 57.93 59.18 58.06 51.70 49.40 49.57 62.61 54.87 55.32 57.21 54.03 53.48 51.50 49.04 53.25 52.24 51.53 51.63 53.06 51.91 55.02 50.52 55.08 56.75 62.01 60.77 59.71 56.24 60.42 64.05 64.49 61.09 61.23 61.57 64.37 66.17
57.28 57.28 57.12 56.99 56.73 55.78 54.90 55.57 55.59 56.59 57.87 58.07 56.68 48.44 53.00 54.84 52.94 54.02 55.18 55.52 50.02 48.81 50.24 49.72 48.68 46.26 44.98 43.27 39.23 50.42 52.12 54.64 54.24 58.61 59.62 57.83 57.80 59.54 60.34 63.38 62.63 61.09 61.69 63.70 64.19
57.28 56.71 56.33 56.21 55.88 54.74 51.25 50.13 50.07 49.23 51.60 51.36 51.36 52.63 55.31 55.89 56.46 54.18 56.53 55.94 50.17 48.38 43.87 47.83 44.04 41.07 45.39 46.31 51.92 56.46 54.96 54.20 56.58 59.54 56.84 56.48 57.27 58.57 59.71 61.11 61.98 62.30 60.08 62.83 63.38
56.81 56.11 54.77 54.44 54.53 53.57 50.92 47.25 51.12 53.65 47.04 54.72 56.60 55.91 57.95 55.39 52.58 54.02 55.55 51.54 49.27 45.01 46.70 45.31 42.37 47.26 49.03 50.18 53.41 56.31 54.81 54.30 57.11 58.74 57.59 56.30 55.60 58.45 59.33 60.54 61.96 62.46 63.03 61.77 61.78
56.45 55.53 54.59 54.00 53.92 50.78 49.03 52.18 56.08 54.27 45.53 51.42 54.74 54.84 53.38 51.62 51.62 51.32 53.23 50.92 47.46 44.73 45.74 43.12 46.55 51.13 50.30 48.06 53.47 54.50 53.47 53.65 54.33 57.10 57.16 55.48 52.92 55.18 59.00 61.05 61.69 62.98 64.14 62.96 63.10
56.27 55.87 54.18 53.32 50.10 51.42 50.34 54.33 54.75 54.52 41.60 48.00 47.17 52.00 52.06 51.71 49.16 55.34 52.38 50.07 47.71 44.69 45.12 44.36 49.62 48.87 49.15 47.81 54.18 48.51 58.76 57.24 55.93 53.55 48.92 55.17 46.23 52.74 56.00 57.79 59.86 61.32 62.37 63.38 63.22
56.15 55.46 53.42 53.03 47.47 48.43 51.73 51.15 53.87 51.26 34.53 52.24 48.80 55.83 51.75 48.05 49.14 49.83 52.97 49.66 45.74 45.80 42.90 42.91 45.30 46.17 46.13 47.80 56.89 53.91 58.82 57.14 56.13 52.05 51.69 51.28 48.35 50.26 55.93 54.81 57.37 60.33 62.38 63.55 64.26
55.52 54.79 53.01 50.53 49.28 50.93 53.70 53.86 51.40 42.18 37.48 48.67 50.68 49.52 47.48 48.71 50.20 52.18 50.98 51.55 50.98 46.99 45.73 45.36 48.02 46.53 48.75 55.92 57.93 59.10 55.73 54.57 54.45 51.36 45.01 50.24 49.52 48.85 51.76 54.72 57.56 60.31 62.13 63.33 63.83
54.23 53.01 51.47 53.35 51.54 55.16 53.26 50.87 41.60 37.84 49.59 45.91 45.12 46.71 46.22 48.23 49.27 48.81 47.99 44.61 42.73 38.94 38.17 44.09 45.24 52.21 60.18 55.41 57.69 55.77 50.54 44.80 44.13 43.96 43.74 51.99 50.11 50.86 56.39 57.92 58.91 59.87 61.40 62.84 63.79
52.42 51.09 50.13 52.79 51.79 53.42 51.39 46.19 37.15 46.84 42.62 48.85 48.58 48.99 46.48 49.75 48.95 48.30 45.29 42.96 46.52 43.64 40.24 38.73 38.12 47.62 55.90 54.92 51.33 51.96 47.81 42.96 37.96 41.88 45.04 51.44 46.89 49.65 57.83 57.97 60.24 61.78 62.61 63.38 64.29
51.01 48.19 48.89 52.49 53.08 52.14 48.01 39.28 41.22 41.61 45.55 46.24 47.43 43.94 46.18 48.09 48.80 47.30 43.83 43.55 46.82 45.80 40.99 38.03 41.38 49.81 51.39 54.42 54.99 49.98 46.96 50.83 44.21 45.74 44.54 47.87 51.33 55.77 56.77 58.17 58.61 59.96 61.52 61.97 64.46
49.54 50.34 51.30 56.38 55.80 51.00 45.32 41.02 43.99 45.55 46.60 47.02 41.75 45.12 41.84 45.92 45.55 46.48 45.55 49.55 48.65 50.04 45.92 42.85 39.70 45.48 50.14 52.10 54.93 49.79 51.09 43.85 44.56 38.73 38.90 45.74 46.41 47.69 52.82 55.86 56.91 58.43 59.65 60.84 63.45
51.28 48.13 53.64 57.15 54.72 47.92 41.15 42.50 47.82 47.18 48.82 45.26 43.44 42.93 43.65 45.28 47.40 47.29 47.34 51.15 51.65 50.08 48.64 43.56 41.44 43.67 46.28 43.80 44.53 43.97 42.13 41.36 43.73 43.40 40.88 41.61 45.39 53.98 53.95 57.32 57.21 58.26 60.34 60.16 62.16
49.51 44.70 55.31 53.64 45.86 43.51 41.53 46.69 48.70 45.73 47.47 46.47 46.81 45.88 44.93 47.39 45.36 45.45 46.71 49.71 53.58 49.85 44.93 45.82 41.52 38.00 42.28 47.67 50.43 44.79 42.08 39.61 36.49 35.64 41.88 43.53 44.98 55.90 55.74 59.25 59.82 59.81 60.18 61.37 63.29
45.18 47.92 54.64 52.78 41.80 41.23 45.65 48.64 47.25 45.24 44.32 44.84 45.90 46.05 46.15 43.25 42.09 46.81 48.55 54.34 53.35 48.83 44.08 45.62 41.04 36.37 39.56 44.62 47.90 46.52 46.55 43.91 39.70 36.35 35.28 37.67 41.21 56.77 57.07 58.59 60.40 60.46 62.10 61.98 63.34
47.17 45.23 49.19 47.78 46.23 45.66 43.59 45.45 43.60 48.95 46.45 46.33 45.71 46.63 45.74 45.33 45.32 45.19 48.18 52.13 53.38 51.38 59.35 50.40 38.76 40.61 35.64 40.69 45.16 44.05 47.03 46.90 42.52 40.31 40.41 39.09 42.71 52.98 55.79 57.27 58.66 59.97 62.35 63.12 62.55
47.97 46.23 47.37 45.81 48.35 47.98 43.60 45.27 46.18 44.51 46.90 45.72 46.64 47.58 43.94 41.07 43.67 45.15 47.85 48.46 52.05 55.68 50.35 44.58 38.41 41.21 42.43 47.82 48.90 48.30 48.75 49.32 46.37 45.36 44.27 48.21 49.19 52.27 55.87 57.75 59.48 61.42 63.23 62.91 62.92
44.55 47.94 50.90 49.16 48.25 44.58 43.79 41.17 43.95 44.04 43.63 42.43 42.22 46.55 47.55 43.05 42.66 41.70 43.07 43.11 44.36 49.02 46.15 44.30 38.69 41.41 41.46 47.41 47.90 45.94 49.18 50.56 50.01 50.46 49.56 51.84 50.73 55.29 57.26 58.49 59.43 61.73 62.61 63.43 63.23
51.19 53.28 51.35 48.19 47.47 44.48 42.85 44.40 45.32 46.89 47.53 46.73 45.55 43.64 45.54 46.23 47.80 46.65 46.78 44.49 43.56 43.65 43.54 42.08 40.35 39.26 36.02 44.55 44.33 41.27 45.16 49.15 49.94 53.22 51.98 50.12 53.41 54.16 52.29 55.08 56.09 59.29 60.33 62.16 63.25

GFSSW_sfc_wetblb_123.txt.gz
Wetbulb
58.28 58.14 58.05 57.68 57.83 58.05 57.94 57.60 57.46 57.25 57.27 57.60 57.62 57.53 57.63 57.95 57.62 55.74 48.68 54.78 56.86 65.66 68.47 55.26 61.80 58.17 55.10 55.20 63.34 67.45 58.33 55.36 55.77 56.84 59.22 64.42 62.43 64.51 66.12 63.92 64.52 66.23 64.72 66.49 68.27
57.80 57.94 57.74 57.94 57.70 57.91 57.79 57.55 57.41 57.47 57.14 57.07 57.47 57.41 57.41 57.80 53.57 50.91 57.79 63.00 66.17 68.51 54.84 50.92 56.43 55.23 52.74 54.48 58.00 62.22 55.56 57.39 60.81 61.28 60.89 63.91 63.72 62.07 62.48 61.91 62.73 63.93 66.13 67.74 67.44
57.85 57.59 58.04 57.67 57.74 57.68 57.64 57.58 57.25 57.03 57.21 56.75 57.02 57.61 57.87 56.99 50.54 51.05 66.36 66.77 68.16 68.78 54.48 52.09 52.68 55.98 52.01 54.77 59.32 62.78 58.66 62.34 60.47 62.29 64.17 63.24 62.95 63.29 61.54 59.74 62.73 62.27 64.37 66.10 66.86
58.06 57.63 57.46 57.51 57.56 57.45 57.44 57.49 57.33 57.08 56.58 56.44 57.11 58.27 58.40 53.46 44.21 57.36 69.67 68.64 69.72 63.42 50.87 50.14 51.12 51.64 51.93 52.03 56.84 60.64 65.00 63.35 62.66 63.02 63.52 62.30 64.25 62.85 63.31 63.24 65.86 65.83 66.31 66.31 65.86
58.16 58.12 57.95 57.76 57.73 57.61 57.63 57.20 57.45 56.86 56.56 56.58 57.74 58.32 52.21 46.47 48.46 57.13 72.22 68.22 65.65 52.47 49.60 48.52 51.18 52.27 50.43 52.85 59.78 60.47 63.88 64.59 64.72 63.33 63.85 64.25 62.83 62.93 62.78 66.91 66.40 66.69 66.63 65.84 66.28
58.05 57.85 57.77 57.81 57.82 57.89 57.69 57.05 56.53 56.11 56.28 57.02 57.54 58.16 48.67 41.04 54.00 61.74 65.73 62.90 56.46 48.77 46.93 48.93 52.06 54.35 52.52 52.37 58.59 63.61 63.11 62.75 62.50 62.61 62.98 61.11 60.78 63.22 64.72 67.22 65.43 65.57 65.21 65.77 66.26
57.91 57.83 57.59 57.47 57.57 57.66 57.11 56.83 56.37 56.14 56.47 56.84 57.70 56.38 48.81 46.69 59.32 59.44 57.62 54.93 52.14 48.05 45.89 47.90 52.36 51.54 52.46 53.59 64.28 62.98 59.82 61.15 61.93 61.43 60.59 61.75 57.18 59.28 64.57 66.07 64.24 64.71 64.90 65.20 65.69
57.38 57.36 57.34 57.28 57.32 57.01 56.76 56.17 56.20 56.59 57.15 57.81 58.14 52.39 45.44 55.37 57.19 56.68 57.90 56.70 55.41 50.34 48.13 50.69 53.29 52.17 51.15 60.82 60.59 59.52 58.62 54.26 60.23 61.44 61.29 61.41 53.81 60.66 64.61 64.26 62.37 63.84 63.98 64.40 65.59
57.32 57.15 57.03 56.41 56.47 56.25 55.66 55.40 56.47 57.21 58.91 58.13 50.76 48.36 48.61 61.02 56.45 57.49 57.26 54.68 53.40 50.61 48.15 51.52 51.25 48.42 50.47 53.14 50.04 53.36 49.03 54.38 56.50 60.67 59.29 59.63 56.35 60.02 63.41 63.32 62.02 61.61 61.87 63.28 65.75
57.22 57.09 55.56 54.61 54.10 54.22 53.74 54.75 57.11 56.56 57.69 57.82 56.35 47.43 51.55 53.18 54.70 52.59 55.30 53.79 49.93 48.64 48.15 46.73 46.27 44.45 43.24 41.71 37.45 47.89 51.61 54.83 53.98 56.81 57.19 56.44 56.99 59.54 60.88 62.66 60.71 60.80 61.91 62.94 64.35
57.13 56.21 54.96 54.51 53.87 53.20 51.29 48.66 47.43 47.21 52.10 48.78 48.74 51.27 53.87 55.76 54.49 51.85 53.38 52.63 49.02 46.76 41.89 45.82 42.98 40.72 44.54 45.12 49.58 54.32 54.15 53.77 56.08 57.89 55.60 55.47 56.61 58.28 59.97 61.14 61.79 62.36 61.34 63.01 64.19
56.73 56.33 55.10 54.30 53.44 53.23 50.80 45.57 48.27 51.36 46.00 52.79 54.55 54.04 56.34 55.38 51.69 52.20 55.55 50.65 46.45 42.45 44.73 42.87 40.78 46.15 47.60 47.99 53.09 55.00 54.14 53.80 56.70 58.22 56.94 55.84 55.44 58.52 60.09 59.66 61.28 61.67 61.80 62.74 64.14
55.94 56.20 54.65 53.91 53.51 50.40 47.73 50.21 52.70 52.26 44.45 49.55 52.93 53.33 53.27 52.30 49.98 50.09 52.09 50.67 45.91 43.72 43.63 41.18 44.96 49.44 48.52 47.00 53.49 51.98 52.26 53.42 53.79 56.71 57.25 55.56 52.36 55.08 58.70 60.55 61.84 62.17 62.81 62.36 63.32
54.91 55.44 54.51 52.88 48.98 49.29 48.87 51.11 51.57 51.77 40.90 46.64 47.10 52.26 51.11 50.99 47.70 54.34 52.98 49.54 46.23 44.50 44.09 42.85 48.06 48.23 46.38 46.14 51.47 44.84 57.13 56.39 55.22 53.30 49.05 55.21 45.51 52.61 55.76 57.53 59.56 60.38 61.60 61.08 63.56
55.30 54.67 53.36 52.64 46.36 47.51 49.25 50.63 51.48 50.04 33.16 50.06 48.30 53.60 48.92 47.42 47.81 49.69 51.00 48.82 44.23 43.87 42.72 42.16 43.49 44.43 44.20 46.52 53.18 52.95 57.83 56.43 55.23 51.85 51.77 50.91 48.52 50.18 55.28 54.01 57.20 59.34 61.47 62.05 64.34
55.14 53.98 53.30 49.68 49.34 49.60 52.80 51.62 50.39 41.64 35.57 47.53 48.78 47.73 46.23 47.15 48.27 49.61 49.23 49.51 49.32 45.52 44.41 44.82 47.24 45.60 46.24 52.99 55.95 58.42 54.22 54.13 53.61 50.66 42.10 50.07 48.96 49.18 51.79 54.05 56.95 59.75 61.96 62.65 63.74
53.97 52.72 51.78 52.40 50.31 52.14 51.33 49.89 41.53 36.38 47.51 44.88 44.03 45.14 44.33 45.59 47.03 46.63 46.52 44.14 41.35 38.07 39.02 44.48 44.18 55.70 58.53 54.67 56.35 53.67 47.16 42.22 41.67 42.36 40.31 50.26 49.39 50.29 55.39 57.43 58.43 59.34 61.11 63.12 63.79
52.12 50.56 50.02 51.84 49.89 51.15 50.33 46.29 37.26 44.97 40.89 45.69 47.13 46.32 44.00 46.78 46.30 46.43 43.60 41.62 45.60 43.66 40.26 39.26 38.12 53.63 57.26 53.99 52.01 51.03 46.92 43.20 37.19 39.59 43.68 50.74 46.79 48.59 56.13 59.81 59.98 60.83 61.62 63.44 63.80
51.00 47.94 47.63 50.68 51.53 49.23 47.58 38.95 40.05 41.02 43.97 44.59 45.43 43.29 43.38 46.35 46.00 44.90 42.81 43.28 44.78 43.89 38.61 39.57 41.67 47.77 56.56 55.52 54.97 50.54 45.27 48.03 45.06 44.31 41.94 47.02 51.17 54.08 56.33 57.26 58.05 59.05 60.92 62.30 63.66
48.55 49.26 48.99 53.45 52.95 50.12 44.07 40.10 42.50 46.50 45.00 45.48 39.79 42.96 39.47 43.18 43.70 44.91 44.70 49.03 47.46 48.34 43.58 41.70 39.16 44.85 49.46 55.56 54.49 50.42 52.22 43.16 44.56 38.79 36.33 44.68 46.33 46.44 52.04 53.49 56.59 57.98 60.29 61.88 63.47
49.62 47.54 51.96 53.99 52.08 46.94 40.16 40.10 46.99 50.19 47.05 44.07 41.47 41.13 41.41 42.65 44.27 43.33 46.48 49.82 50.92 49.30 46.95 42.00 40.57 42.24 45.02 42.13 47.13 42.61 40.91 40.44 42.93 42.60 38.87 40.24 43.34 51.87 52.47 55.39 56.20 58.07 60.72 61.93 62.90
45.92 42.52 52.79 51.66 46.38 39.99 39.70 44.34 47.98 44.51 45.84 44.87 45.08 43.56 42.33 45.57 43.64 46.11 45.88 48.23 52.65 49.21 44.91 45.37 39.45 37.63 41.00 45.97 49.06 46.32 41.71 38.56 36.37 34.90 40.08 42.86 42.55 55.57 54.51 57.41 57.76 57.95 60.72 62.91 63.79
42.41 44.42 53.01 50.91 40.52 39.29 43.06 46.71 48.20 44.12 43.16 43.54 43.53 44.67 45.06 42.08 40.01 44.99 46.90 52.44 51.92 48.95 44.09 44.44 39.93 37.22 39.60 43.76 48.15 44.75 44.86 39.94 37.01 35.30 35.58 37.00 39.75 56.11 57.20 57.45 57.49 57.77 60.12 61.48 62.73
44.54 42.16 46.67 46.60 43.58 43.10 42.01 44.41 42.93 46.67 45.31 45.13 45.60 45.64 44.20 44.04 43.77 43.96 45.97 50.74 52.65 52.90 56.09 48.99 38.57 40.95 34.31 37.70 42.39 44.65 47.68 47.47 41.22 39.23 37.95 38.06 47.07 52.00 55.54 56.60 58.42 59.82 60.46 60.25 60.87
45.18 43.09 44.95 43.83 46.30 46.63 43.21 43.95 43.84 42.09 44.29 44.11 43.50 47.20 43.08 39.31 41.07 41.62 44.45 46.49 50.41 53.38 49.35 43.97 38.62 42.38 40.56 46.92 47.99 47.69 47.50 48.51 45.19 43.26 41.86 47.79 47.55 50.65 53.86 57.21 60.10 61.66 63.13 62.16 61.04
40.84 45.85 49.46 47.13 47.23 45.01 41.11 41.66 42.65 42.51 41.91 40.88 43.28 48.17 46.23 41.52 41.27 39.68 42.06 40.31 41.41 47.21 44.43 42.53 37.77 40.58 40.73 47.06 47.61 45.34 48.38 49.56 49.66 50.93 50.87 50.35 48.74 53.22 54.72 59.17 58.62 59.39 62.13 61.52 61.54
47.58 49.32 49.74 46.21 45.99 44.34 44.95 46.98 43.90 45.02 45.69 45.26 45.16 45.49 43.26 44.09 46.85 43.93 45.75 44.01 44.25 43.42 41.76 40.87 38.12 37.31 35.03 41.63 42.62 39.91 44.55 47.83 49.09 51.37 50.60 46.18 49.77 55.74 57.12 58.26 57.81 59.05 60.62 61.15 62.36